# Wetter Temperatur Luftdruck Luftfeuchtigkeit Sichtweite Windgeschwindigkeit Windrichtung Zeit
1 Clouds 6 1019 50 10000 7.72 280 14:26 01.02.2023
2 Clouds 6 1017 49 10000 8.75 280 13:20 01.02.2023
3 Clouds 6 1018 49 10000 6.69 280 12:49 01.02.2023
4 Clouds 4 1018 56 10000 5.14 280 11:56 01.02.2023
5 Clouds 2 1020 66 10000 4.63 280 08:43 01.02.2023
6 Clouds 0 1017 74 10000 5.66 280 02:34 01.02.2023
7 Clouds 1 1017 75 10000 5.66 280 21:38 31.01.2023
8 Clouds 1 1018 76 10000 5.66 280 19:48 31.01.2023
9 Clouds 1 1015 75 10000 6.17 280 18:37 31.01.2023
10 Clouds 2 1016 71 10000 6.69 270 15:36 31.01.2023
11 Clouds 2 1015 71 10000 5.66 280 15:18 31.01.2023
12 Clouds 2 1015 74 10000 7.2 280 14:18 31.01.2023
13 Clouds 3 1015 67 10000 7.2 280 12:19 31.01.2023
14 Clouds 2 1014 69 10000 7.72 280 10:27 31.01.2023
15 Clouds 2 1014 75 10000 7.2 270 09:51 31.01.2023
16 Clouds 1 1016 76 10000 5.66 270 08:59 31.01.2023
17 Clouds 1 1016 76 10000 5.66 270 08:34 31.01.2023
18 Clouds 0 1014 72 10000 7.72 270 05:29 31.01.2023
19 Clouds -1 1013 78 10000 3.09 300 23:54 30.01.2023
20 Clouds -2 1013 79 10000 5.14 300 22:50 30.01.2023
21 Clouds -2 1014 80 10000 3.09 290 21:56 30.01.2023
22 Clear -2 1014 81 10000 3.09 280 20:47 30.01.2023
23 Clear -2 1014 77 10000 5.66 290 19:30 30.01.2023
24 Clouds -2 1015 78 10000 5.66 300 17:26 30.01.2023
25 Clouds 1 1015 73 10000 6.69 300 14:57 30.01.2023
26 Clouds 1 1015 69 10000 5.66 300 13:56 30.01.2023
27 Clouds 0 1017 76 10000 4.63 290 12:21 30.01.2023
28 Clouds 0 1019 79 10000 4.12 280 10:24 30.01.2023
29 Clouds -1 1020 80 10000 3.6 270 09:53 30.01.2023
30 Clouds -2 1020 85 10000 4.63 300 08:36 30.01.2023
31 Clouds -2 1018 86 10000 5.66 290 06:23 30.01.2023
32 Clouds -1 1019 80 10000 6.69 300 01:31 30.01.2023
33 Clouds -1 1020 86 10000 4.12 290 23:34 29.01.2023
34 Clouds -1 1020 86 9000 4.63 280 22:36 29.01.2023
35 Clouds -1 1020 93 9000 6.17 270 20:57 29.01.2023
36 Clouds -1 1020 93 10000 5.66 270 20:25 29.01.2023
37 Clouds -1 1020 93 10000 5.66 270 19:33 29.01.2023
38 Clouds 0 1020 86 10000 5.66 270 18:26 29.01.2023
39 Clouds 0 1022 86 10000 5.14 270 16:50 29.01.2023
40 Clouds 0 1022 83 10000 5.14 280 16:20 29.01.2023
41 Clouds 0 1022 83 10000 5.14 280 16:20 29.01.2023
42 Clouds 1 1021 81 10000 4.92 293 14:20 29.01.2023
43 Clouds 1 1021 84 10000 5.14 280 13:18 29.01.2023
44 Clouds 0 1021 86 10000 4.63 280 12:38 29.01.2023
45 Clouds 0 1022 86 10000 5.14 270 12:19 29.01.2023
46 Clouds 0 1022 85 10000 4.63 270 11:37 29.01.2023
47 Clouds 0 1022 85 10000 4.63 270 10:53 29.01.2023
48 Clouds 0 1022 94 4200 4.12 270 08:45 29.01.2023
49 Snow -1 1020 91 5000 5.36 293 04:45 29.01.2023
50 Clouds 0 1017 86 10000 5.66 280 23:51 28.01.2023
51 Clouds -1 1016 86 10000 5.14 270 20:59 28.01.2023
52 Clouds -1 1016 93 10000 4.63 270 19:57 28.01.2023
53 Clouds 0 1018 90 8000 4.63 270 19:24 28.01.2023
54 Clouds 0 1017 82 10000 5.14 270 17:44 28.01.2023
55 Clouds 0 1017 82 10000 5.66 270 16:45 28.01.2023
56 Clouds 0 1016 81 10000 6.69 270 16:19 28.01.2023
57 Clouds 1 1016 78 10000 5.66 270 15:37 28.01.2023
58 Clouds 1 1015 78 8000 5.66 270 13:50 28.01.2023
59 Clouds 1 1015 82 10000 6.17 270 12:31 28.01.2023
60 Clouds 1 1015 80 10000 5.14 280 10:35 28.01.2023
61 Clouds 1 1015 84 10000 5.66 270 09:49 28.01.2023
62 Snow -1 1012 90 10000 3.6 270 04:38 28.01.2023
63 Clouds 0 1011 87 10000 4.02 0 00:30 28.01.2023
64 Snow 0 1011 87 10000 3.09 280 23:35 27.01.2023
65 Snow 0 1010 87 10000 3.09 280 19:48 27.01.2023
66 Snow 0 1010 87 10000 5.14 270 17:58 27.01.2023
67 Snow 0 1009 87 10000 4.63 270 17:21 27.01.2023
68 Snow 0 1009 87 10000 5.14 270 16:57 27.01.2023
69 Snow 0 1008 90 10000 5.14 270 15:49 27.01.2023
70 Snow 1 1008 89 8000 4.63 270 14:28 27.01.2023
71 Snow 0 1008 87 10000 5.14 260 13:39 27.01.2023
72 Clouds 0 1009 86 10000 2.57 270 10:28 27.01.2023
73 Clouds 0 1009 95 10000 2.06 280 08:35 27.01.2023
74 Snow -1 1010 96 4000 0 0 00:40 27.01.2023
75 Snow -1 1011 96 4400 0 0 22:43 26.01.2023
76 Snow -1 1012 96 3600 3.09 100 20:57 26.01.2023
77 Snow -1 1012 96 4100 3.09 100 20:30 26.01.2023
78 Snow -1 1012 100 10000 3.6 40 18:20 26.01.2023
79 Snow 1 1014 85 8000 3.09 40 16:57 26.01.2023
80 Clouds 1 1014 81 8000 2.68 90 16:24 26.01.2023
81 Clouds 1 1015 78 8000 3.6 90 15:43 26.01.2023
82 Clouds 1 1015 77 10000 4.63 140 15:24 26.01.2023
83 Clouds 1 1016 76 10000 5.14 130 13:54 26.01.2023
84 Snow 1 1017 71 10000 5.66 130 12:33 26.01.2023
85 Snow 0 1019 75 8000 5.14 130 10:56 26.01.2023
86 Clouds 0 1019 78 10000 4.63 120 10:26 26.01.2023
87 Clouds 0 1019 77 10000 4.63 120 10:26 26.01.2023
88 Clouds 0 1019 79 10000 5.66 120 09:42 26.01.2023
89 Clouds 0 1020 82 10000 4.63 120 08:25 26.01.2023
90 Clouds -1 1024 85 10000 6.17 120 23:55 25.01.2023
91 Clouds 0 1024 85 10000 6.17 120 23:36 25.01.2023
92 Snow 0 1025 85 10000 4.63 100 21:53 25.01.2023
93 Snow 0 1026 82 10000 6.17 110 21:20 25.01.2023
94 Clouds 0 1027 83 10000 4.63 110 18:31 25.01.2023
95 Clouds 1 1027 80 10000 6.17 110 17:22 25.01.2023
96 Clouds 1 1027 80 10000 6.17 90 15:37 25.01.2023
97 Clouds 2 1028 77 10000 4.63 90 12:44 25.01.2023
98 Clouds 1 1030 84 10000 4.12 90 09:55 25.01.2023
99 Clouds 1 1030 87 10000 2.57 100 09:30 25.01.2023
100 Clouds 0 1030 88 10000 2.06 110 06:54 25.01.2023
101 Clouds 1 1030 85 10000 1.54 80 01:24 25.01.2023
102 Clouds 1 1031 86 10000 2.06 80 22:49 24.01.2023
103 Clouds 1 1031 86 10000 3.09 90 21:30 24.01.2023
104 Clouds 1 1031 85 10000 3.13 113 19:53 24.01.2023
105 Clouds 2 1031 81 10000 4.12 100 18:32 24.01.2023
106 Clouds 2 1030 83 10000 5.14 100 17:20 24.01.2023
107 Clouds 2 1030 83 10000 5.14 100 16:52 24.01.2023
108 Clouds 3 1030 84 10000 5.66 100 15:21 24.01.2023
109 Clouds 2 1030 90 10000 5.66 90 12:56 24.01.2023
110 Clouds 3 1030 90 10000 5.66 90 11:20 24.01.2023
111 Clouds 3 1030 90 10000 5.66 90 11:20 24.01.2023
112 Clouds 2 1030 86 10000 4.63 110 08:21 24.01.2023
113 Rain 3 1030 88 10000 5.14 100 07:51 24.01.2023
114 Clouds 3 1028 87 10000 6.71 90 05:22 24.01.2023
115 Clouds 4 1029 86 10000 6.17 110 01:29 24.01.2023
116 Clouds 5 1028 84 10000 6.17 120 23:51 23.01.2023
117 Clouds 5 1029 82 10000 5.66 120 22:20 23.01.2023
118 Clouds 5 1028 88 10000 6.69 130 19:46 23.01.2023
119 Clouds 6 1028 91 10000 4.63 120 18:00 23.01.2023
120 Clouds 6 1026 91 10000 6.17 120 15:38 23.01.2023
121 Drizzle 6 1026 95 7000 6.69 110 14:34 23.01.2023
122 Clouds 7 1026 86 10000 7.72 120 13:44 23.01.2023
123 Clouds 7 1026 86 10000 7.2 120 12:54 23.01.2023
124 Clouds 7 1026 84 10000 8.23 130 11:44 23.01.2023
125 Clouds 7 1026 89 10000 7.2 110 08:49 23.01.2023
126 Clouds 8 1025 84 10000 8.23 100 07:38 23.01.2023
127 Clouds 8 1023 82 10000 5.66 110 23:31 22.01.2023
128 Clouds 8 1023 88 10000 5.14 90 21:48 22.01.2023
129 Clouds 8 1023 82 10000 3.6 100 20:53 22.01.2023
130 Clouds 8 1023 85 10000 4.63 110 19:53 22.01.2023
131 Clouds 8 1023 84 10000 6.26 113 19:20 22.01.2023
132 Clouds 9 1022 80 10000 5.14 130 18:18 22.01.2023
133 Clouds 9 1022 80 10000 6.17 110 17:44 22.01.2023
134 Clouds 9 1022 80 10000 5.66 130 16:55 22.01.2023
135 Clouds 10 1021 71 10000 6.69 130 14:55 22.01.2023
136 Clouds 11 1021 70 10000 4.12 130 13:49 22.01.2023
137 Clouds 12 1021 71 10000 3.09 130 12:54 22.01.2023
138 Clouds 9 1019 81 10000 0.51 0 11:56 22.01.2023
139 Mist 8 1021 90 4100 1.03 0 09:55 22.01.2023
140 Mist 5 1019 100 2700 2.06 330 08:44 22.01.2023
141 Mist 5 1017 95 3800 0 0 02:54 22.01.2023
142 Clouds 5 1016 91 8000 1.54 350 23:42 21.01.2023
143 Clouds 6 1016 87 10000 1.54 220 22:47 21.01.2023
144 Clouds 7 1014 89 10000 1.03 60 20:48 21.01.2023
145 Clouds 8 1013 83 10000 1.79 113 18:49 21.01.2023
146 Clouds 9 1011 70 10000 6.69 130 15:19 21.01.2023
147 Clouds 10 1010 61 10000 2.68 113 13:30 21.01.2023
148 Clouds 9 1009 66 10000 1.54 0 12:42 21.01.2023
149 Clouds 7 1010 70 10000 4.63 100 11:27 21.01.2023
150 Clouds 7 1010 70 10000 7.72 110 10:46 21.01.2023
151 Clouds 7 1010 70 10000 7.72 110 10:46 21.01.2023
152 Clouds 0 1010 96 8000 1.03 0 05:40 21.01.2023
153 Clouds 2 1012 88 10000 2.06 240 22:50 20.01.2023
154 Clouds 2 1012 88 10000 3.6 240 22:26 20.01.2023
155 Clouds 2 1012 88 10000 3.6 280 21:35 20.01.2023
156 Clouds 2 1012 89 10000 3.09 250 20:39 20.01.2023
157 Clouds 3 1008 88 10000 4.12 270 17:59 20.01.2023
158 Clouds 4 1006 91 10000 5.66 310 15:26 20.01.2023
159 Clouds 4 1005 88 6000 8.75 280 14:32 20.01.2023
160 Clouds 10 1005 81 10000 7.2 110 11:18 20.01.2023
161 Rain 6 1005 96 8000 2.57 60 08:59 20.01.2023
162 Rain 6 1006 96 4500 2.06 100 07:40 20.01.2023
163 Clouds 7 1007 85 10000 6.69 90 02:32 20.01.2023
164 Clouds 7 1009 94 10000 3.09 40 22:37 19.01.2023
165 Rain 8 1009 90 9000 1.54 200 21:47 19.01.2023
166 Rain 9 1011 84 10000 3.09 180 19:38 19.01.2023
167 Clouds 10 1010 74 10000 2.57 50 18:56 19.01.2023
168 Clouds 17 1007 30 10000 5.14 0 14:26 19.01.2023
169 Clear 18 1006 27 10000 10.8 200 10:44 19.01.2023
170 Clear 14 1006 44 10000 5.14 0 08:58 19.01.2023
171 Clouds 16 1005 36 10000 5.14 30 22:42 18.01.2023
172 Clouds 11 1006 58 10000 3.09 110 20:36 18.01.2023
173 Clouds 13 1005 50 10000 2.57 0 20:18 18.01.2023
174 Clouds 13 1005 47 10000 7.72 120 19:35 18.01.2023
175 Clouds 16 1004 39 10000 5.14 140 16:47 18.01.2023
176 Clouds 16 1004 45 10000 4.12 0 14:21 18.01.2023
177 Clouds 18 1002 39 10000 5.66 150 12:50 18.01.2023
178 Clouds 15 1002 44 10000 3.09 10 10:29 18.01.2023
179 Clouds 15 999 41 10000 4.12 0 07:24 18.01.2023
180 Clouds 15 999 44 10000 8.75 110 01:25 18.01.2023
181 Clouds 15 999 44 10000 8.75 110 01:25 18.01.2023
182 Clouds 15 1000 41 10000 8.23 140 22:21 17.01.2023
183 Clouds 10 1003 68 10000 7.72 120 19:44 17.01.2023
184 Clouds 9 1001 71 10000 7.2 100 18:59 17.01.2023
185 Clouds 9 1002 71 10000 5.14 90 17:41 17.01.2023
186 Clouds 14 1001 44 10000 7.72 140 15:28 17.01.2023
187 Clouds 14 1001 44 10000 7.2 160 14:50 17.01.2023
188 Clouds 10 1002 68 10000 2.88 182 13:33 17.01.2023
189 Clouds 14 1003 44 10000 3.09 190 11:49 17.01.2023
190 Clouds 11 1003 58 10000 5.14 210 10:34 17.01.2023
191 Clouds 9 1003 66 10000 3.6 240 09:26 17.01.2023
192 Clouds 6 1004 82 10000 4.12 0 07:34 17.01.2023
193 Clouds 3 1004 91 10000 6.69 90 03:49 17.01.2023
194 Clouds 3 1005 89 10000 3.09 70 00:49 17.01.2023
195 Clouds 3 1007 88 10000 3.6 0 22:39 16.01.2023
196 Clouds 2 1007 86 10000 6.17 100 21:44 16.01.2023
197 Clouds 2 1008 87 10000 4.12 60 19:55 16.01.2023
198 Clouds 3 1007 84 10000 4.12 100 19:18 16.01.2023
199 Clouds 3 1008 86 10000 3.6 120 18:48 16.01.2023
200 Clouds 3 1008 86 10000 9.26 90 18:18 16.01.2023
201 Clouds 3 1009 85 10000 8.75 90 17:20 16.01.2023
202 Clouds 5 1009 74 10000 6.17 100 14:19 16.01.2023
203 Clouds 6 1010 71 10000 3.09 120 13:36 16.01.2023
204 Fog 2 1013 96 800 1.03 0 10:25 16.01.2023
205 Fog -1 1014 97 250 1.03 0 08:23 16.01.2023
206 Clouds -1 1017 93 6000 1.54 120 22:44 15.01.2023
207 Clear 1 1019 88 10000 1.03 0 21:23 15.01.2023
208 Clear 1 1017 93 10000 3.09 120 20:28 15.01.2023
209 Clear 0 1019 90 10000 3.09 130 19:34 15.01.2023
210 Clear 2 1019 83 10000 5.14 100 17:25 15.01.2023
211 Clouds 7 1020 66 10000 4.12 110 13:55 15.01.2023
212 Clouds 7 1021 62 10000 2.57 80 12:23 15.01.2023
213 Clouds 7 1022 67 10000 1.03 0 11:28 15.01.2023
214 Clouds 4 1021 75 10000 1.03 0 10:24 15.01.2023
215 Clouds 2 1023 89 8000 1.54 80 07:56 15.01.2023
216 Clouds 3 1023 84 10000 3.6 260 23:39 14.01.2023
217 Clouds 4 1023 81 10000 3.6 280 22:43 14.01.2023
218 Clouds 4 1023 80 10000 3.09 280 21:36 14.01.2023
219 Clouds 4 1023 77 10000 3.09 280 21:18 14.01.2023
220 Clouds 4 1023 83 8000 3.6 270 20:42 14.01.2023
221 Clouds 4 1023 80 8000 3.09 270 20:21 14.01.2023
222 Clouds 4 1022 79 10000 4.12 270 17:51 14.01.2023
223 Clouds 6 1021 72 10000 2.06 280 15:36 14.01.2023
224 Clouds 6 1021 71 10000 2.57 290 15:18 14.01.2023
225 Clouds 6 1021 70 10000 3.09 270 13:59 14.01.2023
226 Clouds 8 1022 67 10000 2.06 240 12:49 14.01.2023
227 Clouds 6 1020 70 10000 1.54 0 10:48 14.01.2023
228 Mist 3 1021 89 5000 2.06 310 08:22 14.01.2023
229 Clouds 3 1022 90 6000 1.03 20 00:56 14.01.2023
230 Clouds 4 1022 87 9000 0.51 0 22:59 13.01.2023
231 Clouds 4 1022 87 9000 0.51 0 22:41 13.01.2023
232 Clouds 4 1022 86 9000 1.03 0 21:57 13.01.2023
233 Clouds 4 1022 85 10000 1.03 270 20:33 13.01.2023
234 Clouds 5 1022 84 10000 1.03 0 19:27 13.01.2023
235 Clouds 5 1022 80 10000 1.54 320 16:58 13.01.2023
236 Clouds 5 1022 80 10000 1.54 320 16:58 13.01.2023
237 Clouds 6 1022 72 10000 1.54 280 14:52 13.01.2023
238 Clouds 7 1023 72 10000 3.09 300 12:22 13.01.2023
239 Clouds 5 1020 75 10000 3.09 280 10:37 13.01.2023
240 Clouds 5 1020 75 10000 3.09 280 10:18 13.01.2023
241 Clouds 5 1023 81 10000 3.09 280 09:39 13.01.2023
242 Clouds 4 1023 86 10000 2.57 280 08:49 13.01.2023
243 Clouds 4 1022 86 10000 2.57 280 08:49 13.01.2023
244 Clouds 3 1022 88 10000 2.57 270 06:56 13.01.2023
245 Clouds 3 1022 88 10000 2.06 280 05:45 13.01.2023
246 Clouds 2 1022 90 10000 2.06 280 00:55 13.01.2023
247 Clouds 2 1022 90 10000 3.09 260 22:46 12.01.2023
248 Clouds 2 1022 90 10000 3.09 260 22:46 12.01.2023
249 Clouds 3 1022 87 10000 4.12 270 21:19 12.01.2023
250 Clouds 3 1022 86 10000 4.12 270 20:46 12.01.2023
251 Clouds 3 1022 86 10000 4.63 270 18:26 12.01.2023
252 Clouds 4 1021 83 10000 4.63 270 16:59 12.01.2023
253 Clouds 4 1021 77 10000 4.63 270 14:54 12.01.2023
254 Clouds 5 1020 77 10000 4.12 280 14:26 12.01.2023
255 Clouds 5 1020 74 10000 5.14 270 13:38 12.01.2023
256 Clouds 5 1021 77 10000 4.63 270 11:44 12.01.2023
257 Clouds 4 1021 80 10000 3.6 280 10:24 12.01.2023
258 Clouds 2 1021 87 10000 3.6 270 06:45 12.01.2023
259 Clouds 2 1020 86 10000 3.6 260 00:31 12.01.2023
260 Clouds 2 1020 86 10000 3.6 270 23:48 11.01.2023
261 Clouds 2 1020 89 10000 3.6 270 23:30 11.01.2023
262 Clouds 2 1020 89 10000 3.6 270 23:30 11.01.2023
263 Clouds 2 1020 86 10000 3.09 270 22:50 11.01.2023
264 Clouds 3 1020 82 10000 3.6 270 20:59 11.01.2023
265 Clouds 3 1020 84 10000 2.06 310 18:50 11.01.2023
266 Clouds 4 1019 80 10000 2.06 320 17:30 11.01.2023
267 Clouds 5 1018 70 10000 3.09 270 15:31 11.01.2023
268 Clouds 5 1017 72 10000 2.06 350 13:53 11.01.2023
269 Clouds 6 1017 72 10000 2.57 290 12:21 11.01.2023
270 Clouds 5 1017 78 10000 1.03 0 10:47 11.01.2023
271 Clouds 3 1016 88 10000 1.03 80 08:21 11.01.2023
272 Clouds 2 1015 90 10000 1.54 50 07:26 11.01.2023
273 Clouds 1 1013 95 10000 1.03 150 03:56 11.01.2023
274 Clouds 2 1011 86 10000 4.12 290 22:46 10.01.2023
275 Clouds 2 1010 92 10000 4.63 270 21:44 10.01.2023
276 Rain 1 1010 96 10000 6.69 260 20:43 10.01.2023
277 Rain 1 1009 97 10000 6.69 260 19:51 10.01.2023
278 Rain 1 1009 97 3200 6.17 260 18:48 10.01.2023
279 Rain 2 1008 90 10000 6.69 270 17:59 10.01.2023
280 Clouds 4 1007 95 10000 4.12 270 16:47 10.01.2023
281 Clouds 5 1007 96 3000 3.6 260 15:31 10.01.2023
282 Clouds 5 1006 92 3600 3.09 250 14:33 10.01.2023
283 Clouds 4 1006 95 2100 2.57 270 12:25 10.01.2023
284 Clouds 4 1008 91 3500 4.12 80 09:29 10.01.2023
285 Clouds 4 1009 88 8000 4.12 90 08:35 10.01.2023
286 Clouds 3 1009 86 10000 2.57 140 07:28 10.01.2023
287 Clouds 3 1009 88 10000 6.17 110 04:58 10.01.2023
288 Clouds 3 1011 87 9000 10.29 110 23:50 09.01.2023
289 Clouds 3 1013 87 10000 8.75 100 21:53 09.01.2023
290 Clouds 3 1013 86 10000 9.77 100 20:46 09.01.2023
291 Clouds 3 1014 85 10000 8.75 90 19:33 09.01.2023
292 Clouds 3 1014 82 10000 7.72 90 17:55 09.01.2023
293 Clouds 3 1015 81 10000 8.23 90 17:28 09.01.2023
294 Clear 4 1015 76 10000 6.69 80 16:33 09.01.2023
295 Clear 5 1015 71 10000 8.23 100 15:30 09.01.2023
296 Clear 6 1016 72 10000 7.2 100 14:48 09.01.2023
297 Clear 7 1016 66 10000 6.17 110 13:39 09.01.2023
298 Clear 8 1017 63 10000 6.69 100 12:49 09.01.2023
299 Clouds 7 1016 65 10000 7.2 100 11:45 09.01.2023
300 Clouds 5 1018 75 7000 1.54 130 10:35 09.01.2023
301 Mist -4 1019 93 3000 0.51 0 06:49 09.01.2023
302 Clouds -1 1019 93 10000 1.54 180 02:54 09.01.2023
303 Clouds -2 1020 93 10000 3.6 100 00:43 09.01.2023
304 Clouds 0 1020 86 10000 2.06 120 21:41 08.01.2023
305 Clouds 0 1020 80 10000 2.57 120 21:20 08.01.2023
306 Clear 0 1020 86 10000 3.09 130 20:29 08.01.2023
307 Clear 3 1021 76 10000 1.54 80 17:53 08.01.2023
308 Clear 3 1019 75 10000 1.54 80 17:20 08.01.2023
309 Clear 7 1022 63 10000 0 0 15:43 08.01.2023
310 Clear 8 1021 57 10000 1.03 0 15:23 08.01.2023
311 Clear 10 1022 52 10000 1.03 0 13:57 08.01.2023
312 Clear 8 1020 57 10000 1.03 0 13:28 08.01.2023
313 Clear 6 1021 65 10000 1.54 310 12:19 08.01.2023
314 Mist -1 1023 100 2000 0 0 09:38 08.01.2023
315 Fog 7 1025 78 500 0 0 08:45 08.01.2023
316 Fog -6 1022 93 200 1.54 100 07:21 08.01.2023
317 Clear -2 1023 100 7000 1.54 360 23:35 07.01.2023
318 Clear -1 1023 93 10000 1.03 0 22:45 07.01.2023
319 Clear 0 1023 86 10000 1.03 0 22:18 07.01.2023
320 Clear 1 1022 86 10000 1.54 140 21:32 07.01.2023
321 Clear 2 1022 87 10000 2.06 160 20:29 07.01.2023
322 Clear 3 1025 76 10000 2.57 130 19:25 07.01.2023
323 Clear 3 1024 78 10000 3.6 90 18:21 07.01.2023
324 Clear 4 1024 74 10000 2.06 190 17:41 07.01.2023
325 Clear 6 1024 67 10000 1.54 110 16:49 07.01.2023
326 Clear 7 1024 62 10000 1.03 260 16:23 07.01.2023
327 Clear 8 1025 64 10000 2.06 250 15:39 07.01.2023
328 Clear 10 1024 56 10000 1.54 270 15:21 07.01.2023
329 Clear 10 1024 54 10000 3.09 280 13:59 07.01.2023
330 Clear 10 1022 53 10000 3.09 280 13:41 07.01.2023
331 Clear 10 1023 53 10000 2.06 0 12:58 07.01.2023
332 Clear 8 1023 61 10000 1.54 240 12:21 07.01.2023
333 Clear 4 1025 75 10000 0.51 0 10:28 07.01.2023
334 Clouds 1 1026 86 10000 1.54 90 09:22 07.01.2023
335 Clouds -3 1025 100 7000 0.51 0 07:59 07.01.2023
336 Clouds 5 1028 84 7000 0.51 0 07:40 07.01.2023
337 Clouds 2 1028 86 10000 2.06 140 05:49 07.01.2023
338 Clouds 3 1027 78 10000 0 0 22:58 06.01.2023
339 Clouds 5 1027 74 10000 1.03 0 22:21 06.01.2023
340 Clouds 5 1027 74 10000 1.03 0 22:21 06.01.2023
341 Clouds 5 1026 74 10000 3.09 310 21:44 06.01.2023
342 Clear 5 1026 70 10000 1.54 350 20:33 06.01.2023
343 Clear 7 1026 63 10000 4.12 280 19:54 06.01.2023
344 Clear 7 1026 63 10000 4.12 280 19:36 06.01.2023
345 Clear 7 1026 62 10000 4.12 280 19:18 06.01.2023
346 Clear 7 1026 61 10000 4.63 270 17:44 06.01.2023
347 Clear 8 1025 59 10000 4.63 280 16:52 06.01.2023
348 Clouds 8 1025 57 10000 4.63 280 16:21 06.01.2023
349 Clouds 9 1025 55 10000 7.2 280 15:51 06.01.2023
350 Clouds 9 1025 54 10000 7.2 280 15:22 06.01.2023
351 Clear 11 1024 50 10000 9.77 280 12:55 06.01.2023
352 Clear 10 1023 50 10000 8.75 280 11:19 06.01.2023
353 Clear 9 1023 57 10000 7.72 270 09:56 06.01.2023
354 Clouds 8 1022 61 10000 5.66 280 08:30 06.01.2023
355 Clouds 8 1023 73 10000 3.6 20 03:40 06.01.2023
356 Clouds 4 1022 83 10000 2.06 300 22:56 05.01.2023
357 Clouds 4 1021 84 10000 2.57 300 21:55 05.01.2023
358 Clear 5 1020 79 10000 2.57 280 19:49 05.01.2023
359 Clear 7 1020 71 10000 2.57 270 17:28 05.01.2023
360 Clear 9 1020 66 10000 2.06 320 16:30 05.01.2023
361 Clear 10 1020 62 10000 2.57 320 15:48 05.01.2023
362 Clear 11 1020 59 10000 3.6 300 14:53 05.01.2023
363 Clear 11 1019 58 10000 4.12 300 12:49 05.01.2023
364 Clouds 10 1019 62 10000 3.6 300 12:27 05.01.2023
365 Clouds 6 1022 87 10000 1.54 300 09:55 05.01.2023
366 Mist 5 1024 94 5000 1.54 20 08:41 05.01.2023
367 Clouds 3 1024 92 7000 1.54 220 07:20 05.01.2023
368 Clouds 4 1025 95 6000 1.03 320 06:36 05.01.2023
369 Clouds 6 1028 86 9000 2.06 280 23:26 04.01.2023
370 Clouds 6 1029 86 9000 2.57 280 21:33 04.01.2023
371 Clouds 6 1029 86 8000 3.09 260 20:58 04.01.2023
372 Clouds 7 1029 83 10000 1.54 270 19:57 04.01.2023
373 Clouds 7 1029 82 10000 2.06 280 19:33 04.01.2023
374 Clouds 7 1029 82 10000 3.09 260 18:37 04.01.2023
375 Clouds 8 1029 78 10000 3.6 290 16:32 04.01.2023
376 Clouds 8 1029 78 10000 3.6 290 16:32 04.01.2023
377 Clouds 8 1029 77 10000 2.57 290 15:55 04.01.2023
378 Clouds 9 1029 73 10000 3.09 280 14:39 04.01.2023
379 Clouds 9 1030 76 10000 5.14 270 11:41 04.01.2023
380 Clouds 8 1030 75 10000 5.66 280 11:20 04.01.2023
381 Clouds 8 1030 77 10000 5.14 290 10:43 04.01.2023
382 Clouds 8 1030 77 10000 4.12 300 10:22 04.01.2023
383 Clouds 7 1030 85 6000 2.06 340 08:49 04.01.2023
384 Clouds 0 1027 100 6000 1.03 0 02:53 04.01.2023
385 Mist 0 1027 100 5000 1.03 110 00:31 04.01.2023
386 Mist 10 1030 78 5000 1.03 100 23:34 03.01.2023
387 Mist 10 1030 75 4900 1.03 140 22:41 03.01.2023
388 Mist 10 1030 71 4200 1.03 0 20:53 03.01.2023
389 Mist 7 1028 78 5000 0 0 19:23 03.01.2023
390 Clouds 8 1028 77 7000 1.54 80 17:36 03.01.2023
391 Clouds 12 1027 60 8000 1.03 70 15:54 03.01.2023
392 Clouds 11 1027 63 9000 0.51 0 13:53 03.01.2023
393 Clouds 12 1028 61 9000 1.03 0 13:30 03.01.2023
394 Clouds 11 1028 73 6000 1.03 0 12:57 03.01.2023
395 Mist 4 1027 100 2500 1.03 0 12:29 03.01.2023
396 Clouds 11 1027 55 10000 1.66 283 10:32 03.01.2023
397 Fog -3 1028 93 300 0 0 06:41 03.01.2023
398 Fog -3 1027 100 700 0 0 04:18 03.01.2023
399 Clouds 6 1028 72 10000 0.91 253 03:42 03.01.2023
400 Fog -2 1028 100 200 1.54 150 00:36 03.01.2023
401 Fog -1 1028 100 250 1.03 0 22:42 02.01.2023
402 Fog -1 1029 100 300 1.03 0 22:18 02.01.2023
403 Mist 1 1029 100 1200 0 0 20:40 02.01.2023
404 Mist 1 1029 100 5000 0 0 19:44 02.01.2023
405 Clear 5 1028 87 10000 1.03 80 17:18 02.01.2023
406 Clear 10 1030 65 10000 1.03 0 14:52 02.01.2023
407 Clear 11 1031 62 10000 0 0 13:23 02.01.2023
408 Mist 4 1030 100 2200 0.51 0 11:41 02.01.2023
409 Clouds 10 1030 54 10000 0.68 272 10:34 02.01.2023
410 Fog -2 1032 100 400 1.54 80 07:33 02.01.2023
411 Fog -1 1031 100 350 1.54 160 00:58 02.01.2023
412 Mist 1 1031 100 2400 1.03 0 21:58 01.01.2023
413 Mist 2 1031 100 2300 1.54 340 21:24 01.01.2023
414 Mist 2 1031 100 3000 0 0 20:46 01.01.2023
415 Mist 2 1031 93 5000 0.51 0 19:42 01.01.2023
416 Clear 4 1031 87 10000 0 0 17:55 01.01.2023
417 Clear 6 1033 80 10000 0 0 17:20 01.01.2023
418 Clear 8 1032 71 10000 1.54 60 16:32 01.01.2023
419 Clear 11 1032 63 10000 1.03 0 14:47 01.01.2023
420 Clear 12 1033 60 10000 1.03 0 13:37 01.01.2023
421 Clear 8 1032 71 8000 1.03 0 12:33 01.01.2023
422 Clear 7 1032 76 6000 0.51 0 11:36 01.01.2023
423 Clear 7 1032 76 6000 0.51 0 11:36 01.01.2023
424 Fog 1 1033 100 1500 0 0 10:23 01.01.2023
425 Fog 7 1036 83 250 0 0 08:48 01.01.2023
426 Fog 5 1036 92 800 1.03 0 08:18 01.01.2023
427 Fog -3 1032 100 250 1.03 90 06:54 01.01.2023
428 Mist 0 1032 100 3700 1.54 260 00:44 01.01.2023
429 Mist 0 1032 100 5000 2.06 160 23:41 31.12.2022
430 Clouds 1 1031 93 6000 1.03 0 22:31 31.12.2022
431 Mist 2 1031 100 5000 1.54 150 21:25 31.12.2022
432 Clouds 2 1031 93 7000 1.54 130 20:43 31.12.2022
433 Clear 5 1034 81 6000 1.03 0 19:32 31.12.2022
434 Clear 6 1034 77 10000 1.54 210 18:40 31.12.2022
435 Clear 6 1032 79 10000 2.06 190 18:18 31.12.2022
436 Clear 6 1032 79 10000 2.06 150 17:43 31.12.2022
437 Clear 7 1031 73 8000 2.06 80 16:38 31.12.2022
438 Clear 8 1032 70 10000 2.06 160 15:59 31.12.2022
439 Clear 12 1032 61 10000 1.03 0 14:35 31.12.2022
440 Clear 11 1029 58 10000 1.03 0 13:28 31.12.2022
441 Clear 11 1029 58 10000 1.54 290 12:39 31.12.2022
442 Clear 10 1029 62 10000 1.54 0 12:19 31.12.2022
443 Clear 10 1030 62 10000 1.03 0 11:45 31.12.2022
444 Clear 5 1031 81 8000 0.51 0 10:23 31.12.2022
445 Clear 5 1031 81 8000 1.03 0 09:51 31.12.2022
446 Mist 3 1030 87 5000 0 0 08:44 31.12.2022
447 Mist 0 1029 100 5000 2.06 150 06:51 31.12.2022
448 Clouds 3 1031 87 6000 0.51 0 00:34 31.12.2022
449 Clouds 4 1030 85 7000 1.03 0 23:40 30.12.2022
450 Clouds 5 1030 82 7000 1.54 110 22:22 30.12.2022
451 Clouds 5 1030 83 6000 1.54 60 21:41 30.12.2022
452 Clouds 5 1030 82 7000 1.54 100 21:21 30.12.2022
453 Clouds 6 1029 81 8000 1.54 140 18:51 30.12.2022
454 Clouds 7 1027 77 9000 2.06 60 17:35 30.12.2022
455 Clouds 8 1027 73 10000 1.03 0 16:50 30.12.2022
456 Clouds 10 1027 66 10000 1.54 170 15:18 30.12.2022
457 Clouds 10 1024 66 10000 1.03 0 13:29 30.12.2022
458 Fog 5 1029 93 250 1.03 0 08:25 30.12.2022
459 Clouds 3 1028 89 7000 1.03 120 04:24 30.12.2022
460 Clouds 5 1028 87 7000 1.54 110 02:28 30.12.2022
461 Clouds 5 1028 86 6000 2.57 50 23:46 29.12.2022
462 Clouds 5 1028 86 8000 0 0 22:28 29.12.2022
463 Clouds 5 1028 85 8000 1.54 100 21:28 29.12.2022
464 Clouds 5 1028 84 7000 1.54 160 20:53 29.12.2022
465 Clouds 5 1028 84 7000 2.57 160 19:22 29.12.2022
466 Clouds 5 1027 83 9000 1.03 0 17:53 29.12.2022
467 Clouds 6 1027 83 10000 1.03 0 17:27 29.12.2022
468 Clouds 6 1027 79 10000 0.51 0 16:54 29.12.2022
469 Clouds 9 1027 69 10000 1.54 10 15:57 29.12.2022
470 Clouds 10 1027 59 10000 1.54 320 13:42 29.12.2022
471 Clouds 8 1026 66 10000 0.51 0 11:54 29.12.2022
472 Clouds 6 1027 70 10000 0 0 09:53 29.12.2022
473 Clouds 1 1028 91 10000 2.57 130 05:20 29.12.2022
474 Clouds 3 1029 88 10000 2.57 100 23:29 28.12.2022
475 Clouds 3 1029 86 10000 4.12 100 22:20 28.12.2022
476 Clouds 5 1029 83 10000 5.14 100 21:20 28.12.2022
477 Clouds 5 1029 83 10000 3.6 110 20:19 28.12.2022
478 Clouds 5 1029 84 10000 1.03 0 18:31 28.12.2022
479 Clouds 6 1028 79 10000 1.54 310 16:22 28.12.2022
480 Clouds 7 1028 68 10000 1.03 110 14:26 28.12.2022
481 Clouds 8 1029 66 10000 1.54 30 12:48 28.12.2022
482 Clouds 7 1029 70 10000 2.06 300 11:33 28.12.2022
483 Clouds 7 1030 72 10000 2.06 290 09:34 28.12.2022
484 Clouds 5 1030 82 10000 1.54 80 07:43 28.12.2022
485 Clouds 5 1029 79 10000 2.06 310 06:45 28.12.2022
486 Clouds 5 1029 89 7000 1.54 90 01:18 28.12.2022
487 Clouds 6 1029 77 10000 3.09 270 22:28 27.12.2022
488 Clouds 8 1028 68 10000 3.09 310 19:51 27.12.2022
489 Clouds 9 1027 73 10000 5.14 270 18:41 27.12.2022
490 Clouds 10 1027 71 10000 4.63 270 16:59 27.12.2022
491 Clouds 11 1026 68 10000 4.63 280 15:55 27.12.2022
492 Clouds 12 1026 61 10000 0 0 14:25 27.12.2022
493 Clouds 8 1024 66 10000 2.06 50 12:23 27.12.2022
494 Clear 12 1028 62 7000 0.51 0 09:48 27.12.2022
495 Mist 10 1028 71 5000 1.54 30 09:24 27.12.2022
496 Mist 6 1028 89 4700 1.03 0 08:47 27.12.2022
497 Mist -3 1025 100 4600 0 0 04:54 27.12.2022
498 Mist -1 1025 100 4600 0 0 23:39 26.12.2022
499 Clouds 0 1025 100 6000 1.03 0 21:50 26.12.2022
500 Clouds 0 1025 93 7000 1.03 110 20:43 26.12.2022
501 Clear 1 1025 93 7000 0.51 0 19:51 26.12.2022
502 Clear 1 1026 93 7000 1.03 0 18:42 26.12.2022
503 Clear 5 1027 73 10000 1.03 0 16:53 26.12.2022
504 Clear 8 1027 64 10000 1.54 100 15:37 26.12.2022
505 Clear 11 1028 56 10000 1.03 0 12:58 26.12.2022
506 Clear 2 1028 93 8000 2.06 40 09:44 26.12.2022
507 Clear -2 1027 100 6000 0.51 0 05:41 26.12.2022
508 Clear 2 1029 84 10000 2.06 140 23:39 25.12.2022
509 Clear 3 1029 83 8000 2.57 160 22:48 25.12.2022
510 Clear 3 1029 80 9000 2.57 120 22:19 25.12.2022
511 Clear 7 1028 69 10000 2.06 320 19:38 25.12.2022
512 Clear 8 1026 67 10000 4.12 280 17:52 25.12.2022
513 Clear 8 1026 67 10000 4.12 280 17:34 25.12.2022
514 Clear 8 1026 67 10000 4.63 250 16:38 25.12.2022
515 Clouds 12 1025 57 10000 6.17 280 13:28 25.12.2022
516 Clear 10 1024 66 10000 7.2 270 11:21 25.12.2022
517 Clear 6 1022 86 10000 3.6 300 03:20 25.12.2022
518 Clouds 7 1021 89 10000 2.57 310 22:39 24.12.2022
519 Clouds 7 1020 87 10000 4.63 280 19:52 24.12.2022
520 Clouds 6 1019 93 4600 1.03 0 16:59 24.12.2022
521 Clouds 7 1018 73 8000 1.03 20 14:56 24.12.2022
522 Clouds 9 1017 69 8000 1.03 0 13:56 24.12.2022
523 Clouds 6 1018 82 6000 0.51 0 11:44 24.12.2022
524 Mist 4 1018 89 1900 2.06 110 10:23 24.12.2022
525 Mist 7 1019 77 1200 1.54 30 09:37 24.12.2022
526 Fog 2 1019 93 300 0 0 07:59 24.12.2022
527 Mist -3 1015 100 4400 1.03 160 02:51 24.12.2022
528 Mist -2 1016 100 3900 1.03 130 00:18 24.12.2022
529 Mist 1 1019 88 4700 1.54 170 22:30 23.12.2022
530 Mist 2 1018 85 5000 1.03 0 20:55 23.12.2022
531 Mist 5 1018 81 5000 2.06 190 19:40 23.12.2022
532 Clouds 5 1018 79 6000 2.06 170 19:21 23.12.2022
533 Clouds 6 1018 76 7000 1.03 0 18:53 23.12.2022
534 Clouds 5 1017 79 7000 2.57 90 18:21 23.12.2022
535 Clouds 5 1015 75 7000 1.54 120 16:39 23.12.2022
536 Clouds 7 1014 65 8000 2.06 80 15:43 23.12.2022
537 Clouds 6 1015 61 8000 1.03 0 12:18 23.12.2022
538 Clouds 2 1016 80 7000 1.54 120 09:42 23.12.2022
539 Clouds 0 1016 86 7000 1.54 130 09:23 23.12.2022
540 Clouds 2 1018 86 7000 1.03 0 07:19 23.12.2022
541 Clouds 2 1018 86 8000 1.03 0 06:48 23.12.2022
542 Clouds -2 1016 93 7000 1.54 80 23:23 22.12.2022
543 Clouds -2 1016 93 6000 2.06 130 22:57 22.12.2022
544 Mist -3 1017 93 5000 0.51 0 21:48 22.12.2022
545 Mist -2 1016 93 5000 1.54 140 19:43 22.12.2022
546 Clouds -2 1016 93 6000 1.03 0 19:18 22.12.2022
547 Clear 1 1018 74 10000 0 0 17:31 22.12.2022
548 Clear 2 1018 69 10000 0 0 16:39 22.12.2022
549 Clear 5 1018 60 10000 1.54 80 15:35 22.12.2022
550 Clear 7 1018 55 10000 1.03 0 14:51 22.12.2022
551 Clear 8 1018 52 10000 0.51 0 13:34 22.12.2022
552 Clear 8 1019 57 10000 1.03 0 12:59 22.12.2022
553 Clouds 1 1018 75 8000 1.03 0 10:51 22.12.2022
554 Clouds 0 1019 80 8000 0 0 10:30 22.12.2022
555 Clouds -2 1019 86 8000 0 0 09:21 22.12.2022
556 Clouds 3 1022 79 7000 0 0 08:27 22.12.2022
557 Mist -5 1019 93 3500 0.51 0 05:28 22.12.2022
558 Mist -5 1019 93 3400 0 0 04:18 22.12.2022
559 Mist -4 1020 100 3400 0 0 23:51 21.12.2022
560 Mist -3 1020 93 4800 0 0 21:58 21.12.2022
561 Clear -2 1020 93 6000 1.03 310 21:23 21.12.2022
562 Mist -1 1023 82 5000 0 0 20:52 21.12.2022
563 Mist -3 1020 93 5000 0 0 20:18 21.12.2022
564 Clear -2 1020 93 7000 1.03 70 19:43 21.12.2022
565 Clear -1 1020 86 7000 0 0 19:23 21.12.2022
566 Clear -1 1020 80 7000 1.54 130 18:45 21.12.2022
567 Clear 0 1021 74 8000 1.54 120 17:36 21.12.2022
568 Clear 5 1023 56 10000 0.51 0 14:41 21.12.2022
569 Clear 6 1023 55 10000 1.54 140 12:58 21.12.2022
570 Clear 2 1023 69 10000 1.54 350 11:42 21.12.2022
571 Clear 1 1023 69 10000 1.54 360 11:19 21.12.2022
572 Clear -2 1025 86 10000 0.51 0 09:25 21.12.2022
573 Mist -6 1025 93 5000 0 0 07:30 21.12.2022
574 Clear -4 1027 93 8000 1.54 330 01:56 21.12.2022
575 Clouds -4 1028 86 10000 2.06 170 22:43 20.12.2022
576 Clouds -3 1031 81 10000 2.57 130 21:20 20.12.2022
577 Clear -2 1031 79 10000 3.6 120 20:22 20.12.2022
578 Clear -2 1032 75 10000 2.57 120 18:50 20.12.2022
579 Clear -1 1032 74 10000 3.09 110 18:28 20.12.2022
580 Clear -1 1032 70 10000 3.09 90 17:52 20.12.2022
581 Clear -1 1033 68 10000 3.09 90 17:32 20.12.2022
582 Clear 1 1033 61 10000 2.57 130 16:32 20.12.2022
583 Clear 2 1033 60 10000 3.6 140 15:27 20.12.2022
584 Clear 3 1033 57 10000 4.12 110 14:37 20.12.2022
585 Clear 3 1034 53 10000 5.14 100 13:58 20.12.2022
586 Clear 7 1034 50 10000 4.63 100 12:44 20.12.2022
587 Clear 6 1035 48 10000 5.14 100 12:23 20.12.2022
588 Clear 1 1033 60 10000 5.14 90 11:28 20.12.2022
589 Clear -1 1036 75 10000 4.12 100 08:23 20.12.2022
590 Clouds -2 1038 83 10000 5.14 90 00:27 20.12.2022
591 Clouds 0 1038 74 10000 3.6 120 22:36 19.12.2022
592 Clouds 0 1038 70 10000 5.66 110 21:39 19.12.2022
593 Clouds 1 1038 75 10000 4.63 90 19:53 19.12.2022
594 Clouds 1 1038 76 10000 4.63 90 19:31 19.12.2022
595 Clouds 1 1038 79 10000 4.12 100 18:24 19.12.2022
596 Clouds 2 1037 73 10000 5.14 100 16:31 19.12.2022
597 Clouds 3 1037 77 10000 4.63 90 13:22 19.12.2022
598 Clouds 2 1037 77 10000 4.12 90 11:55 19.12.2022
599 Clouds 0 1039 79 10000 1.03 350 08:47 19.12.2022
600 Clouds 0 1038 81 10000 1.54 300 07:25 19.12.2022
601 Clouds 0 1036 77 10000 4.63 270 00:56 19.12.2022
602 Clouds 1 1036 75 10000 5.66 270 21:50 18.12.2022
603 Clouds 1 1036 75 10000 5.66 270 21:31 18.12.2022
604 Clouds 2 1035 71 10000 5.66 270 20:57 18.12.2022
605 Clouds 2 1035 70 10000 5.14 260 19:45 18.12.2022
606 Clouds 3 1035 68 10000 5.14 270 19:23 18.12.2022
607 Clouds 3 1034 70 10000 5.66 270 17:52 18.12.2022
608 Clouds 4 1033 71 10000 4.12 280 16:18 18.12.2022
609 Clouds 4 1033 71 10000 4.12 270 15:37 18.12.2022
610 Clouds 4 1033 71 10000 4.63 260 15:18 18.12.2022
611 Clouds 4 1032 71 10000 5.66 270 13:29 18.12.2022
612 Clouds 5 1032 70 10000 6.69 270 12:51 18.12.2022
613 Clouds 5 1033 74 10000 5.66 270 11:51 18.12.2022
614 Clouds 4 1033 81 10000 6.17 270 10:18 18.12.2022
615 Clouds 4 1032 81 10000 6.17 270 08:46 18.12.2022
616 Clouds 3 1030 83 10000 6.17 270 07:20 18.12.2022
617 Clouds 3 1029 85 10000 6.69 270 06:19 18.12.2022
618 Clouds 5 1026 91 10000 5.66 270 01:57 18.12.2022
619 Clouds 7 1025 92 10000 4.63 270 23:32 17.12.2022
620 Clouds 7 1023 97 6000 0.51 0 21:18 17.12.2022
621 Fog 8 1020 96 2800 1.54 290 17:56 17.12.2022
622 Clouds 10 1019 94 10000 1.03 0 15:48 17.12.2022
623 Clouds 12 1019 83 10000 3.09 0 13:33 17.12.2022
624 Rain 12 1017 76 10000 5.66 320 11:23 17.12.2022
625 Clouds 14 1018 74 10000 4.63 320 10:44 17.12.2022
626 Clouds 11 1015 82 10000 7.2 80 09:40 17.12.2022
627 Clear 7 1016 97 10000 2.57 0 07:24 17.12.2022
628 Clear 7 1016 97 10000 2.57 0 07:23 17.12.2022
629 Clear 7 1015 97 10000 2.57 330 06:44 17.12.2022
630 Clouds 7 1017 90 10000 3.6 0 23:20 16.12.2022
631 Clear 8 1016 89 10000 3.6 90 20:30 16.12.2022
632 Clear 10 1016 82 10000 7.2 120 18:41 16.12.2022
633 Clouds 12 1016 78 10000 4.12 100 15:36 16.12.2022
634 Clouds 12 1016 76 10000 5.66 90 14:46 16.12.2022
635 Clear 13 1016 70 10000 2.06 110 13:22 16.12.2022
636 Clouds 16 1017 64 7000 1.54 0 11:57 16.12.2022
637 Mist 4 1015 100 1900 3.09 300 09:41 16.12.2022
638 Fog 2 1015 100 600 3.09 0 08:50 16.12.2022
639 Fog 5 1018 95 900 2.06 290 07:55 16.12.2022
640 Fog 4 1018 95 600 2.06 0 06:46 16.12.2022
641 Fog 4 1018 93 800 1.03 0 22:50 15.12.2022
642 Mist 3 1018 93 1900 0 0 21:41 15.12.2022
643 Mist 3 1018 92 2000 0.51 0 19:57 15.12.2022
644 Mist 3 1017 96 4000 0 0 18:54 15.12.2022
645 Clouds 3 1016 95 6000 0 0 17:28 15.12.2022
646 Clouds 5 1016 91 9000 0.51 280 16:25 15.12.2022
647 Clouds 7 1015 83 10000 1.54 70 14:57 15.12.2022
648 Clouds 7 1014 83 10000 2.06 150 12:55 15.12.2022
649 Clouds 7 1014 83 10000 1.54 100 12:24 15.12.2022
650 Clouds 5 1014 93 7000 2.06 230 09:00 15.12.2022
651 Clouds 3 1014 93 7000 2.06 230 08:33 15.12.2022
652 Clouds 2 1009 93 10000 4.63 90 05:45 15.12.2022
653 Rain 1 1009 92 7000 8.23 110 00:59 15.12.2022
654 Rain 1 1011 88 10000 7.72 110 21:24 14.12.2022
655 Rain 1 1012 87 8000 7.72 110 20:50 14.12.2022
656 Rain 1 1012 83 10000 5.66 110 19:53 14.12.2022
657 Clouds 1 1013 76 10000 6.69 110 17:41 14.12.2022
658 Clouds 1 1013 76 10000 6.69 110 16:54 14.12.2022
659 Clouds 2 1014 77 10000 6.69 100 14:58 14.12.2022
660 Clouds 2 1014 78 10000 6.69 100 13:19 14.12.2022
661 Clouds 1 1015 85 8000 4.12 130 10:55 14.12.2022
662 Clouds 0 1016 89 3500 5.66 110 10:23 14.12.2022
663 Snow -1 1015 90 1000 6.69 110 07:44 14.12.2022
664 Clouds 0 1015 81 10000 3.09 110 22:19 13.12.2022
665 Clouds -1 1015 83 10000 1.54 140 21:37 13.12.2022
666 Clouds -1 1015 84 8000 2.57 120 20:47 13.12.2022
667 Clouds -1 1014 88 7000 3.6 110 19:25 13.12.2022
668 Clear -1 1014 79 10000 1.03 0 16:40 13.12.2022
669 Clouds 1 1014 68 10000 1.03 0 14:59 13.12.2022
670 Clouds 1 1014 72 10000 1.54 310 13:37 13.12.2022
671 Clouds -1 1013 74 10000 2.06 310 10:49 13.12.2022
672 Clouds -1 1013 80 10000 2.06 260 10:26 13.12.2022
673 Clouds -2 1015 89 10000 3.6 270 08:30 13.12.2022
674 Clouds -1 1011 96 10000 5.14 270 22:37 12.12.2022
675 Clouds -1 1011 96 10000 5.14 270 22:37 12.12.2022
676 Clouds 0 1011 97 5000 3.09 270 21:58 12.12.2022
677 Clouds 1 1011 93 1700 4.63 280 20:30 12.12.2022
678 Drizzle 3 1006 87 10000 5.14 270 18:25 12.12.2022
679 Clouds 5 1007 82 10000 2.06 320 15:41 12.12.2022
680 Clouds 6 1007 82 10000 0 0 13:51 12.12.2022
681 Clouds 4 1010 94 6000 0 0 09:21 12.12.2022
682 Mist 3 1009 94 5000 0.51 0 08:56 12.12.2022
683 Clouds 2 1007 92 8000 2.06 140 04:48 12.12.2022
684 Clouds 2 1005 90 10000 1.03 0 01:50 12.12.2022
685 Clouds 3 1005 87 10000 4.63 240 22:18 11.12.2022
686 Clouds 2 1001 87 10000 3.6 250 20:34 11.12.2022
687 Clouds 3 1004 88 10000 5.66 260 19:38 11.12.2022
688 Clouds 3 1004 88 10000 5.66 260 19:38 11.12.2022
689 Clouds 3 1004 88 10000 6.17 270 18:34 11.12.2022
690 Clouds 3 1003 90 10000 7.72 270 17:34 11.12.2022
691 Clouds 4 999 93 10000 9.26 270 16:53 11.12.2022
692 Clouds 5 998 93 10000 8.75 260 16:29 11.12.2022
693 Clouds 5 998 93 10000 8.23 260 15:44 11.12.2022
694 Clouds 12 997 78 10000 5.14 320 13:35 11.12.2022
695 Clouds 15 995 63 10000 2.06 30 12:41 11.12.2022
696 Clouds 16 998 59 10000 5.66 220 10:25 11.12.2022
697 Clouds 10 997 90 10000 3.09 250 00:57 11.12.2022
698 Clouds 10 999 93 10000 2.57 90 00:22 11.12.2022
699 Clouds 10 1000 92 10000 2.06 0 22:35 10.12.2022
700 Clouds 10 1001 92 10000 1.54 110 21:59 10.12.2022
701 Clouds 10 1002 91 10000 2.57 90 20:59 10.12.2022
702 Clouds 10 1003 91 10000 1.54 170 20:19 10.12.2022
703 Clouds 12 1005 80 10000 5.66 110 17:50 10.12.2022
704 Clouds 12 1005 79 10000 4.12 70 16:38 10.12.2022
705 Clouds 14 1006 76 10000 4.12 60 15:41 10.12.2022
706 Clouds 14 1006 76 10000 4.12 60 15:21 10.12.2022
707 Clouds 14 1007 75 10000 2.57 350 13:38 10.12.2022
708 Clouds 14 1007 77 10000 2.57 70 12:21 10.12.2022
709 Clouds 13 1010 86 10000 3.09 80 10:52 10.12.2022
710 Clouds 12 1011 85 10000 1.54 120 09:43 10.12.2022
711 Clouds 10 1012 89 10000 3.09 50 07:22 10.12.2022
712 Clouds 10 1012 87 10000 1.54 0 04:57 10.12.2022
713 Clouds 8 1013 87 10000 1.54 0 23:38 09.12.2022
714 Clouds 7 1013 89 10000 1.54 140 22:42 09.12.2022
715 Clouds 8 1013 83 10000 2.06 0 21:28 09.12.2022
716 Clear 8 1013 84 10000 2.57 0 20:58 09.12.2022
717 Clouds 8 1014 85 10000 2.06 330 19:46 09.12.2022
718 Clouds 9 1013 77 10000 5.14 90 17:56 09.12.2022
719 Clouds 10 1014 79 10000 3.6 80 16:47 09.12.2022
720 Clouds 10 1014 75 10000 3.09 50 16:18 09.12.2022
721 Clouds 11 1014 77 10000 2.06 360 15:24 09.12.2022
722 Clouds 12 1016 69 10000 2.24 90 12:25 09.12.2022
723 Clouds 7 1015 87 7000 1.03 0 10:48 09.12.2022
724 Clouds 10 1019 87 6000 1.54 30 09:44 09.12.2022
725 Mist 4 1017 96 5000 1.54 110 05:37 09.12.2022
726 Mist 4 1017 96 5000 1.03 0 03:18 09.12.2022
727 Clouds 5 1017 91 10000 4.12 90 22:41 08.12.2022
728 Clouds 6 1016 88 10000 4.63 100 20:51 08.12.2022
729 Clouds 7 1016 82 10000 2.57 80 18:41 08.12.2022
730 Clouds 9 1015 75 10000 1.03 0 15:45 08.12.2022
731 Clouds 11 1016 70 10000 0.51 0 14:28 08.12.2022
732 Clouds 7 1015 81 7000 1.03 0 11:42 08.12.2022
733 Mist 7 1018 82 5000 0.51 0 10:22 08.12.2022
734 Mist 7 1019 80 2000 0.51 0 09:27 08.12.2022
735 Fog 0 1017 97 4200 0 0 02:56 08.12.2022
736 Clouds 3 1017 92 8000 2.57 110 22:19 07.12.2022
737 Clear 3 1016 92 9000 2.06 130 21:50 07.12.2022
738 Clouds 4 1016 92 10000 3.09 110 21:31 07.12.2022
739 Clear 5 1016 89 10000 3.09 80 19:44 07.12.2022
740 Clear 5 1015 89 10000 1.54 70 17:37 07.12.2022
741 Clouds 10 1015 72 10000 0.51 0 14:41 07.12.2022
742 Clouds 9 1016 75 10000 1.54 90 12:37 07.12.2022
743 Clouds 7 1017 84 10000 1.54 110 10:43 07.12.2022
744 Clouds 6 1018 84 8000 1.54 100 09:51 07.12.2022
745 Mist 5 1018 93 5000 1.03 20 08:47 07.12.2022
746 Mist 3 1017 96 5000 1.03 90 06:48 07.12.2022
747 Clouds 3 1018 96 7000 1.03 340 05:23 07.12.2022
748 Clouds 5 1019 89 10000 2.57 130 22:41 06.12.2022
749 Clouds 4 1019 91 10000 2.57 110 20:48 06.12.2022
750 Clear 4 1020 88 10000 4.12 110 18:21 06.12.2022
751 Clouds 5 1020 85 10000 3.09 130 16:42 06.12.2022
752 Clouds 7 1020 79 10000 3.6 110 15:52 06.12.2022
753 Clouds 7 1020 78 10000 3.6 110 15:33 06.12.2022
754 Clouds 8 1020 74 10000 3.09 100 14:28 06.12.2022
755 Clouds 9 1021 70 10000 4.63 100 12:59 06.12.2022
756 Clouds 9 1021 70 10000 4.63 100 12:40 06.12.2022
757 Clouds 7 1023 77 10000 5.14 120 09:41 06.12.2022
758 Clouds 5 1024 86 10000 2.57 120 06:32 06.12.2022
759 Clouds 4 1025 90 10000 2.57 120 01:26 06.12.2022
760 Clouds 5 1026 88 10000 3.6 120 22:36 05.12.2022
761 Clouds 5 1027 88 10000 3.09 120 20:56 05.12.2022
762 Clouds 5 1027 88 10000 2.57 120 20:26 05.12.2022
763 Clouds 5 1027 88 10000 2.57 110 19:45 05.12.2022
764 Clouds 5 1027 88 10000 3.09 90 17:56 05.12.2022
765 Clouds 5 1027 90 10000 3.6 100 16:47 05.12.2022
766 Clouds 6 1027 84 10000 5.14 100 15:22 05.12.2022
767 Clouds 6 1027 82 10000 4.63 110 12:59 05.12.2022
768 Clouds 6 1027 82 10000 4.63 110 12:40 05.12.2022
769 Clouds 6 1028 81 10000 4.63 100 12:19 05.12.2022
770 Clouds 6 1028 81 10000 4.12 100 10:58 05.12.2022
771 Clouds 4 1028 91 10000 5.66 100 00:21 05.12.2022
772 Clouds 4 1028 90 10000 5.66 90 22:45 04.12.2022
773 Rain 5 1028 87 10000 7.72 100 22:20 04.12.2022
774 Rain 5 1028 87 10000 7.72 100 22:20 04.12.2022
775 Clouds 5 1028 86 10000 7.2 100 21:59 04.12.2022
776 Clouds 5 1028 85 10000 7.2 100 20:49 04.12.2022
777 Clouds 5 1027 87 10000 8.75 100 19:28 04.12.2022
778 Clouds 5 1028 87 10000 7.72 100 18:59 04.12.2022
779 Clouds 5 1027 86 10000 7.72 100 17:23 04.12.2022
780 Clouds 5 1027 85 10000 8.23 110 16:54 04.12.2022
781 Clouds 5 1027 85 10000 8.23 110 16:36 04.12.2022
782 Clouds 5 1027 85 10000 8.75 110 16:18 04.12.2022
783 Clouds 6 1027 79 10000 8.75 100 14:43 04.12.2022
784 Clouds 7 1027 75 10000 8.75 110 13:30 04.12.2022
785 Clouds 7 1025 76 10000 8.75 110 12:43 04.12.2022
786 Clouds 7 1025 81 10000 9.77 100 11:51 04.12.2022
787 Clouds 7 1028 82 10000 7.2 100 09:20 04.12.2022
788 Clouds 4 1028 91 10000 5.66 100 07:27 04.12.2022
789 Clouds 3 1028 91 10000 5.14 100 00:45 04.12.2022
790 Clouds 5 1028 88 10000 5.14 100 23:33 03.12.2022
791 Clouds 6 1028 86 10000 6.17 100 21:59 03.12.2022
792 Clouds 6 1028 86 10000 5.66 100 21:21 03.12.2022
793 Clouds 6 1028 86 10000 4.12 100 20:22 03.12.2022
794 Clouds 6 1006 85 10000 3.6 100 18:39 03.12.2022
795 Clouds 6 1005 85 10000 4.63 90 15:54 03.12.2022
796 Clouds 7 1005 81 10000 3.09 90 14:23 03.12.2022
797 Clouds 7 1005 80 10000 1.54 110 12:54 03.12.2022
798 Clouds 7 1006 80 10000 2.57 140 12:22 03.12.2022
799 Clouds 6 1006 82 10000 2.57 100 10:21 03.12.2022
800 Clouds 5 1005 88 10000 1.54 180 06:56 03.12.2022
801 Clouds 5 1004 89 8000 0 0 00:31 03.12.2022
802 Clouds 5 1004 89 8000 0 0 22:22 02.12.2022
803 Clouds 5 1004 87 8000 1.03 0 20:53 02.12.2022
804 Clouds 5 1004 86 10000 1.03 0 19:23 02.12.2022
805 Clouds 5 1002 84 8000 1.03 0 15:59 02.12.2022
806 Clouds 6 1002 83 10000 1.03 0 14:40 02.12.2022
807 Clouds 6 1002 82 10000 1.54 320 14:22 02.12.2022
808 Clouds 6 1001 82 10000 1.54 270 12:55 02.12.2022
809 Clouds 5 1001 82 10000 1.54 290 11:31 02.12.2022
810 Clouds 3 1001 86 10000 1.03 0 08:35 02.12.2022
811 Clouds 2 1001 91 10000 1.03 280 07:23 02.12.2022
812 Clouds 2 1000 87 10000 2.06 50 22:54 01.12.2022
813 Clouds 2 1000 87 10000 2.06 90 21:45 01.12.2022
814 Snow 2 999 86 10000 2.57 90 21:26 01.12.2022
815 Clouds 2 999 88 10000 3.6 100 19:22 01.12.2022
816 Clouds 2 999 87 10000 1.54 60 17:46 01.12.2022
817 Clouds 2 998 87 10000 2.57 110 15:38 01.12.2022
818 Clouds 4 998 81 10000 2.06 20 11:37 01.12.2022
819 Clouds 3 999 89 10000 4.12 130 09:55 01.12.2022
820 Clouds 3 999 90 10000 4.12 130 09:37 01.12.2022
821 Clouds 3 1001 89 10000 3.6 130 08:18 01.12.2022
822 Clouds 4 999 85 10000 3.6 120 23:59 30.11.2022
823 Clouds 4 999 87 10000 3.6 140 22:28 30.11.2022
824 Clouds 4 999 86 10000 3.6 150 21:19 30.11.2022
825 Clouds 4 999 87 10000 4.12 140 20:25 30.11.2022
826 Clouds 4 999 89 10000 4.12 130 19:35 30.11.2022
827 Clouds 4 999 86 10000 4.12 150 18:33 30.11.2022
828 Clouds 4 999 85 10000 4.92 90 17:35 30.11.2022
829 Clouds 5 999 82 10000 2.68 113 14:47 30.11.2022
830 Clouds 5 999 82 10000 3.6 120 14:27 30.11.2022
831 Clouds 5 998 84 10000 4.63 130 13:31 30.11.2022
832 Clouds 4 999 85 10000 3.13 113 10:24 30.11.2022
833 Clouds 4 999 89 10000 2.06 110 08:38 30.11.2022
834 Clouds 3 999 93 10000 2.06 120 07:25 30.11.2022
835 Clouds 3 998 90 10000 2.57 100 23:33 29.11.2022
836 Clouds 3 999 89 10000 2.57 130 22:25 29.11.2022
837 Clouds 4 999 87 10000 3.09 100 20:53 29.11.2022
838 Clouds 4 999 87 10000 5.36 90 20:33 29.11.2022
839 Clouds 4 999 87 10000 2.06 120 18:57 29.11.2022
840 Clouds 4 998 83 10000 3.09 130 16:58 29.11.2022
841 Clouds 4 998 83 10000 1.54 130 16:22 29.11.2022
842 Clouds 5 998 79 10000 1.03 0 14:49 29.11.2022
843 Clouds 5 998 75 10000 2.06 110 12:45 29.11.2022
844 Clouds 4 987 74 10000 2.06 80 11:32 29.11.2022
845 Clouds 5 999 75 10000 1.54 70 10:41 29.11.2022
846 Clouds 4 999 78 10000 3.58 90 09:28 29.11.2022
847 Clouds 3 999 81 10000 2.68 90 07:46 29.11.2022
848 Clouds 3 999 81 10000 1.54 140 00:35 29.11.2022
849 Clouds 3 999 81 10000 1.54 140 00:35 29.11.2022
850 Clouds 2 1000 84 10000 2.24 113 23:29 28.11.2022
851 Clouds 3 1000 78 10000 1.54 0 22:28 28.11.2022
852 Clouds 3 1000 80 10000 1.79 90 21:43 28.11.2022
853 Clouds 3 988 79 10000 1.03 350 20:33 28.11.2022
854 Clouds 3 988 78 10000 0.51 0 19:37 28.11.2022
855 Clouds 3 1000 80 10000 2.06 110 18:29 28.11.2022
856 Clouds 3 1000 80 10000 2.06 70 17:35 28.11.2022
857 Clouds 4 1000 75 10000 2.57 130 15:19 28.11.2022
858 Clouds 5 1000 72 10000 2.06 120 13:57 28.11.2022
859 Clouds 5 989 73 10000 2.06 120 13:32 28.11.2022
860 Clouds 3 1021 81 10000 2.06 80 11:37 28.11.2022
861 Clouds 2 1002 95 8000 3.58 90 08:49 28.11.2022
862 Clouds 1 1002 96 4900 1.03 180 04:57 28.11.2022
863 Clouds 1 1002 96 4900 1.03 180 04:39 28.11.2022
864 Snow 1 1002 96 4400 1.03 0 03:22 28.11.2022
865 Clouds 2 1003 92 10000 3.6 100 00:35 28.11.2022
866 Clouds 3 1004 89 10000 1.79 113 22:24 27.11.2022
867 Clouds 3 1004 84 10000 2.24 90 20:49 27.11.2022
868 Clouds 4 1004 79 10000 2.06 30 18:39 27.11.2022
869 Clouds 5 1004 64 10000 4.12 100 16:25 27.11.2022
870 Clouds 5 1005 70 10000 2.57 90 13:55 27.11.2022
871 Clouds 5 1005 74 8000 1.03 0 12:25 27.11.2022
872 Mist 3 1007 85 5000 0 0 10:23 27.11.2022
873 Mist 1 1009 90 5000 1.54 50 07:30 27.11.2022
874 Mist 1 1009 90 5000 1.54 50 07:30 27.11.2022
875 Clouds 1 1008 87 6000 2.06 150 23:37 26.11.2022
876 Clouds 2 1008 83 6000 2.06 120 21:43 26.11.2022
877 Mist 2 1006 87 4000 1.03 0 19:57 26.11.2022
878 Clouds 2 1005 86 7000 1.03 110 18:41 26.11.2022
879 Clear 4 1004 72 10000 2.06 110 16:40 26.11.2022
880 Clear 7 1004 62 10000 1.03 0 15:22 26.11.2022
881 Clear 8 1026 60 10000 1.03 0 12:51 26.11.2022
882 Clouds 7 1027 72 8000 1.03 0 10:53 26.11.2022
883 Clouds 4 1005 78 8000 2.06 240 09:43 26.11.2022
884 Clouds 2 1004 91 6000 1.03 0 07:48 26.11.2022
885 Clear 3 1001 81 10000 4.02 0 22:43 25.11.2022
886 Clear 4 1001 78 10000 3.09 290 21:34 25.11.2022
887 Clear 5 1000 73 10000 3.09 280 20:20 25.11.2022
888 Clear 6 999 68 10000 8.23 270 16:51 25.11.2022
889 Clouds 7 999 64 10000 7.72 280 15:26 25.11.2022
890 Clear 8 956 60 10000 6.69 280 09:44 25.11.2022
891 Clear 6 998 71 10000 7.72 280 08:43 25.11.2022
892 Clear 5 997 74 10000 5.14 270 06:59 25.11.2022
893 Clear 5 997 74 10000 5.14 270 06:59 25.11.2022
894 Clear 5 996 75 10000 5.14 270 06:40 25.11.2022
895 Clouds 5 994 75 10000 6.69 270 01:25 25.11.2022
896 Clouds 6 994 73 10000 7.72 270 22:59 24.11.2022
897 Clouds 6 994 72 10000 6.17 280 22:19 24.11.2022
898 Clouds 6 993 70 10000 6.17 280 21:26 24.11.2022
899 Clouds 6 984 70 10000 2.68 293 19:34 24.11.2022
900 Clouds 6 992 72 10000 6.17 270 17:45 24.11.2022
901 Clouds 6 992 70 10000 4.63 280 17:21 24.11.2022
902 Clouds 6 992 68 10000 4.12 280 16:19 24.11.2022
903 Clouds 6 991 68 10000 8.23 280 14:23 24.11.2022
904 Clouds 6 991 74 10000 7.72 270 12:20 24.11.2022
905 Clouds 6 990 80 10000 6.17 270 10:37 24.11.2022
906 Clouds 6 989 91 9000 1.03 70 07:54 24.11.2022
907 Clouds 6 988 86 10000 1.03 0 03:23 24.11.2022
908 Clouds 7 988 80 10000 2.57 140 23:46 23.11.2022
909 Clouds 9 987 75 10000 3.09 120 22:41 23.11.2022
910 Clouds 9 987 73 10000 2.06 100 21:40 23.11.2022
911 Clouds 10 987 68 10000 1.03 0 20:48 23.11.2022
912 Clouds 10 985 65 10000 2.57 110 19:30 23.11.2022
913 Clouds 11 984 62 10000 2.06 0 18:41 23.11.2022
914 Clouds 11 983 59 10000 2.06 30 16:56 23.11.2022
915 Clouds 14 1003 57 10000 1.54 90 13:41 23.11.2022
916 Clouds 15 1004 61 10000 1.34 158 13:21 23.11.2022
917 Clouds 14 970 60 10000 2.06 360 12:21 23.11.2022
918 Clouds 12 1002 76 10000 1.54 40 11:42 23.11.2022
919 Clouds 11 1002 87 10000 2.57 110 10:44 23.11.2022
920 Clouds 11 983 82 8000 2.24 23 09:44 23.11.2022
921 Clouds 10 983 86 8000 1.54 260 09:25 23.11.2022
922 Clouds 8 983 92 6000 1.03 0 08:37 23.11.2022
923 Clouds 6 983 97 8000 3.6 330 06:23 23.11.2022
924 Clouds 6 983 97 8000 1.03 0 05:18 23.11.2022
925 Clouds 6 985 88 10000 2.06 270 23:24 22.11.2022
926 Clouds 6 985 86 10000 1.54 190 22:33 22.11.2022
927 Clouds 6 985 85 10000 2.06 80 21:34 22.11.2022
928 Clouds 7 986 82 10000 3.09 110 20:49 22.11.2022
929 Clear 7 986 80 10000 4.12 100 19:57 22.11.2022
930 Clouds 7 987 84 10000 4.12 90 17:56 22.11.2022
931 Clouds 7 988 83 10000 3.6 130 17:26 22.11.2022
932 Clouds 7 988 83 10000 3.6 130 17:26 22.11.2022
933 Clouds 7 988 89 10000 2.06 200 15:53 22.11.2022
934 Clouds 7 1009 76 10000 1.03 0 13:47 22.11.2022
935 Clear 9 990 70 10000 2.57 60 11:52 22.11.2022
936 Clear 5 992 83 10000 3.09 80 09:25 22.11.2022
937 Clear 7 994 88 10000 2.57 110 07:55 22.11.2022
938 Clouds 4 991 85 10000 3.6 290 01:50 22.11.2022
939 Clouds 4 991 83 10000 3.6 280 23:41 21.11.2022
940 Clouds 4 991 84 10000 4.92 293 22:49 21.11.2022
941 Clouds 4 991 87 10000 2.57 270 21:59 21.11.2022
942 Clouds 4 990 87 10000 3.6 280 20:53 21.11.2022
943 Clouds 4 990 89 10000 3.6 260 19:42 21.11.2022
944 Rain 4 990 88 8000 5.66 260 18:54 21.11.2022
945 Clouds 4 989 89 10000 7.2 260 18:25 21.11.2022
946 Clouds 4 988 83 10000 4.12 290 16:56 21.11.2022
947 Clouds 4 988 84 10000 4.12 290 16:37 21.11.2022
948 Clouds 5 988 81 10000 4.12 280 15:50 21.11.2022
949 Clouds 5 988 80 10000 5.14 300 14:29 21.11.2022
950 Clouds 6 988 79 10000 6.69 290 13:43 21.11.2022
951 Clouds 5 988 87 8000 5.66 280 11:37 21.11.2022
952 Clouds 6 974 88 6000 9.26 280 09:18 21.11.2022
953 Clouds 7 1007 85 10000 6.69 290 07:39 21.11.2022
954 Rain 9 987 95 7000 2.57 100 22:38 20.11.2022
955 Clouds 10 988 95 10000 2.68 113 21:34 20.11.2022
956 Clouds 10 989 92 10000 2.57 190 20:32 20.11.2022
957 Clouds 11 990 92 10000 0 0 18:26 20.11.2022
958 Clouds 12 990 83 10000 3.09 240 16:24 20.11.2022
959 Clouds 12 990 84 10000 2.68 293 15:29 20.11.2022
960 Clouds 13 990 80 10000 2.68 135 14:41 20.11.2022
961 Clouds 13 990 76 10000 6.69 210 13:32 20.11.2022
962 Rain 14 1010 88 5000 4.63 300 12:38 20.11.2022
963 Clouds 17 990 74 10000 2.57 290 11:25 20.11.2022
964 Clouds 16 978 72 10000 2.06 300 10:40 20.11.2022
965 Clouds 17 978 61 10000 5.66 190 09:23 20.11.2022
966 Clouds 17 978 61 10000 6.69 190 08:35 20.11.2022
967 Clouds 16 978 62 10000 5.66 140 07:29 20.11.2022
968 Clouds 15 1009 67 10000 2.06 340 02:19 20.11.2022
969 Clouds 15 978 69 10000 1.54 0 01:20 20.11.2022
970 Clouds 14 1009 77 10000 2.57 220 00:41 20.11.2022
971 Clouds 14 977 77 10000 2.57 200 00:22 20.11.2022
972 Clouds 16 977 64 10000 2.06 0 23:49 19.11.2022
973 Clouds 14 991 80 10000 5.14 0 23:23 19.11.2022
974 Clouds 12 990 87 10000 3.09 0 22:38 19.11.2022
975 Clouds 12 990 84 10000 3.09 240 21:32 19.11.2022
976 Clouds 12 990 84 10000 3.09 160 20:56 19.11.2022
977 Clouds 13 991 82 10000 2.06 180 20:29 19.11.2022
978 Clouds 13 991 79 10000 4.12 90 18:55 19.11.2022
979 Clouds 14 991 73 10000 2.57 150 17:40 19.11.2022
980 Clouds 15 990 69 10000 5.14 120 17:19 19.11.2022
981 Clouds 16 990 76 10000 2.57 100 15:40 19.11.2022
982 Clouds 17 991 67 10000 1.03 0 14:27 19.11.2022
983 Clouds 15 1011 72 10000 1.03 0 11:58 19.11.2022
984 Clouds 13 1012 76 10000 1.54 0 10:20 19.11.2022
985 Clouds 12 991 92 6000 1.03 0 08:38 19.11.2022
986 Clouds 6 1007 100 10000 0 0 04:50 19.11.2022
987 Clouds 11 986 89 10000 2.06 310 01:52 19.11.2022
988 Rain 12 985 88 10000 1.54 350 23:44 18.11.2022
989 Clouds 15 986 77 10000 2.06 340 22:34 18.11.2022
990 Clouds 14 984 77 10000 6.69 300 21:37 18.11.2022
991 Clouds 15 982 65 10000 6.26 0 20:59 18.11.2022
992 Clouds 16 981 64 10000 6.69 240 20:26 18.11.2022
993 Clouds 15 981 67 10000 2.68 0 19:46 18.11.2022
994 Clouds 14 981 70 10000 2.57 80 18:23 18.11.2022
995 Clouds 14 981 67 10000 3.09 0 16:41 18.11.2022
996 Mist 13 982 82 5000 2.06 320 13:40 18.11.2022
997 Fog 7 1004 100 450 2.57 0 11:24 18.11.2022
998 Fog 8 988 95 200 1.54 80 08:24 18.11.2022
999 Fog 6 986 97 350 1.54 110 06:23 18.11.2022
1000 Fog 5 974 98 300 1.54 100 05:18 18.11.2022
1001 Fog 6 986 95 550 0 0 00:40 18.11.2022
1002 Mist 9 986 93 3500 1.54 90 20:59 17.11.2022
1003 Mist 9 986 93 4000 1.54 90 20:29 17.11.2022
1004 Mist 10 985 92 4500 1.54 230 19:50 17.11.2022
1005 Clouds 10 985 91 9000 2.57 160 18:34 17.11.2022
1006 Clouds 11 985 85 10000 1.03 0 17:32 17.11.2022
1007 Clouds 12 984 83 10000 2.06 160 16:42 17.11.2022
1008 Clouds 14 971 72 10000 1.54 140 12:29 17.11.2022
1009 Clouds 13 983 73 10000 1.54 0 11:20 17.11.2022
1010 Rain 9 984 96 8000 3.09 40 07:59 17.11.2022
1011 Clouds 9 984 93 10000 1.03 0 01:39 17.11.2022
1012 Mist 9 984 93 3500 2.06 70 00:20 17.11.2022
1013 Mist 9 986 97 3100 1.54 70 22:27 16.11.2022
1014 Rain 8 1008 94 3400 0.51 0 20:35 16.11.2022
1015 Clouds 8 1008 90 4700 1.03 0 19:29 16.11.2022
1016 Clouds 9 1009 84 5000 1.54 340 18:33 16.11.2022
1017 Clouds 10 1009 77 8000 2.06 80 16:36 16.11.2022
1018 Clouds 12 1010 72 8000 1.79 90 12:56 16.11.2022
1019 Mist 3 1012 100 2500 1.03 0 08:27 16.11.2022
1020 Fog 1 1014 100 250 1.54 140 01:54 16.11.2022
1021 Fog 0 1015 100 250 0 0 23:50 15.11.2022
1022 Fog 1 1016 100 200 1.03 0 21:54 15.11.2022
1023 Fog 3 1016 100 2100 0.51 0 20:25 15.11.2022
1024 Mist 2 1017 100 2400 0 0 19:18 15.11.2022
1025 Mist 4 1017 93 4500 1.03 350 17:38 15.11.2022
1026 Mist 6 1017 87 5000 2.06 300 16:22 15.11.2022
1027 Clouds 7 1017 81 6000 0.51 0 15:40 15.11.2022
1028 Clouds 8 1017 76 6000 1.03 0 14:41 15.11.2022
1029 Clouds 15 1017 43 10000 0.04 50 12:58 15.11.2022
1030 Clouds 13 1019 48 10000 0.27 115 11:22 15.11.2022
1031 Fog 3 1022 100 900 0.51 0 09:53 15.11.2022
1032 Fog -2 1022 100 200 0 0 03:48 15.11.2022
1033 Mist -1 1023 100 1800 0 0 00:26 15.11.2022
1034 Fog 2 1023 100 900 1.03 0 22:52 14.11.2022
1035 Mist 2 1024 93 3000 0 0 20:44 14.11.2022
1036 Mist 2 1024 93 3000 0 0 20:44 14.11.2022
1037 Mist 3 1024 100 3000 2.06 170 19:47 14.11.2022
1038 Mist 4 1024 100 5000 1.03 0 18:27 14.11.2022
1039 Clouds 10 1027 80 6000 1.03 0 13:20 14.11.2022
1040 Clouds 16 1028 58 10000 1.36 87 11:49 14.11.2022
1041 Clouds 16 1029 66 10000 1.28 90 10:59 14.11.2022
1042 Fog 2 1028 100 300 1.03 0 08:34 14.11.2022
1043 Fog 2 1028 100 300 0 0 08:34 14.11.2022
1044 Fog 2 1028 100 300 0 0 08:34 14.11.2022
1045 Fog 2 1028 100 200 1.03 0 07:52 14.11.2022
1046 Fog 1 1028 100 350 1.54 90 04:24 14.11.2022
1047 Fog 1 1029 100 650 0 0 23:23 13.11.2022
1048 Mist 3 1029 100 4700 1.03 0 21:42 13.11.2022
1049 Mist 4 1030 93 5000 1.54 130 20:48 13.11.2022
1050 Clear 5 1030 93 7000 1.54 110 18:54 13.11.2022
1051 Clear 6 1032 85 8000 2.06 100 17:50 13.11.2022
1052 Clear 10 1032 73 10000 3.09 110 15:48 13.11.2022
1053 Clouds 12 1032 67 10000 3.6 110 14:31 13.11.2022
1054 Clouds 11 1032 68 10000 4.63 120 12:56 13.11.2022
1055 Clouds 11 1033 71 10000 4.12 130 11:43 13.11.2022
1056 Clouds 12 1033 70 10000 4.63 140 10:38 13.11.2022
1057 Clouds 9 1033 83 10000 5.14 120 05:53 13.11.2022
1058 Clouds 8 1034 82 10000 4.02 90 23:55 12.11.2022
1059 Clouds 8 1033 80 10000 3.09 130 21:40 12.11.2022
1060 Clouds 8 1033 87 10000 2.06 80 20:54 12.11.2022
1061 Clouds 8 1033 80 10000 1.79 23 18:59 12.11.2022
1062 Clouds 8 1033 81 10000 1.54 160 16:58 12.11.2022
1063 Clouds 8 1033 80 10000 3.09 130 15:55 12.11.2022
1064 Clouds 9 1033 74 10000 5.14 100 14:25 12.11.2022
1065 Clouds 10 1033 65 10000 4.63 90 09:41 12.11.2022
1066 Clouds 10 1033 65 10000 4.63 90 09:41 12.11.2022
1067 Clouds 9 1033 77 10000 0.51 0 07:48 12.11.2022
1068 Clouds 8 1033 86 8000 2.06 290 23:50 11.11.2022
1069 Clouds 9 1033 78 8000 1.03 0 20:57 11.11.2022
1070 Clouds 10 1033 78 8000 1.79 293 20:34 11.11.2022
1071 Clouds 10 1033 73 10000 4.12 280 19:27 11.11.2022
1072 Clouds 10 1033 75 10000 4.12 270 18:33 11.11.2022
1073 Clouds 10 1032 75 10000 3.09 310 17:40 11.11.2022
1074 Clouds 10 1032 75 10000 3.09 310 17:40 11.11.2022
1075 Clouds 12 1031 65 10000 3.09 300 14:33 11.11.2022
1076 Clouds 12 1032 63 10000 2.57 290 13:55 11.11.2022
1077 Clouds 13 1032 64 10000 4.12 290 12:45 11.11.2022
1078 Drizzle 10 1032 88 7000 3.13 293 08:59 11.11.2022
1079 Mist 9 1032 89 4400 3.13 0 08:26 11.11.2022
1080 Mist 8 1032 89 5000 0.45 293 00:39 11.11.2022
1081 Mist 4 1028 100 5000 1.54 160 22:53 10.11.2022
1082 Clouds 4 1027 87 6000 1.54 120 21:44 10.11.2022
1083 Clouds 5 1027 93 6000 1.03 0 21:26 10.11.2022
1084 Mist 6 1027 87 5000 0 0 20:25 10.11.2022
1085 Mist 6 1026 100 5000 1.54 60 19:56 10.11.2022
1086 Mist 7 1026 93 5000 1.03 0 18:50 10.11.2022
1087 Clouds 10 1025 76 7000 1.03 0 17:30 10.11.2022
1088 Clouds 13 1024 67 8000 1.03 30 16:25 10.11.2022
1089 Clear 15 1026 59 8000 1.54 280 13:34 10.11.2022
1090 Fog 6 1025 100 1000 0.51 0 09:38 10.11.2022
1091 Fog 9 1028 88 200 1.54 80 07:57 10.11.2022
1092 Mist 4 1024 93 3100 0 0 01:18 10.11.2022
1093 Mist 6 1023 93 5000 1.54 180 22:58 09.11.2022
1094 Clouds 7 1026 88 6000 3.09 120 21:32 09.11.2022
1095 Clouds 7 1025 87 7000 1.03 170 20:42 09.11.2022
1096 Clouds 8 1023 81 7000 1.54 140 20:22 09.11.2022
1097 Clouds 8 1023 87 7000 1.54 130 19:26 09.11.2022
1098 Clouds 8 1023 87 7000 1.54 130 19:26 09.11.2022
1099 Clear 10 1024 78 8000 1.54 160 17:45 09.11.2022
1100 Clear 15 1023 60 10000 1.54 240 14:58 09.11.2022
1101 Clear 16 1023 58 10000 1.54 240 14:40 09.11.2022
1102 Clear 16 1024 58 10000 1.54 210 14:21 09.11.2022
1103 Clear 16 1022 55 10000 1.54 0 12:55 09.11.2022
1104 Clear 12 1024 76 8000 0.51 0 09:40 09.11.2022
1105 Mist 7 1026 97 5000 0 0 07:47 09.11.2022
1106 Mist 6 1025 96 2100 0 0 06:55 09.11.2022
1107 Clouds 8 1026 88 6000 1.03 180 22:44 08.11.2022
1108 Clouds 8 1024 92 6000 1.03 0 21:43 08.11.2022
1109 Clouds 8 1024 92 6000 1.03 0 21:43 08.11.2022
1110 Clouds 9 1024 85 7000 2.06 130 20:55 08.11.2022
1111 Clouds 9 1024 84 7000 2.57 120 20:21 08.11.2022
1112 Mist 11 1025 80 5000 1.03 0 19:28 08.11.2022
1113 Clouds 10 1023 83 8000 2.06 190 17:37 08.11.2022
1114 Clear 15 1023 66 10000 2.57 250 15:37 08.11.2022
1115 Clouds 15 1023 64 10000 3.09 240 14:51 08.11.2022
1116 Clouds 16 1023 63 10000 4.12 240 13:33 08.11.2022
1117 Clouds 14 1024 77 7000 2.57 260 11:30 08.11.2022
1118 Mist 11 1024 94 2800 0 0 07:45 08.11.2022
1119 Mist 9 1023 95 4700 0.51 60 06:28 08.11.2022
1120 Clouds 10 1023 88 8000 1.03 0 22:59 07.11.2022
1121 Clouds 10 1023 88 7000 1.54 150 21:56 07.11.2022
1122 Clouds 9 1023 88 7000 0 0 20:58 07.11.2022
1123 Clouds 9 1022 88 8000 1.03 0 19:52 07.11.2022
1124 Clear 11 1022 80 10000 0 0 17:43 07.11.2022
1125 Clear 15 1021 63 10000 0 0 15:40 07.11.2022
1126 Clear 16 1021 62 10000 2.06 100 14:57 07.11.2022
1127 Clear 16 1021 62 10000 2.06 100 14:57 07.11.2022
1128 Clear 17 1021 58 10000 2.57 90 13:45 07.11.2022
1129 Clouds 17 1022 59 10000 2.06 110 12:30 07.11.2022
1130 Clouds 13 1021 82 8000 2.06 110 10:45 07.11.2022
1131 Mist 11 1023 88 4500 0 0 08:31 07.11.2022
1132 Mist 8 1022 96 2700 1.54 330 06:33 07.11.2022
1133 Clouds 8 1021 91 6000 3.09 90 01:48 07.11.2022
1134 Clouds 10 1020 90 8000 2.57 40 23:33 06.11.2022
1135 Clouds 10 1019 86 10000 2.57 70 21:22 06.11.2022
1136 Clouds 11 1019 88 10000 2.57 100 20:49 06.11.2022
1137 Clouds 11 1019 84 10000 2.06 160 19:57 06.11.2022
1138 Clouds 12 1019 79 10000 1.03 40 19:27 06.11.2022
1139 Clouds 13 1018 78 10000 1.54 10 18:20 06.11.2022
1140 Clouds 13 1018 77 10000 0.51 0 17:39 06.11.2022
1141 Clouds 13 1018 78 10000 0.51 0 17:18 06.11.2022
1142 Clouds 13 1017 75 10000 3.09 150 16:18 06.11.2022
1143 Clouds 13 1017 81 10000 5.14 120 14:45 06.11.2022
1144 Clouds 13 1017 86 10000 6.17 90 12:45 06.11.2022
1145 Clouds 13 1017 86 10000 6.17 90 12:45 06.11.2022
1146 Clouds 13 1017 86 8000 5.66 120 10:55 06.11.2022
1147 Clouds 13 1016 80 10000 7.2 120 09:51 06.11.2022
1148 Clouds 12 1015 82 10000 5.14 110 07:39 06.11.2022
1149 Clouds 11 1014 75 10000 1.54 90 23:23 05.11.2022
1150 Clear 12 1013 69 10000 5.14 120 20:40 05.11.2022
1151 Clear 13 1013 65 10000 4.12 110 18:22 05.11.2022
1152 Clear 13 1013 65 10000 4.12 110 18:22 05.11.2022
1153 Clear 15 1013 59 10000 4.12 100 16:27 05.11.2022
1154 Clear 18 1013 50 10000 1.03 0 14:42 05.11.2022
1155 Clear 18 1013 51 10000 1.54 170 13:32 05.11.2022
1156 Clear 19 1014 49 10000 2.57 140 10:59 05.11.2022
1157 Clouds 12 1012 76 7000 3.09 80 08:55 05.11.2022
1158 Clouds 11 1016 80 7000 0.51 0 07:23 05.11.2022
1159 Clouds 10 1016 85 7000 1.03 60 06:54 05.11.2022
1160 Clouds 11 1015 76 10000 4.12 110 23:45 04.11.2022
1161 Clouds 11 1015 77 10000 4.63 90 23:18 04.11.2022
1162 -273 0 0 0 0 0 20:33 04.11.2022
1163 Clear 12 1014 72 10000 7.2 110 20:32 04.11.2022
1164 Clear 12 1014 70 10000 7.72 100 19:24 04.11.2022
1165 Clear 14 1014 63 10000 7.2 90 17:23 04.11.2022
1166 Clear 19 1015 47 10000 4.63 90 13:52 04.11.2022
1167 Clear 21 1016 45 10000 5.14 120 12:27 04.11.2022
1168 Clear 14 1017 62 10000 4.63 100 10:40 04.11.2022
1169 Clouds 12 1017 76 8000 4.63 110 08:45 04.11.2022
1170 Clouds 15 1021 67 8000 2.06 120 07:43 04.11.2022
1171 Clear 5 1017 93 10000 1.54 150 05:20 04.11.2022
1172 Clouds 11 1021 67 10000 4.63 100 23:26 03.11.2022
1173 Clear 12 1021 64 10000 3.09 130 20:51 03.11.2022
1174 Clear 12 1021 65 10000 3.09 120 20:22 03.11.2022
1175 Clear 13 1021 61 10000 4.12 90 19:27 03.11.2022
1176 Clear 15 1022 52 10000 3.6 130 17:49 03.11.2022
1177 Clear 17 1021 47 10000 2.57 170 16:52 03.11.2022
1178 Clear 21 1022 37 10000 2.06 290 14:19 03.11.2022
1179 Clear 20 1021 40 10000 1.54 330 12:38 03.11.2022
1180 Clear 19 1022 48 10000 1.03 0 11:44 03.11.2022
1181 Clear 14 1024 62 10000 1.03 0 09:25 03.11.2022
1182 Clear 10 1024 71 10000 1.54 130 07:43 03.11.2022
1183 Clouds 17 1025 45 10000 1.03 0 21:29 02.11.2022
1184 Clear 17 1025 45 10000 0 0 20:39 02.11.2022
1185 Clear 15 1023 51 10000 2.68 293 19:54 02.11.2022
1186 Clear 20 1024 41 10000 3.09 270 16:37 02.11.2022
1187 Clear 23 1020 28 10000 4.63 280 15:36 02.11.2022
1188 Clear 24 1022 29 10000 4.63 290 14:29 02.11.2022
1189 Clear 25 1023 32 10000 4.02 23 12:43 02.11.2022
1190 Clear 17 1023 51 10000 1.03 0 10:46 02.11.2022
1191 Clear 21 1027 49 10000 1.03 0 08:49 02.11.2022
1192 Clear 4 1023 93 10000 2.06 130 04:48 02.11.2022
1193 Clear 7 1024 81 10000 1.54 130 23:52 01.11.2022
1194 Clear 8 1024 81 10000 1.03 0 22:19 01.11.2022
1195 Clear 13 1024 58 10000 1.54 190 21:26 01.11.2022
1196 Clear 11 1023 66 10000 1.54 170 20:25 01.11.2022
1197 Clear 11 1023 66 10000 1.03 120 19:42 01.11.2022
1198 Clear 13 1025 61 10000 2.06 90 18:33 01.11.2022
1199 Clear 16 1025 54 10000 2.06 140 17:21 01.11.2022
1200 Clear 21 1026 42 10000 0 0 15:53 01.11.2022
1201 Clear 23 1025 41 10000 1.03 0 13:24 01.11.2022
1202 Clear 20 1024 49 10000 1.54 240 12:27 01.11.2022
1203 Clear 17 1025 55 10000 1.03 0 11:21 01.11.2022
1204 Clear 14 1026 62 10000 0 0 09:37 01.11.2022
1205 Clear 9 1026 81 10000 0 0 08:26 01.11.2022
1206 Clear 15 1029 72 8000 0 0 07:29 01.11.2022
1207 Mist 5 1025 100 10000 0 0 06:46 01.11.2022
1208 Fog 4 1025 100 8000 0 0 05:52 01.11.2022
1209 Clear 8 1024 81 10000 2.57 120 22:52 31.10.2022
1210 Clear 12 1027 73 10000 2.06 120 21:34 31.10.2022
1211 Clear 13 1025 68 10000 2.06 220 19:58 31.10.2022
1212 Clear 15 1025 61 10000 1.54 220 18:44 31.10.2022
1213 Clear 18 1024 49 10000 2.57 40 16:45 31.10.2022
1214 Clear 23 1022 38 10000 0.51 0 15:35 31.10.2022
1215 Clear 21 1022 46 10000 2.06 250 12:39 31.10.2022
1216 Clear 15 1024 63 10000 2.57 280 09:44 31.10.2022
1217 Clouds 14 1026 68 10000 1.54 80 07:41 31.10.2022
1218 Clouds 14 1025 60 10000 1.54 110 02:49 31.10.2022
1219 Clouds 14 1025 59 10000 2.06 90 01:48 31.10.2022
1220 Clouds 15 1025 56 10000 2.24 293 22:22 30.10.2022
1221 Clear 15 1023 58 10000 2.06 280 20:43 30.10.2022
1222 Clear 15 1023 58 10000 4.12 260 19:52 30.10.2022
1223 Clear 19 1020 45 10000 4.63 260 16:42 30.10.2022
1224 Clear 22 1020 37 10000 4.12 270 14:54 30.10.2022
1225 Clear 22 1021 37 10000 2.57 290 13:51 30.10.2022
1226 Clear 18 1022 52 10000 2.57 290 12:27 30.10.2022
1227 Clear 15 1024 63 10000 1.54 270 10:32 30.10.2022
1228 Clear 12 1024 71 10000 1.03 0 09:35 30.10.2022
1229 Clear 6 1025 81 10000 1.54 70 07:57 30.10.2022
1230 Clear 6 1025 81 10000 0.51 0 00:29 30.10.2022
1231 Clear 7 1026 76 10000 2.06 180 23:47 29.10.2022
1232 Clear 7 1025 76 10000 0.51 0 22:31 29.10.2022
1233 Clear 10 1025 62 10000 1.54 190 19:41 29.10.2022
1234 Clear 19 1024 42 10000 0 0 17:23 29.10.2022
1235 Clear 20 1024 40 10000 1.03 0 15:39 29.10.2022
1236 Clear 20 1025 42 10000 1.03 0 14:55 29.10.2022
1237 Clear 19 1026 42 10000 1.03 0 13:50 29.10.2022
1238 Clear 16 1027 51 10000 1.03 0 12:33 29.10.2022
1239 Clear 8 1029 76 10000 0 0 09:32 29.10.2022
1240 Fog 2 1028 93 10000 0 0 06:51 29.10.2022
1241 Clear 2 1028 93 10000 0 0 05:54 29.10.2022
1242 Clear 7 1029 76 10000 1.54 160 23:51 28.10.2022
1243 Clear 10 1029 66 10000 1.03 0 21:58 28.10.2022
1244 Clear 11 1029 62 10000 2.06 220 20:45 28.10.2022
1245 Clear 15 1028 44 10000 2.06 30 18:39 28.10.2022
1246 Clear 16 1028 44 10000 2.57 40 18:20 28.10.2022
1247 Clear 20 1028 37 10000 1.54 0 15:28 28.10.2022
1248 Clear 20 1028 37 10000 1.54 0 15:28 28.10.2022
1249 Clear 19 1029 39 10000 1.03 0 13:44 28.10.2022
1250 Clear 15 1030 58 10000 1.03 0 11:56 28.10.2022
1251 Clear 15 1030 58 10000 1.03 0 11:33 28.10.2022
1252 Clear 12 1031 66 10000 1.03 0 10:45 28.10.2022
1253 Clear 9 1031 76 10000 0.51 0 09:44 28.10.2022
1254 Clear 4 1030 100 10000 0 0 07:51 28.10.2022
1255 Clear 5 1030 93 10000 0.51 120 02:58 28.10.2022
1256 Clear 8 1029 76 10000 1.03 0 23:47 27.10.2022
1257 Clear 10 1029 71 10000 0.51 10 22:37 27.10.2022
1258 Clear 13 1029 58 10000 2.06 190 21:21 27.10.2022
1259 Clear 17 1028 48 10000 1.54 40 18:33 27.10.2022
1260 Clear 20 1027 37 10000 3.09 20 17:26 27.10.2022
1261 Clear 21 1028 32 10000 1.03 0 13:32 27.10.2022
1262 Clear 9 1029 76 10000 1.03 210 08:31 27.10.2022
1263 Clouds 6 1026 87 10000 1.03 120 02:56 27.10.2022
1264 Clouds 7 1026 81 10000 0 0 23:54 26.10.2022
1265 Clouds 9 1025 71 10000 0.51 10 22:44 26.10.2022
1266 Clouds 11 1025 62 10000 0.51 0 21:49 26.10.2022
1267 Clear 17 1023 42 10000 4.12 280 18:38 26.10.2022
1268 Clear 21 1022 32 10000 4.12 280 16:22 26.10.2022
1269 Clear 21 1022 43 10000 2.57 270 13:34 26.10.2022
1270 Clear 20 1022 49 10000 2.57 240 12:34 26.10.2022
1271 Clear 12 1023 82 10000 0.51 0 09:20 26.10.2022
1272 Clear 11 1023 82 10000 1.54 170 08:53 26.10.2022
1273 Clear 7 1022 93 10000 1.54 70 07:52 26.10.2022
1274 Clouds 14 1021 72 10000 4.12 270 00:40 26.10.2022
1275 Clouds 16 1020 59 10000 5.14 270 22:59 25.10.2022
1276 Clouds 17 1020 55 10000 5.14 270 21:46 25.10.2022
1277 Clear 19 1019 45 10000 4.12 290 20:46 25.10.2022
1278 Clear 20 1019 42 10000 2.57 250 18:58 25.10.2022
1279 Clear 22 1018 37 10000 2.06 280 17:49 25.10.2022
1280 Clear 21 1020 46 10000 0.51 0 13:26 25.10.2022
1281 Clear 18 1021 55 10000 1.03 0 11:38 25.10.2022
1282 Clear 16 1022 63 10000 1.03 0 10:36 25.10.2022
1283 Clear 9 1022 87 10000 0 0 08:43 25.10.2022
1284 Clouds 7 1022 100 8000 1.54 340 08:18 25.10.2022
1285 Fog 5 1021 100 8000 2.06 120 07:54 25.10.2022
1286 Clouds 5 1021 100 8000 0.51 0 06:53 25.10.2022
1287 Clouds 7 1021 100 10000 1.03 160 03:35 25.10.2022
1288 Clouds 9 1022 87 10000 0 0 00:33 25.10.2022
1289 Clouds 11 1022 82 10000 2.57 150 22:29 24.10.2022
1290 Clouds 12 1022 76 10000 1.54 130 21:50 24.10.2022
1291 Clouds 13 1021 71 10000 1.03 0 21:31 24.10.2022
1292 Clear 13 1021 71 10000 2.06 150 20:40 24.10.2022
1293 Clear 18 1021 59 10000 2.06 210 18:46 24.10.2022
1294 Clear 23 1021 43 10000 2.06 200 16:59 24.10.2022
1295 Clear 23 1022 40 10000 1.03 0 15:43 24.10.2022
1296 Clear 22 1022 43 10000 1.03 0 14:20 24.10.2022
1297 Clear 19 1024 52 10000 1.03 0 12:53 24.10.2022
1298 Clear 13 1025 67 10000 0 0 09:42 24.10.2022
1299 Clouds 5 1024 100 9000 0.51 0 07:56 24.10.2022
1300 Clouds 9 1024 81 10000 2.06 140 22:50 23.10.2022
1301 Clear 14 1024 62 10000 0.51 0 20:40 23.10.2022
1302 Clear 15 1023 58 10000 1.54 340 19:27 23.10.2022
1303 Clear 19 1023 45 10000 2.57 300 17:30 23.10.2022
1304 Clear 19 1023 45 10000 2.57 300 17:30 23.10.2022
1305 Clear 20 1023 42 10000 4.12 290 16:20 23.10.2022
1306 Clear 21 1023 43 10000 6.17 290 14:58 23.10.2022
1307 Clear 19 1024 55 10000 9.26 270 11:56 23.10.2022
1308 Clouds 18 1024 59 10000 8.23 280 10:52 23.10.2022
1309 Clouds 10 1023 76 10000 2.06 240 06:27 23.10.2022
1310 Clouds 8 1022 87 9000 0.51 0 23:26 22.10.2022
1311 Clear 10 1022 81 8000 0.51 0 22:30 22.10.2022
1312 Clear 11 1022 76 10000 1.03 0 21:40 22.10.2022
1313 Clear 12 1021 71 10000 1.03 0 20:25 22.10.2022
1314 Clear 13 1021 67 10000 1.54 170 19:31 22.10.2022
1315 Clear 18 1021 48 10000 2.06 170 17:41 22.10.2022
1316 Clear 18 1021 48 10000 2.06 170 17:41 22.10.2022
1317 Clear 19 1021 42 10000 1.03 0 16:49 22.10.2022
1318 Clear 18 1022 45 10000 1.54 0 14:57 22.10.2022
1319 Clear 18 1022 45 10000 1.03 0 14:18 22.10.2022
1320 Clear 13 1025 58 10000 1.03 0 11:25 22.10.2022
1321 Clouds 9 1025 76 8000 0.51 0 09:45 22.10.2022
1322 Clouds 9 1025 76 8000 0.51 0 09:45 22.10.2022
1323 Mist 4 1025 100 4500 0 0 08:37 22.10.2022
1324 Clouds 3 1025 93 8000 1.03 290 05:34 22.10.2022
1325 Clouds 6 1026 87 10000 1.54 190 00:28 22.10.2022
1326 Clouds 9 1026 76 10000 2.57 130 22:37 21.10.2022
1327 Clouds 8 1026 81 10000 2.06 140 21:32 21.10.2022
1328 Clear 9 1025 76 10000 4.12 110 20:25 21.10.2022
1329 Clear 15 1024 51 10000 1.54 80 17:50 21.10.2022
1330 Clear 15 1025 51 10000 1.03 0 14:32 21.10.2022
1331 Clear 14 1025 54 10000 2.06 90 13:30 21.10.2022
1332 Clear 12 1026 66 10000 4.63 90 11:45 21.10.2022
1333 Clouds 8 1027 81 8000 1.03 0 10:22 21.10.2022
1334 Mist 3 1027 93 5000 0 0 08:39 21.10.2022
1335 Mist 3 1027 93 5000 0 0 08:19 21.10.2022
1336 Clear 4 1026 87 10000 1.54 130 02:32 21.10.2022
1337 Clear 7 1025 76 10000 0.51 0 22:32 20.10.2022
1338 Clear 9 1024 66 10000 3.6 260 20:48 20.10.2022
1339 Clear 11 1024 54 10000 3.09 280 19:40 20.10.2022
1340 Clear 14 1023 47 10000 3.09 280 18:19 20.10.2022
1341 Clear 16 1023 41 10000 3.09 280 17:38 20.10.2022
1342 Clouds 16 1023 48 10000 5.14 270 13:32 20.10.2022
1343 Clouds 16 1024 48 10000 5.14 290 12:30 20.10.2022
1344 Clouds 14 1024 58 10000 5.66 280 11:25 20.10.2022
1345 Clouds 14 1024 62 10000 6.17 260 10:51 20.10.2022
1346 Clouds 10 1023 81 10000 3.09 260 08:27 20.10.2022
1347 Clear 10 1022 81 10000 2.06 280 05:45 20.10.2022
1348 Clouds 13 1021 71 10000 3.6 270 01:54 20.10.2022
1349 Clouds 14 1021 58 10000 4.63 270 22:47 19.10.2022
1350 Clear 13 1020 58 10000 4.63 270 21:59 19.10.2022
1351 Clear 13 1020 54 10000 5.14 270 21:18 19.10.2022
1352 Clear 15 1019 44 10000 5.66 280 18:53 19.10.2022
1353 Clear 19 1017 32 10000 4.12 270 17:39 19.10.2022
1354 Clear 20 1017 32 10000 6.69 260 16:21 19.10.2022
1355 Clear 19 1019 32 10000 5.66 270 13:53 19.10.2022
1356 Clear 9 1021 57 10000 1.54 280 10:18 19.10.2022
1357 Clear 1 1022 86 10000 1.03 110 08:35 19.10.2022
1358 Clear -1 1022 93 10000 1.03 110 06:50 19.10.2022
1359 Clear 3 1024 81 10000 1.03 320 01:27 19.10.2022
1360 Clear 6 1025 65 10000 1.03 0 23:21 18.10.2022
1361 Clear 7 1026 61 10000 2.06 140 21:48 18.10.2022
1362 Clear 9 1026 53 10000 2.57 40 20:59 18.10.2022
1363 Clear 9 1026 57 10000 3.09 0 20:19 18.10.2022
1364 Clear 15 1025 36 10000 2.57 60 18:25 18.10.2022
1365 Clear 20 1026 21 10000 2.06 120 16:52 18.10.2022
1366 Clear 20 1027 19 10000 2.57 90 14:51 18.10.2022
1367 Clear 16 1030 48 10000 1.03 0 12:34 18.10.2022
1368 Clear 13 1031 54 10000 1.03 0 11:22 18.10.2022
1369 Clear 9 1032 66 10000 1.54 30 09:58 18.10.2022
1370 Clear 1 1032 93 10000 1.03 0 07:57 18.10.2022
1371 Clear 1 1032 93 10000 0 0 03:45 18.10.2022
1372 Clear 6 1034 70 10000 1.03 0 22:54 17.10.2022
1373 Clear 8 1033 66 10000 1.54 120 20:55 17.10.2022
1374 Clear 9 1033 61 10000 3.09 130 20:33 17.10.2022
1375 Clear 10 1033 62 10000 2.57 90 19:52 17.10.2022
1376 Clear 11 1032 58 10000 2.06 0 19:18 17.10.2022
1377 Clear 18 1031 36 10000 3.6 40 16:55 17.10.2022
1378 Clear 19 1031 27 10000 3.09 90 15:29 17.10.2022
1379 Clear 19 1031 27 10000 3.09 90 15:29 17.10.2022
1380 Clear 19 1031 27 10000 3.09 90 15:29 17.10.2022
1381 Clear 19 1031 27 10000 3.09 100 14:35 17.10.2022
1382 Clear 15 1033 47 10000 1.03 0 11:52 17.10.2022
1383 Fog 1 1032 100 7000 0 0 06:41 17.10.2022
1384 Clear 6 1029 81 10000 1.54 130 23:33 16.10.2022
1385 Clear 9 1029 66 10000 1.54 130 21:56 16.10.2022
1386 Clear 8 1028 71 10000 1.03 0 20:47 16.10.2022
1387 Clear 11 1027 58 10000 2.06 170 19:46 16.10.2022
1388 Clear 15 1026 44 10000 3.6 20 17:57 16.10.2022
1389 Clear 16 1026 41 10000 4.12 20 17:30 16.10.2022
1390 Clear 19 1025 37 10000 2.06 350 15:57 16.10.2022
1391 Clear 18 1025 42 10000 1.54 0 14:33 16.10.2022
1392 Clear 15 1026 51 10000 2.06 60 12:23 16.10.2022
1393 Clear 11 1026 71 10000 1.54 100 10:27 16.10.2022
1394 Clear 8 1026 81 10000 0.51 0 08:47 16.10.2022
1395 Clouds 8 1023 81 10000 1.54 190 01:30 16.10.2022
1396 Clouds 10 1022 81 10000 2.06 80 23:41 15.10.2022
1397 Clouds 11 1022 71 10000 2.06 170 21:26 15.10.2022
1398 Clouds 9 1021 81 10000 3.09 0 20:55 15.10.2022
1399 Clouds 13 1021 62 10000 3.09 50 18:44 15.10.2022
1400 Clouds 16 1019 51 10000 5.66 60 15:49 15.10.2022
1401 Clouds 15 1019 48 10000 3.93 66 14:55 15.10.2022
1402 Clouds 16 1020 55 10000 2.06 60 11:58 15.10.2022
1403 Clouds 13 1020 67 10000 2.06 100 10:47 15.10.2022
1404 Clouds 11 1020 82 10000 2.06 120 08:54 15.10.2022
1405 Clouds 11 1019 82 10000 2.57 120 03:21 15.10.2022
1406 Clouds 10 1019 76 10000 1.03 120 23:58 14.10.2022
1407 Clouds 9 1019 81 10000 2.06 120 22:23 14.10.2022
1408 Clouds 10 1018 81 10000 1.03 0 21:30 14.10.2022
1409 Clouds 11 1018 71 10000 2.06 30 20:18 14.10.2022
1410 Clouds 15 1018 41 10000 6.17 130 16:49 14.10.2022
1411 Clouds 15 1018 51 10000 7.2 120 13:52 14.10.2022
1412 Clouds 14 1019 62 10000 6.69 120 12:19 14.10.2022
1413 Clouds 14 1019 62 10000 6.69 120 12:19 14.10.2022
1414 Clouds 12 1019 71 10000 6.69 110 09:40 14.10.2022
1415 Clouds 10 1019 81 10000 4.63 90 07:47 14.10.2022
1416 Clouds 11 1019 76 10000 4.63 100 06:18 14.10.2022
1417 Clouds 10 1019 81 10000 5.14 90 05:42 14.10.2022
1418 Clouds 11 1019 76 10000 4.12 100 04:42 14.10.2022
1419 Clouds 11 1020 76 10000 3.6 130 00:41 14.10.2022
1420 Clouds 11 1021 82 10000 3.09 100 22:31 13.10.2022
1421 Clouds 11 1021 82 10000 3.09 90 21:26 13.10.2022
1422 Clouds 13 1021 71 10000 4.12 100 20:18 13.10.2022
1423 Clouds 15 1021 67 10000 3.6 100 19:37 13.10.2022
1424 Clouds 15 1021 67 10000 2.57 80 18:43 13.10.2022
1425 Clouds 18 1020 55 10000 2.57 20 17:20 13.10.2022
1426 Clouds 19 1020 48 10000 1.54 310 15:48 13.10.2022
1427 Clouds 19 1021 48 10000 1.54 130 14:23 13.10.2022
1428 Clear 17 1023 59 10000 1.54 0 12:50 13.10.2022
1429 Clear 14 1024 72 10000 1.03 0 11:36 13.10.2022
1430 Mist 8 1024 100 3000 1.03 0 09:40 13.10.2022
1431 Fog 6 1024 100 400 2.06 290 08:19 13.10.2022
1432 Clouds 6 1024 100 6000 0.51 0 07:33 13.10.2022
1433 Fog 7 1025 100 3500 1.54 60 01:51 13.10.2022
1434 Clouds 7 1024 100 6000 2.06 130 00:55 13.10.2022
1435 Mist 9 1024 93 5000 2.06 70 22:46 12.10.2022
1436 Clouds 10 1024 93 7000 1.03 0 22:28 12.10.2022
1437 Clouds 10 1024 93 8000 0.51 120 21:21 12.10.2022
1438 Clear 11 1024 93 10000 2.57 130 20:52 12.10.2022
1439 Clouds 13 1024 88 10000 2.06 80 19:29 12.10.2022
1440 Clouds 15 1023 77 10000 1.54 60 18:25 12.10.2022
1441 Clouds 15 1023 77 10000 2.06 60 17:47 12.10.2022
1442 Clouds 16 1023 72 10000 3.09 80 15:35 12.10.2022
1443 Clouds 15 1023 77 8000 2.57 120 13:56 12.10.2022
1444 Clouds 14 1024 82 8000 3.09 120 12:46 12.10.2022
1445 Clouds 13 1024 88 8000 1.03 0 09:40 12.10.2022
1446 Clouds 12 1023 94 6000 1.03 0 07:42 12.10.2022
1447 Clouds 12 1023 94 7000 0.51 0 06:55 12.10.2022
1448 Clouds 12 1023 94 8000 1.03 0 06:37 12.10.2022
1449 Clouds 12 1023 94 7000 1.54 70 00:58 12.10.2022
1450 Clouds 13 1023 82 10000 2.06 110 21:59 11.10.2022
1451 Rain 13 1022 82 10000 1.03 0 20:39 11.10.2022
1452 Rain 15 1022 67 10000 0.51 0 18:46 11.10.2022
1453 Clouds 16 1022 63 10000 3.6 100 16:38 11.10.2022
1454 Clouds 16 1022 67 10000 3.09 100 14:35 11.10.2022
1455 Clouds 16 1023 67 10000 2.57 90 12:44 11.10.2022
1456 Clouds 14 1023 77 10000 5.14 110 10:29 11.10.2022
1457 Clouds 13 1023 76 8000 5.66 110 09:30 11.10.2022
1458 Clouds 13 1023 76 8000 5.66 110 09:30 11.10.2022
1459 Clouds 13 1023 76 10000 4.63 130 05:39 11.10.2022
1460 Clouds 13 1024 76 10000 5.66 120 02:22 11.10.2022
1461 Clouds 12 1024 82 10000 4.12 100 00:29 11.10.2022
1462 Clouds 12 1024 76 10000 3.6 140 21:24 10.10.2022
1463 Clear 13 1024 71 10000 4.12 110 19:46 10.10.2022
1464 Clear 13 1024 71 10000 4.12 110 19:46 10.10.2022
1465 Clouds 17 1026 57 10000 5.66 110 18:30 10.10.2022
1466 Clouds 19 1026 54 10000 6.17 110 16:51 10.10.2022
1467 Clouds 20 1026 51 10000 6.17 120 15:20 10.10.2022
1468 Clouds 20 1027 52 10000 4.63 130 12:43 10.10.2022
1469 Clear 19 1028 59 10000 2.57 90 11:26 10.10.2022
1470 Clouds 10 1025 87 8000 1.03 0 08:33 10.10.2022
1471 Clouds 8 1028 91 6000 2.06 50 05:42 10.10.2022
1472 Clouds 8 1025 100 9000 2.06 100 03:48 10.10.2022
1473 Clouds 11 1027 86 7000 2.06 90 00:29 10.10.2022
1474 Clouds 12 1025 79 10000 1.03 0 22:27 09.10.2022
1475 Clouds 13 1025 78 10000 2.06 270 21:58 09.10.2022
1476 Clouds 14 1025 74 10000 2.06 240 21:19 09.10.2022
1477 Clear 15 1024 73 10000 3.09 280 19:54 09.10.2022
1478 Clear 17 1024 66 10000 4.12 280 19:34 09.10.2022
1479 Clear 18 1023 60 10000 3.6 270 18:39 09.10.2022
1480 Clear 22 1022 46 10000 3.09 270 16:56 09.10.2022
1481 Clear 22 1022 46 10000 2.57 250 16:32 09.10.2022
1482 Clear 22 1022 44 10000 3.13 293 15:37 09.10.2022
1483 Clear 22 1023 42 10000 2.57 300 14:29 09.10.2022
1484 Clear 19 1022 52 10000 2.57 250 12:58 09.10.2022
1485 Clear 17 1022 59 10000 2.57 290 11:50 09.10.2022
1486 Clear 17 1024 62 10000 1.54 280 10:37 09.10.2022
1487 Clouds 8 1022 87 8000 1.03 140 08:25 09.10.2022
1488 Clouds 7 1020 100 8000 1.03 290 03:37 09.10.2022
1489 Clouds 7 1021 100 10000 0 0 02:39 09.10.2022
1490 Clouds 9 1021 81 10000 0.51 0 00:26 09.10.2022
1491 Clouds 10 1021 76 10000 2.06 120 22:53 08.10.2022
1492 Clouds 9 1021 81 10000 2.06 120 21:44 08.10.2022
1493 Clear 12 1022 69 10000 2.06 180 20:26 08.10.2022
1494 Clear 15 1021 58 10000 2.06 20 18:37 08.10.2022
1495 Clear 21 1021 41 10000 1.03 0 16:18 08.10.2022
1496 Clear 21 1022 42 10000 1.54 90 14:52 08.10.2022
1497 Clear 21 1023 43 10000 2.06 0 13:20 08.10.2022
1498 Clear 13 1023 67 10000 1.03 0 10:37 08.10.2022
1499 Clear 11 1024 71 10000 0.51 0 09:55 08.10.2022
1500 Clear 8 1024 87 10000 1.54 110 08:47 08.10.2022
1501 Clouds 5 1024 93 10000 0.51 0 03:52 08.10.2022
1502 Clouds 8 1028 83 10000 2.06 110 00:37 08.10.2022
1503 Clouds 8 1028 81 10000 2.06 120 23:21 07.10.2022
1504 Clouds 9 1028 76 10000 2.06 220 22:41 07.10.2022
1505 Clear 10 1028 73 10000 2.57 200 20:59 07.10.2022
1506 Clear 13 1027 62 10000 1.03 0 19:32 07.10.2022
1507 Clear 16 1028 48 10000 3.6 30 17:47 07.10.2022
1508 Clear 18 1028 41 10000 4.12 30 16:41 07.10.2022
1509 Clear 20 1027 39 10000 3.6 70 14:59 07.10.2022
1510 Clear 20 1028 40 10000 2.24 113 13:22 07.10.2022
1511 Clear 11 1029 76 10000 0 0 09:56 07.10.2022
1512 Clear 10 1029 76 10000 1.03 0 09:19 07.10.2022
1513 Clear 15 1031 70 10000 0 0 07:51 07.10.2022
1514 Clouds 6 1028 87 10000 1.54 160 01:38 07.10.2022
1515 Clouds 10 1028 76 10000 0.51 0 22:51 06.10.2022
1516 Clouds 9 1030 77 10000 1.54 210 21:48 06.10.2022
1517 Clouds 10 1028 76 10000 1.54 230 21:25 06.10.2022
1518 Clear 11 1029 68 10000 1.54 220 20:31 06.10.2022
1519 Clear 14 1028 55 10000 2.06 50 18:39 06.10.2022
1520 Clear 15 1028 55 10000 2.06 50 18:19 06.10.2022
1521 Clear 15 1028 55 10000 2.06 50 18:19 06.10.2022
1522 Clear 20 1026 32 10000 1.03 0 15:33 06.10.2022
1523 Clear 15 1029 55 10000 1.54 250 12:22 06.10.2022
1524 Clouds 11 1033 80 10000 1.03 0 07:55 06.10.2022
1525 Clouds 5 1029 93 10000 2.06 150 03:38 06.10.2022
1526 Clouds 6 1033 86 10000 2.06 110 00:39 06.10.2022
1527 Clouds 9 1031 73 10000 2.06 240 21:52 05.10.2022
1528 Clear 12 1031 65 10000 2.57 110 19:31 05.10.2022
1529 Clear 16 1028 48 10000 3.09 40 17:36 05.10.2022
1530 Clouds 18 1029 41 10000 1.03 0 16:20 05.10.2022
1531 Clouds 17 1030 43 10000 2.06 0 14:48 05.10.2022
1532 Clouds 18 1030 43 10000 1.34 23 14:19 05.10.2022
1533 Clouds 14 1029 54 10000 2.06 0 12:25 05.10.2022
1534 Clouds 9 1029 81 8000 0.51 0 09:51 05.10.2022
1535 Mist 4 1028 100 5000 0 0 07:51 05.10.2022
1536 Fog 5 1031 90 7000 0 0 06:21 05.10.2022
1537 Fog 6 1030 86 9000 0 0 04:27 05.10.2022
1538 Clouds 8 1028 82 10000 1.54 10 00:53 05.10.2022
1539 Clouds 8 1028 78 10000 0.51 0 00:27 05.10.2022
1540 Clouds 10 1027 75 10000 2.06 340 22:39 04.10.2022
1541 Clouds 11 1026 69 10000 3.09 280 20:39 04.10.2022
1542 Clouds 12 1025 64 10000 3.09 280 18:59 04.10.2022
1543 Clouds 12 1025 61 10000 5.14 280 18:38 04.10.2022
1544 Clouds 13 1024 58 10000 5.66 290 17:48 04.10.2022
1545 Clouds 14 1024 53 10000 6.17 300 16:36 04.10.2022
1546 Clouds 13 1021 58 10000 5.66 290 13:19 04.10.2022
1547 Clouds 13 1023 59 10000 7.2 300 09:47 04.10.2022
1548 Clouds 9 1020 76 10000 4.63 280 07:24 04.10.2022
1549 Clouds 10 1021 71 10000 5.14 280 02:27 04.10.2022
1550 Clouds 10 1021 72 10000 4.63 290 23:41 03.10.2022
1551 Clear 11 1020 70 10000 7.2 280 21:53 03.10.2022
1552 Clouds 12 1020 66 10000 6.69 290 21:23 03.10.2022
1553 Clouds 12 1020 67 10000 6.17 280 20:19 03.10.2022
1554 Clouds 13 1019 63 10000 6.69 280 18:28 03.10.2022
1555 Clouds 14 1018 58 10000 9.26 290 17:25 03.10.2022
1556 Clouds 16 1018 53 10000 8.75 280 15:47 03.10.2022
1557 Clouds 16 1019 65 10000 8.23 280 13:51 03.10.2022
1558 Clouds 15 1019 70 10000 6.69 290 12:28 03.10.2022
1559 Drizzle 12 1020 85 10000 2.06 220 10:39 03.10.2022
1560 Clouds 11 1018 82 10000 0 0 09:38 03.10.2022
1561 Clouds 9 1019 89 10000 1.54 10 06:35 03.10.2022
1562 Clear 8 1020 86 10000 2.57 80 02:53 03.10.2022
1563 Clear 12 1020 71 10000 1.54 320 22:35 02.10.2022
1564 Clear 14 1020 64 10000 3.13 293 20:51 02.10.2022
1565 Clear 16 1020 54 10000 4.63 280 18:42 02.10.2022
1566 Clouds 18 1020 49 10000 6.69 280 17:52 02.10.2022
1567 Clouds 19 1020 48 10000 7.2 280 16:33 02.10.2022
1568 Clouds 19 1021 47 10000 8.75 280 15:56 02.10.2022
1569 Clouds 19 1020 47 10000 9.26 280 14:52 02.10.2022
1570 Clouds 20 1021 47 10000 8.75 290 13:45 02.10.2022
1571 Clouds 18 1019 52 10000 8.23 290 12:30 02.10.2022
1572 Clouds 17 1019 55 10000 9.26 280 11:40 02.10.2022
1573 Clouds 17 1019 55 10000 8.75 290 11:19 02.10.2022
1574 Clouds 15 1018 72 10000 7.2 270 09:28 02.10.2022
1575 Clouds 16 1019 73 10000 8.75 280 07:41 02.10.2022
1576 Clouds 15 1016 95 10000 3.6 300 02:55 02.10.2022
1577 Rain 16 1015 97 8000 3.6 310 00:50 02.10.2022
1578 Rain 16 1016 97 9000 4.63 340 00:22 02.10.2022
1579 Rain 16 1016 96 10000 1.03 0 22:53 01.10.2022
1580 Clear 17 1016 92 10000 1.03 0 20:53 01.10.2022
1581 Clear 17 1017 87 10000 2.57 250 18:50 01.10.2022
1582 Clouds 21 1019 76 10000 1.03 0 16:36 01.10.2022
1583 Clouds 21 1023 74 10000 2.57 60 14:41 01.10.2022
1584 Clouds 18 1024 76 10000 3.09 100 13:32 01.10.2022
1585 Rain 18 1025 73 10000 3.09 30 12:33 01.10.2022
1586 Rain 20 1026 65 10000 2.06 60 11:21 01.10.2022
1587 Clear 20 1024 63 10000 3.13 135 10:32 01.10.2022
1588 Clear 15 1022 82 10000 1.03 0 09:28 01.10.2022
1589 Clouds 13 1022 100 10000 1.03 0 08:58 01.10.2022
1590 Clouds 13 1025 89 10000 2.06 360 05:28 01.10.2022
1591 Clouds 10 1021 100 10000 0 0 03:32 01.10.2022
1592 Clouds 13 1020 88 10000 2.06 350 00:29 01.10.2022
1593 Clouds 15 1023 76 10000 2.06 170 22:48 30.09.2022
1594 Clouds 16 1021 71 10000 2.57 100 21:29 30.09.2022
1595 Clear 17 1021 65 10000 0 0 20:44 30.09.2022
1596 Clear 19 1021 60 10000 3.09 80 20:18 30.09.2022
1597 Clear 24 1017 41 10000 4.12 280 17:38 30.09.2022
1598 Clouds 26 1018 38 10000 4.12 250 15:56 30.09.2022
1599 Clouds 23 1016 53 10000 1.54 0 13:30 30.09.2022
1600 Clear 19 1017 72 10000 2.06 330 11:58 30.09.2022
1601 Clear 25 1020 61 10000 1.03 0 10:40 30.09.2022
1602 Fog 15 1018 95 400 0 0 08:26 30.09.2022
1603 Fog 13 1016 97 500 1.03 0 06:26 30.09.2022
1604 Clouds 13 1015 97 7000 1.03 0 02:39 30.09.2022
1605 Rain 15 1014 95 10000 1.03 0 22:40 29.09.2022
1606 Clouds 15 1013 95 10000 1.03 0 21:28 29.09.2022
1607 Clouds 15 1013 95 10000 1.54 110 20:57 29.09.2022
1608 Rain 16 1012 90 10000 1.54 110 18:45 29.09.2022
1609 Clouds 18 1012 75 8000 4.12 230 17:23 29.09.2022
1610 Clouds 24 1008 41 10000 2.06 200 16:28 29.09.2022
1611 Clouds 24 1008 41 10000 1.03 0 15:36 29.09.2022
1612 Clouds 23 1008 40 10000 2.57 50 14:29 29.09.2022
1613 Clouds 22 1012 57 10000 1.03 0 10:29 29.09.2022
1614 Clouds 13 1011 85 10000 2.57 50 06:58 29.09.2022
1615 Clouds 15 1011 80 10000 1.54 180 02:49 29.09.2022
1616 Clouds 16 1011 74 10000 0 0 23:55 28.09.2022
1617 Clouds 17 1009 71 10000 1.03 0 22:42 28.09.2022
1618 Clouds 17 1009 69 10000 2.06 360 21:29 28.09.2022
1619 Clouds 19 1008 56 10000 0.51 0 20:22 28.09.2022
1620 Clouds 20 1008 54 10000 1.54 150 18:31 28.09.2022
1621 Clouds 23 1006 40 10000 1.03 0 14:52 28.09.2022
1622 Clouds 21 1007 49 10000 2.57 350 12:56 28.09.2022
1623 Clouds 20 1011 75 10000 1.03 0 10:51 28.09.2022
1624 Fog 19 1010 74 900 0.51 0 08:33 28.09.2022
1625 Fog 12 1009 98 400 1.03 0 07:19 28.09.2022
1626 Mist 11 1008 97 1000 0 0 02:36 28.09.2022
1627 Fog 11 1008 97 600 0 0 01:33 28.09.2022
1628 Fog 13 1010 94 900 1.34 23 23:20 27.09.2022
1629 Clouds 13 1007 96 9000 0 0 21:44 27.09.2022
1630 Clouds 13 1007 96 10000 1.03 0 20:38 27.09.2022
1631 Clouds 14 1006 95 10000 3.09 50 19:47 27.09.2022
1632 Thunderstorm 15 1006 92 7000 5.14 200 18:40 27.09.2022
1633 Thunderstorm 15 1003 82 400 10.29 260 17:44 27.09.2022
1634 Clouds 21 1002 64 10000 3.6 0 15:31 27.09.2022
1635 Clouds 22 1004 62 10000 2.06 0 14:55 27.09.2022
1636 Clouds 19 1006 80 10000 2.57 10 12:42 27.09.2022
1637 Clouds 16 1005 94 10000 3.09 80 11:32 27.09.2022
1638 Rain 14 1007 96 5000 25.48 315 08:49 27.09.2022
1639 Clouds 14 1007 93 10000 1.03 0 06:39 27.09.2022
1640 Rain 14 1009 95 9000 1.03 0 01:57 27.09.2022
1641 Rain 14 1010 95 10000 1.54 290 01:27 27.09.2022
1642 Rain 14 1010 95 10000 1.54 290 01:27 27.09.2022
1643 Rain 15 1011 93 10000 1.54 140 23:25 26.09.2022
1644 Rain 15 1011 88 10000 2.06 310 22:34 26.09.2022
1645 Clouds 19 1012 53 10000 5.66 90 20:45 26.09.2022
1646 Clouds 21 1012 47 10000 3.09 100 19:30 26.09.2022
1647 Clouds 22 1012 43 10000 2.06 160 18:31 26.09.2022
1648 Clouds 24 1012 42 10000 2.57 30 16:29 26.09.2022
1649 Clouds 24 1012 35 10000 1.54 0 14:24 26.09.2022
1650 Clouds 19 1014 45 10000 1.03 0 11:29 26.09.2022
1651 Clouds 17 1014 51 10000 1.54 0 10:38 26.09.2022
1652 Clouds 15 1015 58 10000 1.03 0 10:19 26.09.2022
1653 Clouds 21 1018 45 10000 1.54 0 09:53 26.09.2022
1654 Clouds 12 1015 71 10000 1.03 0 09:23 26.09.2022
1655 Clouds 13 1018 73 10000 0 0 07:30 26.09.2022
1656 Clouds 11 1019 74 10000 1.54 130 02:48 26.09.2022
1657 Clouds 12 1020 63 10000 2.57 150 23:29 25.09.2022
1658 Clouds 13 1019 59 10000 1.54 150 21:54 25.09.2022
1659 Clouds 13 1019 58 10000 1.54 150 21:34 25.09.2022
1660 Clear 16 1017 48 10000 3.6 110 20:44 25.09.2022
1661 Clear 17 1016 42 10000 2.57 10 19:31 25.09.2022
1662 Clear 19 1016 37 10000 1.03 0 18:34 25.09.2022
1663 Clear 21 1016 32 10000 2.06 100 17:49 25.09.2022
1664 Clear 23 1016 25 10000 3.6 120 16:22 25.09.2022
1665 Clear 23 1016 25 10000 2.06 0 15:35 25.09.2022
1666 Clear 22 1018 28 10000 2.06 290 14:21 25.09.2022
1667 Clear 20 1019 34 10000 1.54 0 12:44 25.09.2022
1668 Clear 13 1020 54 10000 1.03 0 10:20 25.09.2022
1669 Clouds 6 1020 87 10000 1.03 0 07:47 25.09.2022
1670 Clouds 2 1020 100 10000 0.51 0 05:31 25.09.2022
1671 Clouds 6 1021 81 10000 1.54 180 00:36 25.09.2022
1672 Clouds 10 1020 66 10000 1.54 270 22:34 24.09.2022
1673 Clear 12 1020 62 10000 1.03 0 20:36 24.09.2022
1674 Clear 13 1019 54 10000 1.54 290 19:20 24.09.2022
1675 Clear 20 1021 33 10000 2.06 280 16:58 24.09.2022
1676 Clear 21 1021 30 10000 4.12 280 15:54 24.09.2022
1677 Clear 20 1021 30 10000 4.63 250 15:18 24.09.2022
1678 Clear 19 1022 33 10000 2.68 293 13:22 24.09.2022
1679 Clear 15 1021 47 10000 1.54 0 12:25 24.09.2022
1680 Clear 10 1022 62 10000 1.54 0 10:18 24.09.2022
1681 Clear 7 1022 76 10000 1.03 0 09:21 24.09.2022
1682 Clear 6 1022 81 10000 1.54 90 08:40 24.09.2022
1683 Clear 1 1021 93 10000 1.03 70 04:55 24.09.2022
1684 Clear 1 1020 93 10000 2.06 110 04:25 24.09.2022
1685 Clear 7 1022 76 10000 1.03 0 23:18 23.09.2022
1686 Clear 8 1022 73 10000 2.57 340 21:40 23.09.2022
1687 Clear 9 1022 69 10000 2.57 270 21:22 23.09.2022
1688 Clear 9 1022 67 10000 3.6 270 20:45 23.09.2022
1689 Clear 11 1021 59 10000 3.09 300 19:20 23.09.2022
1690 Clouds 16 1020 42 10000 3.09 340 16:48 23.09.2022
1691 Clouds 17 1021 39 10000 4.92 315 13:40 23.09.2022
1692 Clouds 11 1020 66 10000 3.6 280 10:18 23.09.2022
1693 Clouds 5 1022 88 7000 1.79 0 07:29 23.09.2022
1694 Clouds 6 1021 89 10000 1.54 110 02:25 23.09.2022
1695 Clouds 9 1021 73 10000 1.54 330 23:29 22.09.2022
1696 Clouds 9 1021 70 10000 2.06 310 22:28 22.09.2022
1697 Clouds 9 1021 69 10000 2.57 280 21:30 22.09.2022
1698 Clouds 10 1021 69 10000 3.09 280 20:21 22.09.2022
1699 Clouds 11 1022 63 10000 5.14 290 18:44 22.09.2022
1700 Clouds 17 1021 44 10000 4.12 340 14:49 22.09.2022
1701 Clouds 14 1021 58 10000 4.92 293 10:38 22.09.2022
1702 Clouds 11 1019 71 10000 5.14 280 10:19 22.09.2022
1703 Mist 7 1021 86 8000 1.03 0 07:48 22.09.2022
1704 Clouds 6 1021 88 10000 3.13 0 04:37 22.09.2022
1705 Clouds 8 1021 83 10000 3.6 280 00:25 22.09.2022
1706 Clouds 9 1021 77 10000 4.63 270 22:28 21.09.2022
1707 Clouds 10 1021 69 10000 3.09 280 20:55 21.09.2022
1708 Clouds 12 1019 57 10000 3.09 20 18:30 21.09.2022
1709 Clouds 14 1019 48 10000 2.68 293 17:22 21.09.2022
1710 Clouds 14 1019 51 10000 5.36 293 15:29 21.09.2022
1711 Clouds 15 1017 41 10000 5.66 290 13:39 21.09.2022
1712 Clouds 14 1020 54 10000 4.12 290 11:34 21.09.2022
1713 Clouds 12 1019 62 10000 5.14 290 10:50 21.09.2022
1714 Clouds 12 1019 62 10000 5.14 290 10:50 21.09.2022
1715 Clouds 13 1021 63 10000 4.63 280 09:38 21.09.2022
1716 Clouds 6 1019 87 8000 0 0 08:23 21.09.2022
1717 Clouds 5 1020 87 10000 1.03 0 02:51 21.09.2022
1718 Clear 5 1020 86 10000 1.03 0 02:33 21.09.2022
1719 Clear 6 1020 84 10000 1.03 120 01:49 21.09.2022
1720 Clear 8 1020 75 10000 1.54 280 23:50 20.09.2022
1721 Clear 9 1020 70 10000 0 0 21:33 20.09.2022
1722 Clear 10 1019 66 10000 4.02 270 20:23 20.09.2022
1723 Clouds 15 1017 44 10000 6.17 290 17:41 20.09.2022
1724 Clouds 16 1019 40 10000 5.66 280 14:59 20.09.2022
1725 Clouds 16 1019 43 10000 6.71 293 13:58 20.09.2022
1726 Clouds 13 1018 54 10000 3.6 270 10:41 20.09.2022
1727 Clear 9 1018 76 10000 4.12 290 08:29 20.09.2022
1728 Clear 8 1018 76 10000 1.54 0 07:31 20.09.2022
1729 Clouds 8 1020 76 10000 4.63 280 04:30 20.09.2022
1730 Clouds 10 1020 73 10000 6.69 270 01:28 20.09.2022
1731 Clouds 11 1019 68 10000 8.23 280 22:29 19.09.2022
1732 Clear 13 1018 64 10000 7.72 290 20:59 19.09.2022
1733 Clear 13 1017 63 10000 8.49 0 20:39 19.09.2022
1734 Clouds 18 1013 42 10000 3.09 310 18:42 19.09.2022
1735 Clear 21 1015 29 10000 2.06 260 16:29 19.09.2022
1736 Clear 21 1016 34 10000 2.06 0 13:44 19.09.2022
1737 Clear 13 1016 54 10000 1.54 0 11:33 19.09.2022
1738 Clear 8 1017 76 10000 1.03 0 09:33 19.09.2022
1739 Clouds 5 1017 87 10000 1.03 0 08:20 19.09.2022
1740 Clear 4 1017 93 10000 1.54 70 02:46 19.09.2022
1741 Clear 6 1020 83 10000 2.06 230 23:26 18.09.2022
1742 Clear 8 1019 78 10000 1.54 350 21:53 18.09.2022
1743 Clear 10 1019 66 10000 3.09 270 20:34 18.09.2022
1744 Clouds 12 1018 55 10000 5.66 280 18:42 18.09.2022
1745 Clouds 13 1017 53 10000 5.66 270 17:45 18.09.2022
1746 Clouds 13 1017 53 10000 7.72 280 16:32 18.09.2022
1747 Clouds 14 1017 54 10000 10.29 290 14:35 18.09.2022
1748 Clouds 13 1016 60 10000 9.77 280 12:55 18.09.2022
1749 Clouds 13 1016 59 10000 10.8 280 11:51 18.09.2022
1750 Clouds 9 1012 80 10000 8.23 280 06:45 18.09.2022
1751 Rain 17 1005 80 10000 2.06 320 01:32 18.09.2022
1752 Rain 17 1005 86 10000 2.06 300 00:48 18.09.2022
1753 Clouds 16 1005 87 10000 3.09 50 22:23 17.09.2022
1754 Clouds 17 1005 86 10000 3.6 40 20:48 17.09.2022
1755 Clouds 17 1004 90 10000 1.54 0 19:28 17.09.2022
1756 Rain 17 1006 86 10000 5.14 60 17:19 17.09.2022
1757 Rain 19 1008 83 10000 4.12 0 13:59 17.09.2022
1758 Rain 18 1009 86 10000 1.79 293 12:29 17.09.2022
1759 Clouds 20 1007 73 10000 1.54 30 10:47 17.09.2022
1760 Drizzle 17 1010 90 10000 2.06 140 06:29 17.09.2022
1761 Clouds 16 1011 91 10000 0.51 0 03:34 17.09.2022
1762 Rain 17 1013 86 10000 25.48 315 23:23 16.09.2022
1763 Clouds 17 1012 88 10000 2.06 80 21:33 16.09.2022
1764 Clear 17 1012 86 10000 2.57 180 20:41 16.09.2022
1765 Clouds 20 1013 73 10000 2.06 350 18:18 16.09.2022
1766 Rain 22 1015 73 10000 3.13 0 16:18 16.09.2022
1767 Clouds 25 1016 54 10000 2.57 330 14:39 16.09.2022
1768 Rain 26 1011 41 10000 2.57 340 12:31 16.09.2022
1769 Clear 24 1012 50 10000 1.03 0 09:34 16.09.2022
1770 Clouds 21 1015 63 10000 2.57 270 07:21 16.09.2022
1771 Clouds 18 1015 66 10000 25.48 315 06:47 16.09.2022
1772 Clouds 19 1015 62 10000 3.6 90 04:42 16.09.2022
1773 Clouds 21 1013 56 10000 2.57 340 23:50 15.09.2022
1774 Clouds 23 1014 52 10000 2.57 170 21:24 15.09.2022
1775 Clouds 24 1014 44 10000 1.54 220 20:25 15.09.2022
1776 Clear 26 1016 38 10000 2.57 290 18:53 15.09.2022
1777 Clear 31 1011 27 10000 4.63 280 17:33 15.09.2022
1778 Clear 32 1014 27 10000 5.14 280 16:54 15.09.2022
1779 Clear 31 1012 30 10000 3.09 250 14:42 15.09.2022
1780 Clear 31 1016 34 10000 1.54 200 12:48 15.09.2022
1781 Clear 21 1015 52 10000 1.03 0 10:21 15.09.2022
1782 Clear 21 1018 57 10000 2.06 110 07:51 15.09.2022
1783 Clouds 15 1018 75 10000 1.03 80 03:58 15.09.2022
1784 Clouds 15 1017 74 10000 2.06 200 01:27 15.09.2022
1785 Clouds 18 1017 65 10000 1.54 150 22:26 14.09.2022
1786 Clear 22 1016 49 10000 1.54 240 19:59 14.09.2022
1787 Clear 22 1016 49 10000 3.6 220 19:26 14.09.2022
1788 Clear 28 1017 35 10000 4.12 290 17:25 14.09.2022
1789 Clear 27 1017 34 10000 4.63 290 15:49 14.09.2022
1790 Clear 27 1017 30 10000 3.6 310 14:33 14.09.2022
1791 Clear 19 1016 52 10000 1.54 0 11:40 14.09.2022
1792 Clear 15 1017 63 10000 1.03 0 09:48 14.09.2022
1793 Clear 9 1017 87 10000 1.54 120 07:38 14.09.2022
1794 Clear 10 1018 88 10000 2.06 100 06:47 14.09.2022
1795 Clear 8 1018 89 10000 1.54 120 04:33 14.09.2022
1796 Clouds 10 1018 84 10000 1.03 120 01:47 14.09.2022
1797 Clouds 10 1018 83 10000 1.54 120 01:27 14.09.2022
1798 Clouds 11 1018 79 10000 1.03 0 00:48 14.09.2022
1799 Clouds 12 1018 80 10000 2.06 290 23:54 13.09.2022
1800 Clouds 12 1018 79 10000 2.06 290 23:36 13.09.2022
1801 Clouds 13 1018 71 10000 1.03 230 23:18 13.09.2022
1802 Clouds 15 1018 63 10000 2.57 310 21:45 13.09.2022
1803 Clear 17 1017 54 10000 3.6 270 19:45 13.09.2022
1804 Clouds 20 1014 40 10000 6.17 290 17:44 13.09.2022
1805 Clouds 22 1016 40 10000 7.2 280 15:55 13.09.2022
1806 Clouds 22 1016 39 10000 5.14 280 14:35 13.09.2022
1807 Clouds 20 1014 45 10000 2.57 260 12:32 13.09.2022
1808 Clouds 15 1015 72 10000 4.63 300 08:43 13.09.2022
1809 Clouds 12 1016 86 10000 2.24 315 05:22 13.09.2022
1810 Clouds 14 1017 72 10000 3.6 280 00:19 13.09.2022
1811 Clouds 15 1017 69 10000 2.06 310 22:49 12.09.2022
1812 Clouds 16 1017 64 10000 3.13 293 21:37 12.09.2022
1813 Clouds 16 1017 64 10000 4.63 280 20:25 12.09.2022
1814 Clouds 18 1014 55 10000 4.12 290 18:44 12.09.2022
1815 Clouds 19 1016 53 10000 6.69 280 16:32 12.09.2022
1816 Clouds 19 1016 53 10000 6.69 280 16:32 12.09.2022
1817 Clouds 19 1016 53 10000 6.69 280 16:31 12.09.2022
1818 Clouds 21 1016 52 10000 8.75 280 13:57 12.09.2022
1819 Clouds 18 1015 63 10000 6.17 280 11:29 12.09.2022
1820 Rain 18 1017 64 10000 4.63 290 09:45 12.09.2022
1821 Clouds 13 1016 85 10000 5.14 280 04:49 12.09.2022
1822 Clouds 14 1016 85 10000 4.63 280 03:33 12.09.2022
1823 Clouds 15 1016 91 10000 4.63 290 23:22 11.09.2022
1824 Clouds 16 1016 84 10000 4.12 270 21:58 11.09.2022
1825 Clouds 17 1016 81 10000 4.63 280 20:46 11.09.2022
1826 Rain 17 1016 75 10000 3.6 280 19:52 11.09.2022
1827 Rain 18 1017 73 10000 4.12 300 19:22 11.09.2022
1828 Rain 21 1017 54 10000 2.68 315 18:20 11.09.2022
1829 Clouds 25 1014 43 10000 4.12 300 16:34 11.09.2022
1830 Clouds 26 1015 42 10000 4.63 300 14:19 11.09.2022
1831 Clouds 23 1014 49 10000 4.12 300 12:33 11.09.2022
1832 Clear 17 1015 82 10000 2.57 310 08:39 11.09.2022
1833 Clouds 16 1017 93 10000 1.03 0 06:44 11.09.2022
1834 Clouds 18 1019 73 10000 3.6 280 00:49 11.09.2022
1835 Clouds 19 1017 79 10000 4.12 270 22:54 10.09.2022
1836 Clouds 21 1016 74 10000 3.13 293 20:55 10.09.2022
1837 Clouds 22 1016 75 10000 1.79 293 19:46 10.09.2022
1838 Clouds 21 1016 81 10000 2.24 293 19:28 10.09.2022
1839 Clouds 22 1013 83 10000 2.06 360 18:22 10.09.2022
1840 Rain 26 1017 76 10000 2.06 190 15:49 10.09.2022
1841 Clouds 20 1015 83 5000 5.14 260 14:40 10.09.2022
1842 Clouds 27 1014 50 10000 1.54 0 12:52 10.09.2022
1843 Clear 23 1016 60 10000 1.54 0 10:35 10.09.2022
1844 Clear 20 1016 77 10000 2.06 0 09:24 10.09.2022
1845 Clouds 18 1016 88 10000 1.03 40 08:27 10.09.2022
1846 Clouds 18 1018 83 10000 1.03 0 05:50 10.09.2022
1847 Clouds 19 1019 76 10000 1.03 0 23:56 09.09.2022
1848 Clouds 19 1018 75 10000 1.54 90 23:31 09.09.2022
1849 Clouds 21 1019 67 10000 2.57 50 21:38 09.09.2022
1850 Clouds 22 1019 66 10000 3.09 50 20:31 09.09.2022
1851 Clear 22 1018 63 10000 3.09 30 19:24 09.09.2022
1852 Clear 25 1016 53 10000 3.6 30 18:33 09.09.2022
1853 Clouds 27 1018 49 10000 1.54 20 16:18 09.09.2022
1854 Clouds 26 1020 49 10000 2.57 300 13:47 09.09.2022
1855 Clear 25 1018 47 10000 1.54 290 11:51 09.09.2022
1856 Clear 20 1019 60 10000 0 0 09:21 09.09.2022
1857 Clear 15 1022 86 10000 1.03 0 03:48 09.09.2022
1858 Clear 17 1021 74 10000 2.06 150 00:40 09.09.2022
1859 Clouds 19 1021 64 10000 3.6 100 21:52 08.09.2022
1860 Clear 20 1021 62 10000 5.14 90 20:50 08.09.2022
1861 Clear 21 1021 61 10000 4.63 90 20:29 08.09.2022
1862 Clouds 23 1020 57 10000 4.63 90 19:28 08.09.2022
1863 Clouds 28 1017 39 10000 2.06 0 17:40 08.09.2022
1864 Clear 28 1020 40 10000 2.06 0 16:19 08.09.2022
1865 Clear 28 1021 39 10000 1.54 0 13:56 08.09.2022
1866 Clear 30 1023 36 10000 1.54 0 12:50 08.09.2022
1867 Clouds 22 1020 46 10000 2.06 0 11:32 08.09.2022
1868 Clear 19 1021 55 10000 2.06 280 09:58 08.09.2022
1869 Clear 14 1020 72 10000 0.51 0 07:45 08.09.2022
1870 Clear 12 1023 86 10000 1.54 90 05:30 08.09.2022
1871 Clear 13 1022 78 10000 2.06 150 02:36 08.09.2022
1872 Clear 13 1022 77 10000 2.06 160 02:18 08.09.2022
1873 Clear 14 1023 72 10000 2.06 0 00:21 08.09.2022
1874 Clear 17 1022 64 10000 4.12 120 21:58 07.09.2022
1875 Clear 17 1022 62 10000 3.6 130 21:38 07.09.2022
1876 Clear 18 1022 60 10000 3.6 100 20:30 07.09.2022
1877 Clear 21 1021 52 10000 3.09 130 19:23 07.09.2022
1878 Clear 26 1023 41 10000 3.13 338 16:30 07.09.2022
1879 Clear 21 1022 46 10000 2.57 0 11:28 07.09.2022
1880 Clear 20 1022 49 10000 2.06 0 10:32 07.09.2022
1881 Clear 15 1022 67 10000 3.6 120 08:29 07.09.2022
1882 Clear 13 1024 83 10000 2.57 110 06:31 07.09.2022
1883 Rain 13 1024 85 10000 2.57 100 00:38 07.09.2022
1884 Clouds 17 1024 70 10000 1.54 130 21:56 06.09.2022
1885 Clouds 17 1024 69 10000 1.54 150 21:33 06.09.2022
1886 Clouds 19 1023 65 10000 2.06 110 19:39 06.09.2022
1887 Clouds 21 1025 56 10000 2.57 70 18:40 06.09.2022
1888 Clouds 23 1024 51 10000 4.12 30 17:39 06.09.2022
1889 Clouds 24 1023 44 10000 5.14 30 16:47 06.09.2022
1890 Clouds 25 1025 42 10000 4.63 20 15:58 06.09.2022
1891 Clouds 25 1021 38 10000 2.06 0 13:48 06.09.2022
1892 Clouds 24 1022 43 10000 2.06 230 13:27 06.09.2022
1893 Clouds 23 1022 46 10000 2.06 300 12:57 06.09.2022
1894 Clear 20 1023 60 10000 2.06 0 10:55 06.09.2022
1895 Clear 17 1023 72 10000 1.03 0 09:18 06.09.2022
1896 Clear 14 1024 82 10000 2.06 100 07:52 06.09.2022
1897 Clear 14 1024 82 10000 2.06 100 07:52 06.09.2022
1898 Clear 11 1026 92 10000 1.03 310 06:19 06.09.2022
1899 Clouds 12 1026 89 10000 1.54 180 00:54 06.09.2022
1900 Rain 15 1026 78 10000 1.54 100 22:49 05.09.2022
1901 Rain 17 1026 69 10000 3.09 160 21:38 05.09.2022
1902 Clear 18 1026 68 10000 2.57 160 20:18 05.09.2022
1903 Clouds 20 1023 56 10000 3.6 30 18:53 05.09.2022
1904 Clouds 22 1023 49 10000 5.14 30 18:24 05.09.2022
1905 Clouds 22 1023 49 10000 4.12 30 17:47 05.09.2022
1906 Clouds 23 1023 46 10000 4.12 20 15:53 05.09.2022
1907 Clouds 24 1023 43 10000 4.63 30 14:20 05.09.2022
1908 Clouds 21 1024 52 10000 2.57 330 12:29 05.09.2022
1909 Clouds 20 1025 56 10000 1.54 0 10:35 05.09.2022
1910 Clouds 17 1024 77 10000 1.54 80 08:36 05.09.2022
1911 Clouds 17 1023 77 10000 3.6 110 03:47 05.09.2022
1912 Clouds 18 1022 88 10000 0 0 23:58 04.09.2022
1913 Clouds 18 1022 82 10000 0 0 22:28 04.09.2022
1914 Rain 18 1022 82 10000 1.54 120 21:45 04.09.2022
1915 Rain 18 1021 88 10000 0 0 19:44 04.09.2022
1916 Rain 21 1020 64 10000 4.12 30 18:21 04.09.2022
1917 Clouds 24 1020 53 10000 3.6 20 17:26 04.09.2022
1918 Clouds 25 1020 41 10000 2.57 0 15:23 04.09.2022
1919 Clouds 25 1020 47 10000 2.06 0 14:22 04.09.2022
1920 Clouds 22 1021 56 10000 1.03 0 12:24 04.09.2022
1921 Clouds 18 1022 77 10000 1.54 0 10:58 04.09.2022
1922 Mist 13 1022 100 1500 2.06 110 09:23 04.09.2022
1923 Fog 12 1021 100 400 0 0 06:24 04.09.2022
1924 Clear 13 1021 100 10000 1.03 0 02:30 04.09.2022
1925 Clear 15 1020 94 10000 0.51 0 22:26 03.09.2022
1926 Clear 15 1020 94 10000 0.51 0 22:26 03.09.2022
1927 Rain 15 1020 94 10000 0.51 0 22:26 03.09.2022
1928 Clear 16 1020 88 10000 1.03 0 21:24 03.09.2022
1929 Clouds 16 1019 88 10000 2.06 280 20:51 03.09.2022
1930 Clouds 21 1017 68 10000 3.6 10 17:37 03.09.2022
1931 Clouds 22 1017 60 10000 2.57 330 16:49 03.09.2022
1932 Clouds 22 1018 60 10000 2.06 330 14:47 03.09.2022
1933 Clouds 22 1018 60 10000 3.6 320 14:28 03.09.2022
1934 Clouds 22 1018 60 10000 3.6 290 13:43 03.09.2022
1935 Clouds 19 1018 68 10000 3.09 300 11:24 03.09.2022
1936 Clouds 18 1020 77 10000 3.6 280 08:55 03.09.2022
1937 Clouds 16 1019 86 10000 3.6 280 07:23 03.09.2022
1938 Clouds 15 1018 87 10000 4.12 280 04:45 03.09.2022
1939 Rain 16 1018 87 10000 4.63 280 00:48 03.09.2022
1940 Clouds 16 1018 91 10000 4.12 280 23:28 02.09.2022
1941 Clouds 17 1018 91 10000 4.12 270 21:36 02.09.2022
1942 Clouds 17 1018 92 10000 4.63 270 20:40 02.09.2022
1943 Clouds 17 1017 96 6000 3.09 280 19:47 02.09.2022
1944 Clouds 18 1019 89 10000 3.6 320 18:43 02.09.2022
1945 Clouds 19 1016 91 10000 1.54 120 18:24 02.09.2022
1946 Clouds 19 1016 91 2200 3.6 230 16:51 02.09.2022
1947 Rain 22 1017 70 10000 1.54 100 15:48 02.09.2022
1948 Clouds 21 1014 73 10000 1.54 70 12:56 02.09.2022
1949 Clouds 19 1014 88 10000 0 0 10:25 02.09.2022
1950 Clouds 19 1014 88 10000 0 0 10:25 02.09.2022
1951 Clouds 19 1014 88 10000 1.03 0 09:41 02.09.2022
1952 Clouds 19 1016 86 10000 2.06 290 08:35 02.09.2022
1953 Clouds 18 1016 87 10000 1.03 270 06:42 02.09.2022
1954 Clouds 19 1015 86 10000 2.24 0 03:53 02.09.2022
1955 Clouds 18 1015 84 10000 0.51 0 22:54 01.09.2022
1956 Clouds 19 1016 81 10000 0.51 0 21:45 01.09.2022
1957 Clouds 19 1016 81 10000 1.54 0 21:25 01.09.2022
1958 Clouds 20 1015 77 10000 3.09 170 20:46 01.09.2022
1959 Clouds 21 1015 74 10000 2.57 180 19:20 01.09.2022
1960 Clouds 25 1014 57 10000 3.13 113 17:47 01.09.2022
1961 Clouds 27 1014 48 10000 1.54 150 16:29 01.09.2022
1962 Clouds 26 1012 50 10000 2.06 0 14:33 01.09.2022
1963 Clouds 27 1016 48 10000 1.54 0 12:59 01.09.2022
1964 Clear 23 1014 60 10000 2.06 0 11:53 01.09.2022
1965 Clear 22 1014 68 8000 2.06 360 11:32 01.09.2022
1966 Clear 20 1015 73 8000 2.06 310 10:40 01.09.2022
1967 Mist 15 1015 100 2200 1.03 0 08:30 01.09.2022
1968 Fog 14 1017 96 200 1.54 340 06:23 01.09.2022
1969 Mist 15 1017 93 5000 1.54 110 01:33 01.09.2022
1970 Clouds 17 1018 85 10000 1.54 310 00:18 01.09.2022
1971 Clouds 19 1018 80 10000 1.03 0 21:33 31.08.2022
1972 Clear 19 1017 75 10000 3.6 100 19:50 31.08.2022
1973 Clear 21 1018 66 10000 1.54 20 18:18 31.08.2022
1974 Clouds 23 1018 61 10000 4.12 90 16:23 31.08.2022
1975 Rain 25 1019 57 10000 1.54 260 14:32 31.08.2022
1976 Clouds 27 1015 50 10000 2.57 250 12:22 31.08.2022
1977 Clouds 25 1016 57 10000 1.54 0 11:22 31.08.2022
1978 Clouds 19 1017 77 8000 1.03 0 08:37 31.08.2022
1979 Clouds 15 1019 93 7000 0.51 0 04:47 31.08.2022
1980 Clouds 18 1019 81 10000 2.57 220 23:20 30.08.2022
1981 Clouds 19 1019 79 10000 1.03 0 21:41 30.08.2022
1982 Clear 19 1019 77 10000 1.54 310 20:57 30.08.2022
1983 Clear 25 1016 50 10000 2.06 360 18:23 30.08.2022
1984 Clouds 24 1018 60 10000 3.09 60 14:44 30.08.2022
1985 Clouds 22 1019 68 10000 2.06 100 13:24 30.08.2022
1986 Clouds 21 1019 73 10000 1.54 220 11:21 30.08.2022
1987 Clouds 20 1019 73 10000 1.54 270 10:40 30.08.2022
1988 Clouds 16 1018 94 8000 1.03 0 06:51 30.08.2022
1989 Clouds 18 1018 82 10000 1.03 0 01:53 30.08.2022
1990 Clouds 19 1020 81 10000 1.03 0 22:58 29.08.2022
1991 Clouds 18 1020 81 10000 2.06 300 22:24 29.08.2022
1992 Clouds 19 1020 80 10000 1.54 30 21:25 29.08.2022
1993 Clear 20 1020 76 10000 2.57 270 19:51 29.08.2022
1994 Rain 23 1017 60 10000 3.6 290 17:50 29.08.2022
1995 Rain 25 1017 50 10000 3.09 240 17:24 29.08.2022
1996 Rain 25 1022 52 10000 5.14 90 16:22 29.08.2022
1997 Clouds 30 1021 42 10000 3.6 0 14:43 29.08.2022
1998 Clouds 29 1017 42 10000 2.06 0 12:52 29.08.2022
1999 Clouds 27 1020 50 10000 4.02 293 10:56 29.08.2022
2000 Clear 30 1023 46 10000 1.54 0 09:45 29.08.2022
2001 Clear 17 1018 82 10000 1.03 0 08:28 29.08.2022
2002 Clouds 18 1021 77 10000 2.06 120 02:48 29.08.2022
2003 Clouds 19 1019 71 10000 0 0 23:52 28.08.2022
2004 Clear 21 1019 63 10000 1.54 170 22:22 28.08.2022
2005 Clouds 23 1018 56 10000 1.54 310 21:32 28.08.2022
2006 Clear 25 1018 47 10000 1.54 230 20:39 28.08.2022
2007 Clear 29 1014 34 10000 4.12 280 18:51 28.08.2022
2008 Clear 30 1014 32 10000 2.06 260 18:19 28.08.2022
2009 Clear 32 1014 20 10000 1.54 0 16:55 28.08.2022
2010 Clear 33 1019 25 10000 2.06 180 15:50 28.08.2022
2011 Clear 30 1015 30 10000 2.06 30 13:47 28.08.2022
2012 Clear 29 1013 37 10000 2.57 230 12:31 28.08.2022
2013 Clear 24 1016 50 10000 1.54 0 10:27 28.08.2022
2014 Clear 21 1016 64 10000 0.51 0 09:38 28.08.2022
2015 Clear 18 1016 72 10000 1.03 0 08:32 28.08.2022
2016 Clear 17 1016 77 10000 1.54 100 07:34 28.08.2022
2017 Clear 17 1017 71 10000 1.03 0 01:28 28.08.2022
2018 Clear 19 1017 65 10000 1.03 0 00:20 28.08.2022
2019 Clear 20 1017 58 10000 2.06 130 22:27 27.08.2022
2020 Clear 22 1016 54 10000 2.57 160 20:49 27.08.2022
2021 Clear 23 1018 46 10000 2.57 110 19:37 27.08.2022
2022 Clouds 32 1017 28 10000 3.09 140 16:34 27.08.2022
2023 Clouds 32 1017 27 10000 3.6 150 15:31 27.08.2022
2024 Clouds 29 1013 30 10000 2.57 0 13:57 27.08.2022
2025 Clear 28 1013 34 10000 2.06 260 12:22 27.08.2022
2026 Clear 22 1014 53 10000 1.54 0 10:30 27.08.2022
2027 Clear 19 1014 63 10000 1.03 0 09:40 27.08.2022
2028 Clear 20 1017 72 10000 0.51 310 06:55 27.08.2022
2029 Clear 15 1017 80 10000 0 0 02:27 27.08.2022
2030 Clear 18 1017 71 10000 1.54 100 23:49 26.08.2022
2031 Clear 19 1016 61 10000 1.54 120 21:59 26.08.2022
2032 Clear 21 1016 57 10000 2.06 350 20:23 26.08.2022
2033 Clouds 26 1011 36 10000 3.6 60 18:32 26.08.2022
2034 Clouds 29 1016 33 10000 4.63 60 16:40 26.08.2022
2035 Clouds 30 1016 32 10000 5.14 40 15:26 26.08.2022
2036 Clouds 27 1012 36 10000 3.09 40 13:26 26.08.2022
2037 Clouds 26 1012 41 10000 2.06 0 12:34 26.08.2022
2038 Clouds 24 1013 53 10000 1.03 0 11:22 26.08.2022
2039 Clouds 23 1015 66 10000 1.03 0 09:53 26.08.2022
2040 Clouds 17 1015 82 10000 2.57 340 04:56 26.08.2022
2041 Rain 18 1015 77 10000 1.03 0 00:55 26.08.2022
2042 Clear 20 1016 75 10000 0 0 22:45 25.08.2022
2043 Clear 21 1016 68 10000 1.03 0 20:57 25.08.2022
2044 Clouds 23 1015 58 10000 1.03 0 19:47 25.08.2022
2045 Clouds 25 1013 50 10000 2.06 50 18:36 25.08.2022
2046 Clouds 26 1015 49 10000 3.13 113 17:32 25.08.2022
2047 Clouds 28 1018 44 10000 4.12 20 16:45 25.08.2022
2048 Clouds 26 1012 19 10000 4.63 40 15:37 25.08.2022
2049 Clouds 28 1018 46 10000 4.63 30 13:59 25.08.2022
2050 Clouds 27 1016 51 10000 3.6 0 11:34 25.08.2022
2051 Clouds 24 1014 64 10000 2.06 0 10:45 25.08.2022
2052 Clouds 21 1017 81 10000 2.06 310 07:55 25.08.2022
2053 Clouds 18 1017 90 10000 2.57 320 03:54 25.08.2022
2054 Clouds 19 1018 86 10000 2.57 260 23:38 24.08.2022
2055 Clouds 19 1018 85 10000 2.06 290 23:18 24.08.2022
2056 Clouds 20 1018 80 10000 1.54 230 21:56 24.08.2022
2057 Clouds 20 1018 77 10000 0.51 0 21:30 24.08.2022
2058 Clouds 22 1017 71 10000 2.57 30 19:56 24.08.2022
2059 Clouds 25 1018 61 10000 3.6 30 17:28 24.08.2022
2060 Clouds 26 1018 59 10000 5.66 40 15:54 24.08.2022
2061 Clouds 27 1018 55 10000 4.63 10 15:28 24.08.2022
2062 Clouds 25 1014 53 10000 2.57 150 12:52 24.08.2022
2063 Clouds 23 1015 60 10000 2.06 250 11:19 24.08.2022
2064 Clouds 19 1015 82 10000 2.06 280 08:58 24.08.2022
2065 Mist 17 1017 97 5000 2.06 300 06:40 24.08.2022
2066 Clouds 17 1017 96 10000 3.6 110 00:55 24.08.2022
2067 Clouds 17 1017 93 10000 3.09 220 22:41 23.08.2022
2068 Clouds 18 1016 91 10000 3.09 230 21:55 23.08.2022
2069 Rain 18 1016 87 10000 0 0 20:49 23.08.2022
2070 Rain 19 1015 86 10000 1.54 180 19:24 23.08.2022
2071 Thunderstorm 21 1015 80 10000 3.13 135 18:18 23.08.2022
2072 Rain 19 1016 86 10000 4.12 250 17:28 23.08.2022
2073 Thunderstorm 25 1011 57 10000 2.57 70 16:26 23.08.2022
2074 Clouds 26 1012 57 10000 1.54 0 14:30 23.08.2022
2075 Clouds 24 1012 57 10000 2.06 270 12:46 23.08.2022
2076 Clear 24 1015 63 10000 1.54 200 10:58 23.08.2022
2077 Clear 22 1013 64 10000 1.54 200 10:33 23.08.2022
2078 Clear 21 1013 68 10000 1.54 0 09:38 23.08.2022
2079 Clear 20 1012 73 10000 2.06 350 08:47 23.08.2022
2080 Clouds 19 1012 77 10000 1.54 320 08:19 23.08.2022
2081 Clouds 18 1014 84 10000 2.06 250 07:33 23.08.2022
2082 Clouds 17 1013 87 10000 4.12 70 06:23 23.08.2022
2083 Clouds 17 1013 96 7000 1.54 80 01:49 23.08.2022
2084 Clouds 17 1013 96 8000 1.03 0 00:27 23.08.2022
2085 Clouds 18 1013 92 9000 1.54 300 23:32 22.08.2022
2086 Clouds 19 1013 89 10000 1.54 180 22:25 22.08.2022
2087 Clear 19 1013 91 10000 1.54 280 20:44 22.08.2022
2088 Clouds 20 1012 87 10000 2.57 260 19:44 22.08.2022
2089 Clouds 20 1012 84 10000 2.57 290 18:37 22.08.2022
2090 Thunderstorm 22 1012 65 10000 8.23 90 15:55 22.08.2022
2091 Rain 26 1011 55 10000 2.57 120 15:18 22.08.2022
2092 Clouds 23 1010 64 10000 1.54 180 11:45 22.08.2022
2093 Clouds 19 1010 77 10000 2.06 0 09:27 22.08.2022
2094 Clouds 18 1012 91 6000 2.06 290 06:58 22.08.2022
2095 Clouds 18 1012 88 10000 3.6 280 02:28 22.08.2022
2096 Rain 18 1012 87 10000 3.6 280 00:36 22.08.2022
2097 Clouds 19 1012 82 10000 3.13 293 23:32 21.08.2022
2098 Clouds 20 1012 81 10000 3.6 340 21:55 21.08.2022
2099 Clouds 20 1012 84 10000 1.03 0 21:19 21.08.2022
2100 Rain 20 1012 82 10000 2.57 90 19:58 21.08.2022
2101 Clouds 22 1007 73 10000 5.66 100 18:36 21.08.2022
2102 Clouds 22 1011 72 10000 3.6 120 16:48 21.08.2022
2103 Rain 24 1011 64 10000 3.09 130 15:52 21.08.2022
2104 Clouds 25 1011 59 10000 3.09 120 14:41 21.08.2022
2105 Clouds 26 1012 55 10000 3.6 120 13:48 21.08.2022
2106 Clouds 22 1010 68 10000 2.57 120 12:55 21.08.2022
2107 Clouds 21 1010 78 10000 2.57 320 10:36 21.08.2022
2108 Clouds 21 1013 80 10000 1.03 0 08:57 21.08.2022
2109 Clouds 22 1015 76 8000 0.51 0 08:39 21.08.2022
2110 Mist 20 1013 89 5000 2.57 110 07:53 21.08.2022
2111 Clouds 17 1013 96 10000 1.03 100 05:39 21.08.2022
2112 Rain 17 1014 93 10000 1.54 230 00:54 21.08.2022
2113 Rain 17 1015 96 10000 4.63 120 23:20 20.08.2022
2114 Rain 18 1016 89 7000 4.63 310 21:46 20.08.2022
2115 Rain 19 1016 83 10000 8.75 280 20:48 20.08.2022
2116 Rain 21 1015 86 10000 3.58 293 19:42 20.08.2022
2117 Clouds 21 1013 87 10000 3.09 0 18:44 20.08.2022
2118 Clouds 21 1012 86 10000 4.12 200 18:25 20.08.2022
2119 Thunderstorm 19 1012 88 8000 7.2 280 17:20 20.08.2022
2120 Rain 25 1015 75 10000 1.54 140 15:52 20.08.2022
2121 Clouds 36 1015 32 10000 2.57 0 13:39 20.08.2022
2122 Clear 30 1011 42 10000 4.63 110 11:53 20.08.2022
2123 Clear 31 1015 43 10000 4.63 140 10:39 20.08.2022
2124 Clear 26 1012 53 10000 2.06 130 09:18 20.08.2022
2125 Clear 22 1017 65 10000 3.09 130 06:40 20.08.2022
2126 Clouds 21 1015 66 10000 3.09 120 03:57 20.08.2022
2127 Clear 22 1015 63 10000 4.02 113 00:51 20.08.2022
2128 Clear 23 1016 59 10000 2.57 120 23:19 19.08.2022
2129 Clear 24 1016 57 10000 2.57 90 22:35 19.08.2022
2130 Clear 27 1015 43 10000 1.54 150 20:29 19.08.2022
2131 Clear 31 1012 35 10000 4.12 80 18:51 19.08.2022
2132 Clear 35 1015 27 10000 2.06 0 15:51 19.08.2022
2133 Clear 35 1016 27 10000 3.13 113 13:36 19.08.2022
2134 Clear 29 1015 39 10000 2.06 250 11:33 19.08.2022
2135 Clear 26 1015 47 10000 1.54 0 10:26 19.08.2022
2136 Clear 17 1015 77 10000 2.06 110 07:21 19.08.2022
2137 Clear 20 1019 66 10000 0 0 01:24 19.08.2022
2138 Clear 20 1017 62 10000 2.06 180 00:31 19.08.2022
2139 Clear 21 1017 61 10000 1.54 10 23:48 18.08.2022
2140 Clear 22 1017 55 10000 0 0 22:51 18.08.2022
2141 Clear 25 1014 47 10000 2.57 260 21:57 18.08.2022
2142 Clear 25 1017 45 10000 2.57 260 21:35 18.08.2022
2143 Clear 28 1017 40 10000 2.06 300 20:25 18.08.2022
2144 Clear 29 1016 37 10000 4.63 300 19:30 18.08.2022
2145 Clouds 32 1013 31 10000 4.63 280 17:50 18.08.2022
2146 Clouds 33 1013 29 10000 3.09 0 16:59 18.08.2022
2147 Clear 32 1014 29 10000 3.09 0 14:52 18.08.2022
2148 Clouds 32 1014 29 10000 2.57 0 14:19 18.08.2022
2149 Clouds 31 1014 33 10000 3.09 290 13:29 18.08.2022
2150 Clear 30 1015 37 10000 3.6 290 11:42 18.08.2022
2151 Clear 22 1016 60 10000 1.54 0 09:43 18.08.2022
2152 Clear 21 1016 64 10000 1.03 0 08:40 18.08.2022
2153 Clear 17 1016 82 10000 1.03 70 07:19 18.08.2022
2154 Clear 17 1017 81 10000 0 0 03:57 18.08.2022
2155 Clear 21 1017 63 10000 1.03 0 23:35 17.08.2022
2156 Clear 24 1017 49 10000 3.6 280 21:46 17.08.2022
2157 Clear 25 1017 42 10000 2.57 300 20:19 17.08.2022
2158 Clear 28 1016 41 10000 1.54 310 19:29 17.08.2022
2159 Clouds 29 1013 37 10000 3.6 320 17:36 17.08.2022
2160 Clouds 28 1013 39 10000 4.12 300 16:35 17.08.2022
2161 Clouds 30 1016 40 10000 3.09 320 15:26 17.08.2022
2162 Clouds 30 1013 37 10000 4.12 250 12:57 17.08.2022
2163 Clouds 27 1014 44 10000 3.09 300 11:38 17.08.2022
2164 Clear 22 1015 60 10000 1.54 0 09:31 17.08.2022
2165 Clear 19 1015 72 10000 1.03 0 08:23 17.08.2022
2166 Clouds 16 1016 79 10000 1.03 0 03:36 17.08.2022
2167 Clouds 21 1016 63 10000 3.09 300 00:19 17.08.2022
2168 Clouds 23 1014 56 10000 3.6 280 22:35 16.08.2022
2169 Clear 24 1015 51 10000 1.54 260 20:52 16.08.2022
2170 Clear 26 1012 44 10000 2.06 280 19:53 16.08.2022
2171 Clouds 29 1011 30 10000 5.14 290 18:40 16.08.2022
2172 Clouds 30 1011 30 10000 5.14 280 17:43 16.08.2022
2173 Clouds 32 1016 28 10000 2.68 293 15:48 16.08.2022
2174 Clouds 31 1016 37 10000 3.6 210 14:55 16.08.2022
2175 Thunderstorm 30 1014 40 10000 4.12 280 14:37 16.08.2022
2176 Clouds 28 1012 42 10000 4.63 270 12:44 16.08.2022
2177 Clear 24 1013 60 10000 1.03 0 10:37 16.08.2022
2178 Clear 22 1013 68 10000 1.54 0 09:44 16.08.2022
2179 Clear 20 1013 77 10000 1.54 0 08:45 16.08.2022
2180 Clouds 16 1013 100 8000 2.06 100 07:33 16.08.2022
2181 Clear 16 1014 89 10000 0.51 0 02:19 16.08.2022
2182 Clear 20 1013 68 10000 2.06 210 22:30 15.08.2022
2183 Clear 20 1013 68 10000 2.06 210 22:30 15.08.2022
2184 Clear 21 1013 66 10000 2.06 240 21:54 15.08.2022
2185 Clear 23 1013 60 10000 2.06 260 20:52 15.08.2022
2186 Clear 23 1013 58 10000 1.54 310 20:19 15.08.2022
2187 Clouds 26 1009 50 10000 2.57 330 18:41 15.08.2022
2188 Clouds 27 1009 47 10000 3.09 0 17:23 15.08.2022
2189 Clouds 26 1009 53 10000 4.63 20 16:21 15.08.2022
2190 Clouds 28 1012 46 10000 4.63 270 13:56 15.08.2022
2191 Clouds 27 1012 50 10000 5.14 290 12:37 15.08.2022
2192 Clouds 21 1011 68 10000 3.6 280 10:18 15.08.2022
2193 Clouds 17 1010 88 10000 2.06 360 08:27 15.08.2022
2194 Clouds 16 1012 88 10000 2.57 350 06:20 15.08.2022
2195 Clouds 16 1012 88 10000 2.57 290 02:19 15.08.2022
2196 Clouds 18 1012 81 10000 3.6 290 22:39 14.08.2022
2197 Clouds 18 1011 81 10000 2.57 280 21:39 14.08.2022
2198 Clouds 19 1011 82 10000 0 0 20:21 14.08.2022
2199 Clouds 19 1011 79 10000 2.06 130 19:30 14.08.2022
2200 Clouds 21 1010 76 10000 3.09 210 18:19 14.08.2022
2201 Thunderstorm 20 1011 78 10000 4.12 210 16:54 14.08.2022
2202 Clouds 21 1012 75 10000 3.6 220 15:50 14.08.2022
2203 Rain 22 1013 67 10000 2.06 270 14:34 14.08.2022
2204 Clouds 22 1009 60 10000 2.57 280 13:50 14.08.2022
2205 Clouds 21 1010 68 10000 3.09 290 13:20 14.08.2022
2206 Clouds 21 1010 68 10000 2.57 310 12:34 14.08.2022
2207 Clouds 19 1013 82 10000 2.06 340 10:55 14.08.2022
2208 Mist 18 1012 89 5000 0.51 0 08:52 14.08.2022
2209 Clouds 16 1012 95 8000 1.54 310 06:22 14.08.2022
2210 Clouds 16 1012 93 7000 1.54 100 03:36 14.08.2022
2211 Clouds 16 1014 92 10000 1.54 190 00:33 14.08.2022
2212 Clouds 16 1014 96 6000 0 0 22:56 13.08.2022
2213 Clouds 17 1014 95 7000 1.54 310 21:43 13.08.2022
2214 Clear 18 1014 92 10000 0.51 0 20:46 13.08.2022
2215 Clouds 18 1014 91 10000 2.06 80 19:45 13.08.2022
2216 Clouds 18 1012 88 10000 2.06 0 17:59 13.08.2022
2217 Rain 21 1013 68 10000 2.57 230 15:40 13.08.2022
2218 Rain 22 1013 64 10000 5.14 260 14:28 13.08.2022
2219 Rain 21 1015 74 10000 4.63 260 13:41 13.08.2022
2220 Clouds 20 1015 74 10000 2.06 310 11:53 13.08.2022
2221 Clouds 20 1014 73 10000 2.06 320 10:31 13.08.2022
2222 Clouds 19 1014 88 10000 1.54 320 09:19 13.08.2022
2223 Clear 18 1015 81 10000 1.03 0 05:57 13.08.2022
2224 Clouds 18 1017 76 10000 0 0 00:30 13.08.2022
2225 Clouds 20 1017 73 10000 1.54 100 22:23 12.08.2022
2226 Clouds 21 1017 62 10000 2.06 140 20:58 12.08.2022
2227 Clear 21 1017 65 10000 2.06 100 19:43 12.08.2022
2228 Clouds 24 1017 55 10000 3.6 130 18:52 12.08.2022
2229 Clouds 25 1015 47 10000 3.09 130 17:36 12.08.2022
2230 Clouds 26 1020 47 10000 6.17 120 16:24 12.08.2022
2231 Clouds 27 1018 45 10000 3.09 40 14:44 12.08.2022
2232 Clouds 26 1018 46 10000 1.54 40 12:55 12.08.2022
2233 Clouds 26 1019 50 10000 3.6 130 11:19 12.08.2022
2234 Rain 19 1020 84 10000 1.54 310 08:31 12.08.2022
2235 Rain 17 1020 85 10000 25.48 315 06:56 12.08.2022
2236 Clouds 19 1019 73 10000 1.54 80 03:20 12.08.2022
2237 Clouds 19 1020 72 10000 2.57 150 00:27 12.08.2022
2238 Clouds 19 1020 68 10000 2.57 80 23:35 11.08.2022
2239 Clouds 20 1019 67 10000 1.03 140 22:28 11.08.2022
2240 Clouds 21 1017 64 10000 1.54 230 21:43 11.08.2022
2241 Clouds 23 1017 49 10000 2.06 50 20:59 11.08.2022
2242 Clouds 23 1019 51 10000 2.57 20 20:20 11.08.2022
2243 Clouds 24 1016 50 10000 2.57 40 19:32 11.08.2022
2244 Clouds 26 1018 45 10000 4.12 10 17:48 11.08.2022
2245 Clouds 29 1021 39 10000 3.09 40 16:37 11.08.2022
2246 Clouds 27 1021 48 10000 5.14 10 15:25 11.08.2022
2247 Clouds 26 1017 47 10000 4.12 310 13:37 11.08.2022
2248 Clouds 24 1018 53 10000 2.57 280 10:58 11.08.2022
2249 Clear 18 1018 77 10000 2.57 300 07:47 11.08.2022
2250 Clouds 17 1020 81 10000 3.09 290 03:54 11.08.2022
2251 Clouds 19 1018 72 10000 2.57 280 00:50 11.08.2022
2252 Clouds 19 1021 71 10000 3.09 290 22:32 10.08.2022
2253 Clouds 19 1021 70 10000 3.6 280 21:34 10.08.2022
2254 Clouds 20 1021 69 10000 4.63 280 20:55 10.08.2022
2255 Clouds 20 1021 70 10000 5.14 280 19:31 10.08.2022
2256 Rain 21 1022 68 10000 7.72 280 18:23 10.08.2022
2257 Clouds 26 1020 49 10000 3.09 70 16:41 10.08.2022
2258 Clouds 27 1018 44 10000 5.66 350 13:36 10.08.2022
2259 Clouds 27 1018 44 10000 5.14 340 12:44 10.08.2022
2260 Clear 23 1019 60 10000 3.6 290 09:25 10.08.2022
2261 Clear 24 1021 60 10000 4.12 290 08:34 10.08.2022
2262 Clear 18 1019 77 10000 2.57 280 07:20 10.08.2022
2263 Clouds 17 1020 70 10000 2.57 280 03:32 10.08.2022
2264 Clouds 20 1021 57 10000 3.09 270 23:51 09.08.2022
2265 Clouds 20 1021 58 10000 3.09 150 23:24 09.08.2022
2266 Clouds 23 1020 43 10000 1.54 210 21:36 09.08.2022
2267 Clouds 25 1017 36 10000 1.03 0 20:36 09.08.2022
2268 Clouds 29 1016 28 10000 6.17 60 18:44 09.08.2022
2269 Clouds 30 1016 25 10000 5.66 70 17:28 09.08.2022
2270 Clouds 30 1016 25 10000 5.66 70 17:28 09.08.2022
2271 Clouds 31 1019 26 10000 5.66 40 16:41 09.08.2022
2272 Clouds 30 1021 28 10000 6.69 60 15:58 09.08.2022
2273 Clouds 32 1020 27 10000 5.66 20 12:52 09.08.2022
2274 Clear 26 1019 44 10000 1.54 0 09:56 09.08.2022
2275 Clear 23 1019 56 10000 2.06 280 08:50 09.08.2022
2276 Clear 20 1019 68 10000 1.54 350 07:53 09.08.2022
2277 Clouds 20 1020 65 10000 1.54 280 04:25 09.08.2022
2278 Clouds 22 1020 55 10000 1.54 230 23:27 08.08.2022
2279 Clouds 22 1020 52 10000 1.54 230 22:55 08.08.2022
2280 Clear 22 1020 50 10000 1.03 0 22:18 08.08.2022
2281 Clouds 23 1020 47 10000 2.57 110 21:22 08.08.2022
2282 Clouds 27 1017 36 10000 3.6 90 19:51 08.08.2022
2283 Clouds 29 1016 30 10000 4.63 40 18:50 08.08.2022
2284 Clouds 31 1020 33 10000 5.14 50 16:44 08.08.2022
2285 Clouds 30 1019 30 10000 5.66 50 15:40 08.08.2022
2286 Clouds 32 1019 31 10000 5.66 50 13:55 08.08.2022
2287 Clouds 31 1021 35 10000 3.09 140 12:19 08.08.2022
2288 Clear 24 1019 60 10000 1.54 260 09:46 08.08.2022
2289 Clear 16 1018 94 10000 1.54 140 06:51 08.08.2022
2290 Clear 18 1020 84 10000 0.51 0 02:56 08.08.2022
2291 Clouds 22 1019 70 10000 1.03 0 22:42 07.08.2022
2292 Clouds 24 1019 63 10000 1.54 310 21:40 07.08.2022
2293 Clouds 25 1020 58 10000 3.09 10 20:26 07.08.2022
2294 Clouds 25 1016 53 10000 3.6 50 19:56 07.08.2022
2295 Clouds 26 1015 50 10000 3.6 30 19:38 07.08.2022
2296 Clouds 26 1015 53 10000 3.09 130 18:23 07.08.2022
2297 Clouds 27 1015 50 10000 5.66 100 16:54 07.08.2022
2298 Clouds 29 1015 39 10000 5.14 40 16:35 07.08.2022
2299 Clouds 29 1015 39 10000 5.14 40 16:35 07.08.2022
2300 Clouds 27 1015 47 10000 4.63 360 15:20 07.08.2022
2301 Clouds 30 1018 43 10000 5.66 60 13:26 07.08.2022
2302 Clouds 29 1019 46 10000 4.12 40 11:27 07.08.2022
2303 Clouds 27 1016 50 10000 3.6 20 10:34 07.08.2022
2304 Clouds 21 1015 83 10000 1.54 280 07:36 07.08.2022
2305 Clouds 19 1016 70 10000 1.03 0 03:20 07.08.2022
2306 Clouds 21 1016 62 10000 1.03 0 00:31 07.08.2022
2307 Clouds 25 1016 50 10000 1.54 0 22:24 06.08.2022
2308 Clear 26 1018 45 10000 1.03 0 20:42 06.08.2022
2309 Clear 29 1013 34 10000 3.09 50 19:41 06.08.2022
2310 Clear 30 1013 32 10000 5.14 50 18:28 06.08.2022
2311 Clear 31 1016 31 10000 5.14 40 17:31 06.08.2022
2312 Clouds 30 1014 32 10000 2.57 0 14:35 06.08.2022
2313 Clouds 30 1014 35 10000 3.6 360 13:44 06.08.2022
2314 Clouds 28 1015 42 10000 1.54 0 11:33 06.08.2022
2315 Clear 24 1015 53 10000 1.54 330 09:51 06.08.2022
2316 Clear 30 1020 42 10000 1.03 0 08:32 06.08.2022
2317 Clear 17 1019 74 10000 2.06 110 03:51 06.08.2022
2318 Clear 21 1017 57 10000 1.54 0 23:34 05.08.2022
2319 Clear 23 1018 50 10000 1.54 190 22:22 05.08.2022
2320 Clouds 29 1014 34 10000 3.6 20 19:32 05.08.2022
2321 Clouds 30 1014 32 10000 4.12 20 18:44 05.08.2022
2322 Clouds 33 1017 27 10000 2.06 0 17:27 05.08.2022
2323 Clouds 32 1017 28 10000 2.57 320 16:48 05.08.2022
2324 Clouds 32 1017 28 10000 2.57 320 16:48 05.08.2022
2325 Clouds 31 1018 32 10000 3.09 310 15:21 05.08.2022
2326 Clouds 32 1019 29 10000 2.68 180 13:59 05.08.2022
2327 Clouds 30 1016 32 10000 2.06 0 13:23 05.08.2022
2328 Clouds 29 1017 32 10000 2.06 0 12:24 05.08.2022
2329 Clear 25 1018 47 10000 1.54 0 10:44 05.08.2022
2330 Clear 18 1018 72 10000 1.03 0 07:58 05.08.2022
2331 Clear 14 1018 88 10000 1.54 330 06:41 05.08.2022
2332 Clouds 18 1020 69 10000 1.54 160 00:30 05.08.2022
2333 Clear 21 1020 65 10000 0 0 22:26 04.08.2022
2334 Clouds 23 1020 54 10000 1.54 140 21:26 04.08.2022
2335 Clouds 23 1020 60 10000 0.51 0 20:42 04.08.2022
2336 Clouds 27 1017 39 10000 3.09 50 19:37 04.08.2022
2337 Clouds 29 1016 34 10000 2.06 0 18:36 04.08.2022
2338 Clouds 29 1019 33 10000 2.57 20 17:37 04.08.2022
2339 Clouds 28 1018 36 10000 1.54 300 13:57 04.08.2022
2340 Clouds 26 1018 50 10000 1.54 340 12:44 04.08.2022
2341 Clouds 23 1019 64 10000 1.54 0 10:51 04.08.2022
2342 Clear 17 1019 82 10000 0.51 0 07:53 04.08.2022
2343 Clouds 15 1020 91 10000 2.06 120 04:43 04.08.2022
2344 Clear 16 1020 89 10000 1.03 0 02:29 04.08.2022
2345 Clouds 18 1022 81 10000 1.54 170 23:45 03.08.2022
2346 Clouds 18 1020 83 10000 1.54 140 22:30 03.08.2022
2347 Clouds 20 1020 74 10000 2.06 170 20:50 03.08.2022
2348 Clouds 22 1019 64 10000 6.17 210 19:35 03.08.2022
2349 Rain 22 1019 68 10000 6.69 230 18:23 03.08.2022
2350 Clouds 28 1019 41 10000 5.66 150 16:24 03.08.2022
2351 Clouds 29 1017 34 10000 4.12 340 14:45 03.08.2022
2352 Clouds 28 1018 36 10000 1.54 0 12:32 03.08.2022
2353 Clear 20 1018 64 10000 1.03 0 08:50 03.08.2022
2354 Clear 15 1019 83 10000 1.03 180 04:47 03.08.2022
2355 Clear 15 1019 79 10000 2.06 130 03:30 03.08.2022
2356 Clouds 18 1019 70 10000 0 0 01:35 03.08.2022
2357 Clouds 19 1019 65 10000 1.03 0 23:23 02.08.2022
2358 Clouds 20 1019 62 10000 2.06 200 21:55 02.08.2022
2359 Clouds 21 1019 56 10000 1.03 0 21:30 02.08.2022
2360 Clouds 27 1018 38 10000 3.6 10 18:59 02.08.2022
2361 Clouds 29 1018 35 10000 3.09 0 16:27 02.08.2022
2362 Clouds 28 1018 37 10000 3.09 260 12:53 02.08.2022
2363 Clear 21 1016 52 10000 3.09 290 09:40 02.08.2022
2364 Clear 17 1016 72 10000 0 0 07:56 02.08.2022
2365 Clear 15 1016 77 10000 1.54 170 07:25 02.08.2022
2366 Clear 13 1017 80 10000 1.03 0 04:55 02.08.2022
2367 Clear 13 1017 80 10000 1.03 0 04:55 02.08.2022
2368 Clear 18 1018 59 10000 3.09 280 23:52 01.08.2022
2369 Clear 20 1016 52 10000 3.6 260 22:50 01.08.2022
2370 Clouds 23 1015 46 10000 1.54 290 20:53 01.08.2022
2371 Clouds 26 1016 39 10000 3.58 293 19:34 01.08.2022
2372 Clouds 26 1016 41 10000 4.02 315 18:42 01.08.2022
2373 Clouds 26 1016 41 10000 4.02 315 18:42 01.08.2022
2374 Clouds 27 1016 37 10000 6.17 290 16:54 01.08.2022
2375 Clouds 27 1016 37 10000 5.66 280 16:28 01.08.2022
2376 Clouds 27 1016 37 10000 5.66 280 15:30 01.08.2022
2377 Clouds 28 1016 36 10000 6.69 290 14:43 01.08.2022
2378 Clouds 27 1017 36 10000 7.72 290 12:47 01.08.2022
2379 Clouds 25 1017 40 10000 7.2 290 10:22 01.08.2022
2380 Clear 20 1015 52 10000 4.12 300 08:34 01.08.2022
2381 Clear 14 1015 82 10000 1.03 0 04:56 01.08.2022
2382 Clear 16 1015 72 10000 3.09 280 03:49 01.08.2022
2383 Clear 18 1016 68 10000 5.66 270 00:49 01.08.2022
2384 Clouds 19 1015 68 10000 3.09 280 22:40 31.07.2022
2385 Clear 21 1015 60 10000 2.57 290 21:33 31.07.2022
2386 Clouds 24 1014 50 10000 4.63 280 19:56 31.07.2022
2387 Clouds 26 1013 44 10000 6.17 280 18:35 31.07.2022
2388 Clouds 27 1017 48 10000 6.69 290 15:45 31.07.2022
2389 Clouds 27 1017 48 10000 7.72 280 13:44 31.07.2022
2390 Clouds 25 1018 58 10000 7.2 270 12:28 31.07.2022
2391 Clouds 25 1020 66 10000 5.81 293 09:55 31.07.2022
2392 Clouds 21 1018 78 8000 2.24 293 08:18 31.07.2022
2393 Clouds 17 1017 93 10000 0 0 03:28 31.07.2022
2394 Rain 19 1018 89 10000 4.63 150 23:46 30.07.2022
2395 Rain 19 1020 92 7000 6.69 280 22:19 30.07.2022
2396 Thunderstorm 18 1022 91 7000 8.75 280 21:49 30.07.2022
2397 Thunderstorm 18 1022 88 10000 5.14 280 20:57 30.07.2022
2398 Thunderstorm 18 1021 87 10000 5.14 280 20:57 30.07.2022
2399 Clouds 24 1019 56 10000 2.06 320 19:59 30.07.2022
2400 Clouds 26 1012 47 10000 3.09 30 18:53 30.07.2022
2401 Clouds 24 1012 53 8000 7.2 310 17:44 30.07.2022
2402 Clouds 33 1012 31 10000 4.12 170 15:54 30.07.2022
2403 Clouds 33 1015 32 10000 4.12 120 15:24 30.07.2022
2404 Clouds 33 1017 31 10000 4.12 90 13:18 30.07.2022
2405 Clouds 31 1015 33 10000 3.6 0 12:19 30.07.2022
2406 Clear 27 1016 41 10000 4.12 90 10:31 30.07.2022
2407 Clear 27 1016 41 10000 4.12 90 10:31 30.07.2022
2408 Clear 27 1016 41 10000 4.12 90 10:31 30.07.2022
2409 Clear 27 1016 44 10000 4.12 120 09:56 30.07.2022
2410 Clear 21 1017 64 10000 3.6 110 07:55 30.07.2022
2411 Clear 20 1019 63 10000 2.57 120 03:55 30.07.2022
2412 Clouds 22 1019 57 10000 5.14 110 02:25 30.07.2022
2413 Clouds 24 1019 52 10000 3.09 150 22:44 29.07.2022
2414 Clouds 24 1019 49 10000 3.09 110 21:24 29.07.2022
2415 Clouds 26 1019 45 10000 2.68 113 20:41 29.07.2022
2416 Clouds 29 1018 37 10000 3.6 150 18:26 29.07.2022
2417 Clouds 32 1019 32 10000 4.63 110 15:38 29.07.2022
2418 Clear 32 1019 36 10000 6.17 100 13:37 29.07.2022
2419 Clear 29 1020 44 10000 4.63 100 11:28 29.07.2022
2420 Clear 22 1018 68 10000 3.6 110 08:50 29.07.2022
2421 Clear 20 1018 77 10000 3.09 100 08:18 29.07.2022
2422 Clouds 18 1020 85 10000 2.57 160 01:58 29.07.2022
2423 Clouds 20 1023 75 10000 4.47 113 22:53 28.07.2022
2424 Clouds 21 1021 67 10000 6.17 170 21:28 28.07.2022
2425 Rain 20 1021 73 10000 4.02 158 20:32 28.07.2022
2426 Rain 26 1016 61 10000 2.57 230 19:44 28.07.2022
2427 Rain 26 1016 65 10000 1.54 310 19:24 28.07.2022
2428 Rain 27 1015 54 10000 3.09 110 17:44 28.07.2022
2429 Rain 25 1015 69 10000 3.6 160 16:57 28.07.2022
2430 Rain 28 1015 51 10000 6.17 110 16:28 28.07.2022
2431 Clouds 30 1018 47 10000 2.57 130 13:30 28.07.2022
2432 Clouds 23 1017 68 10000 1.54 0 11:27 28.07.2022
2433 Rain 19 1018 92 10000 5.14 100 06:45 28.07.2022
2434 Rain 19 1018 87 10000 2.06 330 05:31 28.07.2022
2435 Clouds 22 1015 60 10000 3.09 280 01:23 28.07.2022
2436 Clouds 23 1016 61 10000 2.57 40 22:45 27.07.2022
2437 Clear 24 1016 55 10000 2.57 110 21:29 27.07.2022
2438 Clouds 28 1012 39 10000 2.57 310 19:43 27.07.2022
2439 Clouds 31 1017 35 10000 5.14 10 17:50 27.07.2022
2440 Clouds 34 1011 27 10000 3.09 90 15:52 27.07.2022
2441 Clouds 33 1012 27 10000 2.57 0 14:58 27.07.2022
2442 Clouds 33 1012 27 10000 2.57 0 14:35 27.07.2022
2443 Clear 34 1015 31 10000 2.57 230 12:50 27.07.2022
2444 Clear 21 1014 64 10000 1.54 160 07:54 27.07.2022
2445 Clear 18 1014 72 10000 2.06 90 06:56 27.07.2022
2446 Clear 20 1015 65 10000 2.06 360 01:59 27.07.2022
2447 Clear 25 1014 50 10000 1.03 0 22:29 26.07.2022
2448 Clear 27 1014 47 10000 2.57 190 21:20 26.07.2022
2449 Clear 27 1016 46 10000 1.03 0 20:31 26.07.2022
2450 Clear 33 1010 27 10000 1.54 280 18:44 26.07.2022
2451 Clear 33 1010 27 10000 1.54 0 17:59 26.07.2022
2452 Clear 35 1014 24 10000 2.06 20 16:31 26.07.2022
2453 Clear 35 1014 26 10000 2.06 0 15:30 26.07.2022
2454 Clear 35 1015 26 10000 2.06 0 13:38 26.07.2022
2455 Clear 33 1018 38 10000 2.57 210 11:38 26.07.2022
2456 Clear 23 1014 64 10000 2.06 70 08:57 26.07.2022
2457 Clear 17 1017 80 10000 1.54 350 05:53 26.07.2022
2458 Clear 20 1017 69 10000 2.57 140 00:44 26.07.2022
2459 Clear 21 1018 69 10000 2.57 100 23:32 25.07.2022
2460 Clear 23 1018 58 10000 2.57 210 22:25 25.07.2022
2461 Clear 24 1018 57 10000 3.09 200 21:41 25.07.2022
2462 Clear 26 1014 47 10000 1.54 70 20:41 25.07.2022
2463 Clear 28 1014 42 10000 3.6 50 19:46 25.07.2022
2464 Clouds 30 1014 35 10000 4.63 40 18:19 25.07.2022
2465 Clouds 31 1014 35 10000 3.09 70 17:27 25.07.2022
2466 Clouds 31 1014 35 10000 3.09 70 17:27 25.07.2022
2467 Clouds 32 1017 31 10000 3.13 338 14:59 25.07.2022
2468 Clouds 29 1016 37 10000 4.12 310 12:22 25.07.2022
2469 Clear 26 1017 50 10000 4.12 300 09:50 25.07.2022
2470 Clouds 22 1017 68 10000 3.09 220 04:38 25.07.2022
2471 Clouds 25 1018 53 10000 4.63 280 23:54 24.07.2022
2472 Clouds 24 1021 61 10000 3.6 290 23:18 24.07.2022
2473 Clouds 27 1020 47 10000 5.66 280 22:29 24.07.2022
2474 Clear 27 1020 46 10000 4.12 280 21:23 24.07.2022
2475 Clear 28 1016 42 10000 4.63 290 20:50 24.07.2022
2476 Clouds 28 1019 44 10000 4.12 280 20:26 24.07.2022
2477 Rain 31 1018 37 10000 4.63 300 18:46 24.07.2022
2478 Clouds 33 1018 28 10000 3.6 130 16:29 24.07.2022
2479 Clouds 34 1015 26 10000 3.6 350 15:50 24.07.2022
2480 Clouds 35 1015 24 10000 4.63 270 14:35 24.07.2022
2481 Clear 36 1020 25 10000 2.06 0 12:54 24.07.2022
2482 Clear 35 1020 29 10000 1.54 0 11:40 24.07.2022
2483 Clear 33 1020 31 10000 1.54 330 11:18 24.07.2022
2484 Clear 24 1018 46 10000 1.03 0 08:33 24.07.2022
2485 Clear 20 1018 60 10000 1.03 0 07:52 24.07.2022
2486 Clear 18 1022 68 10000 2.06 320 05:49 24.07.2022
2487 Clear 21 1022 60 10000 2.06 140 00:29 24.07.2022
2488 Clear 26 1020 41 10000 2.06 150 21:37 23.07.2022
2489 Clear 27 1019 37 10000 2.57 150 20:28 23.07.2022
2490 Clear 34 1016 22 10000 3.6 120 18:50 23.07.2022
2491 Clear 35 1017 23 10000 4.12 80 17:28 23.07.2022
2492 Clear 36 1017 14 10000 2.57 280 16:35 23.07.2022
2493 Clouds 36 1017 12 10000 2.06 0 15:31 23.07.2022
2494 Clouds 36 1017 17 10000 2.06 0 14:59 23.07.2022
2495 Clouds 35 1018 21 10000 1.54 0 14:28 23.07.2022
2496 Clear 35 1018 20 10000 1.54 0 13:36 23.07.2022
2497 Clear 33 1022 33 10000 1.79 90 10:49 23.07.2022
2498 Clear 36 1024 31 10000 1.54 0 10:21 23.07.2022
2499 Clear 32 1025 35 10000 1.54 0 08:39 23.07.2022
2500 Clear 17 1024 69 10000 2.06 180 03:39 23.07.2022
2501 Clear 19 1024 65 10000 2.06 120 01:27 23.07.2022
2502 Clear 21 1022 54 10000 1.54 70 22:42 22.07.2022
2503 Clear 26 1021 40 10000 2.06 180 20:52 22.07.2022
2504 Clear 28 1018 39 10000 2.57 130 19:35 22.07.2022
2505 Clear 32 1014 19 10000 3.8 44 18:28 22.07.2022
2506 Clear 35 1021 24 10000 4.63 90 16:49 22.07.2022
2507 Clear 34 1017 26 10000 5.66 120 14:51 22.07.2022
2508 Clear 29 1018 34 10000 2.57 280 11:22 22.07.2022
2509 Clear 24 1018 50 10000 1.54 0 09:25 22.07.2022
2510 Clear 21 1018 56 10000 1.03 0 08:29 22.07.2022
2511 Clear 17 1022 74 10000 1.54 0 05:18 22.07.2022
2512 Clear 20 1017 60 10000 2.06 140 00:40 22.07.2022
2513 Clear 24 1020 48 10000 2.06 220 22:25 21.07.2022
2514 Clear 24 1019 44 10000 1.03 30 20:48 21.07.2022
2515 Clear 31 1016 27 10000 3.6 360 19:26 21.07.2022
2516 Clear 34 1019 27 10000 6.17 270 17:39 21.07.2022
2517 Clouds 34 1019 26 10000 6.17 280 17:19 21.07.2022
2518 Clear 34 1020 26 10000 4.63 270 14:55 21.07.2022
2519 Clear 32 1017 27 10000 4.63 260 14:29 21.07.2022
2520 Clear 30 1018 32 10000 3.6 290 12:27 21.07.2022
2521 Clear 27 1019 39 10000 4.12 300 10:48 21.07.2022
2522 Clear 22 1019 49 10000 1.54 0 09:18 21.07.2022
2523 Clear 20 1020 56 10000 1.03 0 08:45 21.07.2022
2524 Clear 16 1020 67 10000 1.54 110 07:23 21.07.2022
2525 Clear 15 1023 72 10000 2.57 150 03:55 21.07.2022
2526 Clear 19 1022 55 10000 1.03 0 23:26 20.07.2022
2527 Clear 20 1023 51 10000 4.63 200 22:21 20.07.2022
2528 Clear 23 1023 45 10000 1.54 150 20:50 20.07.2022
2529 Clear 26 1020 36 10000 3.09 90 19:49 20.07.2022
2530 Clouds 27 1020 34 10000 4.12 80 19:20 20.07.2022
2531 Clear 29 1020 26 10000 4.12 90 18:33 20.07.2022
2532 Clear 29 1020 26 10000 3.6 90 17:43 20.07.2022
2533 Clear 29 1020 24 10000 2.57 0 16:19 20.07.2022
2534 Clouds 29 1021 28 10000 2.57 0 14:57 20.07.2022
2535 Clouds 28 1022 30 10000 2.57 140 13:53 20.07.2022
2536 Clear 29 1025 30 10000 3.58 90 11:32 20.07.2022
2537 Clear 17 1024 59 10000 1.03 0 07:50 20.07.2022
2538 Clear 15 1025 65 10000 2.06 130 02:45 20.07.2022
2539 Clouds 17 1025 61 10000 1.54 110 00:46 20.07.2022
2540 Clear 18 1025 55 10000 2.06 170 23:37 19.07.2022
2541 Clouds 19 1025 51 10000 2.57 170 22:21 19.07.2022
2542 Clear 21 1026 44 10000 2.06 40 20:54 19.07.2022
2543 Clear 23 1026 39 10000 3.09 50 20:18 19.07.2022
2544 Clear 26 1021 31 10000 5.14 50 18:43 19.07.2022
2545 Clear 27 1021 29 10000 3.6 60 17:56 19.07.2022
2546 Clouds 27 1021 28 10000 3.6 60 16:25 19.07.2022
2547 Clouds 26 1023 34 10000 3.09 0 14:20 19.07.2022
2548 Clouds 27 1026 33 10000 3.6 110 11:35 19.07.2022
2549 Clear 23 1024 43 10000 2.06 80 09:58 19.07.2022
2550 Clear 21 1024 56 10000 3.09 100 08:48 19.07.2022
2551 Clear 20 1024 56 10000 4.12 100 08:21 19.07.2022
2552 Clear 17 1024 72 10000 3.09 110 07:18 19.07.2022
2553 Clear 14 1024 77 10000 3.09 120 05:26 19.07.2022
2554 Clear 14 1024 77 10000 3.09 120 04:41 19.07.2022
2555 Clouds 17 1028 63 10000 1.79 113 00:31 19.07.2022
2556 Clouds 18 1026 59 10000 1.54 190 23:21 18.07.2022
2557 Clouds 17 1028 61 10000 2.57 220 22:55 18.07.2022
2558 Clouds 18 1028 57 10000 1.03 0 21:50 18.07.2022
2559 Clear 21 1023 46 10000 1.03 0 20:50 18.07.2022
2560 Clear 25 1025 36 10000 5.14 40 19:24 18.07.2022
2561 Clear 26 1022 34 10000 4.63 30 16:52 18.07.2022
2562 Clouds 29 1025 28 10000 4.12 20 15:42 18.07.2022
2563 Clear 26 1023 29 10000 3.09 0 13:45 18.07.2022
2564 Clear 27 1026 28 10000 2.06 0 12:37 18.07.2022
2565 Clear 21 1024 30 10000 2.06 0 10:34 18.07.2022
2566 Clear 19 1025 39 10000 2.57 290 08:50 18.07.2022
2567 Clear 13 1025 67 10000 1.03 0 06:54 18.07.2022
2568 Clear 20 1024 49 10000 3.6 280 23:31 17.07.2022
2569 Clear 21 1023 46 10000 2.06 310 22:32 17.07.2022
2570 Clear 22 1023 46 10000 2.57 290 21:44 17.07.2022
2571 Clear 24 1022 43 10000 1.54 300 20:53 17.07.2022
2572 Clear 24 1022 43 10000 1.03 0 20:35 17.07.2022
2573 Clouds 27 1024 38 10000 2.57 320 19:26 17.07.2022
2574 Clouds 28 1024 38 10000 4.02 0 18:26 17.07.2022
2575 Clouds 29 1023 37 10000 2.06 300 17:37 17.07.2022
2576 Clouds 30 1024 34 10000 4.02 293 16:50 17.07.2022
2577 Clouds 31 1024 34 10000 2.57 0 16:25 17.07.2022
2578 Clouds 29 1022 32 10000 4.12 310 14:20 17.07.2022
2579 Clouds 29 1022 30 10000 5.14 310 13:24 17.07.2022
2580 Clear 25 1023 41 10000 3.6 290 10:34 17.07.2022
2581 Clear 24 1023 38 10000 2.57 280 08:38 17.07.2022
2582 Clouds 18 1020 72 10000 0.51 0 02:43 17.07.2022
2583 Clear 21 1022 59 10000 2.57 300 00:41 17.07.2022
2584 Clear 22 1020 56 10000 2.06 310 23:19 16.07.2022
2585 Clear 25 1018 50 10000 1.54 320 20:59 16.07.2022
2586 Clear 30 1017 35 10000 2.57 350 18:59 16.07.2022
2587 Clouds 31 1017 35 10000 3.09 350 17:53 16.07.2022
2588 Clouds 32 1017 31 10000 2.06 0 16:24 16.07.2022
2589 Clouds 33 1021 29 10000 3.6 270 13:47 16.07.2022
2590 Clear 29 1021 42 10000 3.09 280 10:35 16.07.2022
2591 Clear 27 1021 47 10000 2.68 293 09:29 16.07.2022
2592 Clear 21 1019 56 10000 1.03 0 08:42 16.07.2022
2593 Clear 18 1019 63 10000 1.03 0 07:41 16.07.2022
2594 Clear 16 1021 73 10000 1.03 120 03:39 16.07.2022
2595 Clear 18 1021 67 10000 0 0 01:39 16.07.2022
2596 Clear 20 1019 58 10000 1.54 120 23:21 15.07.2022
2597 Clear 21 1019 52 10000 1.03 0 22:37 15.07.2022
2598 Clear 24 1019 44 10000 2.57 170 20:47 15.07.2022
2599 Clear 27 1016 34 10000 3.09 70 19:49 15.07.2022
2600 Clouds 30 1015 26 10000 4.12 90 18:30 15.07.2022
2601 Clear 31 1018 27 10000 2.06 140 17:19 15.07.2022
2602 Clear 30 1016 26 10000 2.57 0 14:35 15.07.2022
2603 Clear 31 1018 27 10000 2.68 113 12:43 15.07.2022
2604 Clear 25 1017 41 10000 1.54 0 10:53 15.07.2022
2605 Clear 17 1018 63 10000 1.54 90 07:55 15.07.2022
2606 Clear 15 1021 79 10000 1.54 120 05:54 15.07.2022
2607 Clear 16 1020 69 10000 2.06 150 00:47 15.07.2022
2608 Clear 17 1021 63 10000 2.06 120 23:25 14.07.2022
2609 Clear 19 1020 57 10000 3.09 200 22:32 14.07.2022
2610 Clear 20 1021 53 10000 2.57 190 21:41 14.07.2022
2611 Clear 21 1021 48 10000 2.06 210 21:23 14.07.2022
2612 Clear 20 1018 56 10000 0.51 290 20:43 14.07.2022
2613 Clear 24 1020 40 10000 1.54 60 20:19 14.07.2022
2614 Clear 27 1018 32 10000 4.63 40 18:38 14.07.2022
2615 Clear 30 1021 26 10000 2.57 0 16:20 14.07.2022
2616 Clear 28 1019 30 10000 1.54 0 15:26 14.07.2022
2617 Clear 27 1020 28 10000 2.57 210 13:52 14.07.2022
2618 Clear 28 1023 29 10000 2.57 0 12:36 14.07.2022
2619 Clear 24 1021 38 10000 1.54 0 11:28 14.07.2022
2620 Clear 23 1022 40 10000 1.54 230 10:52 14.07.2022
2621 Clear 18 1022 55 10000 1.54 0 08:58 14.07.2022
2622 Clear 11 1024 81 10000 1.54 90 05:18 14.07.2022
2623 Clear 14 1022 67 10000 2.57 310 01:21 14.07.2022
2624 Clear 14 1022 67 10000 2.57 310 01:21 14.07.2022
2625 Clear 14 1022 67 10000 1.54 0 00:51 14.07.2022
2626 Clouds 16 1022 63 10000 1.54 270 22:31 13.07.2022
2627 Clouds 17 1022 55 10000 2.06 280 21:47 13.07.2022
2628 Clouds 20 1021 45 10000 2.06 340 20:41 13.07.2022
2629 Clouds 24 1022 37 10000 4.63 290 18:40 13.07.2022
2630 Clouds 25 1022 34 10000 2.57 300 17:31 13.07.2022
2631 Clouds 28 1024 31 10000 4.12 310 16:19 13.07.2022
2632 Clouds 25 1022 33 10000 2.57 270 14:47 13.07.2022
2633 Clouds 22 1021 37 10000 3.6 280 11:54 13.07.2022
2634 Clouds 21 1021 40 10000 3.6 270 10:45 13.07.2022
2635 Clear 20 1021 45 10000 4.12 290 09:54 13.07.2022
2636 Clear 19 1021 48 10000 2.57 290 09:20 13.07.2022
2637 Clear 10 1024 86 10000 1.54 30 05:22 13.07.2022
2638 Clouds 13 1024 65 10000 1.54 280 01:22 13.07.2022
2639 Clouds 15 1024 57 10000 1.03 0 23:21 12.07.2022
2640 Clouds 16 1021 55 10000 3.09 280 21:53 12.07.2022
2641 Clouds 19 1021 45 10000 3.6 290 20:57 12.07.2022
2642 Clouds 19 1021 45 10000 3.6 290 20:37 12.07.2022
2643 Clouds 21 1020 35 10000 5.66 290 18:53 12.07.2022
2644 Clouds 24 1024 33 10000 6.17 290 17:32 12.07.2022
2645 Clouds 23 1020 33 10000 6.17 280 15:37 12.07.2022
2646 Clouds 22 1021 33 10000 4.63 290 13:55 12.07.2022
2647 Clouds 20 1021 37 10000 2.57 350 11:59 12.07.2022
2648 Clouds 20 1022 42 10000 2.06 0 10:47 12.07.2022
2649 Clouds 17 1022 51 10000 3.09 290 09:19 12.07.2022
2650 Clear 13 1022 67 10000 1.03 0 07:57 12.07.2022
2651 Clouds 10 1024 83 10000 1.54 300 05:54 12.07.2022
2652 Clouds 9 1024 84 10000 1.54 300 05:35 12.07.2022
2653 Clear 10 1021 76 10000 3.09 300 01:36 12.07.2022
2654 Clear 14 1021 58 10000 2.06 340 22:52 11.07.2022
2655 Clear 14 1020 58 10000 3.6 290 21:44 11.07.2022
2656 Clear 17 1020 48 10000 2.57 290 20:33 11.07.2022
2657 Clear 19 1019 42 10000 4.63 290 19:32 11.07.2022
2658 Clouds 22 1021 35 10000 6.69 290 18:30 11.07.2022
2659 Clouds 21 1018 37 10000 5.66 300 17:31 11.07.2022
2660 Clouds 22 1020 35 10000 6.69 290 15:34 11.07.2022
2661 Clouds 23 1021 34 10000 7.72 280 13:37 11.07.2022
2662 Clouds 21 1020 37 10000 8.75 290 11:33 11.07.2022
2663 Clouds 19 1018 42 10000 8.23 310 10:18 11.07.2022
2664 Clouds 18 1018 42 10000 8.23 300 09:40 11.07.2022
2665 Clouds 17 1018 51 10000 6.69 290 08:33 11.07.2022
2666 Clouds 14 1016 77 10000 3.09 300 02:59 11.07.2022
2667 Clouds 16 1016 72 10000 2.06 290 00:18 11.07.2022
2668 Clouds 17 1016 67 10000 3.6 280 22:52 10.07.2022
2669 Clouds 18 1015 63 10000 4.63 280 21:20 10.07.2022
2670 Clouds 19 1015 59 10000 4.12 280 20:41 10.07.2022
2671 Clouds 20 1017 55 10000 5.66 280 19:40 10.07.2022
2672 Clouds 22 1014 46 10000 6.69 290 18:43 10.07.2022
2673 Clouds 23 1013 40 10000 7.72 280 17:36 10.07.2022
2674 Clouds 24 1018 41 10000 6.69 290 16:41 10.07.2022
2675 Clouds 23 1013 43 10000 2.57 330 15:20 10.07.2022
2676 Clouds 24 1015 47 10000 2.57 330 13:48 10.07.2022
2677 Clouds 22 1014 53 10000 3.09 250 12:26 10.07.2022
2678 Clouds 20 1014 64 10000 5.14 270 09:57 10.07.2022
2679 Clouds 18 1015 72 10000 4.12 300 08:44 10.07.2022
2680 Clouds 16 1015 82 10000 4.63 280 07:29 10.07.2022
2681 Clouds 15 1016 88 10000 2.57 280 01:23 10.07.2022
2682 Clouds 16 1019 83 10000 5.14 270 22:27 09.07.2022
2683 Clouds 16 1021 83 10000 5.14 270 21:56 09.07.2022
2684 Clear 17 1018 80 10000 4.63 280 20:45 09.07.2022
2685 Clouds 19 1018 74 10000 4.12 280 18:35 09.07.2022
2686 Clouds 19 1018 76 10000 4.63 290 17:33 09.07.2022
2687 Clouds 19 1017 72 10000 5.66 280 16:44 09.07.2022
2688 Clouds 18 1019 77 10000 5.66 280 15:40 09.07.2022
2689 Clouds 19 1020 78 10000 6.17 280 14:27 09.07.2022
2690 Clouds 18 1021 82 10000 5.36 293 13:49 09.07.2022
2691 Rain 19 1018 80 10000 3.09 330 12:43 09.07.2022
2692 Rain 18 1018 83 10000 3.6 290 11:19 09.07.2022
2693 Clouds 18 1020 83 10000 4.63 290 10:22 09.07.2022
2694 Rain 16 1018 92 10000 3.6 280 07:45 09.07.2022
2695 Clouds 16 1017 93 10000 4.12 280 04:53 09.07.2022
2696 Rain 16 1018 86 10000 3.09 240 00:59 09.07.2022
2697 Rain 16 1018 91 10000 3.09 190 22:53 08.07.2022
2698 Rain 18 1018 78 10000 3.6 150 21:34 08.07.2022
2699 Rain 20 1017 71 8000 5.14 120 20:40 08.07.2022
2700 Clouds 21 1017 60 10000 2.06 100 19:48 08.07.2022
2701 Clouds 22 1016 52 10000 3.09 120 18:23 08.07.2022
2702 Rain 22 1016 62 10000 3.09 160 16:40 08.07.2022
2703 Rain 22 1019 61 10000 7.2 140 14:51 08.07.2022
2704 Rain 22 1019 61 10000 7.2 140 14:51 08.07.2022
2705 Clouds 27 1014 41 10000 2.06 0 13:26 08.07.2022
2706 Clouds 24 1016 53 10000 1.54 0 11:28 08.07.2022
2707 Clouds 23 1016 56 10000 2.06 120 10:27 08.07.2022
2708 Clear 19 1017 72 10000 1.03 0 08:26 08.07.2022
2709 Clear 15 1017 88 10000 1.54 310 06:47 08.07.2022
2710 Clouds 16 1019 80 10000 1.54 190 01:19 08.07.2022
2711 Clouds 18 1019 76 10000 1.54 200 22:57 07.07.2022
2712 Clouds 19 1019 73 10000 1.54 220 22:27 07.07.2022
2713 Clouds 23 1015 56 10000 2.57 20 19:53 07.07.2022
2714 Clouds 26 1015 44 10000 4.63 30 18:18 07.07.2022
2715 Clouds 27 1020 41 10000 3.09 320 16:43 07.07.2022
2716 Clouds 25 1016 41 10000 3.09 0 14:32 07.07.2022
2717 Clouds 27 1019 42 10000 5.14 270 12:53 07.07.2022
2718 Clouds 25 1017 47 10000 4.12 290 12:23 07.07.2022
2719 Clouds 27 1019 41 10000 3.6 300 11:35 07.07.2022
2720 Clouds 24 1017 46 10000 3.6 290 10:47 07.07.2022
2721 Clouds 23 1017 49 10000 4.12 280 10:29 07.07.2022
2722 Clear 22 1017 56 10000 4.12 300 09:52 07.07.2022
2723 Clouds 18 1017 68 10000 4.63 280 06:32 07.07.2022
2724 Clear 16 1016 66 10000 1.55 276 00:31 07.07.2022
2725 Clear 16 1016 64 10000 1.51 256 23:36 06.07.2022
2726 Clouds 20 1017 64 10000 2.57 290 23:18 06.07.2022
2727 Clouds 20 1017 64 10000 2.57 290 22:52 06.07.2022
2728 Clouds 20 1017 68 10000 2.57 290 22:33 06.07.2022
2729 Clouds 20 1017 68 10000 2.57 290 22:33 06.07.2022
2730 Clouds 23 1016 49 10000 2.57 300 20:30 06.07.2022
2731 Clouds 24 1016 43 10000 5.14 290 19:32 06.07.2022
2732 Clouds 26 1015 47 10000 6.69 280 17:21 06.07.2022
2733 Clouds 26 1016 50 10000 7.2 290 15:57 06.07.2022
2734 Clouds 23 1017 60 10000 5.66 280 12:57 06.07.2022
2735 Clouds 23 1017 64 10000 5.14 300 12:21 06.07.2022
2736 Clouds 22 1017 68 10000 4.12 280 10:55 06.07.2022
2737 Clouds 20 1017 77 10000 4.12 280 09:27 06.07.2022
2738 Clouds 20 1017 77 10000 4.12 280 09:27 06.07.2022
2739 Clouds 19 1017 82 10000 4.12 290 07:44 06.07.2022
2740 Clouds 19 1017 82 10000 4.12 290 07:44 06.07.2022
2741 Clouds 18 1016 88 10000 3.09 280 06:44 06.07.2022
2742 Thunderstorm 19 1018 88 9000 10.8 260 00:24 06.07.2022
2743 Rain 24 1016 57 10000 3.6 90 22:43 05.07.2022
2744 Clouds 25 1014 53 10000 4.12 120 20:49 05.07.2022
2745 Clouds 26 1014 50 10000 4.12 120 20:21 05.07.2022
2746 Clouds 28 1015 42 10000 5.14 120 19:37 05.07.2022
2747 Clouds 31 1014 35 10000 6.17 120 17:50 05.07.2022
2748 Clouds 31 1014 35 10000 6.17 120 17:19 05.07.2022
2749 Clouds 32 1015 33 10000 4.63 130 16:25 05.07.2022
2750 Clouds 30 1015 37 10000 4.12 110 14:54 05.07.2022
2751 Clear 31 1016 37 10000 4.63 100 13:34 05.07.2022
2752 Clear 29 1017 37 10000 2.57 90 12:22 05.07.2022
2753 Clear 27 1018 34 10000 1.03 0 10:45 05.07.2022
2754 Clear 25 1018 38 10000 1.03 0 09:52 05.07.2022
2755 Clear 21 1018 49 10000 1.03 0 08:21 05.07.2022
2756 Clear 18 1018 63 10000 2.06 60 06:48 05.07.2022
2757 Clear 17 1018 63 10000 2.06 140 04:30 05.07.2022
2758 Clear 20 1018 52 10000 4.63 110 00:47 05.07.2022
2759 Clear 20 1018 73 10000 3.6 100 23:37 04.07.2022
2760 Clear 21 1017 68 10000 3.09 120 22:54 04.07.2022
2761 Clear 24 1017 57 10000 2.06 120 21:56 04.07.2022
2762 Clear 25 1017 53 10000 1.03 0 20:55 04.07.2022
2763 Clear 26 1016 50 10000 3.09 140 20:35 04.07.2022
2764 Clear 27 1017 50 10000 2.57 150 19:56 04.07.2022
2765 Clouds 28 1016 51 10000 4.63 150 19:36 04.07.2022
2766 Clouds 30 1018 44 10000 3.6 150 18:34 04.07.2022
2767 Clouds 30 1016 45 10000 3.6 110 16:36 04.07.2022
2768 Clouds 30 1017 42 10000 5.14 100 15:34 04.07.2022
2769 Clouds 32 1020 39 10000 3.09 0 13:35 04.07.2022
2770 Clear 31 1021 39 10000 3.09 110 12:36 04.07.2022
2771 Clear 26 1019 47 10000 1.54 0 10:35 04.07.2022
2772 Clear 25 1019 44 10000 1.54 0 09:53 04.07.2022
2773 Clear 21 1019 56 10000 1.54 120 08:31 04.07.2022
2774 Clear 17 1022 76 10000 0 0 05:18 04.07.2022
2775 Clouds 19 1019 82 10000 4.12 120 00:42 04.07.2022
2776 Clouds 22 1024 68 10000 2.68 113 23:25 03.07.2022
2777 Clear 24 1021 63 10000 2.57 90 20:59 03.07.2022
2778 Clear 25 1023 57 10000 3.09 120 20:41 03.07.2022
2779 Clear 26 1019 50 10000 3.6 100 19:41 03.07.2022
2780 Clear 27 1021 51 10000 3.6 120 19:23 03.07.2022
2781 Clear 29 1021 46 10000 5.66 90 17:45 03.07.2022
2782 Clouds 30 1022 44 10000 8.23 90 15:55 03.07.2022
2783 Clouds 32 1022 35 10000 5.14 100 15:24 03.07.2022
2784 Clouds 30 1019 39 10000 4.63 120 14:32 03.07.2022
2785 Clouds 32 1022 35 10000 4.12 110 13:48 03.07.2022
2786 Clear 31 1023 40 10000 6.26 135 12:35 03.07.2022
2787 Clear 30 1023 44 10000 2.57 100 11:29 03.07.2022
2788 Clouds 29 1023 50 10000 2.06 110 10:39 03.07.2022
2789 Clear 24 1021 60 10000 1.54 150 09:55 03.07.2022
2790 Clear 19 1021 82 10000 1.03 0 07:35 03.07.2022
2791 Clouds 17 1023 87 10000 2.06 130 04:22 03.07.2022
2792 Clouds 20 1023 79 10000 3.09 100 00:22 03.07.2022
2793 Clouds 22 1023 70 10000 2.06 180 22:34 02.07.2022
2794 Clouds 23 1024 64 10000 3.6 260 21:28 02.07.2022
2795 Rain 25 1023 63 10000 1.03 0 19:52 02.07.2022
2796 Rain 25 1023 63 10000 2.06 230 19:20 02.07.2022
2797 Clouds 25 1019 65 10000 3.09 210 17:42 02.07.2022
2798 Clouds 28 1019 51 10000 2.57 200 16:53 02.07.2022
2799 Clouds 31 1019 37 10000 4.63 30 14:40 02.07.2022
2800 Clouds 31 1019 42 10000 2.06 0 12:21 02.07.2022
2801 Clear 29 1020 45 10000 1.54 250 11:26 02.07.2022
2802 Clear 27 1019 54 10000 1.03 0 10:39 02.07.2022
2803 Clear 24 1019 60 10000 1.03 0 09:18 02.07.2022
2804 Clear 22 1019 68 10000 0.51 0 08:20 02.07.2022
2805 Clear 20 1019 77 10000 1.54 80 07:48 02.07.2022
2806 Clear 18 1021 81 10000 1.54 110 02:50 02.07.2022
2807 Clouds 21 1020 69 10000 2.57 140 23:59 01.07.2022
2808 Clouds 24 1020 58 10000 1.54 190 22:41 01.07.2022
2809 Clouds 24 1020 59 10000 1.03 0 21:48 01.07.2022
2810 Clouds 24 1020 59 10000 2.06 170 21:28 01.07.2022
2811 Clear 27 1019 49 10000 1.54 150 20:40 01.07.2022
2812 Clear 28 1016 47 10000 3.09 170 19:46 01.07.2022
2813 Clouds 31 1016 33 10000 4.12 110 17:53 01.07.2022
2814 Clouds 32 1021 37 10000 6.17 90 16:22 01.07.2022
2815 Clouds 32 1016 27 10000 2.57 130 13:55 01.07.2022
2816 Clear 30 1017 35 10000 2.06 80 12:41 01.07.2022
2817 Clear 26 1018 47 10000 1.03 0 10:20 01.07.2022
2818 Clear 26 1018 47 10000 1.03 0 10:20 01.07.2022
2819 Clear 25 1018 50 10000 1.03 0 09:43 01.07.2022
2820 Clear 17 1020 82 10000 2.06 10 04:49 01.07.2022
2821 Clouds 20 1019 68 10000 3.09 110 00:26 01.07.2022
2822 Clouds 22 1019 62 10000 2.06 110 22:59 30.06.2022
2823 Clouds 22 1019 61 10000 2.68 135 22:41 30.06.2022
2824 Clouds 23 1019 60 10000 2.06 120 22:22 30.06.2022
2825 Clouds 23 1018 62 10000 2.57 140 21:41 30.06.2022
2826 Clear 26 1015 53 10000 3.09 110 20:30 30.06.2022
2827 Clear 28 1015 47 10000 2.06 140 19:54 30.06.2022
2828 Clear 29 1015 42 10000 3.6 160 19:24 30.06.2022
2829 Clouds 30 1014 37 10000 3.6 150 18:42 30.06.2022
2830 Clouds 31 1014 35 10000 3.6 140 17:44 30.06.2022
2831 Clouds 31 1014 33 10000 3.09 120 16:55 30.06.2022
2832 Clouds 31 1015 30 10000 3.09 140 15:39 30.06.2022
2833 Clear 29 1016 37 10000 3.09 90 13:34 30.06.2022
2834 Clear 29 1016 32 10000 3.09 100 12:35 30.06.2022
2835 Clear 27 1016 44 10000 1.03 0 11:37 30.06.2022
2836 Clear 23 1017 56 10000 1.03 0 09:55 30.06.2022
2837 Clear 23 1017 60 10000 1.03 0 09:34 30.06.2022
2838 Clear 21 1017 68 10000 0.51 0 08:18 30.06.2022
2839 Clear 18 1017 77 10000 1.54 100 07:18 30.06.2022
2840 Clear 17 1019 80 10000 1.54 160 01:42 30.06.2022
2841 Clear 19 1019 75 10000 1.54 120 23:34 29.06.2022
2842 Clear 21 1019 69 10000 2.06 120 22:40 29.06.2022
2843 Clear 23 1018 63 10000 3.09 130 21:39 29.06.2022
2844 Clear 25 1015 57 10000 2.57 60 20:34 29.06.2022
2845 Clear 27 1016 50 10000 4.63 80 19:37 29.06.2022
2846 Clear 29 1016 37 10000 3.6 50 17:45 29.06.2022
2847 Clouds 30 1016 32 10000 2.57 360 16:43 29.06.2022
2848 Clouds 30 1017 32 10000 2.06 0 15:26 29.06.2022
2849 Clear 30 1021 40 10000 2.57 0 12:47 29.06.2022
2850 Clear 25 1019 53 10000 1.03 0 11:32 29.06.2022
2851 Clear 20 1019 77 10000 1.54 280 09:33 29.06.2022
2852 Clear 17 1019 82 8000 1.03 0 08:26 29.06.2022
2853 Clear 13 1022 97 10000 2.57 100 04:57 29.06.2022
2854 Clear 15 1022 93 10000 0.51 0 01:41 29.06.2022
2855 Clear 15 1022 92 10000 1.54 130 00:36 29.06.2022
2856 Clear 17 1022 88 10000 2.06 160 22:55 28.06.2022
2857 Rain 17 1022 87 10000 1.54 150 22:34 28.06.2022
2858 Rain 17 1022 88 10000 2.06 200 21:55 28.06.2022
2859 Rain 18 1022 82 10000 0.51 0 21:33 28.06.2022
2860 Rain 19 1022 83 10000 1.54 180 20:50 28.06.2022
2861 Thunderstorm 19 1018 77 10000 3.6 340 19:34 28.06.2022
2862 Thunderstorm 23 1021 59 10000 5.14 50 18:53 28.06.2022
2863 Clouds 27 1017 47 10000 2.06 110 17:42 28.06.2022
2864 Clouds 29 1017 39 10000 2.06 0 16:21 28.06.2022
2865 Clouds 29 1017 39 10000 2.06 70 15:42 28.06.2022
2866 Clouds 28 1018 39 10000 2.57 0 14:21 28.06.2022
2867 Clouds 28 1018 39 10000 4.12 70 13:54 28.06.2022
2868 Clouds 27 1019 44 10000 1.54 0 12:57 28.06.2022
2869 Clear 26 1019 50 10000 2.06 0 11:18 28.06.2022
2870 Clear 21 1020 68 10000 1.54 220 09:30 28.06.2022
2871 Clear 20 1020 73 10000 1.54 0 08:44 28.06.2022
2872 Clear 19 1020 77 10000 1.03 0 07:42 28.06.2022
2873 Clear 16 1020 88 10000 1.03 0 06:56 28.06.2022
2874 Clear 17 1022 87 10000 1.03 0 00:58 28.06.2022
2875 Clear 18 1022 81 10000 1.03 0 23:41 27.06.2022
2876 Clear 19 1022 74 10000 1.03 0 22:52 27.06.2022
2877 Clouds 21 1022 69 9000 2.06 160 21:38 27.06.2022
2878 Clear 21 1019 68 10000 1.54 100 20:52 27.06.2022
2879 Clouds 25 1019 53 10000 3.6 30 19:33 27.06.2022
2880 Clouds 26 1019 44 10000 0.51 0 18:25 27.06.2022
2881 Clouds 27 1019 47 10000 1.54 0 16:20 27.06.2022
2882 Clouds 26 1019 47 10000 4.63 80 15:22 27.06.2022
2883 Clouds 25 1019 53 10000 1.03 0 13:36 27.06.2022
2884 Clouds 26 1020 53 10000 1.03 0 12:56 27.06.2022
2885 Clouds 23 1020 56 10000 1.54 260 10:34 27.06.2022
2886 Clear 20 1020 77 10000 1.54 0 09:20 27.06.2022
2887 Clear 18 1020 82 10000 1.03 0 08:29 27.06.2022
2888 Clear 14 1020 94 10000 1.54 100 06:38 27.06.2022
2889 Clear 15 1023 90 10000 1.54 160 03:24 27.06.2022
2890 Clear 17 1023 83 10000 1.03 160 23:56 26.06.2022
2891 Clouds 20 1023 73 10000 2.06 130 21:59 26.06.2022
2892 Clear 21 1023 68 10000 1.54 280 20:44 26.06.2022
2893 Clouds 21 1018 64 10000 2.57 20 19:40 26.06.2022
2894 Clouds 22 1018 64 10000 5.14 300 18:31 26.06.2022
2895 Rain 24 1020 58 10000 4.63 300 16:45 26.06.2022
2896 Rain 23 1017 64 10000 4.12 360 14:42 26.06.2022
2897 Clouds 25 1017 61 10000 2.06 20 13:38 26.06.2022
2898 Clouds 25 1017 61 10000 2.06 20 13:18 26.06.2022
2899 Clouds 23 1018 64 10000 2.06 0 11:26 26.06.2022
2900 Clouds 22 1018 78 10000 1.54 60 10:26 26.06.2022
2901 Clouds 20 1018 77 10000 2.06 270 09:22 26.06.2022
2902 Clouds 19 1019 84 10000 2.57 280 07:41 26.06.2022
2903 Rain 17 1018 90 10000 3.09 290 01:53 26.06.2022
2904 Rain 18 1018 89 10000 1.54 360 00:20 26.06.2022
2905 Rain 18 1018 89 10000 2.68 270 23:49 25.06.2022
2906 Rain 18 1018 86 10000 7.2 250 22:57 25.06.2022
2907 Rain 18 1018 81 10000 7.2 260 22:27 25.06.2022
2908 Rain 19 1018 82 10000 4.12 300 21:40 25.06.2022
2909 Rain 19 1018 82 10000 4.12 300 21:18 25.06.2022
2910 Rain 21 1017 65 8000 4.47 293 20:27 25.06.2022
2911 Rain 24 1016 67 10000 2.06 140 19:20 25.06.2022
2912 Clear 28 1013 47 10000 1.54 0 17:53 25.06.2022
2913 Clouds 27 1014 47 10000 0.51 0 17:19 25.06.2022
2914 Clouds 29 1014 48 10000 3.09 40 14:59 25.06.2022
2915 Clear 27 1015 47 10000 3.09 320 12:57 25.06.2022
2916 Clouds 26 1015 50 10000 3.09 320 12:37 25.06.2022
2917 Clear 23 1015 64 10000 1.03 0 10:32 25.06.2022
2918 Clouds 19 1016 77 10000 1.03 0 08:57 25.06.2022
2919 Clouds 18 1015 82 10000 0.51 0 08:35 25.06.2022
2920 Clouds 20 1017 71 10000 1.03 0 07:45 25.06.2022
2921 Clouds 15 1017 87 10000 1.54 100 03:30 25.06.2022
2922 Clouds 17 1017 80 10000 2.06 160 00:33 25.06.2022
2923 Clouds 18 1017 74 10000 2.57 100 22:51 24.06.2022
2924 Clouds 20 1017 69 10000 1.54 100 21:31 24.06.2022
2925 Clear 23 1019 54 10000 1.03 0 20:25 24.06.2022
2926 Clear 25 1014 50 10000 1.54 340 19:52 24.06.2022
2927 Clear 25 1014 50 10000 2.06 320 19:19 24.06.2022
2928 Clouds 25 1014 47 10000 3.09 310 18:47 24.06.2022
2929 Clouds 26 1014 44 10000 3.09 310 18:29 24.06.2022
2930 Clouds 26 1015 44 10000 2.06 0 16:52 24.06.2022
2931 Clouds 25 1016 47 10000 1.54 0 15:27 24.06.2022
2932 Clouds 25 1015 50 10000 2.57 330 14:25 24.06.2022
2933 Clouds 25 1016 47 10000 2.57 0 13:46 24.06.2022
2934 Clouds 24 1016 57 10000 2.06 0 11:42 24.06.2022
2935 Clouds 21 1016 68 10000 2.06 0 10:42 24.06.2022
2936 Clouds 20 1016 73 10000 2.06 310 09:42 24.06.2022
2937 Clouds 19 1016 77 10000 2.06 250 08:54 24.06.2022
2938 Clouds 18 1016 82 10000 2.06 230 08:32 24.06.2022
2939 Clouds 15 1018 88 10000 1.54 120 06:45 24.06.2022
2940 Clouds 15 1018 88 10000 1.54 120 06:26 24.06.2022
2941 Clouds 14 1018 91 10000 2.06 70 04:50 24.06.2022
2942 Clouds 19 1020 74 10000 2.06 120 23:43 23.06.2022
2943 Clouds 18 1018 81 10000 1.79 293 23:43 23.06.2022
2944 Clear 19 1016 77 10000 2.57 130 22:43 23.06.2022
2945 Clear 20 1016 77 10000 0.51 300 21:22 23.06.2022
2946 Clouds 21 1015 68 10000 2.06 300 20:37 23.06.2022
2947 Clouds 22 1015 64 10000 1.54 310 19:54 23.06.2022
2948 Clouds 25 1019 56 10000 2.57 20 18:27 23.06.2022
2949 Clouds 25 1013 57 10000 5.66 300 17:34 23.06.2022
2950 Clouds 26 1016 55 10000 4.92 315 16:29 23.06.2022
2951 Clouds 26 1016 58 10000 6.71 315 15:26 23.06.2022
2952 Clouds 24 1014 64 10000 2.57 290 14:34 23.06.2022
2953 Clouds 20 1014 68 10000 2.57 90 11:41 23.06.2022
2954 Clouds 26 1019 59 10000 2.57 10 10:40 23.06.2022
2955 Clouds 17 1014 88 10000 3.6 220 09:19 23.06.2022
2956 Clouds 16 1015 82 10000 1.03 0 04:48 23.06.2022
2957 Clouds 21 1016 63 10000 4.92 293 00:27 23.06.2022
2958 Clouds 22 1018 61 10000 4.63 280 23:52 22.06.2022
2959 Clouds 22 1014 60 10000 4.63 280 22:53 22.06.2022
2960 Clouds 23 1014 56 10000 2.06 330 21:28 22.06.2022
2961 Clouds 24 1013 50 10000 2.57 300 20:48 22.06.2022
2962 Clouds 24 1013 50 10000 4.12 280 20:18 22.06.2022
2963 Clear 26 1012 47 10000 8.23 280 18:57 22.06.2022
2964 Clouds 27 1012 47 10000 8.23 290 17:31 22.06.2022
2965 Clouds 28 1012 44 10000 8.75 300 16:40 22.06.2022
2966 Clouds 30 1017 49 10000 7.2 280 15:28 22.06.2022
2967 Clouds 28 1012 51 10000 6.69 300 14:40 22.06.2022
2968 Clouds 28 1015 51 10000 9.26 290 13:45 22.06.2022
2969 Clouds 28 1012 51 10000 7.72 300 13:23 22.06.2022
2970 Clouds 27 1012 54 10000 9.26 280 11:50 22.06.2022
2971 Clouds 27 1012 54 10000 9.26 280 11:50 22.06.2022
2972 Clouds 27 1013 57 10000 6.69 290 10:58 22.06.2022
2973 Clear 26 1013 61 10000 5.14 300 10:26 22.06.2022
2974 Clear 24 1013 69 10000 5.14 280 08:48 22.06.2022
2975 Clear 17 1013 94 10000 2.06 50 06:21 22.06.2022
2976 Clouds 20 1015 76 10000 1.54 330 01:52 22.06.2022
2977 Clear 22 1013 68 10000 3.6 290 00:56 22.06.2022
2978 Clear 24 1013 60 10000 4.12 290 22:40 21.06.2022
2979 Clear 25 1012 57 10000 4.12 290 20:40 21.06.2022
2980 Clouds 27 1015 51 10000 5.14 290 19:18 21.06.2022
2981 Clouds 28 1012 47 10000 7.2 290 17:44 21.06.2022
2982 Clouds 29 1012 45 10000 6.17 290 16:34 21.06.2022
2983 Clear 27 1013 47 10000 8.23 290 11:56 21.06.2022
2984 Clear 22 1013 60 10000 1.54 0 10:27 21.06.2022
2985 Clear 19 1013 63 10000 1.03 0 08:51 21.06.2022
2986 Clear 15 1013 77 10000 2.06 90 07:35 21.06.2022
2987 Clear 13 1017 83 10000 1.54 140 04:40 21.06.2022
2988 Clear 17 1015 68 10000 1.54 100 23:27 20.06.2022
2989 Clear 19 1015 57 10000 3.6 200 21:59 20.06.2022
2990 Clear 19 1015 61 10000 1.54 160 21:32 20.06.2022
2991 Clear 22 1013 53 10000 2.06 60 20:25 20.06.2022
2992 Clear 26 1013 36 10000 1.54 340 18:56 20.06.2022
2993 Clear 26 1013 34 10000 2.06 350 18:24 20.06.2022
2994 Clear 26 1013 31 10000 1.54 280 17:41 20.06.2022
2995 Clear 26 1013 38 10000 1.54 280 16:21 20.06.2022
2996 Clear 26 1014 34 10000 1.54 360 14:29 20.06.2022
2997 Clouds 24 1016 38 10000 2.06 0 11:47 20.06.2022
2998 Clear 20 1016 56 10000 1.54 90 09:55 20.06.2022
2999 Clear 18 1017 68 10000 1.03 0 08:45 20.06.2022
3000 Clear 14 1017 77 10000 0.51 0 07:35 20.06.2022
3001 Clear 12 1020 84 10000 1.03 260 03:51 20.06.2022
3002 Clear 15 1020 76 10000 2.06 150 00:52 20.06.2022
3003 Clear 16 1021 70 10000 2.06 110 23:29 19.06.2022
3004 Clear 18 1021 61 10000 2.57 140 22:19 19.06.2022
3005 Clear 16 1019 72 10000 1.54 150 21:42 19.06.2022
3006 Clear 20 1019 52 10000 2.06 80 20:48 19.06.2022
3007 Clear 22 1018 43 10000 3.6 50 19:48 19.06.2022
3008 Clouds 23 1018 43 10000 3.6 40 19:24 19.06.2022
3009 Clouds 22 1018 49 10000 5.14 90 18:31 19.06.2022
3010 Clouds 24 1019 41 10000 3.09 90 17:39 19.06.2022
3011 Clouds 24 1019 41 10000 3.09 360 16:39 19.06.2022
3012 Clouds 24 1021 39 10000 2.57 90 15:44 19.06.2022
3013 Clouds 25 1019 36 10000 3.09 30 15:26 19.06.2022
3014 Clouds 25 1020 33 10000 4.12 80 14:35 19.06.2022
3015 Clouds 24 1020 33 10000 4.12 100 13:44 19.06.2022
3016 Clouds 23 1021 43 10000 3.6 100 11:53 19.06.2022
3017 Clouds 22 1021 43 10000 3.6 110 10:52 19.06.2022
3018 Clear 18 1022 72 10000 1.03 0 08:55 19.06.2022
3019 Clear 16 1022 82 10000 1.54 170 08:30 19.06.2022
3020 Clear 13 1022 94 8000 2.06 80 06:48 19.06.2022
3021 Clear 12 1023 95 10000 1.03 110 03:37 19.06.2022
3022 Clear 13 1023 90 10000 0 0 00:28 19.06.2022
3023 Clouds 13 1023 90 10000 1.54 160 23:52 18.06.2022
3024 Clear 14 1023 83 10000 1.54 230 23:34 18.06.2022
3025 Clear 16 1023 78 10000 1.54 210 21:54 18.06.2022
3026 Clouds 18 1020 72 10000 1.54 140 20:50 18.06.2022
3027 Clouds 19 1020 68 10000 1.03 0 20:18 18.06.2022
3028 Clouds 21 1019 56 10000 2.57 120 18:55 18.06.2022
3029 Clouds 21 1019 60 10000 4.12 120 18:30 18.06.2022
3030 Clouds 22 1019 56 10000 5.66 100 17:29 18.06.2022
3031 Clouds 22 1019 56 10000 4.12 50 15:46 18.06.2022
3032 Clouds 23 1020 53 10000 5.14 20 14:50 18.06.2022
3033 Clouds 21 1022 67 10000 6.69 50 13:58 18.06.2022
3034 Clouds 20 1019 68 10000 2.06 300 12:28 18.06.2022
3035 Clouds 21 1020 56 10000 3.6 300 10:59 18.06.2022
3036 Clear 20 1020 64 10000 3.6 310 09:31 18.06.2022
3037 Clear 18 1020 77 10000 3.6 290 08:40 18.06.2022
3038 Clouds 17 1019 77 8000 4.12 280 07:34 18.06.2022
3039 Clouds 14 1019 94 10000 3.6 300 05:20 18.06.2022
3040 Clouds 15 1020 94 10000 1.03 0 01:47 18.06.2022
3041 Clouds 15 1020 94 10000 1.54 10 01:21 18.06.2022
3042 Clouds 16 1020 94 10000 2.06 340 00:23 18.06.2022
3043 Clouds 16 1019 88 10000 1.54 280 23:36 17.06.2022
3044 Clouds 16 1019 94 10000 2.06 310 22:27 17.06.2022
3045 Clouds 18 1021 76 10000 1.79 293 20:29 17.06.2022
3046 Clouds 19 1020 74 10000 3.6 260 19:24 17.06.2022
3047 Rain 19 1023 72 10000 3.6 340 17:56 17.06.2022
3048 Clouds 25 1017 47 10000 3.09 350 16:44 17.06.2022
3049 Clouds 24 1017 50 10000 2.57 330 16:25 17.06.2022
3050 Clouds 25 1018 44 10000 2.57 320 15:37 17.06.2022
3051 Clouds 22 1018 49 10000 2.57 340 14:23 17.06.2022
3052 Clouds 27 1022 42 10000 4.12 320 13:58 17.06.2022
3053 Clouds 25 1018 38 10000 3.6 290 13:38 17.06.2022
3054 Clouds 24 1018 53 10000 1.54 0 12:24 17.06.2022
3055 Clear 24 1019 50 10000 1.03 0 11:50 17.06.2022
3056 Clear 23 1019 53 10000 1.03 0 11:32 17.06.2022
3057 Clear 19 1020 63 10000 1.54 120 08:56 17.06.2022
3058 Clear 18 1020 68 10000 2.06 110 08:25 17.06.2022
3059 Clear 15 1020 77 10000 2.06 100 06:42 17.06.2022
3060 Clear 14 1021 80 10000 2.57 120 03:42 17.06.2022
3061 Clear 15 1022 79 10000 3.09 110 01:55 17.06.2022
3062 Clouds 16 1020 82 10000 5.14 100 23:35 16.06.2022
3063 Clouds 16 1020 82 10000 3.09 120 22:41 16.06.2022
3064 Clear 19 1019 72 10000 4.63 110 21:21 16.06.2022
3065 Clear 20 1019 68 10000 5.66 90 20:51 16.06.2022
3066 Clouds 22 1019 60 10000 5.14 100 20:27 16.06.2022
3067 Clouds 23 1018 56 10000 6.17 90 19:31 16.06.2022
3068 Clouds 26 1018 38 10000 2.57 140 17:54 16.06.2022
3069 Clouds 26 1019 38 10000 2.06 110 17:33 16.06.2022
3070 Clouds 26 1019 41 10000 1.54 150 16:24 16.06.2022
3071 Clouds 25 1019 41 10000 2.57 160 15:21 16.06.2022
3072 Clouds 25 1020 44 10000 1.54 0 14:27 16.06.2022
3073 Clouds 25 1020 44 10000 2.06 0 12:56 16.06.2022
3074 Clouds 23 1020 46 10000 2.57 110 12:34 16.06.2022
3075 Clouds 23 1021 53 10000 2.06 110 11:49 16.06.2022
3076 Clouds 21 1021 64 10000 3.6 100 10:42 16.06.2022
3077 Clouds 21 1021 68 10000 3.09 100 09:43 16.06.2022
3078 Clouds 20 1021 68 10000 3.09 80 09:19 16.06.2022
3079 Clear 15 1021 88 10000 1.03 0 07:57 16.06.2022
3080 Clouds 14 1021 88 10000 1.54 350 06:49 16.06.2022
3081 Clouds 12 1024 89 10000 0 0 04:27 16.06.2022
3082 Clouds 13 1023 89 10000 1.54 160 01:53 16.06.2022
3083 Clouds 14 1023 86 10000 2.06 110 01:32 16.06.2022
3084 Clouds 14 1023 86 10000 1.03 0 00:31 16.06.2022
3085 Clouds 15 1025 80 10000 1.03 0 22:59 15.06.2022
3086 Clouds 16 1025 75 10000 3.13 338 21:55 15.06.2022
3087 Clouds 17 1025 69 10000 2.06 160 21:20 15.06.2022
3088 Clouds 20 1020 60 10000 2.06 80 20:37 15.06.2022
3089 Clouds 20 1020 60 10000 2.06 80 20:18 15.06.2022
3090 Clear 22 1020 56 10000 3.6 30 18:47 15.06.2022
3091 Clear 23 1020 49 10000 3.6 20 17:54 15.06.2022
3092 Clouds 24 1020 46 10000 3.6 0 16:35 15.06.2022
3093 Clear 24 1020 43 10000 2.57 0 15:22 15.06.2022
3094 Clear 23 1021 43 10000 3.09 0 13:29 15.06.2022
3095 Clouds 22 1021 43 10000 3.6 280 12:51 15.06.2022
3096 Clear 21 1021 46 10000 3.6 290 11:37 15.06.2022
3097 Clear 20 1021 49 10000 3.6 300 10:22 15.06.2022
3098 Clear 19 1021 52 10000 4.12 300 09:34 15.06.2022
3099 Clear 16 1021 67 10000 3.6 300 07:58 15.06.2022
3100 Clear 12 1020 82 10000 4.12 320 05:58 15.06.2022
3101 Clear 14 1020 72 10000 1.54 20 02:56 15.06.2022
3102 Clear 16 1020 67 10000 5.14 280 01:37 15.06.2022
3103 Clouds 16 1020 72 10000 6.17 270 00:37 15.06.2022
3104 Clouds 17 1020 67 10000 5.66 270 23:38 14.06.2022
3105 Clouds 17 1020 67 10000 5.66 280 22:48 14.06.2022
3106 Clouds 18 1019 68 10000 6.69 270 21:44 14.06.2022
3107 Clouds 18 1019 68 10000 6.69 280 21:21 14.06.2022
3108 Clear 20 1018 60 10000 7.2 280 20:40 14.06.2022
3109 Clear 21 1018 56 10000 6.69 280 19:58 14.06.2022
3110 Clouds 23 1017 46 10000 6.69 280 18:40 14.06.2022
3111 Clouds 24 1016 41 10000 6.69 280 17:19 14.06.2022
3112 Clouds 24 1017 46 10000 6.17 290 16:42 14.06.2022
3113 Clouds 24 1017 53 10000 5.14 290 15:43 14.06.2022
3114 Clouds 20 1017 73 10000 5.66 270 14:56 14.06.2022
3115 Clouds 21 1017 64 8000 5.66 250 14:18 14.06.2022
3116 Rain 18 1018 77 10000 5.14 280 13:24 14.06.2022
3117 Rain 23 1018 64 10000 5.66 290 11:58 14.06.2022
3118 Clouds 23 1018 64 10000 5.14 280 10:52 14.06.2022
3119 Clouds 21 1018 73 10000 4.63 280 10:29 14.06.2022
3120 Clouds 20 1018 77 10000 3.6 290 09:22 14.06.2022
3121 Clouds 20 1020 80 10000 1.03 0 08:37 14.06.2022
3122 Clear 20 1020 84 10000 1.03 0 06:32 14.06.2022
3123 Clear 15 1018 94 9000 1.03 0 03:52 14.06.2022
3124 Clear 16 1016 94 10000 0 0 01:37 14.06.2022
3125 Clear 17 1016 82 10000 1.03 0 00:21 14.06.2022
3126 Clear 19 1016 77 10000 3.09 300 22:45 13.06.2022
3127 Clear 19 1016 82 10000 1.54 310 22:22 13.06.2022
3128 Clear 21 1015 68 10000 1.54 300 21:26 13.06.2022
3129 Clouds 23 1014 60 10000 2.06 300 19:59 13.06.2022
3130 Clouds 25 1014 47 10000 2.06 350 18:54 13.06.2022
3131 Clouds 25 1014 47 10000 1.54 0 17:55 13.06.2022
3132 Clouds 26 1014 38 10000 2.57 80 17:24 13.06.2022
3133 Clouds 26 1014 41 10000 2.06 0 16:30 13.06.2022
3134 Clouds 25 1015 53 10000 1.54 0 14:49 13.06.2022
3135 Clouds 25 1015 53 10000 0 0 14:31 13.06.2022
3136 Clouds 25 1016 53 10000 2.57 0 13:31 13.06.2022
3137 Clouds 24 1016 57 10000 2.06 0 12:22 13.06.2022
3138 Clouds 21 1016 73 10000 1.54 310 10:37 13.06.2022
3139 Clouds 20 1016 77 10000 1.03 0 09:54 13.06.2022
3140 Clouds 17 1016 94 8000 1.03 0 08:40 13.06.2022
3141 Fog 14 1016 100 1500 1.54 300 06:36 13.06.2022
3142 Clouds 13 1018 97 10000 1.03 260 04:43 13.06.2022
3143 Clouds 15 1018 94 7000 0 0 01:45 13.06.2022
3144 Clouds 15 1018 96 10000 2.06 250 01:18 13.06.2022
3145 Clouds 15 1019 93 10000 1.54 290 23:43 12.06.2022
3146 Clouds 15 1019 96 10000 1.54 280 22:36 12.06.2022
3147 Rain 16 1019 92 10000 2.57 290 21:46 12.06.2022
3148 Clouds 17 1018 90 10000 2.57 270 20:49 12.06.2022
3149 Rain 16 1018 90 10000 4.12 260 19:49 12.06.2022
3150 Rain 17 1018 89 6000 2.06 310 18:54 12.06.2022
3151 Clouds 20 1018 83 10000 1.54 260 17:24 12.06.2022
3152 Rain 22 1014 64 10000 2.06 120 15:44 12.06.2022
3153 Clouds 22 1014 68 10000 1.03 0 14:50 12.06.2022
3154 Rain 21 1018 72 10000 1.54 110 14:18 12.06.2022
3155 Clouds 21 1015 68 10000 1.03 0 13:44 12.06.2022
3156 Rain 19 1017 83 10000 2.06 290 12:22 12.06.2022
3157 Rain 18 1015 82 10000 1.54 220 10:46 12.06.2022
3158 Rain 18 1014 82 10000 3.09 280 09:36 12.06.2022
3159 Clouds 17 1014 88 10000 3.6 280 08:50 12.06.2022
3160 Clouds 17 1014 88 10000 6.17 270 07:51 12.06.2022
3161 Clouds 16 1015 90 10000 4.63 280 06:27 12.06.2022
3162 Clouds 16 1015 91 10000 4.63 280 03:44 12.06.2022
3163 Clouds 16 1016 90 10000 2.57 270 01:49 12.06.2022
3164 Clouds 16 1016 90 10000 3.09 270 01:29 12.06.2022
3165 Clouds 17 1016 88 10000 2.57 300 00:43 12.06.2022
3166 Clouds 17 1016 89 10000 1.54 290 00:18 12.06.2022
3167 Clouds 17 1016 90 10000 2.06 290 22:58 11.06.2022
3168 Clouds 17 1016 90 10000 1.03 0 22:31 11.06.2022
3169 Rain 17 1016 89 10000 1.54 250 21:18 11.06.2022
3170 Clouds 17 1015 89 10000 2.57 230 20:26 11.06.2022
3171 Rain 17 1015 86 8000 2.06 360 19:33 11.06.2022
3172 Rain 17 1015 86 8000 2.06 360 19:33 11.06.2022
3173 Rain 18 1015 85 8000 2.57 20 18:42 11.06.2022
3174 Rain 18 1015 85 8000 2.57 20 18:24 11.06.2022
3175 Clouds 18 1013 88 10000 2.57 290 17:38 11.06.2022
3176 Clouds 18 1013 88 10000 2.57 290 17:19 11.06.2022
3177 Rain 17 1013 94 10000 2.57 300 16:42 11.06.2022
3178 Rain 18 1015 85 10000 3.09 350 15:47 11.06.2022
3179 Clouds 19 1012 82 10000 2.57 280 14:23 11.06.2022
3180 Clouds 18 1012 88 10000 2.57 310 13:47 11.06.2022
3181 Clouds 20 1012 73 10000 2.06 320 11:36 11.06.2022
3182 Clouds 18 1012 82 10000 1.03 0 10:29 11.06.2022
3183 Clouds 17 1012 88 8000 1.54 240 09:40 11.06.2022
3184 Rain 16 1014 93 7000 1.54 280 08:21 11.06.2022
3185 Rain 16 1013 95 6000 1.03 0 06:32 11.06.2022
3186 Rain 15 1012 95 5000 0 0 05:26 11.06.2022
3187 Rain 16 1012 97 5000 2.06 180 02:35 11.06.2022
3188 Rain 17 1012 94 7000 2.57 190 01:41 11.06.2022
3189 Rain 16 1013 96 6000 0.51 0 00:37 11.06.2022
3190 Clouds 16 1013 92 9000 1.54 60 22:38 10.06.2022
3191 Clouds 16 1013 91 8000 1.54 30 21:56 10.06.2022
3192 Clouds 16 1012 91 10000 25.48 225 20:55 10.06.2022
3193 Clouds 16 1012 92 10000 2.06 180 20:36 10.06.2022
3194 Clouds 16 1012 92 10000 2.06 180 20:18 10.06.2022
3195 Rain 17 1012 89 8000 2.57 180 19:18 10.06.2022
3196 Rain 17 1012 89 8000 2.57 180 19:18 10.06.2022
3197 Rain 17 1012 92 6000 25.48 270 18:20 10.06.2022
3198 Rain 17 1011 88 8000 1.03 0 17:37 10.06.2022
3199 Rain 20 1012 77 8000 5.36 113 16:59 10.06.2022
3200 Clouds 22 1011 66 10000 2.06 60 16:20 10.06.2022
3201 Clouds 20 1009 77 10000 1.54 0 15:36 10.06.2022
3202 Rain 20 1012 86 5000 1.54 270 13:52 10.06.2022
3203 Rain 17 1010 88 4400 2.06 320 12:41 10.06.2022
3204 Rain 20 1012 71 10000 2.68 90 11:40 10.06.2022
3205 Rain 20 1012 77 10000 1.79 90 10:43 10.06.2022
3206 Clouds 19 1013 83 10000 2.57 120 09:44 10.06.2022
3207 Clouds 17 1011 90 10000 2.06 110 08:28 10.06.2022
3208 Rain 16 1011 92 10000 1.54 100 06:53 10.06.2022
3209 Rain 16 1010 90 10000 1.54 110 06:32 10.06.2022
3210 Rain 16 1010 89 10000 1.54 130 05:48 10.06.2022
3211 Clouds 16 1010 90 10000 2.57 130 03:41 10.06.2022
3212 Rain 16 1010 87 10000 1.03 0 01:38 10.06.2022
3213 Clouds 16 1010 85 10000 1.54 340 00:25 10.06.2022
3214 Clouds 17 1012 82 10000 2.57 290 23:25 09.06.2022
3215 Rain 17 1011 80 10000 2.57 60 21:47 09.06.2022
3216 Rain 17 1011 80 10000 5.66 100 21:29 09.06.2022
3217 Clouds 19 1012 67 10000 5.14 90 20:54 09.06.2022
3218 Clouds 19 1011 68 10000 6.17 100 19:55 09.06.2022
3219 Rain 20 1009 68 10000 6.17 120 18:47 09.06.2022
3220 Clouds 21 1010 62 10000 7.72 120 17:56 09.06.2022
3221 Clouds 20 1007 77 10000 2.57 120 16:44 09.06.2022
3222 Clouds 22 1009 59 6000 3.6 330 15:44 09.06.2022
3223 Clouds 26 1011 46 10000 1.54 40 14:34 09.06.2022
3224 Clouds 25 1007 38 10000 1.54 0 13:46 09.06.2022
3225 Clouds 24 1008 53 10000 1.54 0 13:26 09.06.2022
3226 Clouds 22 1009 56 10000 2.06 130 11:53 09.06.2022
3227 Clouds 20 1009 73 10000 1.54 50 10:40 09.06.2022
3228 Clouds 19 1010 77 10000 1.54 30 09:42 09.06.2022
3229 Clouds 18 1010 77 10000 1.03 0 09:23 09.06.2022
3230 Clouds 15 1010 94 8000 1.03 0 07:34 09.06.2022
3231 Fog 14 1012 95 300 1.54 310 05:27 09.06.2022
3232 Clouds 15 1013 95 10000 1.03 0 01:44 09.06.2022
3233 Clouds 15 1014 95 10000 3.6 110 23:24 08.06.2022
3234 Rain 16 1014 92 10000 3.6 100 22:50 08.06.2022
3235 Rain 16 1014 92 10000 3.09 90 22:25 08.06.2022
3236 Rain 16 1014 91 10000 2.06 170 21:48 08.06.2022
3237 Rain 16 1014 91 8000 2.06 140 20:33 08.06.2022
3238 Thunderstorm 16 1014 92 8000 0.51 0 19:49 08.06.2022
3239 Thunderstorm 16 1012 94 8000 4.63 280 18:56 08.06.2022
3240 Thunderstorm 15 1012 100 3000 9.26 270 18:22 08.06.2022
3241 Clouds 25 1012 43 10000 3.09 60 16:30 08.06.2022
3242 Clouds 26 1010 36 10000 2.57 140 14:54 08.06.2022
3243 Clouds 25 1010 38 10000 2.06 0 13:36 08.06.2022
3244 Clouds 24 1011 43 10000 2.06 0 11:50 08.06.2022
3245 Clear 23 1011 46 10000 2.57 100 11:22 08.06.2022
3246 Clouds 21 1012 52 10000 1.54 100 09:46 08.06.2022
3247 Clear 19 1012 63 10000 1.03 0 09:19 08.06.2022
3248 Clear 15 1012 77 10000 1.54 90 07:30 08.06.2022
3249 Clear 13 1014 89 10000 1.03 0 05:20 08.06.2022
3250 Clear 13 1015 84 10000 2.06 150 02:28 08.06.2022
3251 Clouds 17 1017 70 10000 3.09 90 23:41 07.06.2022
3252 Clear 17 1018 68 10000 3.6 100 23:22 07.06.2022
3253 Clear 17 1014 72 10000 2.57 150 22:38 07.06.2022
3254 Clear 18 1014 68 10000 3.6 150 21:45 07.06.2022
3255 Clouds 18 1013 68 10000 3.6 150 21:24 07.06.2022
3256 Clouds 19 1013 63 10000 2.57 80 20:43 07.06.2022
3257 Clouds 21 1013 56 10000 4.12 60 19:59 07.06.2022
3258 Clouds 23 1013 46 10000 4.63 50 18:42 07.06.2022
3259 Clouds 24 1013 46 10000 4.63 50 17:51 07.06.2022
3260 Clouds 24 1013 43 10000 4.12 70 16:49 07.06.2022
3261 Clouds 24 1013 43 10000 4.12 80 16:31 07.06.2022
3262 Clouds 25 1014 41 10000 3.6 80 15:38 07.06.2022
3263 Clouds 25 1014 41 10000 3.6 60 15:19 07.06.2022
3264 Clouds 25 1014 44 10000 3.6 90 14:44 07.06.2022
3265 Clouds 25 1017 47 10000 3.6 100 13:42 07.06.2022
3266 Clouds 25 1016 45 10000 4.12 120 13:42 07.06.2022
3267 Clouds 25 1017 47 10000 3.6 100 13:23 07.06.2022
3268 Clouds 23 1016 49 10000 3.09 0 11:56 07.06.2022
3269 Clouds 23 1016 49 10000 3.09 0 11:56 07.06.2022
3270 Clear 22 1016 60 10000 2.06 0 10:57 07.06.2022
3271 Clouds 19 1017 77 10000 1.54 130 09:28 07.06.2022
3272 Clouds 17 1017 88 8000 2.06 30 08:28 07.06.2022
3273 Clouds 17 1019 89 7000 2.24 0 07:19 07.06.2022
3274 Clouds 14 1019 96 10000 0 0 04:52 07.06.2022
3275 Clouds 14 1019 95 10000 2.57 150 01:43 07.06.2022
3276 Clouds 16 1019 90 10000 1.03 260 23:59 06.06.2022
3277 Clouds 17 1019 86 10000 1.54 270 22:59 06.06.2022
3278 Clouds 17 1019 85 10000 2.57 270 22:30 06.06.2022
3279 Clouds 18 1019 80 10000 2.57 280 21:28 06.06.2022
3280 Clouds 21 1019 71 10000 2.06 290 19:29 06.06.2022
3281 Clouds 21 1017 73 10000 2.06 290 18:59 06.06.2022
3282 Clouds 22 1016 64 10000 0.51 0 18:32 06.06.2022
3283 Clouds 22 1017 68 10000 1.03 0 17:27 06.06.2022
3284 Clouds 22 1019 70 10000 1.54 150 16:21 06.06.2022
3285 Clouds 22 1018 71 10000 2.24 113 15:33 06.06.2022
3286 Clouds 21 1016 73 10000 1.54 130 14:36 06.06.2022
3287 Clouds 19 1016 77 10000 2.57 210 13:26 06.06.2022
3288 Thunderstorm 19 1016 77 10000 1.54 80 12:36 06.06.2022
3289 Clouds 17 1017 88 8000 2.57 40 11:53 06.06.2022
3290 Clouds 22 1015 78 10000 1.54 0 10:41 06.06.2022
3291 Clouds 20 1016 83 10000 1.54 320 09:40 06.06.2022
3292 Clouds 19 1016 88 10000 0.51 0 08:32 06.06.2022
3293 Clouds 19 1018 92 10000 1.54 60 07:28 06.06.2022
3294 Clouds 17 1017 92 10000 2.57 240 05:28 06.06.2022
3295 Clouds 17 1017 81 10000 4.02 293 03:39 06.06.2022
3296 Clouds 18 1017 78 10000 0 0 01:23 06.06.2022
3297 Clouds 18 1018 75 10000 1.54 240 00:38 06.06.2022
3298 Clouds 19 1018 72 10000 1.03 0 23:40 05.06.2022
3299 Clear 20 1018 69 10000 1.54 10 22:45 05.06.2022
3300 Clear 23 1020 56 10000 0 0 20:47 05.06.2022
3301 Clear 27 1016 41 10000 2.06 360 19:41 05.06.2022
3302 Clouds 28 1015 39 10000 2.06 320 18:30 05.06.2022
3303 Clouds 28 1015 39 10000 1.54 330 17:54 05.06.2022
3304 Clouds 28 1015 36 10000 2.57 300 17:25 05.06.2022
3305 Clouds 30 1016 35 10000 3.09 330 16:51 05.06.2022
3306 Clouds 30 1016 32 10000 3.6 360 16:32 05.06.2022
3307 Clouds 29 1017 37 10000 2.57 10 14:25 05.06.2022
3308 Clouds 28 1017 47 10000 3.6 300 12:55 05.06.2022
3309 Clouds 28 1017 47 10000 3.6 300 12:55 05.06.2022
3310 Clouds 27 1018 47 10000 3.6 310 11:45 05.06.2022
3311 Clear 25 1018 65 10000 3.6 310 10:34 05.06.2022
3312 Clear 25 1019 65 10000 4.12 310 09:59 05.06.2022
3313 Clear 21 1019 73 10000 0.51 0 08:32 05.06.2022
3314 Clear 19 1019 77 10000 0 0 07:43 05.06.2022
3315 Clear 17 1020 88 10000 0.51 360 05:22 05.06.2022
3316 Clear 17 1021 87 10000 0 0 03:46 05.06.2022
3317 Clouds 18 1021 82 10000 1.54 240 01:32 05.06.2022
3318 Clouds 18 1021 78 10000 0.51 0 00:33 05.06.2022
3319 Clouds 21 1021 69 10000 1.54 0 22:22 04.06.2022
3320 Clouds 24 1018 60 10000 3.09 90 20:31 04.06.2022
3321 Clouds 29 1017 30 10000 1.03 0 18:19 04.06.2022
3322 Clouds 29 1018 34 10000 1.54 10 16:44 04.06.2022
3323 Clouds 28 1018 39 10000 2.57 330 16:18 04.06.2022
3324 Clouds 28 1019 42 10000 3.09 350 14:53 04.06.2022
3325 Clear 27 1020 47 10000 1.54 0 12:35 04.06.2022
3326 Clear 26 1020 53 10000 3.6 110 11:18 04.06.2022
3327 Clear 30 1025 46 10000 2.68 113 10:43 04.06.2022
3328 Clear 23 1021 64 10000 1.03 0 09:44 04.06.2022
3329 Clear 21 1022 73 10000 0 0 08:41 04.06.2022
3330 Clear 19 1022 82 10000 1.54 330 07:41 04.06.2022
3331 Clear 16 1023 91 9000 0 0 05:29 04.06.2022
3332 Clear 18 1023 85 10000 0 0 01:27 04.06.2022
3333 Clouds 18 1024 83 10000 2.06 100 23:59 03.06.2022
3334 Clear 21 1024 70 10000 1.54 190 22:40 03.06.2022
3335 Clear 22 1024 71 10000 2.06 230 21:30 03.06.2022
3336 Clear 23 1021 64 10000 2.06 90 20:37 03.06.2022
3337 Clouds 27 1020 50 10000 3.6 30 18:27 03.06.2022
3338 Clouds 26 1020 53 10000 4.63 40 16:47 03.06.2022
3339 Clouds 30 1025 38 10000 5.14 30 15:23 03.06.2022
3340 Clouds 26 1020 53 10000 3.6 340 13:22 03.06.2022
3341 Clouds 26 1021 57 10000 2.06 0 11:40 03.06.2022
3342 Clouds 24 1020 64 10000 2.06 310 09:45 03.06.2022
3343 Clear 22 1021 68 10000 1.54 0 08:58 03.06.2022
3344 Clear 17 1021 88 10000 1.03 0 07:26 03.06.2022
3345 Clear 17 1020 88 10000 1.54 50 06:35 03.06.2022
3346 Clear 18 1022 86 10000 1.54 270 05:52 03.06.2022
3347 Clouds 18 1021 78 10000 1.03 0 00:30 03.06.2022
3348 Clouds 20 1021 72 10000 0 0 22:45 02.06.2022
3349 Clouds 20 1021 68 10000 0 0 21:51 02.06.2022
3350 Clear 23 1023 58 10000 2.06 20 20:22 02.06.2022
3351 Clear 23 1023 58 10000 2.06 20 20:22 02.06.2022
3352 Clear 23 1023 58 10000 2.06 20 20:22 02.06.2022
3353 Clear 25 1018 50 10000 2.57 20 19:50 02.06.2022
3354 Clear 25 1017 47 10000 2.06 30 19:31 02.06.2022
3355 Clouds 27 1017 47 10000 2.06 340 17:32 02.06.2022
3356 Clouds 29 1017 37 10000 3.6 340 16:27 02.06.2022
3357 Clouds 29 1017 42 10000 3.09 120 14:20 02.06.2022
3358 Clouds 28 1017 39 10000 2.57 0 13:30 02.06.2022
3359 Clouds 28 1018 36 10000 2.06 0 12:21 02.06.2022
3360 Clear 23 1018 60 10000 0 0 10:20 02.06.2022
3361 Clear 21 1018 64 10000 1.54 0 09:28 02.06.2022
3362 Clear 19 1019 77 10000 1.03 0 08:27 02.06.2022
3363 Clear 17 1018 82 10000 1.03 0 07:25 02.06.2022
3364 Clouds 14 1020 90 10000 0 0 04:52 02.06.2022
3365 Clear 15 1020 88 10000 0 0 02:38 02.06.2022
3366 Rain 18 1020 74 10000 1.54 90 23:47 01.06.2022
3367 Clouds 20 1018 64 10000 2.57 170 22:32 01.06.2022
3368 Clear 21 1020 58 10000 3.09 170 21:35 01.06.2022
3369 Clouds 22 1017 60 10000 3.09 130 20:58 01.06.2022
3370 Clear 23 1017 56 10000 3.6 130 20:37 01.06.2022
3371 Clouds 25 1017 50 10000 3.09 50 19:25 01.06.2022
3372 Clouds 27 1016 44 10000 3.09 10 17:44 01.06.2022
3373 Clouds 28 1016 39 10000 2.57 330 16:38 01.06.2022
3374 Clouds 28 1016 32 10000 2.06 350 14:54 01.06.2022
3375 Clouds 27 1017 36 10000 1.54 160 13:51 01.06.2022
3376 Clear 25 1018 47 10000 1.03 0 12:26 01.06.2022
3377 Clear 25 1018 47 10000 1.03 0 12:26 01.06.2022
3378 Clear 19 1018 77 8000 1.03 0 09:41 01.06.2022
3379 Clouds 18 1018 77 8000 1.03 0 08:40 01.06.2022
3380 Clouds 14 1018 94 8000 0 0 07:24 01.06.2022
3381 Clouds 15 1022 94 8000 1.54 170 05:52 01.06.2022
3382 Clouds 14 1021 92 10000 0 0 00:40 01.06.2022
3383 Clouds 15 1021 89 10000 1.03 0 23:28 31.05.2022
3384 Clouds 16 1021 87 10000 2.06 220 22:36 31.05.2022
3385 Clouds 16 1021 90 10000 2.06 130 21:45 31.05.2022
3386 Clouds 17 1021 83 10000 5.14 100 20:45 31.05.2022
3387 Clouds 17 1020 85 10000 4.12 130 20:18 31.05.2022
3388 Clouds 18 1020 83 8000 4.63 200 18:52 31.05.2022
3389 Thunderstorm 18 1020 73 5000 7.2 140 17:50 31.05.2022
3390 Thunderstorm 22 1019 51 10000 8.75 90 16:57 31.05.2022
3391 Rain 27 1015 32 10000 2.06 0 15:41 31.05.2022
3392 Clouds 26 1016 38 10000 3.09 330 14:18 31.05.2022
3393 Clouds 25 1017 47 10000 1.54 0 12:20 31.05.2022
3394 Clouds 23 1018 60 10000 2.06 240 10:55 31.05.2022
3395 Clear 20 1018 68 10000 1.03 0 09:29 31.05.2022
3396 Clear 17 1018 77 10000 0 0 07:24 31.05.2022
3397 Clear 13 1019 93 10000 3.6 80 05:20 31.05.2022
3398 Clouds 16 1018 83 10000 1.03 0 00:52 31.05.2022
3399 Clear 17 1017 74 10000 2.06 110 23:27 30.05.2022
3400 Clear 17 1017 72 10000 1.54 150 22:56 30.05.2022
3401 Clear 18 1017 72 10000 2.06 170 21:52 30.05.2022
3402 Clear 19 1017 69 10000 2.06 0 21:32 30.05.2022
3403 Clouds 21 1016 61 10000 3.6 140 20:20 30.05.2022
3404 Clouds 26 1012 36 10000 1.03 0 18:40 30.05.2022
3405 Clear 26 1012 36 10000 1.54 0 17:35 30.05.2022
3406 Clouds 26 1012 36 10000 2.57 320 16:41 30.05.2022
3407 Clouds 24 1013 46 10000 4.12 300 14:35 30.05.2022
3408 Clouds 21 1013 60 10000 4.12 300 12:24 30.05.2022
3409 Clouds 18 1013 77 10000 2.57 320 10:41 30.05.2022
3410 Clouds 16 1013 82 10000 2.57 300 09:19 30.05.2022
3411 Clouds 11 1011 100 8000 3.09 300 06:40 30.05.2022
3412 Clouds 12 1013 95 10000 2.57 280 05:48 30.05.2022
3413 Clouds 13 1011 93 9000 1.03 0 01:42 30.05.2022
3414 Clouds 14 1010 92 10000 1.54 40 22:57 29.05.2022
3415 Clouds 14 1010 92 10000 1.03 0 22:36 29.05.2022
3416 Clouds 14 1010 89 10000 2.06 320 20:54 29.05.2022
3417 Thunderstorm 14 1011 91 8000 5.14 290 19:32 29.05.2022
3418 Thunderstorm 15 1006 82 8000 8.75 280 18:44 29.05.2022
3419 Clouds 23 1007 61 10000 7.15 0 17:31 29.05.2022
3420 Clouds 25 1007 53 10000 8.23 130 15:48 29.05.2022
3421 Clouds 25 1008 52 10000 9.77 120 14:57 29.05.2022
3422 Clouds 25 1007 50 10000 9.77 120 13:52 29.05.2022
3423 Clouds 24 1008 50 10000 9.77 120 11:41 29.05.2022
3424 Clear 22 1009 64 10000 6.69 110 10:38 29.05.2022
3425 Clear 19 1010 72 10000 5.66 110 08:51 29.05.2022
3426 Clouds 15 1012 95 10000 2.57 130 05:54 29.05.2022
3427 Clouds 15 1013 93 10000 2.57 110 04:43 29.05.2022
3428 Clouds 15 1013 93 10000 2.57 130 03:41 29.05.2022
3429 Rain 17 1016 92 7000 2.06 30 23:49 28.05.2022
3430 Rain 17 1016 92 10000 1.54 320 23:26 28.05.2022
3431 Rain 17 1015 89 10000 2.57 150 22:33 28.05.2022
3432 Thunderstorm 18 1016 87 10000 6.17 270 21:34 28.05.2022
3433 Clear 19 1012 77 10000 3.09 70 19:41 28.05.2022
3434 Clear 20 1011 77 10000 4.63 130 18:47 28.05.2022
3435 Rain 19 1012 88 10000 3.09 40 17:36 28.05.2022
3436 Rain 19 1012 88 10000 3.09 0 16:37 28.05.2022
3437 Thunderstorm 21 1014 70 10000 4.12 150 15:39 28.05.2022
3438 Rain 26 1015 48 10000 3.6 90 14:18 28.05.2022
3439 Clear 26 1012 47 10000 3.09 90 12:44 28.05.2022
3440 Clear 25 1013 47 10000 3.6 90 11:57 28.05.2022
3441 Clear 24 1013 50 10000 3.6 80 10:51 28.05.2022
3442 Clear 22 1014 60 10000 3.09 120 09:57 28.05.2022
3443 Rain 20 1014 64 10000 3.6 160 08:45 28.05.2022
3444 Clouds 17 1016 78 8000 3.09 50 07:23 28.05.2022
3445 Clouds 17 1016 71 10000 3.09 250 05:24 28.05.2022
3446 Clouds 17 1016 78 10000 1.54 0 02:38 28.05.2022
3447 Clouds 19 1018 68 10000 1.54 150 00:31 28.05.2022
3448 Clouds 20 1016 64 10000 1.54 100 22:50 27.05.2022
3449 Clouds 21 1016 60 10000 2.57 90 21:37 27.05.2022
3450 Clear 22 1016 56 10000 1.54 180 20:48 27.05.2022
3451 Clear 23 1016 53 10000 1.54 130 20:21 27.05.2022
3452 Clouds 25 1016 47 10000 2.06 90 19:41 27.05.2022
3453 Clouds 25 1016 47 10000 2.06 90 19:41 27.05.2022
3454 Clouds 26 1020 44 10000 3.6 90 19:21 27.05.2022
3455 Clouds 28 1016 36 10000 3.6 20 17:34 27.05.2022
3456 Clouds 28 1017 39 10000 4.12 20 16:36 27.05.2022
3457 Clouds 30 1017 30 10000 3.09 310 15:20 27.05.2022
3458 Clear 28 1019 34 10000 2.57 340 13:41 27.05.2022
3459 Clear 26 1020 38 10000 3.09 270 12:28 27.05.2022
3460 Clear 25 1021 38 10000 2.06 0 11:31 27.05.2022
3461 Clear 24 1021 43 10000 1.54 0 10:47 27.05.2022
3462 Clear 23 1021 49 10000 2.06 0 09:59 27.05.2022
3463 Clear 21 1022 60 10000 2.06 310 09:31 27.05.2022
3464 Clear 18 1022 72 10000 1.03 0 07:40 27.05.2022
3465 Clouds 15 1024 81 10000 2.06 300 05:25 27.05.2022
3466 Clouds 16 1022 82 10000 1.54 330 01:44 27.05.2022
3467 Clear 19 1023 72 10000 3.6 280 23:31 26.05.2022
3468 Clear 20 1022 68 10000 2.06 290 22:28 26.05.2022
3469 Clear 21 1022 64 10000 1.54 300 21:32 26.05.2022
3470 Clear 26 1020 44 10000 2.57 320 19:39 26.05.2022
3471 Clear 26 1020 41 10000 5.14 290 18:52 26.05.2022
3472 Clear 28 1020 42 10000 3.09 310 17:36 26.05.2022
3473 Clear 27 1020 47 10000 3.09 10 16:31 26.05.2022
3474 Clouds 26 1021 50 10000 4.12 360 15:33 26.05.2022
3475 Clouds 28 1021 30 10000 6.69 300 14:20 26.05.2022
3476 Clear 28 1021 39 10000 4.12 290 12:18 26.05.2022
3477 Clear 27 1021 39 10000 2.57 330 11:21 26.05.2022
3478 Clouds 20 1021 73 7000 1.03 0 09:39 26.05.2022
3479 Mist 24 1025 63 4600 0.51 0 08:48 26.05.2022
3480 Mist 18 1024 84 2500 1.54 0 06:47 26.05.2022
3481 Mist 15 1021 91 5000 0 0 02:54 26.05.2022
3482 Clouds 17 1020 86 7000 3.09 110 00:19 26.05.2022
3483 Clouds 18 1020 83 8000 4.12 120 22:58 25.05.2022
3484 Clouds 19 1021 79 9000 4.63 80 21:44 25.05.2022
3485 Clear 21 1017 68 10000 5.66 110 20:50 25.05.2022
3486 Clear 22 1017 68 10000 6.17 100 19:56 25.05.2022
3487 Clear 24 1016 60 10000 9.26 90 18:48 25.05.2022
3488 Clouds 31 1015 37 10000 4.63 100 17:26 25.05.2022
3489 Clouds 30 1015 35 10000 2.57 70 16:34 25.05.2022
3490 Clouds 31 1015 30 10000 2.06 330 15:36 25.05.2022
3491 Clouds 31 1015 30 10000 1.54 0 14:50 25.05.2022
3492 Clouds 31 1015 30 10000 1.54 0 14:32 25.05.2022
3493 Clear 28 1016 44 10000 1.03 0 13:23 25.05.2022
3494 Clouds 26 1015 44 10000 0.55 19 11:50 25.05.2022
3495 Clear 22 1017 60 10000 2.06 0 10:42 25.05.2022
3496 Clear 20 1017 68 10000 1.54 0 09:45 25.05.2022
3497 Clouds 17 1016 70 10000 0.84 119 07:42 25.05.2022
3498 Clouds 14 1018 89 10000 1.03 0 05:57 25.05.2022
3499 Clouds 14 1017 86 10000 2.57 80 02:44 25.05.2022
3500 Clouds 17 1016 76 10000 4.63 90 23:50 24.05.2022
3501 Clouds 17 1016 74 10000 5.66 90 22:59 24.05.2022
3502 Clouds 18 1016 68 10000 6.17 90 21:58 24.05.2022
3503 Clouds 19 1016 65 10000 6.69 90 21:37 24.05.2022
3504 Clouds 19 1016 65 10000 6.69 90 21:19 24.05.2022
3505 Rain 21 1015 60 10000 9.77 100 19:27 24.05.2022
3506 Rain 23 1012 56 10000 6.17 80 18:38 24.05.2022
3507 Clear 27 1010 44 10000 2.06 0 16:40 24.05.2022
3508 Clear 27 1010 44 10000 2.06 50 15:52 24.05.2022
3509 Clear 27 1011 44 10000 1.03 0 14:41 24.05.2022
3510 Clear 26 1011 47 10000 3.09 160 13:47 24.05.2022
3511 Clouds 24 1012 46 10000 2.06 0 12:31 24.05.2022
3512 Clear 19 1013 59 10000 3.6 70 09:52 24.05.2022
3513 Clouds 18 1013 63 10000 4.12 90 08:57 24.05.2022
3514 Clouds 17 1013 63 10000 5.14 100 08:38 24.05.2022
3515 Clouds 15 1012 72 10000 4.12 110 06:41 24.05.2022
3516 Clouds 15 1012 67 10000 3.09 120 03:41 24.05.2022
3517 Clouds 14 1012 72 10000 2.06 150 01:47 24.05.2022
3518 Clouds 14 1012 72 10000 3.09 130 00:34 24.05.2022
3519 Clouds 18 1012 59 10000 3.09 280 22:24 23.05.2022
3520 Clouds 17 1012 63 10000 1.54 290 21:53 23.05.2022
3521 Clouds 20 1011 52 10000 2.57 300 20:49 23.05.2022
3522 Clear 21 1010 46 10000 4.12 290 19:55 23.05.2022
3523 Clouds 21 1015 48 10000 5.66 290 19:27 23.05.2022
3524 Clouds 24 1010 35 10000 6.69 290 18:41 23.05.2022
3525 Clouds 24 1010 33 10000 6.17 290 17:56 23.05.2022
3526 Clouds 25 1009 31 10000 6.69 280 16:40 23.05.2022
3527 Clouds 25 1010 31 10000 6.17 280 14:20 23.05.2022
3528 Clouds 24 1011 31 10000 7.72 300 11:57 23.05.2022
3529 Clear 23 1013 37 10000 7.2 290 10:58 23.05.2022
3530 Clear 21 1011 43 10000 6.17 290 09:48 23.05.2022
3531 Clouds 18 1011 59 10000 4.12 300 08:47 23.05.2022
3532 Clouds 13 1012 76 10000 1.54 300 07:37 23.05.2022
3533 Clouds 12 1012 76 10000 1.54 0 06:41 23.05.2022
3534 Clear 13 1014 73 10000 1.79 0 03:52 23.05.2022
3535 Clear 12 1012 82 10000 3.6 300 02:18 23.05.2022
3536 Clear 13 1012 76 10000 3.09 310 01:32 23.05.2022
3537 Clear 15 1012 72 10000 1.54 10 23:18 22.05.2022
3538 Clear 16 1012 67 10000 2.06 310 22:27 22.05.2022
3539 Clear 17 1012 63 10000 2.57 320 21:52 22.05.2022
3540 Clear 19 1012 55 10000 3.09 290 20:50 22.05.2022
3541 Clouds 20 1012 52 10000 3.09 300 20:23 22.05.2022
3542 Clouds 22 1012 43 10000 6.69 290 19:39 22.05.2022
3543 Clouds 22 1011 46 10000 6.69 280 18:52 22.05.2022
3544 Clouds 22 1011 43 10000 6.17 280 18:21 22.05.2022
3545 Clouds 22 1011 43 10000 6.69 280 17:26 22.05.2022
3546 Clouds 21 1014 50 10000 8.23 270 15:57 22.05.2022
3547 Rain 23 1015 45 10000 8.23 280 14:47 22.05.2022
3548 Rain 23 1015 45 10000 8.23 280 14:47 22.05.2022
3549 Clouds 24 1013 41 10000 6.69 290 13:21 22.05.2022
3550 Clouds 24 1013 41 10000 6.17 280 12:45 22.05.2022
3551 Clouds 22 1014 40 10000 3.6 310 10:55 22.05.2022
3552 Clouds 22 1017 40 10000 3.6 280 09:40 22.05.2022
3553 Clouds 20 1014 40 10000 2.57 280 07:54 22.05.2022
3554 Clouds 20 1014 45 10000 3.09 280 07:20 22.05.2022
3555 Clouds 20 1014 56 10000 4.63 280 04:49 22.05.2022
3556 Clouds 20 1014 60 10000 2.06 290 01:20 22.05.2022
3557 Clouds 21 1015 52 10000 3.6 240 00:26 22.05.2022
3558 Clouds 20 1015 56 10000 2.06 250 23:47 21.05.2022
3559 Clouds 21 1015 49 10000 2.06 330 22:24 21.05.2022
3560 Clouds 21 1015 52 10000 3.6 280 21:39 21.05.2022
3561 Clear 23 1014 43 10000 3.6 290 20:48 21.05.2022
3562 Clear 23 1014 40 10000 2.57 300 20:19 21.05.2022
3563 Clear 26 1014 31 10000 1.54 320 19:24 21.05.2022
3564 Clear 29 1014 24 10000 1.54 0 17:35 21.05.2022
3565 Clear 29 1016 24 10000 3.09 280 15:37 21.05.2022
3566 Clear 27 1016 26 10000 3.09 290 14:36 21.05.2022
3567 Clear 27 1017 24 10000 2.57 0 13:36 21.05.2022
3568 Clear 25 1018 31 10000 4.63 280 12:40 21.05.2022
3569 Clear 23 1019 35 10000 1.54 0 11:52 21.05.2022
3570 Clear 19 1019 42 10000 1.03 0 10:22 21.05.2022
3571 Clear 17 1020 51 10000 1.03 0 09:20 21.05.2022
3572 Clear 15 1020 55 10000 1.03 0 08:47 21.05.2022
3573 Clear 11 1021 68 10000 0.73 245 06:22 21.05.2022
3574 Clear 8 1023 77 10000 2.06 200 02:23 21.05.2022
3575 Clear 13 1024 60 10000 2.06 90 23:42 20.05.2022
3576 Clear 15 1024 54 10000 2.06 160 22:41 20.05.2022
3577 Clear 15 1024 52 10000 2.06 170 22:18 20.05.2022
3578 Clouds 18 1024 43 10000 3.6 220 21:19 20.05.2022
3579 Clear 17 1026 48 10000 4.12 200 20:51 20.05.2022
3580 Clear 21 1022 35 10000 1.03 0 19:55 20.05.2022
3581 Clear 24 1023 25 10000 1.54 160 18:58 20.05.2022
3582 Clear 25 1023 20 10000 1.03 0 18:24 20.05.2022
3583 Clear 25 1024 15 10000 2.06 180 16:28 20.05.2022
3584 Clear 25 1024 16 10000 1.54 0 15:54 20.05.2022
3585 Clear 25 1024 16 10000 1.54 0 15:32 20.05.2022
3586 Clear 23 1025 20 10000 2.57 150 14:27 20.05.2022
3587 Clear 22 1027 23 10000 1.54 0 12:45 20.05.2022
3588 Clear 17 1028 45 10000 1.54 0 10:48 20.05.2022
3589 Clear 16 1028 48 10000 0.51 0 09:32 20.05.2022
3590 Clear 12 1029 62 10000 1.03 0 08:37 20.05.2022
3591 Clear 7 1029 76 10000 1.03 0 06:44 20.05.2022
3592 Clear 10 1032 85 10000 2.06 100 05:52 20.05.2022
3593 Clear 6 1030 80 10000 1.54 90 02:52 20.05.2022
3594 Clear 9 1030 70 10000 0.51 0 23:47 19.05.2022
3595 Clear 11 1030 55 10000 2.57 180 22:37 19.05.2022
3596 Clear 11 1031 54 10000 3.09 200 21:51 19.05.2022
3597 Clear 12 1031 50 10000 3.09 180 21:24 19.05.2022
3598 Clear 14 1031 44 10000 2.06 180 20:52 19.05.2022
3599 Clear 17 1026 34 10000 3.09 50 19:57 19.05.2022
3600 Clear 19 1026 24 10000 3.6 20 19:19 19.05.2022
3601 Clear 21 1026 17 10000 4.12 10 17:46 19.05.2022
3602 Clouds 21 1026 28 10000 2.06 0 15:58 19.05.2022
3603 Clouds 20 1027 32 10000 3.09 190 14:49 19.05.2022
3604 Clouds 18 1027 36 10000 3.09 0 14:20 19.05.2022
3605 Clear 17 1029 42 10000 2.06 0 11:55 19.05.2022
3606 Clear 12 1030 66 10000 1.54 0 10:31 19.05.2022
3607 Clouds 9 1030 81 10000 1.03 0 08:44 19.05.2022
3608 Clouds 7 1031 91 10000 0 0 07:18 19.05.2022
3609 Clouds 5 1030 96 10000 0 0 03:52 19.05.2022
3610 Clouds 6 1029 91 10000 2.57 80 00:58 19.05.2022
3611 Clouds 7 1029 90 10000 1.54 200 23:40 18.05.2022
3612 Clouds 8 1029 84 10000 1.03 0 22:43 18.05.2022
3613 Clouds 9 1028 83 10000 2.06 360 21:43 18.05.2022
3614 Clouds 9 1028 85 10000 1.03 0 21:23 18.05.2022
3615 Clouds 10 1026 84 10000 1.54 240 20:19 18.05.2022
3616 Rain 11 1023 82 8000 5.14 50 18:53 18.05.2022
3617 Clouds 16 1021 63 10000 6.17 80 17:42 18.05.2022
3618 Clouds 15 1024 70 10000 5.14 60 17:24 18.05.2022
3619 Clouds 17 1024 61 10000 4.63 10 16:53 18.05.2022
3620 Clouds 18 1022 60 10000 2.06 0 15:52 18.05.2022
3621 Clouds 17 1020 63 10000 2.06 0 15:33 18.05.2022
3622 Clouds 16 1018 72 10000 3.6 350 14:21 18.05.2022
3623 Rain 16 1020 77 10000 3.6 320 12:54 18.05.2022
3624 Clouds 18 1017 77 8000 4.63 280 11:48 18.05.2022
3625 Clouds 18 1017 72 10000 6.69 280 11:30 18.05.2022
3626 Clouds 18 1019 77 10000 6.17 280 10:43 18.05.2022
3627 Rain 15 1018 81 10000 4.63 290 07:59 18.05.2022
3628 Rain 15 1017 84 10000 3.09 300 06:54 18.05.2022
3629 Clouds 14 1017 85 10000 3.09 300 03:34 18.05.2022
3630 Clouds 16 1020 84 10000 2.57 290 00:42 18.05.2022
3631 Rain 17 1021 76 10000 10.8 300 23:21 17.05.2022
3632 Clouds 22 1013 43 10000 1.54 320 21:21 17.05.2022
3633 Clouds 23 1013 38 10000 2.06 170 20:38 17.05.2022
3634 Clear 26 1013 31 10000 2.06 320 19:30 17.05.2022
3635 Clear 27 1013 28 10000 2.57 300 18:43 17.05.2022
3636 Clear 28 1013 24 10000 3.6 280 17:31 17.05.2022
3637 Clear 28 1014 24 10000 2.57 310 16:53 17.05.2022
3638 Clear 28 1015 24 10000 2.57 0 15:45 17.05.2022
3639 Clear 28 1016 26 10000 3.09 300 14:48 17.05.2022
3640 Clear 27 1016 28 10000 2.57 0 14:23 17.05.2022
3641 Clear 25 1017 29 10000 2.57 0 12:36 17.05.2022
3642 Clear 21 1019 46 10000 1.54 0 10:23 17.05.2022
3643 Clear 16 1019 63 10000 1.03 0 08:45 17.05.2022
3644 Clear 14 1020 67 10000 0 0 07:41 17.05.2022
3645 Clear 15 1023 77 10000 0.51 0 05:58 17.05.2022
3646 Clear 13 1022 70 10000 0 0 00:47 17.05.2022
3647 Clear 15 1021 66 10000 3.09 80 22:51 16.05.2022
3648 Clear 16 1021 63 10000 2.06 190 22:30 16.05.2022
3649 Clear 18 1023 54 10000 2.57 200 20:56 16.05.2022
3650 Clear 20 1023 47 10000 1.03 0 20:25 16.05.2022
3651 Clouds 24 1018 38 10000 4.63 50 18:39 16.05.2022
3652 Clouds 26 1018 29 10000 2.57 330 16:41 16.05.2022
3653 Clouds 25 1019 27 10000 4.12 280 14:48 16.05.2022
3654 Clear 25 1020 27 10000 3.09 280 13:27 16.05.2022
3655 Clear 23 1021 38 10000 2.06 0 11:42 16.05.2022
3656 Clear 20 1021 56 10000 1.03 0 10:30 16.05.2022
3657 Clear 13 1021 82 10000 0 0 07:45 16.05.2022
3658 Mist 11 1024 88 9000 2.57 100 05:40 16.05.2022
3659 Clear 12 1022 84 10000 0 0 00:35 16.05.2022
3660 Clear 14 1022 77 10000 1.03 0 22:39 15.05.2022
3661 Clouds 15 1022 74 10000 2.06 150 21:54 15.05.2022
3662 Clouds 16 1022 72 10000 2.06 150 21:34 15.05.2022
3663 Clear 19 1023 62 10000 2.06 10 20:35 15.05.2022
3664 Clouds 23 1018 46 10000 3.09 30 18:30 15.05.2022
3665 Clouds 24 1018 41 10000 3.09 330 16:37 15.05.2022
3666 Clouds 24 1019 41 10000 4.12 310 14:18 15.05.2022
3667 Clouds 24 1019 38 10000 4.63 290 13:35 15.05.2022
3668 Clouds 21 1019 43 10000 4.63 300 11:55 15.05.2022
3669 Clear 20 1019 49 10000 6.17 300 10:40 15.05.2022
3670 Clear 18 1019 63 10000 2.57 310 08:52 15.05.2022
3671 Clouds 11 1019 100 8000 0 0 06:59 15.05.2022
3672 Clouds 11 1019 100 8000 0 0 06:39 15.05.2022
3673 Mist 13 1020 87 4400 1.34 293 02:24 15.05.2022
3674 Clouds 15 1020 79 8000 1.03 0 23:56 14.05.2022
3675 Clouds 15 1020 79 8000 1.34 293 23:34 14.05.2022
3676 Clouds 16 1020 84 10000 2.57 350 21:45 14.05.2022
3677 Clouds 15 1020 81 10000 3.09 260 21:24 14.05.2022
3678 Clouds 17 1021 76 10000 2.57 330 19:54 14.05.2022
3679 Clouds 19 1019 71 10000 3.6 320 19:20 14.05.2022
3680 Clouds 20 1017 73 10000 2.06 330 18:47 14.05.2022
3681 Rain 18 1020 75 10000 3.09 300 17:36 14.05.2022
3682 Rain 23 1016 46 10000 6.69 270 15:47 14.05.2022
3683 Clouds 24 1020 48 10000 5.14 130 14:36 14.05.2022
3684 Rain 19 1017 77 10000 4.63 110 12:51 14.05.2022
3685 Thunderstorm 24 1017 46 10000 2.57 120 11:37 14.05.2022
3686 Clouds 20 1017 60 10000 3.09 80 10:23 14.05.2022
3687 Clouds 20 1017 60 10000 3.09 100 09:56 14.05.2022
3688 Clouds 16 1017 67 10000 1.54 140 08:59 14.05.2022
3689 Clear 18 1020 62 10000 1.54 120 07:20 14.05.2022
3690 Clouds 12 1018 78 10000 1.03 0 03:41 14.05.2022
3691 Rain 16 1016 63 10000 2.06 130 23:48 13.05.2022
3692 Clouds 18 1016 55 10000 3.09 120 23:22 13.05.2022
3693 Clouds 19 1016 52 10000 2.57 130 22:52 13.05.2022
3694 Clouds 19 1016 52 10000 3.09 130 22:20 13.05.2022
3695 Clouds 21 1016 46 10000 3.6 100 20:56 13.05.2022
3696 Clouds 20 1015 49 10000 4.12 100 20:28 13.05.2022
3697 Clouds 22 1015 69 10000 3.09 80 19:40 13.05.2022
3698 Clear 26 1015 34 10000 3.6 30 18:41 13.05.2022
3699 Clear 28 1015 24 10000 1.54 0 17:29 13.05.2022
3700 Clear 28 1015 23 10000 2.06 120 16:23 13.05.2022
3701 Clear 27 1016 19 10000 2.57 0 15:43 13.05.2022
3702 Clear 26 1017 34 10000 2.57 0 13:57 13.05.2022
3703 Clear 25 1018 33 10000 2.06 0 12:33 13.05.2022
3704 Clear 23 1019 40 10000 1.54 0 11:23 13.05.2022
3705 Clear 19 1020 52 10000 0.51 0 09:43 13.05.2022
3706 Clear 16 1021 59 10000 0.51 0 08:50 13.05.2022
3707 Clear 14 1021 67 10000 0 0 07:48 13.05.2022
3708 Clear 11 1021 76 10000 1.03 0 06:34 13.05.2022
3709 Clouds 10 1023 79 10000 1.03 320 04:22 13.05.2022
3710 Clouds 13 1022 66 10000 2.57 160 00:39 13.05.2022
3711 Clear 16 1022 59 10000 2.06 100 22:46 12.05.2022
3712 Clear 17 1022 57 10000 3.09 120 21:58 12.05.2022
3713 Clouds 20 1020 42 10000 0 0 20:37 12.05.2022
3714 Clear 24 1019 33 10000 2.06 320 19:18 12.05.2022
3715 Clear 26 1019 29 10000 2.06 320 17:27 12.05.2022
3716 Clear 26 1019 27 10000 2.06 0 16:23 12.05.2022
3717 Clear 25 1020 27 10000 3.09 10 14:42 12.05.2022
3718 Clear 24 1021 31 10000 3.09 0 13:47 12.05.2022
3719 Clear 20 1022 49 10000 1.54 0 10:52 12.05.2022
3720 Clear 17 1023 59 10000 1.03 0 09:31 12.05.2022
3721 Clear 15 1023 67 10000 1.03 0 08:51 12.05.2022
3722 Clear 12 1023 76 10000 1.54 100 07:40 12.05.2022
3723 Clear 10 1023 81 10000 1.03 0 06:34 12.05.2022
3724 Clouds 9 1024 85 10000 1.54 360 02:58 12.05.2022
3725 Clouds 11 1024 78 10000 1.54 170 00:36 12.05.2022
3726 Clouds 13 1023 68 10000 2.06 120 22:36 11.05.2022
3727 Clouds 16 1023 60 10000 2.57 200 21:50 11.05.2022
3728 Clouds 15 1023 60 10000 1.54 160 21:24 11.05.2022
3729 Clouds 20 1019 42 10000 0 0 18:58 11.05.2022
3730 Clouds 20 1020 49 10000 2.06 290 16:55 11.05.2022
3731 Clouds 23 1023 40 10000 5.14 300 15:38 11.05.2022
3732 Clouds 22 1024 44 10000 2.68 0 14:39 11.05.2022
3733 Clouds 23 1024 39 10000 5.66 280 14:18 11.05.2022
3734 Clear 21 1021 37 10000 3.09 280 11:54 11.05.2022
3735 Clear 20 1021 42 10000 1.54 0 11:19 11.05.2022
3736 Clear 15 1021 63 10000 1.54 290 08:40 11.05.2022
3737 Clouds 8 1024 90 10000 0.51 0 05:31 11.05.2022
3738 Clouds 11 1022 79 10000 1.03 0 00:45 11.05.2022
3739 Clouds 13 1022 78 10000 0.51 0 22:32 10.05.2022
3740 Clouds 14 1022 71 10000 1.54 90 21:57 10.05.2022
3741 Clouds 15 1021 66 10000 25.48 315 20:57 10.05.2022
3742 Rain 15 1023 69 10000 1.34 0 19:47 10.05.2022
3743 Clouds 19 1022 45 10000 7.72 100 17:59 10.05.2022
3744 Clouds 19 1021 46 10000 9.77 100 17:29 10.05.2022
3745 Clouds 23 1019 31 10000 5.14 60 15:31 10.05.2022
3746 Clouds 21 1021 32 10000 3.09 0 12:45 10.05.2022
3747 Clear 21 1021 32 10000 1.03 0 11:51 10.05.2022
3748 Clear 20 1021 32 10000 1.54 0 11:20 10.05.2022
3749 Clear 17 1022 48 10000 1.03 0 10:26 10.05.2022
3750 Clear 15 1022 51 10000 0.51 0 09:25 10.05.2022
3751 Clear 9 1022 71 10000 0.51 0 07:22 10.05.2022
3752 Clouds 7 1024 77 10000 0.51 0 03:57 10.05.2022
3753 Clouds 10 1024 68 10000 2.06 110 00:57 10.05.2022
3754 Clouds 12 1024 59 10000 1.54 140 22:56 09.05.2022
3755 Clouds 13 1024 56 10000 2.57 120 21:50 09.05.2022
3756 Clear 16 1021 44 10000 3.09 100 20:52 09.05.2022
3757 Clear 20 1020 32 10000 4.12 40 18:43 09.05.2022
3758 Clear 22 1020 28 10000 4.63 30 17:44 09.05.2022
3759 Clouds 23 1020 23 10000 5.14 30 16:33 09.05.2022
3760 Clear 23 1020 23 10000 4.63 10 15:52 09.05.2022
3761 Clear 23 1020 21 10000 4.12 360 15:21 09.05.2022
3762 Clear 22 1021 20 10000 2.06 60 14:29 09.05.2022
3763 Clear 22 1021 20 10000 2.57 10 13:40 09.05.2022
3764 Clear 20 1022 28 10000 1.54 0 12:18 09.05.2022
3765 Clear 18 1022 42 10000 1.54 140 10:55 09.05.2022
3766 Clear 18 1022 42 10000 1.54 140 10:36 09.05.2022
3767 Clear 11 1022 62 10000 1.54 250 08:31 09.05.2022
3768 Clear 9 1022 71 10000 1.03 0 07:49 09.05.2022
3769 Clouds 7 1024 74 10000 1.54 180 03:19 09.05.2022
3770 Clouds 9 1022 71 10000 3.6 130 23:34 08.05.2022
3771 Clouds 10 1021 66 10000 3.6 120 22:52 08.05.2022
3772 Clouds 11 1021 62 10000 3.6 100 21:48 08.05.2022
3773 Clouds 11 1021 62 10000 3.6 100 21:48 08.05.2022
3774 Clear 12 1020 54 10000 4.63 100 20:34 08.05.2022
3775 Clear 16 1020 36 10000 4.63 120 19:43 08.05.2022
3776 Clear 19 1019 27 10000 5.66 120 18:52 08.05.2022
3777 Clear 20 1019 30 10000 6.17 120 17:52 08.05.2022
3778 Clear 21 1019 26 10000 6.17 130 16:33 08.05.2022
3779 Clear 22 1019 21 10000 6.17 110 15:25 08.05.2022
3780 Clear 22 1019 15 10000 6.17 90 14:39 08.05.2022
3781 Clear 19 1021 30 10000 4.12 90 12:21 08.05.2022
3782 Clear 15 1021 38 10000 1.54 0 10:27 08.05.2022
3783 Clear 13 1022 44 10000 1.54 100 09:56 08.05.2022
3784 Clear 11 1022 50 10000 2.57 130 08:52 08.05.2022
3785 Clear 6 1022 70 10000 2.57 140 06:51 08.05.2022
3786 Clouds 7 1024 68 10000 3.6 110 03:25 08.05.2022
3787 Clouds 8 1024 64 10000 5.14 90 02:23 08.05.2022
3788 Clouds 9 1022 66 10000 6.17 90 00:20 08.05.2022
3789 Clouds 9 1022 66 10000 5.14 90 23:46 07.05.2022
3790 Clouds 10 1021 66 10000 5.66 110 22:46 07.05.2022
3791 Clouds 11 1021 62 10000 4.63 110 21:57 07.05.2022
3792 Clouds 11 1021 62 10000 5.14 90 21:32 07.05.2022
3793 Clear 14 1020 51 10000 5.66 110 20:27 07.05.2022
3794 Clear 17 1019 39 10000 6.17 130 18:59 07.05.2022
3795 Clear 20 1019 34 10000 6.69 120 17:31 07.05.2022
3796 Clear 21 1021 30 10000 6.17 140 15:18 07.05.2022
3797 Clear 18 1021 42 10000 5.14 80 12:23 07.05.2022
3798 Clear 15 1022 51 10000 4.63 100 10:18 07.05.2022
3799 Clear 13 1022 62 10000 5.14 100 08:37 07.05.2022
3800 Clear 11 1022 66 10000 4.63 110 07:37 07.05.2022
3801 Clear 8 1022 71 10000 3.09 140 06:42 07.05.2022
3802 Clouds 7 1022 76 10000 2.57 100 04:21 07.05.2022
3803 Clouds 10 1022 76 10000 3.6 120 00:49 07.05.2022
3804 Clouds 10 1022 76 10000 4.63 100 22:41 06.05.2022
3805 Clouds 11 1022 71 10000 4.63 100 22:21 06.05.2022
3806 Clouds 12 1021 66 10000 5.14 90 21:32 06.05.2022
3807 Clear 14 1020 54 10000 4.12 130 19:49 06.05.2022
3808 Clouds 17 1022 46 10000 4.63 140 19:27 06.05.2022
3809 Clouds 17 1023 40 10000 4.12 120 18:43 06.05.2022
3810 Clouds 19 1020 39 10000 5.66 100 17:37 06.05.2022
3811 Clouds 21 1024 31 10000 4.63 120 15:54 06.05.2022
3812 Clouds 20 1023 35 10000 5.14 110 15:30 06.05.2022
3813 Clouds 21 1024 40 10000 5.14 120 13:50 06.05.2022
3814 Clouds 20 1025 46 10000 5.14 100 12:51 06.05.2022
3815 Clear 20 1025 50 10000 5.66 100 11:58 06.05.2022
3816 Clear 17 1023 59 10000 5.14 90 11:24 06.05.2022
3817 Clear 14 1024 67 10000 4.63 100 09:47 06.05.2022
3818 Clear 14 1024 67 10000 3.6 110 09:18 06.05.2022
3819 Clear 12 1026 79 10000 3.13 338 07:49 06.05.2022
3820 Clear 8 1025 86 10000 3.09 120 06:26 06.05.2022
3821 Clear 9 1025 83 10000 3.09 110 02:58 06.05.2022
3822 Clear 9 1025 83 10000 3.09 110 02:38 06.05.2022
3823 Clear 12 1025 70 10000 2.06 160 22:58 05.05.2022
3824 Clear 12 1024 72 10000 0 0 21:49 05.05.2022
3825 Clear 13 1025 67 10000 1.54 120 20:36 05.05.2022
3826 Clear 17 1021 55 10000 1.03 0 18:56 05.05.2022
3827 Clouds 20 1021 45 10000 5.14 20 16:42 05.05.2022
3828 Clouds 20 1021 42 10000 2.57 50 15:30 05.05.2022
3829 Clouds 19 1022 45 10000 1.54 0 13:30 05.05.2022
3830 Clouds 17 1022 59 10000 1.03 0 12:56 05.05.2022
3831 Clouds 13 1022 82 10000 1.54 0 11:22 05.05.2022
3832 Clouds 14 1024 79 6000 1.54 0 09:40 05.05.2022
3833 Mist 10 1024 87 3000 1.03 0 08:34 05.05.2022
3834 Fog 7 1025 92 450 1.03 0 06:23 05.05.2022
3835 Clouds 6 1022 95 10000 0 0 02:23 05.05.2022
3836 Clouds 7 1022 91 10000 1.54 340 01:37 05.05.2022
3837 Clouds 8 1022 90 9000 1.54 350 23:57 04.05.2022
3838 Clouds 9 1022 88 10000 2.06 50 22:54 04.05.2022
3839 Clouds 10 1022 83 10000 3.6 150 21:59 04.05.2022
3840 Clouds 10 1022 83 10000 4.12 190 21:30 04.05.2022
3841 Clouds 10 1022 82 8000 4.63 50 20:42 04.05.2022
3842 Rain 11 1023 76 8000 5.14 360 19:59 04.05.2022
3843 Rain 12 1023 70 8000 5.14 360 19:35 04.05.2022
3844 Clouds 15 1020 62 6000 4.63 10 18:22 04.05.2022
3845 Thunderstorm 17 1021 48 10000 4.63 90 17:59 04.05.2022
3846 Clouds 19 1017 39 10000 2.06 70 15:57 04.05.2022
3847 Clouds 19 1017 45 10000 4.12 50 15:30 04.05.2022
3848 Clouds 19 1017 39 10000 2.57 0 14:22 04.05.2022
3849 Clouds 19 1017 42 10000 4.12 280 13:50 04.05.2022
3850 Clouds 17 1018 45 10000 3.6 270 12:34 04.05.2022
3851 Clear 13 1018 62 10000 2.06 0 10:57 04.05.2022
3852 Clear 10 1019 71 10000 1.54 0 09:46 04.05.2022
3853 Clouds 7 1019 81 10000 1.03 0 08:49 04.05.2022
3854 Clouds 9 1022 73 10000 0.51 0 07:33 04.05.2022
3855 Clouds 3 1020 95 10000 1.03 0 02:59 04.05.2022
3856 Clouds 4 1020 90 10000 1.54 320 01:41 04.05.2022
3857 Clouds 6 1019 86 10000 2.06 140 22:54 03.05.2022
3858 Clouds 7 1018 82 10000 0 0 21:47 03.05.2022
3859 Clouds 7 1018 81 10000 1.03 0 21:20 03.05.2022
3860 Clouds 9 1018 74 10000 0 0 20:31 03.05.2022
3861 Clouds 11 1015 66 10000 2.57 210 18:55 03.05.2022
3862 Clouds 11 1015 66 10000 2.57 210 18:37 03.05.2022
3863 Clouds 11 1017 61 10000 3.09 200 17:19 03.05.2022
3864 Clouds 12 1017 63 10000 4.92 135 15:43 03.05.2022
3865 Clouds 12 1015 58 10000 4.63 110 13:32 03.05.2022
3866 Clouds 12 1017 64 10000 4.63 120 12:30 03.05.2022
3867 Clouds 10 1018 73 10000 7.2 100 10:58 03.05.2022
3868 Clouds 11 1018 69 10000 7.72 110 09:58 03.05.2022
3869 Clouds 9 1016 77 10000 4.12 130 07:59 03.05.2022
3870 Clouds 8 1016 88 10000 7.15 90 06:45 03.05.2022
3871 Rain 8 1017 85 8000 2.68 113 01:53 03.05.2022
3872 Rain 10 1016 79 10000 2.57 180 22:45 02.05.2022
3873 Clouds 10 1016 77 10000 2.57 150 22:25 02.05.2022
3874 Clouds 11 1016 65 10000 2.24 113 21:24 02.05.2022
3875 Clouds 13 1015 56 10000 5.81 113 18:57 02.05.2022
3876 Clouds 13 1015 53 10000 5.66 120 18:25 02.05.2022
3877 Clouds 14 1015 52 10000 7.2 120 17:37 02.05.2022
3878 Clouds 15 1015 49 10000 7.2 110 16:25 02.05.2022
3879 Clouds 15 1016 45 10000 7.72 120 15:40 02.05.2022
3880 Clouds 16 1016 44 10000 8.23 110 14:19 02.05.2022
3881 Clouds 16 1017 41 10000 6.69 120 12:45 02.05.2022
3882 Clouds 16 1017 47 10000 7.2 130 11:20 02.05.2022
3883 Clouds 14 1018 57 10000 7.72 100 09:32 02.05.2022
3884 Clear 10 1016 71 10000 6.17 100 07:57 02.05.2022
3885 Clouds 9 1018 78 10000 5.14 90 05:37 02.05.2022
3886 Clouds 12 1018 66 10000 5.66 110 00:26 02.05.2022
3887 Clouds 12 1018 66 10000 7.2 130 23:52 01.05.2022
3888 Clouds 12 1018 62 10000 4.63 110 22:49 01.05.2022
3889 Clouds 12 1018 58 10000 4.12 90 21:41 01.05.2022
3890 Clouds 13 1017 50 10000 3.09 120 20:23 01.05.2022
3891 Clouds 15 1020 44 10000 4.12 140 19:18 01.05.2022
3892 Clouds 16 1020 42 10000 4.63 90 18:50 01.05.2022
3893 Clouds 17 1019 40 10000 5.66 110 17:47 01.05.2022
3894 Clouds 17 1020 39 10000 5.14 110 16:24 01.05.2022
3895 Clouds 18 1017 39 10000 6.69 100 15:43 01.05.2022
3896 Clouds 19 1020 39 10000 5.14 70 14:22 01.05.2022
3897 Clouds 17 1020 42 10000 5.66 110 11:53 01.05.2022
3898 Clouds 15 1023 59 10000 6.71 113 09:33 01.05.2022
3899 Clear 12 1021 76 10000 5.66 100 08:49 01.05.2022
3900 Clouds 7 1022 90 10000 3.09 110 05:31 01.05.2022
3901 Clouds 9 1022 79 10000 3.09 110 00:43 01.05.2022
3902 Clouds 11 1022 70 10000 3.09 100 21:52 30.04.2022
3903 Clouds 11 1022 70 10000 3.6 100 21:30 30.04.2022
3904 Clouds 11 1022 70 10000 3.6 100 21:30 30.04.2022
3905 Clouds 13 1019 62 10000 3.09 100 19:47 30.04.2022
3906 Clouds 15 1019 58 10000 3.6 100 18:50 30.04.2022
3907 Clouds 16 1019 55 10000 6.17 120 17:20 30.04.2022
3908 Clouds 16 1021 57 10000 5.14 140 15:50 30.04.2022
3909 Clouds 17 1019 48 10000 4.63 60 14:54 30.04.2022
3910 Clouds 18 1019 45 10000 4.63 60 13:41 30.04.2022
3911 Clouds 15 1020 55 10000 5.14 20 11:34 30.04.2022
3912 Clouds 15 1020 58 10000 3.6 20 10:55 30.04.2022
3913 Clouds 14 1021 62 10000 1.54 260 09:50 30.04.2022
3914 Clouds 11 1021 76 10000 0 0 07:31 30.04.2022
3915 Clouds 10 1023 83 10000 1.54 90 03:34 30.04.2022
3916 Rain 11 1023 73 10000 1.03 0 23:54 29.04.2022
3917 Clouds 12 1023 70 10000 2.06 140 22:35 29.04.2022
3918 Clouds 13 1023 68 10000 1.54 160 21:54 29.04.2022
3919 Clouds 13 1023 69 10000 1.54 220 21:19 29.04.2022
3920 Clouds 14 1024 63 10000 2.57 50 19:48 29.04.2022
3921 Clouds 15 1023 62 10000 3.6 40 18:47 29.04.2022
3922 Clouds 16 1022 55 10000 3.6 60 17:26 29.04.2022
3923 Clouds 17 1020 48 10000 2.06 80 15:52 29.04.2022
3924 Clouds 16 1020 48 10000 2.06 210 14:34 29.04.2022
3925 Clouds 16 1021 51 10000 4.63 240 13:27 29.04.2022
3926 Clouds 17 1025 50 10000 3.6 280 11:51 29.04.2022
3927 Clouds 12 1022 71 10000 4.12 280 09:23 29.04.2022
3928 Clouds 9 1022 81 10000 4.12 290 07:28 29.04.2022
3929 Clouds 10 1024 78 10000 3.6 290 06:46 29.04.2022
3930 Clouds 9 1022 76 10000 4.12 280 05:44 29.04.2022
3931 Clouds 11 1024 67 10000 4.63 280 00:46 29.04.2022
3932 Clouds 12 1024 61 10000 4.63 290 23:34 28.04.2022
3933 Clouds 12 1024 66 10000 2.57 290 22:45 28.04.2022
3934 Clouds 12 1024 69 10000 3.13 338 21:47 28.04.2022
3935 Clouds 12 1024 70 10000 3.13 293 21:22 28.04.2022
3936 Clouds 12 1023 70 10000 3.13 293 20:35 28.04.2022
3937 Clouds 13 1024 67 10000 3.6 310 19:46 28.04.2022
3938 Clouds 13 1024 62 10000 3.09 340 19:23 28.04.2022
3939 Clouds 14 1023 64 10000 3.09 350 18:36 28.04.2022
3940 Clouds 15 1023 68 10000 3.09 340 17:26 28.04.2022
3941 Clouds 15 1023 68 10000 3.6 340 16:41 28.04.2022
3942 Clouds 15 1023 68 10000 4.12 280 16:19 28.04.2022
3943 Clouds 14 1019 72 10000 3.6 290 15:29 28.04.2022
3944 Clouds 14 1019 72 10000 4.63 260 14:36 28.04.2022
3945 Clouds 12 1020 76 10000 3.09 280 12:55 28.04.2022
3946 Clouds 13 1022 74 10000 4.12 280 11:59 28.04.2022
3947 Clouds 12 1021 80 10000 5.66 270 10:46 28.04.2022
3948 Clouds 11 1021 81 10000 5.66 270 09:56 28.04.2022
3949 Clouds 11 1020 82 10000 6.17 270 08:31 28.04.2022
3950 Clouds 11 1020 83 10000 5.14 280 07:36 28.04.2022
3951 Clouds 12 1019 78 10000 1.79 0 05:56 28.04.2022
3952 Clouds 12 1019 77 10000 1.54 30 05:38 28.04.2022
3953 Clouds 12 1019 78 10000 2.24 0 04:40 28.04.2022
3954 Clouds 15 1018 70 10000 6.69 110 00:30 28.04.2022
3955 Clouds 14 1016 77 10000 5.14 90 22:40 27.04.2022
3956 Clouds 14 1016 77 10000 4.63 110 21:55 27.04.2022
3957 Clouds 14 1015 77 10000 4.63 110 21:18 27.04.2022
3958 Clear 14 1015 77 10000 5.66 100 20:37 27.04.2022
3959 Clouds 17 1015 72 10000 5.14 100 19:38 27.04.2022
3960 Clouds 18 1014 63 10000 4.63 80 19:18 27.04.2022
3961 Clouds 20 1014 52 10000 3.6 80 18:22 27.04.2022
3962 Clouds 20 1014 52 10000 3.6 80 18:22 27.04.2022
3963 Clouds 21 1014 49 10000 3.6 80 16:58 27.04.2022
3964 Clouds 24 1018 38 10000 4.63 120 14:33 27.04.2022
3965 Clouds 20 1016 52 10000 2.57 90 12:23 27.04.2022
3966 Clear 18 1016 63 10000 1.03 0 11:20 27.04.2022
3967 Rain 14 1017 77 10000 0.51 0 09:43 27.04.2022
3968 Clear 12 1017 76 10000 0.51 0 07:18 27.04.2022
3969 Clear 8 1018 86 10000 3.09 130 04:30 27.04.2022
3970 Clear 12 1018 80 10000 4.12 110 01:34 27.04.2022
3971 Clear 10 1016 87 10000 5.14 110 00:37 27.04.2022
3972 Clouds 13 1019 67 10000 3.6 80 23:39 26.04.2022
3973 Rain 12 1018 77 10000 3.6 80 23:18 26.04.2022
3974 Rain 13 1018 69 10000 4.63 140 22:39 26.04.2022
3975 Clouds 13 1018 72 10000 4.92 113 21:35 26.04.2022
3976 Clouds 13 1015 76 10000 4.63 120 20:42 26.04.2022
3977 Rain 15 1017 68 10000 3.09 160 19:53 26.04.2022
3978 Rain 15 1016 70 10000 2.06 160 19:32 26.04.2022
3979 Clouds 16 1018 59 10000 3.6 120 18:44 26.04.2022
3980 Clouds 19 1018 48 10000 4.12 360 17:59 26.04.2022
3981 Clouds 20 1018 47 10000 6.71 0 16:49 26.04.2022
3982 Clouds 22 1013 35 10000 3.09 230 13:59 26.04.2022
3983 Clouds 22 1013 37 10000 1.03 0 13:32 26.04.2022
3984 Clouds 20 1014 45 10000 2.06 0 11:49 26.04.2022
3985 Clear 17 1014 45 10000 1.54 0 10:34 26.04.2022
3986 Clear 14 1014 58 10000 1.54 320 08:54 26.04.2022
3987 Clouds 7 1014 87 10000 1.03 120 06:57 26.04.2022
3988 Clear 8 1015 81 10000 1.54 110 04:23 26.04.2022
3989 Clouds 11 1016 64 10000 1.54 260 01:22 26.04.2022
3990 Clouds 12 1016 60 10000 2.06 260 00:25 26.04.2022
3991 Clouds 16 1011 51 10000 1.54 0 22:21 25.04.2022
3992 Clouds 17 1011 42 10000 2.57 330 21:39 25.04.2022
3993 Clear 15 1010 47 10000 2.57 340 20:35 25.04.2022
3994 Clouds 21 1009 28 10000 3.6 320 18:54 25.04.2022
3995 Clouds 23 1008 27 10000 4.12 330 17:43 25.04.2022
3996 Clouds 23 1008 25 10000 6.17 310 16:51 25.04.2022
3997 Clouds 24 1008 27 10000 2.57 300 15:23 25.04.2022
3998 Clouds 23 1008 31 10000 4.12 330 14:34 25.04.2022
3999 Clouds 23 1008 23 10000 6.69 250 13:29 25.04.2022
4000 Clouds 20 1009 42 10000 2.57 290 10:58 25.04.2022
4001 Clear 18 1009 55 10000 1.54 90 09:55 25.04.2022
4002 Clear 15 1009 67 10000 2.57 100 08:23 25.04.2022
4003 Clear 12 1010 77 10000 1.54 160 06:18 25.04.2022
4004 Clouds 12 1011 76 10000 4.63 100 02:20 25.04.2022
4005 Clouds 15 1012 66 10000 5.14 120 23:58 24.04.2022
4006 Clouds 16 1012 61 10000 4.12 110 23:30 24.04.2022
4007 Clouds 17 1009 59 10000 5.66 90 22:40 24.04.2022
4008 Clouds 16 1009 67 10000 4.12 100 21:58 24.04.2022
4009 Clouds 18 1009 59 10000 6.17 110 21:23 24.04.2022
4010 Clouds 18 1009 59 10000 4.63 100 20:47 24.04.2022
4011 Clouds 19 1009 55 10000 6.17 110 20:21 24.04.2022
4012 Clouds 20 1008 56 10000 5.14 120 18:54 24.04.2022
4013 Clouds 22 1008 46 10000 6.17 120 17:54 24.04.2022
4014 Clouds 22 1008 46 10000 6.17 90 17:21 24.04.2022
4015 Clouds 23 1008 40 10000 5.14 110 16:56 24.04.2022
4016 Clear 24 1009 38 10000 4.12 100 16:29 24.04.2022
4017 Clear 24 1009 38 10000 4.12 100 16:29 24.04.2022
4018 Clear 25 1012 36 10000 3.6 130 15:52 24.04.2022
4019 Clear 23 1010 35 10000 2.57 90 14:40 24.04.2022
4020 Clear 22 1010 43 10000 1.54 0 13:38 24.04.2022
4021 Clear 22 1010 43 10000 1.54 0 13:18 24.04.2022
4022 Clear 19 1011 48 10000 1.03 0 11:50 24.04.2022
4023 Clear 17 1012 59 10000 1.03 0 10:48 24.04.2022
4024 Clear 15 1013 58 10000 0.51 0 09:47 24.04.2022
4025 Clear 10 1013 76 8000 0 0 07:55 24.04.2022
4026 Clear 5 1013 93 8000 1.03 330 05:45 24.04.2022
4027 Clear 7 1014 88 10000 1.03 0 02:30 24.04.2022
4028 Clear 8 1014 82 10000 2.06 140 00:45 24.04.2022
4029 Clear 10 1013 77 10000 1.54 130 23:52 23.04.2022
4030 Clear 10 1013 75 10000 1.54 120 23:25 23.04.2022
4031 Clear 10 1013 75 10000 1.54 120 23:25 23.04.2022
4032 Clear 12 1015 68 10000 2.06 230 21:59 23.04.2022
4033 Clear 12 1014 66 10000 2.06 230 21:38 23.04.2022
4034 Clear 13 1014 63 10000 4.12 270 20:59 23.04.2022
4035 Clouds 15 1013 60 10000 4.12 280 19:56 23.04.2022
4036 Clouds 16 1013 55 10000 4.12 280 19:20 23.04.2022
4037 Clouds 18 1009 48 10000 5.66 290 18:54 23.04.2022
4038 Clouds 18 1009 48 10000 5.66 290 18:31 23.04.2022
4039 Clouds 19 1008 45 10000 6.69 290 17:44 23.04.2022
4040 Clouds 19 1008 48 10000 3.6 290 16:45 23.04.2022
4041 Clouds 19 1008 45 10000 4.63 300 15:36 23.04.2022
4042 Clouds 17 1009 55 10000 3.6 280 12:59 23.04.2022
4043 Clouds 17 1011 57 10000 3.6 300 11:29 23.04.2022
4044 Clouds 15 1008 67 10000 2.06 350 09:39 23.04.2022
4045 Clouds 15 1011 61 10000 1.54 360 07:52 23.04.2022
4046 Clouds 12 1006 58 10000 2.06 0 03:56 23.04.2022
4047 Clouds 12 1006 58 10000 2.57 20 01:59 23.04.2022
4048 Clouds 13 1006 62 10000 2.57 0 23:34 22.04.2022
4049 Clouds 13 1006 67 10000 2.06 0 22:32 22.04.2022
4050 Clouds 13 1010 61 10000 2.57 0 21:46 22.04.2022
4051 Clouds 13 1010 65 10000 2.06 0 21:20 22.04.2022
4052 Clear 14 1010 66 10000 5.66 140 20:28 22.04.2022
4053 Clear 16 1009 62 10000 8.23 120 19:23 22.04.2022
4054 Clear 17 1006 59 10000 9.26 120 18:53 22.04.2022
4055 Clear 18 1006 55 10000 10.29 110 18:20 22.04.2022
4056 Clear 19 1007 52 10000 9.26 100 16:53 22.04.2022
4057 Clear 20 1009 50 10000 8.23 110 15:56 22.04.2022
4058 Clear 18 1008 55 10000 8.23 100 15:23 22.04.2022
4059 Clear 19 1008 48 10000 6.17 120 14:21 22.04.2022
4060 Clear 18 1009 55 10000 4.63 100 13:27 22.04.2022
4061 Clear 16 1010 59 10000 4.63 90 12:30 22.04.2022
4062 Clouds 17 1013 55 10000 7.2 100 11:23 22.04.2022
4063 Clouds 17 1013 57 10000 7.72 100 10:53 22.04.2022
4064 Clouds 16 1013 58 10000 7.72 100 10:32 22.04.2022
4065 Clear 14 1013 69 10000 7.2 100 09:54 22.04.2022
4066 Clear 12 1014 75 10000 8.23 110 08:56 22.04.2022
4067 Clouds 10 1014 80 10000 6.69 90 08:24 22.04.2022
4068 Clouds 7 1016 90 9000 1.03 0 05:20 22.04.2022
4069 Rain 10 1019 77 10000 0.51 0 00:53 22.04.2022
4070 Clouds 10 1017 76 10000 2.06 130 23:28 21.04.2022
4071 Clouds 11 1018 71 10000 1.54 90 22:29 21.04.2022
4072 Clouds 11 1018 68 10000 1.03 0 20:55 21.04.2022
4073 Clouds 12 1016 70 10000 3.09 80 20:26 21.04.2022
4074 Clouds 13 1018 58 10000 0 0 18:48 21.04.2022
4075 Clouds 14 1016 55 10000 0.89 293 18:19 21.04.2022
4076 Clouds 15 1016 53 10000 1.03 0 16:49 21.04.2022
4077 Clouds 13 1017 57 10000 1.03 0 15:23 21.04.2022
4078 Clouds 13 1017 57 10000 1.54 0 14:50 21.04.2022
4079 Clear 13 1017 58 10000 1.03 0 13:44 21.04.2022
4080 Clear 12 1018 59 10000 1.54 30 13:18 21.04.2022
4081 Clouds 10 1018 62 10000 1.54 10 11:19 21.04.2022
4082 Clouds 7 1019 74 6000 2.57 110 08:57 21.04.2022
4083 Mist 1 1016 93 5000 2.06 150 07:49 21.04.2022
4084 Mist -1 1016 93 5000 2.06 50 06:21 21.04.2022
4085 Clouds 0 1019 90 10000 1.54 220 03:33 21.04.2022
4086 Clouds 0 1019 94 9000 1.54 250 02:48 21.04.2022
4087 Clouds 0 1019 94 9000 1.54 250 02:48 21.04.2022
4088 Clouds 0 1019 90 10000 2.06 210 01:41 21.04.2022
4089 Clouds 3 1016 87 10000 3.09 320 23:51 20.04.2022
4090 Clouds 3 1016 87 10000 2.57 340 23:23 20.04.2022
4091 Clouds 4 1016 75 10000 2.06 350 22:51 20.04.2022
4092 Clouds 4 1020 75 10000 2.06 350 22:32 20.04.2022
4093 Clouds 4 1018 82 10000 5.14 290 21:33 20.04.2022
4094 Clouds 4 1017 86 10000 5.14 300 20:41 20.04.2022
4095 Clouds 3 1017 87 10000 5.66 300 19:53 20.04.2022
4096 Clouds 4 1016 84 10000 5.66 300 19:22 20.04.2022
4097 Clouds 4 1016 83 10000 5.14 280 18:23 20.04.2022
4098 Rain 2 1016 92 6000 2.57 300 16:56 20.04.2022
4099 Snow 1 1015 96 4000 4.12 290 16:37 20.04.2022
4100 Rain 5 1011 87 10000 5.14 100 14:26 20.04.2022
4101 Clouds 4 1014 90 10000 6.17 100 11:55 20.04.2022
4102 Rain 4 1014 87 8000 2.57 100 11:25 20.04.2022
4103 Rain 3 1015 87 7000 1.54 150 10:24 20.04.2022
4104 Clouds 2 1015 89 6000 1.54 310 09:25 20.04.2022
4105 Rain 2 1015 86 10000 0 0 08:22 20.04.2022
4106 Clouds 2 1015 86 10000 1.54 0 07:42 20.04.2022
4107 Clouds 0 1016 88 10000 2.57 30 03:54 20.04.2022
4108 Clouds 1 1015 84 10000 2.57 150 00:24 20.04.2022
4109 Clouds 1 1015 80 10000 3.09 120 23:59 19.04.2022
4110 Clouds 1 1016 77 10000 3.09 120 22:28 19.04.2022
4111 Clouds 2 1016 75 10000 3.09 130 21:57 19.04.2022
4112 Clouds 2 1016 74 10000 3.09 120 21:33 19.04.2022
4113 Clear 3 1016 68 10000 3.09 120 20:48 19.04.2022
4114 Clouds 4 1016 65 10000 3.09 120 20:26 19.04.2022
4115 Clouds 7 1015 49 10000 4.63 100 19:19 19.04.2022
4116 Clouds 9 1013 42 10000 3.09 360 17:51 19.04.2022
4117 Clouds 10 1013 42 10000 2.57 330 16:43 19.04.2022
4118 Clouds 10 1013 44 10000 4.63 350 16:24 19.04.2022
4119 Clouds 10 1014 40 10000 4.63 300 14:51 19.04.2022
4120 Clouds 9 1011 43 10000 2.57 0 14:27 19.04.2022
4121 Clouds 6 1012 65 10000 4.12 360 12:51 19.04.2022
4122 Clouds 6 1012 65 10000 1.54 0 12:26 19.04.2022
4123 Clouds 4 1013 87 10000 3.09 300 10:50 19.04.2022
4124 Clouds 3 1014 89 10000 2.57 310 09:23 19.04.2022
4125 Clouds 1 1013 92 10000 1.54 80 06:30 19.04.2022
4126 Snow 1 1013 92 9000 2.57 110 03:59 19.04.2022
4127 Clouds 1 1014 95 10000 3.09 60 00:56 19.04.2022
4128 Clouds 2 1014 90 10000 3.09 70 23:36 18.04.2022
4129 Clouds 3 1014 85 10000 3.09 140 21:37 18.04.2022
4130 Clouds 3 1014 85 10000 3.58 113 21:18 18.04.2022
4131 Clouds 3 1014 83 10000 3.6 140 20:35 18.04.2022
4132 Clouds 4 1013 77 10000 2.57 120 19:54 18.04.2022
4133 Clouds 5 1013 68 10000 3.09 50 18:57 18.04.2022
4134 Clouds 5 1013 67 10000 2.06 20 17:58 18.04.2022
4135 Clouds 5 1013 66 10000 2.06 20 17:36 18.04.2022
4136 Clouds 5 1013 66 10000 3.09 20 17:18 18.04.2022
4137 Clouds 5 1013 64 10000 3.09 30 16:32 18.04.2022
4138 Clouds 6 1013 59 10000 2.57 20 15:18 18.04.2022
4139 Clouds 6 1013 65 10000 3.6 50 13:42 18.04.2022
4140 Clouds 6 1014 64 10000 3.6 40 12:34 18.04.2022
4141 Clouds 5 1014 69 10000 3.09 30 11:35 18.04.2022
4142 Clouds 5 1014 69 10000 4.12 30 10:32 18.04.2022
4143 Clouds 5 1014 71 10000 4.63 30 09:31 18.04.2022
4144 Clouds 3 1012 75 10000 2.57 10 08:18 18.04.2022
4145 Clouds 2 1013 80 10000 2.57 350 05:51 18.04.2022
4146 Clouds 3 1015 81 10000 2.57 280 01:34 18.04.2022
4147 Clouds 3 1015 78 10000 3.09 10 22:43 17.04.2022
4148 Clouds 3 1015 78 10000 3.6 360 21:50 17.04.2022
4149 Clouds 3 1015 78 10000 3.6 360 21:27 17.04.2022
4150 Clouds 3 1015 78 10000 4.12 10 20:50 17.04.2022
4151 Rain 4 1014 76 10000 5.14 350 19:40 17.04.2022
4152 Clouds 5 1014 79 10000 4.63 10 18:24 17.04.2022
4153 Clouds 6 1014 86 10000 4.63 360 16:32 17.04.2022
4154 Rain 7 1014 83 10000 4.12 350 15:28 17.04.2022
4155 Clouds 7 1016 88 10000 3.09 10 14:25 17.04.2022
4156 Clouds 8 1016 87 10000 3.09 10 13:18 17.04.2022
4157 Clouds 9 1016 84 10000 2.57 340 12:28 17.04.2022
4158 Clouds 8 1016 86 10000 3.6 290 10:46 17.04.2022
4159 Clouds 8 1016 87 8000 3.6 290 10:28 17.04.2022
4160 Clouds 7 1016 90 6000 3.09 290 09:37 17.04.2022
4161 Clouds 7 1016 90 8000 3.6 280 08:54 17.04.2022
4162 Clouds 8 1016 84 10000 2.06 320 07:53 17.04.2022
4163 Clouds 9 1016 78 10000 4.63 280 04:51 17.04.2022
4164 Clouds 11 1017 67 10000 4.63 280 01:38 17.04.2022
4165 Clouds 12 1017 60 10000 1.34 293 23:54 16.04.2022
4166 Clouds 12 1017 61 10000 3.6 310 22:39 16.04.2022
4167 Clouds 13 1017 59 10000 4.63 290 21:40 16.04.2022
4168 Clouds 13 1019 57 10000 4.12 280 20:32 16.04.2022
4169 Clouds 16 1017 47 10000 4.12 30 18:59 16.04.2022
4170 Clouds 17 1017 44 10000 4.12 30 18:28 16.04.2022
4171 Clouds 19 1013 37 10000 4.12 50 16:40 16.04.2022
4172 Clouds 20 1013 34 10000 1.54 20 15:45 16.04.2022
4173 Clouds 20 1013 34 10000 1.54 20 15:45 16.04.2022
4174 Clear 20 1014 37 10000 2.06 50 14:57 16.04.2022
4175 Clear 19 1014 37 10000 1.54 0 13:58 16.04.2022
4176 Clear 19 1015 34 10000 0.51 0 13:37 16.04.2022
4177 Clear 18 1015 39 10000 0.51 0 12:26 16.04.2022
4178 Clear 15 1016 41 10000 3.6 280 10:50 16.04.2022
4179 Clear 17 1018 40 10000 2.24 293 09:56 16.04.2022
4180 Clear 11 1017 54 10000 0 0 08:59 16.04.2022
4181 Clear 8 1017 66 10000 1.03 0 07:57 16.04.2022
4182 Clear 14 1020 55 10000 0 0 06:58 16.04.2022
4183 Clouds 8 1019 65 10000 1.03 10 02:52 16.04.2022
4184 Clouds 10 1019 57 10000 3.6 150 00:30 16.04.2022
4185 Clouds 11 1019 59 10000 1.54 130 23:21 15.04.2022
4186 Clouds 12 1019 53 10000 4.12 120 22:32 15.04.2022
4187 Clouds 13 1019 49 10000 3.6 110 21:55 15.04.2022
4188 Clouds 13 1019 50 10000 4.12 90 21:18 15.04.2022
4189 Clear 17 1020 38 10000 4.63 110 20:22 15.04.2022
4190 Clear 17 1019 35 10000 2.06 180 19:40 15.04.2022
4191 Clear 22 1015 23 10000 1.54 140 18:54 15.04.2022
4192 Clear 23 1015 20 10000 1.54 60 18:25 15.04.2022
4193 Clear 23 1016 23 10000 1.54 60 17:34 15.04.2022
4194 Clear 23 1016 20 10000 2.06 110 16:48 15.04.2022
4195 Clear 24 1020 21 10000 2.06 140 16:18 15.04.2022
4196 Clear 25 1020 21 10000 2.24 0 15:24 15.04.2022
4197 Clear 21 1019 23 10000 1.54 0 13:41 15.04.2022
4198 Clear 18 1019 29 10000 1.54 0 12:42 15.04.2022
4199 Clear 17 1020 34 10000 1.54 0 11:57 15.04.2022
4200 Clear 15 1021 36 10000 1.03 0 11:34 15.04.2022
4201 Clear 14 1021 44 10000 1.03 0 10:43 15.04.2022
4202 Clear 11 1022 46 10000 0.51 0 09:46 15.04.2022
4203 Clear 10 1022 50 10000 1.03 0 09:21 15.04.2022
4204 Clear 3 1022 81 10000 0 0 07:32 15.04.2022
4205 Clear 7 1025 74 10000 1.03 0 06:36 15.04.2022
4206 Clear 5 1024 68 10000 0.51 0 02:48 15.04.2022
4207 Clear 8 1024 54 10000 2.57 150 23:31 14.04.2022
4208 Clear 9 1024 52 10000 2.57 150 22:49 14.04.2022
4209 Clear 9 1023 51 10000 2.57 120 22:30 14.04.2022
4210 Clear 10 1023 49 10000 4.63 90 21:59 14.04.2022
4211 Clear 12 1024 40 10000 2.57 100 20:43 14.04.2022
4212 Clear 14 1023 34 10000 2.57 40 19:23 14.04.2022
4213 Clear 19 1020 22 10000 0 0 18:22 14.04.2022
4214 Clear 19 1019 24 10000 1.03 0 17:40 14.04.2022
4215 Clear 19 1020 22 10000 0 0 16:46 14.04.2022
4216 Clear 21 1023 25 10000 1.54 0 15:24 14.04.2022
4217 Clear 17 1021 29 10000 2.06 0 13:46 14.04.2022
4218 Clear 16 1021 27 10000 1.54 0 12:56 14.04.2022
4219 Clear 16 1021 31 10000 1.54 0 12:31 14.04.2022
4220 Clear 14 1022 38 10000 1.54 350 11:29 14.04.2022
4221 Clear 13 1022 44 10000 1.03 0 10:52 14.04.2022
4222 Clear 11 1022 46 10000 1.03 0 10:26 14.04.2022
4223 Clear 6 1022 65 10000 1.54 310 08:54 14.04.2022
4224 Clear 2 1022 75 10000 1.03 0 07:27 14.04.2022
4225 Clouds 3 1024 73 10000 1.03 40 03:32 14.04.2022
4226 Clear 6 1023 65 10000 1.03 0 23:26 13.04.2022
4227 Clear 8 1022 56 10000 1.54 140 22:20 13.04.2022
4228 Clear 9 1022 53 10000 3.6 0 21:36 13.04.2022
4229 Clear 11 1021 46 10000 2.57 0 20:22 13.04.2022
4230 Clear 14 1018 38 10000 4.12 30 19:36 13.04.2022
4231 Clear 16 1017 29 10000 2.06 100 18:27 13.04.2022
4232 Clear 17 1017 23 10000 1.03 0 17:24 13.04.2022
4233 Clear 17 1017 27 10000 2.57 0 16:34 13.04.2022
4234 Clear 17 1017 27 10000 2.57 230 15:40 13.04.2022
4235 Clear 16 1018 31 10000 3.6 300 14:51 13.04.2022
4236 Clear 15 1019 25 10000 3.09 260 14:26 13.04.2022
4237 Clear 14 1019 30 10000 1.03 0 13:28 13.04.2022
4238 Clear 14 1020 33 10000 2.06 0 12:25 13.04.2022
4239 Clear 10 1021 46 10000 1.54 0 10:54 13.04.2022
4240 Clear 8 1021 57 10000 1.03 0 09:44 13.04.2022
4241 Clear 5 1021 60 10000 1.03 0 08:43 13.04.2022
4242 Clear 1 1020 75 10000 2.57 340 06:52 13.04.2022
4243 Clear 2 1022 81 10000 0 0 06:26 13.04.2022
4244 Clear 1 1021 78 10000 2.06 330 05:36 13.04.2022
4245 Clear 4 1022 70 10000 1.54 180 00:22 13.04.2022
4246 Clear 5 1021 67 10000 3.09 160 23:45 12.04.2022
4247 Clear 6 1021 62 10000 2.57 80 22:19 12.04.2022
4248 Clear 7 1021 54 10000 1.54 110 21:18 12.04.2022
4249 Clear 9 1022 45 10000 0.51 0 20:41 12.04.2022
4250 Clear 10 1018 46 10000 2.06 40 19:48 12.04.2022
4251 Clear 12 1018 37 10000 3.09 10 19:30 12.04.2022
4252 Clear 15 1017 25 10000 6.17 290 18:26 12.04.2022
4253 Clear 15 1017 26 10000 4.63 310 17:23 12.04.2022
4254 Clear 16 1021 26 10000 6.17 320 16:22 12.04.2022
4255 Clear 16 1021 27 10000 6.17 310 15:29 12.04.2022
4256 Clear 14 1019 30 10000 4.12 300 14:21 12.04.2022
4257 Clear 12 1020 35 10000 4.12 290 13:29 12.04.2022
4258 Clear 11 1020 35 10000 4.12 310 12:49 12.04.2022
4259 Clear 10 1021 40 10000 4.12 300 11:46 12.04.2022
4260 Clear 8 1022 53 10000 2.57 320 10:32 12.04.2022
4261 Clear 4 1022 65 10000 1.54 330 09:18 12.04.2022
4262 Clear 1 1022 80 10000 0 0 07:51 12.04.2022
4263 Clear -1 1023 80 10000 0 0 05:49 12.04.2022
4264 Clear 0 1023 76 10000 1.03 0 04:46 12.04.2022
4265 Clouds 4 1025 58 10000 4.63 280 23:49 11.04.2022
4266 Clouds 4 1021 52 10000 4.12 280 22:44 11.04.2022
4267 Clouds 5 1021 52 10000 3.6 280 21:37 11.04.2022
4268 Clouds 6 1021 49 10000 4.12 290 20:54 11.04.2022
4269 Clouds 6 1024 51 10000 5.14 290 20:28 11.04.2022
4270 Clouds 8 1019 39 10000 4.63 300 19:36 11.04.2022
4271 Clouds 8 1021 42 10000 4.92 0 19:18 11.04.2022
4272 Clouds 7 1019 49 10000 2.57 330 18:37 11.04.2022
4273 Clouds 9 1020 44 10000 4.12 330 17:44 11.04.2022
4274 Clouds 9 1020 45 10000 4.12 320 16:54 11.04.2022
4275 Clouds 9 1020 44 10000 6.71 0 15:24 11.04.2022
4276 Clouds 9 1018 43 10000 6.17 310 13:51 11.04.2022
4277 Clouds 7 1020 53 10000 6.69 310 12:43 11.04.2022
4278 Clouds 7 1018 53 10000 7.2 290 12:22 11.04.2022
4279 Clouds 7 1017 61 10000 8.23 290 10:56 11.04.2022
4280 Clouds 8 1021 55 10000 7.2 290 09:58 11.04.2022
4281 Clouds 4 1018 71 10000 5.66 300 08:24 11.04.2022
4282 Clouds 3 1016 85 10000 4.12 310 05:26 11.04.2022
4283 Clouds 3 1013 89 10000 6.69 280 00:49 11.04.2022
4284 Clouds 3 1011 91 9000 7.2 280 22:33 10.04.2022
4285 Clouds 3 1011 92 8000 7.2 280 21:54 10.04.2022
4286 Clouds 3 1011 92 7000 6.17 280 21:23 10.04.2022
4287 Clouds 3 1011 92 7000 5.14 290 20:21 10.04.2022
4288 Clouds 3 1011 92 8000 4.63 280 19:37 10.04.2022
4289 Clouds 3 1010 89 10000 5.14 280 18:50 10.04.2022
4290 Clouds 2 1010 91 7000 5.14 280 18:27 10.04.2022
4291 Clouds 2 1010 92 5000 5.66 270 17:46 10.04.2022
4292 Snow 2 1010 92 5000 6.17 280 16:59 10.04.2022
4293 Clouds 3 1009 89 8000 7.72 280 15:40 10.04.2022
4294 Clouds 3 1009 88 10000 8.75 290 14:42 10.04.2022
4295 Clouds 3 1009 89 10000 7.72 280 13:28 10.04.2022
4296 Clouds 4 1010 83 10000 9.26 270 12:32 10.04.2022
4297 Clouds 4 1009 82 10000 10.29 280 11:38 10.04.2022
4298 Clouds 5 1009 81 10000 11.32 270 11:18 10.04.2022
4299 Clouds 7 1010 72 10000 7.72 270 10:31 10.04.2022
4300 Clouds 6 1009 80 10000 6.17 270 09:41 10.04.2022
4301 Clouds 7 1006 81 8000 7.72 280 08:28 10.04.2022
4302 Clouds 7 1005 81 10000 8.75 280 07:56 10.04.2022
4303 Clouds 8 1007 76 10000 3.6 270 06:59 10.04.2022
4304 Clouds 8 1006 70 10000 0.89 293 03:37 10.04.2022
4305 Clouds 8 1007 67 10000 2.57 140 02:18 10.04.2022
4306 Clouds 11 1007 54 10000 0 0 23:53 09.04.2022
4307 Clouds 12 1007 51 10000 2.06 290 22:54 09.04.2022
4308 Clouds 12 1007 51 10000 2.06 290 22:54 09.04.2022
4309 Clouds 14 1007 43 10000 2.57 240 22:24 09.04.2022
4310 Clouds 16 1009 39 10000 2.57 280 21:18 09.04.2022
4311 Clear 16 1006 36 10000 4.12 300 20:27 09.04.2022
4312 Clear 17 1008 30 10000 2.57 300 19:49 09.04.2022
4313 Clear 17 1008 29 10000 5.14 310 19:30 09.04.2022
4314 Clouds 21 859 55 10000 5.14 290 18:23 09.04.2022
4315 Clouds 21 727 81 10000 6.17 260 17:43 09.04.2022
4316 Clouds 21 727 81 10000 4.63 230 16:56 09.04.2022
4317 Clouds 21 727 81 10000 5.14 240 16:29 09.04.2022
4318 Clouds 21 727 81 10000 4.63 240 15:48 09.04.2022
4319 Clouds 21 859 55 10000 5.66 240 15:25 09.04.2022
4320 Clouds 21 859 58 10000 6.17 210 14:25 09.04.2022
4321 Clouds 21 727 81 10000 8.23 240 13:24 09.04.2022
4322 Clouds 21 859 60 10000 5.14 290 12:53 09.04.2022
4323 Clear 21 727 81 10000 1.54 0 11:44 09.04.2022
4324 Clear 15 1007 55 10000 1.03 0 10:22 09.04.2022
4325 Clear 14 1007 54 10000 1.03 0 09:53 09.04.2022
4326 Clear 12 1007 66 10000 1.03 0 08:59 09.04.2022
4327 Clear 11 1007 66 10000 2.06 60 07:49 09.04.2022
4328 Clouds 11 1008 62 10000 3.09 310 03:22 09.04.2022
4329 Clouds 17 1008 42 10000 7.2 270 00:32 09.04.2022
4330 Clouds 15 1007 44 10000 2.57 10 22:58 08.04.2022
4331 Clouds 15 1007 47 10000 3.09 60 21:35 08.04.2022
4332 Clear 17 1007 39 10000 1.54 0 20:41 08.04.2022
4333 Clear 18 1007 39 10000 2.06 30 19:41 08.04.2022
4334 Clouds 20 1007 34 10000 2.06 360 18:38 08.04.2022
4335 Clouds 21 1007 28 10000 1.54 350 17:59 08.04.2022
4336 Clouds 21 727 81 10000 2.06 290 17:27 08.04.2022
4337 Clear 21 727 81 10000 3.09 300 16:52 08.04.2022
4338 Clear 22 862 58 10000 4.12 290 16:22 08.04.2022
4339 Clear 21 727 81 10000 5.14 310 15:28 08.04.2022
4340 Clear 21 727 81 10000 3.6 330 14:40 08.04.2022
4341 Clear 20 861 61 10000 4.12 320 13:55 08.04.2022
4342 Clear 18 1008 42 10000 4.12 350 13:30 08.04.2022
4343 Clear 18 1008 45 10000 6.17 320 12:42 08.04.2022
4344 Clear 15 1008 55 10000 5.66 330 10:56 08.04.2022
4345 Clear 12 1008 66 10000 4.63 330 09:41 08.04.2022
4346 Clear 11 1007 66 10000 4.63 350 08:58 08.04.2022
4347 Clear 9 1007 76 10000 3.09 350 07:42 08.04.2022
4348 Clear 7 1006 87 10000 4.12 310 06:44 08.04.2022
4349 Clouds 10 1005 77 10000 4.02 0 02:27 08.04.2022
4350 Clouds 10 1005 82 10000 3.13 293 00:28 08.04.2022
4351 Clouds 10 1005 84 10000 3.09 350 23:41 07.04.2022
4352 Clouds 10 1004 84 10000 5.36 0 22:41 07.04.2022
4353 Clouds 10 1004 85 10000 3.09 300 22:22 07.04.2022
4354 Clouds 10 1004 87 10000 4.63 290 21:56 07.04.2022
4355 Clouds 10 1004 90 10000 2.57 290 21:19 07.04.2022
4356 Clouds 10 1003 89 6000 3.09 330 20:42 07.04.2022
4357 Clouds 11 1002 83 7000 2.06 250 18:58 07.04.2022
4358 Clouds 12 1002 72 10000 1.54 190 17:28 07.04.2022
4359 Clouds 13 1003 69 6000 1.54 190 16:45 07.04.2022
4360 Clouds 13 1004 66 10000 1.54 100 16:25 07.04.2022
4361 Clouds 15 1004 60 10000 1.54 20 15:37 07.04.2022
4362 Clouds 12 1003 72 10000 2.57 310 13:51 07.04.2022
4363 Clouds 10 1004 78 10000 2.57 300 13:22 07.04.2022
4364 Clouds 11 1004 55 10000 5.14 110 11:40 07.04.2022
4365 Clouds 11 1004 56 10000 4.12 90 10:30 07.04.2022
4366 Clouds 10 1005 58 10000 4.63 110 08:39 07.04.2022
4367 Clouds 10 1006 59 10000 6.17 130 06:58 07.04.2022
4368 Clouds 8 1008 65 10000 3.6 110 03:59 07.04.2022
4369 Clouds 9 1010 58 10000 0 0 02:28 07.04.2022
4370 Clouds 10 1011 57 10000 3.09 140 00:42 07.04.2022
4371 Clouds 11 1013 54 10000 2.57 80 22:54 06.04.2022
4372 Clouds 11 1013 54 10000 2.57 80 22:54 06.04.2022
4373 Clouds 11 1013 53 10000 2.57 140 22:30 06.04.2022
4374 Clear 12 1013 46 10000 3.09 130 21:45 06.04.2022
4375 Clear 13 1013 43 10000 4.63 110 20:40 06.04.2022
4376 Clear 14 1013 44 10000 3.6 130 19:57 06.04.2022
4377 Clear 18 1009 34 10000 3.09 130 18:52 06.04.2022
4378 Clear 18 1009 34 10000 3.09 130 18:33 06.04.2022
4379 Clear 20 1010 28 10000 0 0 17:35 06.04.2022
4380 Clear 20 1010 28 10000 2.06 300 16:39 06.04.2022
4381 Clear 20 1014 32 10000 1.03 0 15:49 06.04.2022
4382 Clear 20 1014 31 10000 3.58 135 15:21 06.04.2022
4383 Clear 20 1014 31 10000 3.58 135 15:21 06.04.2022
4384 Clear 17 1013 31 10000 1.03 0 13:28 06.04.2022
4385 Clear 16 1014 33 10000 1.54 0 12:27 06.04.2022
4386 Clear 12 1015 50 10000 1.03 0 10:52 06.04.2022
4387 Clear 11 1015 54 10000 0.51 0 10:30 06.04.2022
4388 Clear 9 1015 57 10000 1.03 0 09:41 06.04.2022
4389 Clear 6 1015 65 10000 1.03 0 08:34 06.04.2022
4390 Clear 2 1015 75 10000 0 0 07:53 06.04.2022
4391 Clear 1 1013 86 10000 2.06 120 04:30 06.04.2022
4392 Clear 7 1014 59 10000 1.54 170 23:54 05.04.2022
4393 Clear 7 1013 62 10000 1.34 293 22:58 05.04.2022
4394 Clear 10 1013 53 10000 1.03 0 21:23 05.04.2022
4395 Clear 11 1012 47 10000 3.09 180 20:26 05.04.2022
4396 Clear 10 1013 50 10000 2.06 0 19:47 05.04.2022
4397 Clear 15 1009 31 10000 0.51 0 18:18 05.04.2022
4398 Clear 16 1009 29 10000 2.57 160 16:54 05.04.2022
4399 Clear 16 1013 33 10000 1.54 0 15:57 05.04.2022
4400 Clear 17 1013 30 10000 2.68 270 15:35 05.04.2022
4401 Clear 17 1013 32 10000 2.57 270 14:36 05.04.2022
4402 Clear 13 1011 38 10000 1.54 0 13:37 05.04.2022
4403 Clear 11 1013 54 10000 1.54 0 11:51 05.04.2022
4404 Clear 11 1013 54 10000 1.54 0 11:51 05.04.2022
4405 Clear 11 1013 54 10000 1.54 0 11:32 05.04.2022
4406 Clear 9 1013 57 10000 1.03 0 10:41 05.04.2022
4407 Clear 4 1014 81 10000 1.54 180 08:55 05.04.2022
4408 Clear 1 1016 89 10000 1.03 0 07:22 05.04.2022
4409 Clouds 4 1017 74 10000 1.03 0 01:58 05.04.2022
4410 Clouds 7 1017 62 10000 3.6 300 22:44 04.04.2022
4411 Clouds 7 1018 62 10000 3.6 300 22:26 04.04.2022
4412 Clouds 7 1019 61 10000 3.09 270 21:21 04.04.2022
4413 Clouds 7 1018 59 10000 2.06 290 20:50 04.04.2022
4414 Clouds 8 1019 58 10000 2.24 0 19:58 04.04.2022
4415 Clouds 8 1017 55 10000 0 0 19:26 04.04.2022
4416 Clouds 9 1019 52 10000 2.24 0 18:33 04.04.2022
4417 Clouds 10 1018 45 10000 1.54 0 16:37 04.04.2022
4418 Clouds 10 1016 43 10000 1.03 0 15:47 04.04.2022
4419 Clouds 10 1017 46 10000 0.51 0 15:29 04.04.2022
4420 Clouds 9 1017 46 10000 1.54 0 14:46 04.04.2022
4421 Clouds 8 1018 49 10000 2.57 300 13:31 04.04.2022
4422 Clouds 6 1020 52 10000 2.57 320 11:56 04.04.2022
4423 Clouds 6 1020 52 10000 2.57 330 11:29 04.04.2022
4424 Clouds 3 1020 70 10000 3.6 290 09:18 04.04.2022
4425 Clouds 2 1021 67 10000 3.13 0 05:21 04.04.2022
4426 Clouds 3 1020 66 10000 6.17 280 01:36 04.04.2022
4427 Clouds 3 1019 75 10000 8.23 270 22:45 03.04.2022
4428 Clouds 3 1018 76 10000 6.69 270 21:47 03.04.2022
4429 Clouds 4 1017 78 10000 7.2 270 20:57 03.04.2022
4430 Clouds 4 1015 81 10000 7.2 270 19:51 03.04.2022
4431 Clouds 6 1014 72 10000 6.17 280 18:33 03.04.2022
4432 Clouds 8 1013 62 10000 8.49 293 17:48 03.04.2022
4433 Clouds 8 1012 63 10000 4.63 280 16:59 03.04.2022
4434 Clouds 8 1012 63 10000 4.63 280 16:41 03.04.2022
4435 Clouds 7 1012 72 8000 5.66 310 14:52 03.04.2022
4436 Clouds 8 1011 58 10000 6.26 0 13:55 03.04.2022
4437 Clouds 8 1009 57 10000 5.66 310 12:46 03.04.2022
4438 Clouds 6 1009 70 10000 4.63 320 11:29 03.04.2022
4439 Clouds 9 1010 55 10000 7.72 250 09:39 03.04.2022
4440 Clouds 7 1007 61 10000 5.14 300 08:40 03.04.2022
4441 Clouds 5 1007 71 10000 2.68 293 05:42 03.04.2022
4442 Clouds 6 1007 77 10000 1.34 293 02:53 03.04.2022
4443 Clouds 7 1007 74 10000 2.06 20 23:21 02.04.2022
4444 Clouds 8 1007 68 10000 2.06 0 22:18 02.04.2022
4445 Clouds 8 1007 66 10000 2.06 230 21:47 02.04.2022
4446 Clouds 9 1007 63 10000 2.57 300 21:19 02.04.2022
4447 Clouds 9 1006 65 10000 1.54 0 20:29 02.04.2022
4448 Clouds 9 1005 74 10000 4.02 293 18:23 02.04.2022
4449 Clouds 10 1006 71 10000 4.63 320 17:53 02.04.2022
4450 Clouds 13 1004 58 10000 3.09 0 16:30 02.04.2022
4451 Clouds 11 1002 62 10000 3.09 350 15:23 02.04.2022
4452 Clouds 11 1004 72 10000 8.75 280 14:51 02.04.2022
4453 Clouds 14 1001 47 10000 11.83 220 13:56 02.04.2022
4454 Clouds 17 1003 33 10000 12.35 230 13:19 02.04.2022
4455 Clouds 14 1002 38 10000 2.57 0 11:39 02.04.2022
4456 Clouds 14 1001 47 10000 2.06 0 09:31 02.04.2022
4457 Clouds 9 1000 66 10000 5.66 320 06:56 02.04.2022
4458 Clouds 12 1001 57 10000 8.23 240 03:55 02.04.2022
4459 Clouds 9 1001 86 10000 3.13 270 00:25 02.04.2022
4460 Clouds 9 1001 85 10000 2.57 80 23:45 01.04.2022
4461 Rain 9 1003 83 10000 5.14 250 21:55 01.04.2022
4462 Clouds 11 1001 74 10000 6.17 270 20:54 01.04.2022
4463 Clouds 10 1000 82 10000 2.57 350 20:31 01.04.2022
4464 Clouds 11 1000 82 10000 5.14 240 19:38 01.04.2022
4465 Clear 11 1001 81 10000 1.54 0 18:52 01.04.2022
4466 Clouds 11 1001 79 10000 0.89 23 17:59 01.04.2022
4467 Rain 11 1001 80 10000 3.58 90 17:35 01.04.2022
4468 Rain 11 1001 80 10000 3.58 90 17:35 01.04.2022
4469 Rain 15 1000 68 10000 4.92 315 15:43 01.04.2022
4470 Clouds 17 998 50 10000 25.48 315 14:39 01.04.2022
4471 Clouds 22 1000 36 10000 4.63 340 13:35 01.04.2022
4472 Clouds 19 997 37 8000 3.09 0 12:33 01.04.2022
4473 Clouds 19 998 37 8000 5.14 180 11:44 01.04.2022
4474 Clouds 18 998 42 8000 3.6 20 10:19 01.04.2022
4475 Clouds 17 998 48 8000 3.09 50 09:30 01.04.2022
4476 Clouds 13 998 62 7000 2.57 0 06:55 01.04.2022
4477 Clouds 13 999 62 10000 3.09 30 04:54 01.04.2022
4478 Clouds 13 999 62 10000 3.09 30 04:36 01.04.2022
4479 Clouds 15 1000 55 10000 5.14 50 01:59 01.04.2022
4480 Clouds 13 1004 65 10000 4.63 120 00:44 01.04.2022
4481 Clouds 16 1001 48 10000 1.03 0 21:55 31.03.2022
4482 Clouds 16 1001 48 10000 1.03 0 21:33 31.03.2022
4483 Clouds 17 1001 42 10000 3.09 0 20:30 31.03.2022
4484 Clouds 16 1002 50 10000 4.63 0 19:50 31.03.2022
4485 Clouds 16 1001 47 10000 5.36 135 18:52 31.03.2022
4486 Clouds 18 1001 38 10000 7.15 23 17:54 31.03.2022
4487 Clouds 19 1001 41 10000 5.66 80 16:40 31.03.2022
4488 Clouds 19 1002 44 10000 4.12 20 15:48 31.03.2022
4489 Clouds 19 1003 43 10000 3.6 20 15:20 31.03.2022
4490 Clouds 19 1003 46 10000 4.12 40 14:40 31.03.2022
4491 Clouds 19 1005 43 10000 6.69 130 12:30 31.03.2022
4492 Clouds 18 1003 45 10000 6.69 130 12:30 31.03.2022
4493 Clouds 17 1004 48 10000 7.2 160 11:26 31.03.2022
4494 Clouds 14 1007 57 10000 3.6 210 09:47 31.03.2022
4495 Clouds 13 1006 62 10000 2.68 113 08:20 31.03.2022
4496 Clouds 11 1006 53 10000 5.14 80 05:42 31.03.2022
4497 Clouds 13 1006 50 10000 4.12 50 00:32 31.03.2022
4498 Clouds 15 1007 38 10000 3.6 180 22:44 30.03.2022
4499 Clouds 15 1009 39 10000 2.57 240 21:39 30.03.2022
4500 Clear 15 1009 39 10000 2.57 160 20:54 30.03.2022
4501 Clear 15 1009 40 10000 3.6 150 20:20 30.03.2022
4502 Clear 15 1009 40 10000 3.6 150 20:20 30.03.2022
4503 Clear 15 1009 37 10000 1.54 300 19:28 30.03.2022
4504 Clear 16 1009 34 10000 3.58 0 18:28 30.03.2022
4505 Clear 17 1010 35 10000 4.92 113 17:47 30.03.2022
4506 Clear 18 1009 32 10000 5.14 260 16:57 30.03.2022
4507 Clear 18 1009 31 10000 5.14 260 16:33 30.03.2022
4508 Clear 19 1010 29 10000 1.79 203 15:24 30.03.2022
4509 Clear 21 1012 27 10000 3.6 270 13:42 30.03.2022
4510 Clear 17 1010 34 10000 1.54 0 12:47 30.03.2022
4511 Clear 13 1012 47 10000 1.03 0 10:58 30.03.2022
4512 Clear 11 1012 54 10000 1.54 280 10:23 30.03.2022
4513 Clear 8 1012 66 10000 0 0 09:23 30.03.2022
4514 Clear 12 1015 61 10000 1.03 0 07:32 30.03.2022
4515 Clear 5 1015 74 10000 1.03 90 05:40 30.03.2022
4516 Clouds 3 1013 74 10000 2.06 120 03:39 30.03.2022
4517 Clouds 7 1014 62 10000 1.03 0 00:31 30.03.2022
4518 Clouds 9 1014 58 10000 1.54 150 22:20 29.03.2022
4519 Clouds 9 1014 57 10000 1.03 110 21:44 29.03.2022
4520 Clear 12 1015 48 10000 2.57 20 20:49 29.03.2022
4521 Clouds 12 1015 45 10000 2.57 190 19:47 29.03.2022
4522 Clouds 14 1015 43 10000 4.63 260 18:54 29.03.2022
4523 Clouds 15 1011 38 10000 6.17 250 18:18 29.03.2022
4524 Clouds 16 1015 41 10000 8.23 270 17:21 29.03.2022
4525 Clouds 16 1015 41 10000 8.23 270 17:21 29.03.2022
4526 Clouds 16 1015 41 10000 7.72 270 16:56 29.03.2022
4527 Clouds 17 1012 31 10000 2.57 0 15:57 29.03.2022
4528 Clouds 16 1013 33 10000 3.6 270 14:48 29.03.2022
4529 Clouds 16 1013 33 10000 5.14 270 13:52 29.03.2022
4530 Clouds 16 1014 33 10000 2.06 0 12:46 29.03.2022
4531 Clear 15 1016 41 10000 2.06 120 11:28 29.03.2022
4532 Clear 12 1016 50 10000 0.51 0 10:23 29.03.2022
4533 Clear 9 1017 61 10000 0.51 0 09:20 29.03.2022
4534 Clear 3 1017 81 10000 1.54 0 06:54 29.03.2022
4535 Clouds 8 1021 63 10000 0 0 03:19 29.03.2022
4536 Clouds 10 1022 56 10000 2.06 10 23:49 28.03.2022
4537 Clouds 10 1023 57 10000 1.03 0 22:58 28.03.2022
4538 Clouds 10 1023 57 10000 25.48 315 22:35 28.03.2022
4539 Clouds 11 1023 53 10000 5.14 90 21:48 28.03.2022
4540 Clear 11 1023 49 10000 5.66 80 20:47 28.03.2022
4541 Clear 13 1023 42 10000 5.66 80 19:59 28.03.2022
4542 Clear 13 1023 41 10000 5.66 80 19:40 28.03.2022
4543 Clear 15 1023 32 10000 1.03 0 18:51 28.03.2022
4544 Clear 17 1023 32 10000 2.57 80 18:18 28.03.2022
4545 Clear 17 1021 34 10000 1.54 90 17:28 28.03.2022
4546 Clear 18 1022 32 10000 1.03 0 15:38 28.03.2022
4547 Clear 17 1024 36 10000 0.51 0 14:24 28.03.2022
4548 Clear 16 1025 41 10000 1.54 40 13:26 28.03.2022
4549 Clear 14 1026 47 10000 2.06 0 11:53 28.03.2022
4550 Clear 12 1027 50 10000 2.06 0 10:35 28.03.2022
4551 Clear 8 1028 57 10000 1.54 0 09:21 28.03.2022
4552 Clear 5 1028 70 10000 2.06 160 08:40 28.03.2022
4553 Clear 4 1028 75 10000 1.54 140 08:20 28.03.2022
4554 Clear 0 1027 86 10000 2.57 150 06:55 28.03.2022
4555 Clear 3 1028 65 10000 1.54 90 02:20 28.03.2022
4556 Clear 9 1027 43 10000 2.06 340 22:36 27.03.2022
4557 Clear 9 1026 43 10000 2.06 280 21:47 27.03.2022
4558 Clear 11 1026 37 10000 2.57 300 21:25 27.03.2022
4559 Clear 14 1026 30 10000 3.09 300 20:24 27.03.2022
4560 Clear 14 1025 30 10000 3.6 290 19:37 27.03.2022
4561 Clear 17 1025 23 10000 4.63 290 18:44 27.03.2022
4562 Clear 17 1025 25 10000 5.14 300 18:23 27.03.2022
4563 Clear 17 1025 25 10000 5.14 300 18:23 27.03.2022
4564 Clear 18 1024 25 10000 6.17 300 17:35 27.03.2022
4565 Clear 19 1028 24 10000 5.66 290 15:51 27.03.2022
4566 Clear 18 1025 20 10000 7.72 280 13:58 27.03.2022
4567 Clear 18 1026 22 10000 7.72 280 13:20 27.03.2022
4568 Clear 16 1027 27 10000 8.23 280 11:33 27.03.2022
4569 Clear 8 1028 49 10000 1.54 0 09:37 27.03.2022
4570 Clear 5 1031 67 10000 1.54 110 06:58 27.03.2022
4571 Clear 3 1029 57 10000 2.06 80 03:39 27.03.2022
4572 Clear 8 1030 46 10000 0 0 00:26 27.03.2022
4573 Clear 5 1026 48 10000 1.54 10 22:49 26.03.2022
4574 Clear 6 1026 45 10000 2.06 280 21:54 26.03.2022
4575 Clear 8 1028 43 10000 2.06 290 21:29 26.03.2022
4576 Clear 10 1028 37 10000 2.06 290 19:32 26.03.2022
4577 Clear 13 1024 30 10000 3.09 300 18:40 26.03.2022
4578 Clear 15 1024 23 10000 4.63 300 17:34 26.03.2022
4579 Clear 16 1024 21 10000 5.66 290 16:33 26.03.2022
4580 Clear 17 1024 20 10000 6.17 280 15:37 26.03.2022
4581 Clear 17 1029 25 10000 5.14 280 13:55 26.03.2022
4582 Clear 15 1026 29 10000 2.57 200 13:19 26.03.2022
4583 Clear 13 1027 30 10000 4.12 310 11:42 26.03.2022
4584 Clear 12 1028 28 10000 1.03 0 10:44 26.03.2022
4585 Clear 6 1028 52 10000 1.03 0 08:46 26.03.2022
4586 Clear 8 1031 51 10000 1.03 90 06:37 26.03.2022
4587 Clear -2 1027 80 10000 1.54 160 05:29 26.03.2022
4588 Clouds 3 1028 51 10000 1.03 0 00:41 26.03.2022
4589 Clouds 9 1027 35 10000 2.06 20 21:58 25.03.2022
4590 Clouds 10 1026 30 10000 5.14 300 20:47 25.03.2022
4591 Clouds 10 1025 29 10000 5.14 280 20:20 25.03.2022
4592 Clear 12 1022 24 10000 6.17 300 18:51 25.03.2022
4593 Clear 14 1020 18 10000 8.23 290 17:53 25.03.2022
4594 Clear 14 1020 18 10000 9.26 290 17:27 25.03.2022
4595 Clear 16 1019 13 10000 10.29 280 16:19 25.03.2022
4596 Clear 17 1019 15 10000 9.77 280 14:49 25.03.2022
4597 Clear 17 1019 19 10000 7.72 290 13:24 25.03.2022
4598 Clear 16 1020 21 10000 9.26 280 10:35 25.03.2022
4599 Clear 13 1020 26 10000 8.23 290 09:28 25.03.2022
4600 Clear 12 1020 28 10000 3.09 310 08:24 25.03.2022
4601 Clear 2 1020 60 10000 0 0 07:28 25.03.2022
4602 Clear 0 1020 64 10000 0.51 0 06:29 25.03.2022
4603 Clear 6 1020 39 10000 5.14 300 01:32 25.03.2022
4604 Clear 8 1021 34 10000 2.06 30 22:53 24.03.2022
4605 Clear 8 1021 31 10000 2.57 250 21:52 24.03.2022
4606 Clear 9 1021 31 10000 3.09 310 20:37 24.03.2022
4607 Clear 13 1020 24 10000 3.09 310 19:47 24.03.2022
4608 Clear 16 1019 20 10000 5.66 290 17:48 24.03.2022
4609 Clear 17 1019 19 10000 7.2 290 17:19 24.03.2022
4610 Clear 18 1020 11 10000 4.63 340 15:45 24.03.2022
4611 Clear 19 1020 9 10000 5.14 350 14:50 24.03.2022
4612 Clear 19 1021 10 10000 6.17 300 14:18 24.03.2022
4613 Clear 17 1021 17 10000 3.09 320 13:23 24.03.2022
4614 Clear 15 1023 23 10000 4.12 280 11:47 24.03.2022
4615 Clear 8 1024 42 10000 2.06 310 09:55 24.03.2022
4616 Clear 4 1025 56 10000 1.03 0 08:42 24.03.2022
4617 Clear 8 1028 55 10000 1.54 120 06:49 24.03.2022
4618 Clear -2 1027 71 10000 1.54 80 02:24 24.03.2022
4619 Clear 1 1029 63 8000 1.54 230 23:20 23.03.2022
4620 Clear 1 1029 63 8000 1.54 230 23:20 23.03.2022
4621 Clear 2 1029 52 8000 1.03 0 21:27 23.03.2022
4622 Clear 4 1029 46 10000 1.54 250 20:59 23.03.2022
4623 Clear 5 1031 43 10000 1.54 330 19:46 23.03.2022
4624 Clear 7 1031 39 10000 2.06 30 18:45 23.03.2022
4625 Clear 9 1027 29 10000 3.6 70 17:36 23.03.2022
4626 Clear 10 1027 25 10000 6.17 50 16:33 23.03.2022
4627 Clouds 11 1030 35 10000 3.09 80 14:51 23.03.2022
4628 Clouds 10 1030 35 10000 4.92 113 14:24 23.03.2022
4629 Clouds 10 1028 37 10000 4.63 60 12:45 23.03.2022
4630 Clouds 9 1033 42 10000 3.6 60 09:38 23.03.2022
4631 Clouds 4 1031 58 10000 3.58 90 06:41 23.03.2022
4632 Clear 2 1031 53 10000 4.12 50 04:31 23.03.2022
4633 Clear 6 1029 39 10000 7.72 70 00:29 23.03.2022
4634 Clouds 6 1032 50 10000 4.12 80 22:33 22.03.2022
4635 Clear 6 1032 48 10000 1.03 0 21:29 22.03.2022
4636 Clouds 6 1028 45 10000 2.06 100 20:39 22.03.2022
4637 Clouds 9 1031 43 10000 4.63 60 19:39 22.03.2022
4638 Clouds 9 1031 42 10000 6.17 50 19:18 22.03.2022
4639 Clouds 11 1027 32 10000 5.66 40 17:58 22.03.2022
4640 Clouds 11 1026 32 10000 4.12 20 17:25 22.03.2022
4641 Clouds 11 1030 35 10000 6.69 10 15:54 22.03.2022
4642 Clouds 11 1029 32 10000 5.66 30 15:22 22.03.2022
4643 Clouds 12 1031 34 10000 7.2 50 14:46 22.03.2022
4644 Clouds 12 1029 32 10000 5.14 50 14:26 22.03.2022
4645 Clouds 12 1031 37 10000 5.66 70 12:55 22.03.2022
4646 Clouds 11 1033 43 10000 3.6 50 11:48 22.03.2022
4647 Clouds 8 1033 42 10000 3.6 40 10:35 22.03.2022
4648 Clouds 0 1031 59 8000 1.54 0 07:57 22.03.2022
4649 Clouds -3 1033 74 8000 2.06 220 05:20 22.03.2022
4650 Clouds -2 1034 69 8000 1.54 80 03:41 22.03.2022
4651 Clouds -2 1034 69 8000 0 0 23:49 21.03.2022
4652 Clear 0 1034 56 10000 1.54 340 21:58 21.03.2022
4653 Clear 2 1034 47 10000 3.09 350 20:45 21.03.2022
4654 Clear 3 1034 44 10000 2.57 350 20:26 21.03.2022
4655 Clear 2 1034 48 10000 1.54 310 19:53 21.03.2022
4656 Clear 3 1034 44 10000 2.06 40 19:23 21.03.2022
4657 Clear 5 1035 40 10000 5.36 113 17:45 21.03.2022
4658 Clear 5 1032 36 10000 7.2 50 17:18 21.03.2022
4659 Clear 6 1031 33 10000 6.17 40 16:39 21.03.2022
4660 Clear 6 1035 35 10000 7.2 30 15:47 21.03.2022
4661 Clouds 7 1035 34 10000 6.69 60 14:51 21.03.2022
4662 Clouds 7 1035 32 10000 6.17 60 13:43 21.03.2022
4663 Clouds 7 1033 31 10000 6.17 40 12:33 21.03.2022
4664 Clouds 6 1033 33 10000 7.2 60 11:43 21.03.2022
4665 Clouds 6 1037 35 10000 7.2 50 10:20 21.03.2022
4666 Clouds -1 1035 64 10000 1.54 290 08:26 21.03.2022
4667 Clouds -7 1034 79 8000 1.03 0 06:31 21.03.2022
4668 Clear -4 1036 68 10000 2.06 100 02:33 21.03.2022
4669 Clear -3 1038 61 10000 0 0 23:32 20.03.2022
4670 Clear -2 1038 53 10000 1.03 170 22:42 20.03.2022
4671 Clear -1 1038 50 10000 1.54 170 21:49 20.03.2022
4672 Clear 0 1039 46 10000 2.06 120 20:59 20.03.2022
4673 Clear 0 1039 46 10000 2.06 120 20:59 20.03.2022
4674 Clear 0 1039 46 10000 2.24 113 20:39 20.03.2022
4675 Clear 0 1039 45 10000 4.12 60 19:56 20.03.2022
4676 Clear 1 1039 42 10000 3.6 50 19:25 20.03.2022
4677 Clear 2 1039 36 10000 4.12 40 17:50 20.03.2022
4678 Clear 4 1038 33 10000 4.63 40 17:28 20.03.2022
4679 Clear 5 1035 26 10000 5.66 50 16:41 20.03.2022
4680 Clear 6 1039 33 10000 3.6 50 14:54 20.03.2022
4681 Clear 6 1039 32 10000 3.6 0 13:46 20.03.2022
4682 Clear 4 1037 30 10000 3.09 110 12:21 20.03.2022
4683 Clear 3 1038 32 10000 4.63 100 10:39 20.03.2022
4684 Clear 1 1041 48 10000 2.68 113 08:35 20.03.2022
4685 Clear -6 1039 79 10000 0 0 06:40 20.03.2022
4686 Clear -7 1040 74 10000 1.03 0 03:27 20.03.2022
4687 Clear -5 1040 67 10000 2.57 90 00:54 20.03.2022
4688 Clear -5 1040 67 10000 2.57 90 00:35 20.03.2022
4689 Clear -3 1040 60 10000 3.09 140 22:42 19.03.2022
4690 Clear -3 1040 61 10000 2.24 113 21:27 19.03.2022
4691 Clouds -2 1040 55 10000 1.54 0 19:42 19.03.2022
4692 Clear -1 1039 54 10000 2.06 50 18:44 19.03.2022
4693 Clear 0 1040 50 10000 5.66 50 17:55 19.03.2022
4694 Clear 1 1039 47 10000 5.66 50 17:33 19.03.2022
4695 Clouds 3 1039 42 10000 5.14 40 15:41 19.03.2022
4696 Clouds 3 1038 40 10000 4.12 40 14:21 19.03.2022
4697 Clouds 4 1038 37 10000 5.14 50 12:56 19.03.2022
4698 Clouds 4 1038 36 10000 5.14 50 12:37 19.03.2022
4699 Clouds 4 1039 37 10000 4.63 60 11:46 19.03.2022
4700 Clouds 1 1038 51 10000 1.54 90 09:31 19.03.2022
4701 Clear -7 1037 86 10000 0 0 05:44 19.03.2022
4702 Clear -6 1038 79 10000 0 0 02:34 19.03.2022
4703 Clear -4 1040 70 10000 2.57 90 00:54 19.03.2022
4704 Clear -3 1040 62 10000 1.54 110 23:19 18.03.2022
4705 Clear -2 1040 59 10000 2.06 150 22:22 18.03.2022
4706 Clear -2 1040 59 10000 2.06 150 22:22 18.03.2022
4707 Clear -2 1041 57 10000 3.6 160 20:40 18.03.2022
4708 Clear -1 1040 57 10000 2.06 150 19:45 18.03.2022
4709 Clear -1 1040 56 10000 2.06 170 19:18 18.03.2022
4710 Clear 4 1040 41 10000 5.66 60 16:59 18.03.2022
4711 Clear 3 1036 38 10000 5.66 60 16:34 18.03.2022
4712 Clouds 4 1038 40 10000 5.14 30 14:29 18.03.2022
4713 Clouds 5 1039 43 10000 5.14 40 13:41 18.03.2022
4714 Clouds 3 1037 48 10000 4.63 80 11:43 18.03.2022
4715 Clouds 2 1037 51 10000 4.12 130 10:27 18.03.2022
4716 Clouds 2 1039 64 10000 5.66 100 08:50 18.03.2022
4717 Clouds 0 1038 78 10000 5.14 90 07:26 18.03.2022
4718 Clouds 0 1038 84 10000 4.63 100 05:20 18.03.2022
4719 Clouds 1 1035 85 10000 4.02 90 01:51 18.03.2022
4720 Clouds 1 1035 87 10000 4.63 90 00:20 18.03.2022
4721 Clouds 1 1035 85 10000 2.68 90 22:50 17.03.2022
4722 Clouds 1 1034 85 10000 1.03 0 22:19 17.03.2022
4723 Clouds 1 1034 85 10000 2.68 113 21:31 17.03.2022
4724 Clouds 1 1034 85 10000 4.02 90 20:54 17.03.2022
4725 Clouds 1 1033 85 10000 2.24 135 20:20 17.03.2022
4726 Clouds 1 1033 86 10000 4.47 113 19:38 17.03.2022
4727 Clouds 1 1033 88 10000 0.45 113 18:53 17.03.2022
4728 Clouds 2 1032 89 8000 1.79 90 17:40 17.03.2022
4729 Clouds 2 1031 88 10000 3.6 50 16:20 17.03.2022
4730 Clouds 2 1031 86 10000 4.02 90 15:43 17.03.2022
4731 Clouds 4 1031 79 10000 4.63 120 14:59 17.03.2022
4732 Clouds 4 1030 81 10000 3.6 140 13:45 17.03.2022
4733 Clouds 3 1030 85 10000 3.13 113 12:46 17.03.2022
4734 Clouds 4 1030 82 10000 1.03 0 11:33 17.03.2022
4735 Clouds 3 1030 86 10000 1.54 270 10:43 17.03.2022
4736 Clouds 3 1030 87 10000 0.51 0 09:36 17.03.2022
4737 Rain 2 1029 90 8000 1.03 0 08:19 17.03.2022
4738 Clouds 3 1027 82 10000 3.58 90 05:51 17.03.2022
4739 Clouds 4 1026 83 10000 2.57 280 04:30 17.03.2022
4740 Clouds 6 1025 82 10000 1.54 330 00:25 17.03.2022
4741 Clouds 6 1025 82 10000 3.6 280 22:52 16.03.2022
4742 Clouds 6 1025 82 10000 3.6 280 22:34 16.03.2022
4743 Clouds 6 1025 83 10000 3.09 300 21:55 16.03.2022
4744 Clouds 5 1024 83 8000 2.57 280 20:40 16.03.2022
4745 Clouds 6 1024 83 8000 2.68 0 19:23 16.03.2022
4746 Clouds 6 1024 80 8000 2.68 293 18:42 16.03.2022
4747 Clouds 8 1024 61 10000 1.54 270 17:46 16.03.2022
4748 Clouds 8 1024 57 10000 1.54 210 17:28 16.03.2022
4749 Clouds 9 1023 50 10000 2.06 120 15:56 16.03.2022
4750 Clouds 9 1023 47 10000 2.57 80 14:38 16.03.2022
4751 Clouds 10 1023 44 10000 2.24 113 13:35 16.03.2022
4752 Clouds 9 1024 47 10000 1.03 0 12:18 16.03.2022
4753 Clouds 8 1025 45 10000 0.51 0 11:23 16.03.2022
4754 Clouds 7 1025 50 10000 1.54 70 10:28 16.03.2022
4755 Clouds 8 1026 52 10000 1.03 0 09:56 16.03.2022
4756 Clouds 2 1026 72 8000 2.57 110 07:23 16.03.2022
4757 Clear 2 1028 68 10000 2.06 150 02:44 16.03.2022
4758 Clear 3 1030 56 10000 2.57 130 22:54 15.03.2022
4759 Clear 3 1030 56 10000 2.57 130 22:33 15.03.2022
4760 Clouds 3 1029 60 8000 1.03 0 20:51 15.03.2022
4761 Clear 6 1029 49 10000 1.54 280 19:34 15.03.2022
4762 Clear 11 1029 30 10000 1.54 260 17:41 15.03.2022
4763 Clear 12 1029 24 10000 2.57 290 16:34 15.03.2022
4764 Clear 13 1030 21 10000 2.57 260 15:28 15.03.2022
4765 Clear 12 1030 22 10000 2.06 320 14:47 15.03.2022
4766 Clear 11 1031 28 10000 3.09 290 13:55 15.03.2022
4767 Clear 11 1032 28 10000 2.06 280 13:20 15.03.2022
4768 Clear 8 1033 39 10000 2.06 340 11:32 15.03.2022
4769 Clear 5 1035 48 10000 1.03 0 10:21 15.03.2022
4770 Clouds 0 1035 69 8000 0.51 0 08:50 15.03.2022
4771 Clouds -3 1035 86 7000 1.54 10 07:53 15.03.2022
4772 Clouds -3 1035 86 7000 1.54 10 07:35 15.03.2022
4773 Clear -7 1035 86 8000 0 0 05:42 15.03.2022
4774 Clear -3 1037 77 10000 0 0 23:58 14.03.2022
4775 Clear -2 1037 75 10000 1.54 170 23:25 14.03.2022
4776 Clear -2 1037 72 10000 1.54 160 22:30 14.03.2022
4777 Clear -2 1036 72 10000 2.06 90 21:35 14.03.2022
4778 Clear -1 1036 71 10000 1.54 100 20:54 14.03.2022
4779 Clear 0 1037 64 10000 1.03 0 20:20 14.03.2022
4780 Clear 2 1037 55 10000 2.06 110 18:55 14.03.2022
4781 Clear 3 1036 49 10000 2.57 50 17:54 14.03.2022
4782 Clear 5 1036 43 10000 2.57 60 17:23 14.03.2022
4783 Clear 8 1035 38 10000 2.68 90 15:56 14.03.2022
4784 Clear 7 1035 37 10000 1.54 0 14:40 14.03.2022
4785 Clear 6 1033 36 10000 1.03 0 12:29 14.03.2022
4786 Clear 4 1033 41 10000 1.03 0 10:54 14.03.2022
4787 Clear 1 1034 51 8000 1.03 0 09:52 14.03.2022
4788 Clear 0 1034 55 8000 0.51 0 09:22 14.03.2022
4789 Clear -1 1034 64 8000 1.03 0 08:55 14.03.2022
4790 Clear -4 1033 74 8000 1.03 0 07:32 14.03.2022
4791 Clear -7 1032 86 10000 1.03 0 05:45 14.03.2022
4792 Clear -6 1032 81 10000 1.54 90 01:55 14.03.2022
4793 Clear -5 1031 77 10000 0.51 0 01:24 14.03.2022
4794 Clear -3 1031 70 10000 2.06 80 22:43 13.03.2022
4795 Clear -1 1030 54 10000 1.54 210 21:29 13.03.2022
4796 Clear -2 1030 59 10000 2.57 190 20:55 13.03.2022
4797 Clear -2 1029 60 10000 2.06 140 20:30 13.03.2022
4798 Clear -2 1031 55 10000 2.06 90 19:49 13.03.2022
4799 Clear 0 1030 52 10000 2.06 80 19:28 13.03.2022
4800 Clear 0 1029 51 10000 1.54 140 18:59 13.03.2022
4801 Clear 1 1029 44 10000 1.54 140 18:31 13.03.2022
4802 Clouds 2 1029 38 10000 2.06 110 17:41 13.03.2022
4803 Clouds 4 1028 33 10000 2.68 0 16:57 13.03.2022
4804 Clouds 5 1027 30 10000 1.54 80 16:29 13.03.2022
4805 Clouds 5 1025 24 10000 1.03 0 15:44 13.03.2022
4806 Clouds 5 1025 22 10000 2.06 280 14:51 13.03.2022
4807 Clouds 4 1025 26 10000 3.09 300 13:43 13.03.2022
4808 Clouds 3 1025 38 10000 1.54 260 12:38 13.03.2022
4809 Clouds 2 1026 44 10000 1.03 0 11:51 13.03.2022
4810 Clear 0 1026 47 10000 1.54 0 11:31 13.03.2022
4811 Clear 0 1026 47 10000 1.54 0 11:31 13.03.2022
4812 Clear -1 1026 59 10000 1.03 0 10:46 13.03.2022
4813 Clear -3 1027 59 10000 1.03 0 09:59 13.03.2022
4814 Clear -3 1027 59 10000 1.03 0 09:40 13.03.2022
4815 Clear -4 1027 68 10000 1.03 0 08:45 13.03.2022
4816 Clear -1 1030 72 10000 0 0 07:40 13.03.2022
4817 Clear -8 1029 84 10000 0 0 05:40 13.03.2022
4818 Clear -8 1028 79 10000 0.51 0 02:27 13.03.2022
4819 Clear -7 1030 74 10000 2.06 210 23:31 12.03.2022
4820 Clear -5 1030 68 10000 1.54 120 21:49 12.03.2022
4821 Clear -4 1031 62 10000 2.06 170 20:29 12.03.2022
4822 Clear -4 1031 60 10000 2.06 170 19:47 12.03.2022
4823 Clear -3 1031 58 10000 2.06 110 18:55 12.03.2022
4824 Clear -3 1031 55 10000 2.06 90 18:21 12.03.2022
4825 Clouds -1 1029 50 10000 2.24 135 17:23 12.03.2022
4826 Clouds 0 1030 47 10000 1.03 0 16:23 12.03.2022
4827 Clouds 0 1030 47 10000 3.13 90 15:22 12.03.2022
4828 Clouds -2 1028 54 10000 2.57 50 13:55 12.03.2022
4829 Clouds -1 1028 51 10000 2.57 160 12:33 12.03.2022
4830 Clouds -2 1029 54 10000 3.6 50 11:55 12.03.2022
4831 Clouds -2 1029 59 10000 1.54 0 11:34 12.03.2022
4832 Clouds -3 1029 59 10000 3.6 260 10:32 12.03.2022
4833 Clouds -4 1029 63 10000 2.06 360 09:44 12.03.2022
4834 Clouds -4 1028 74 10000 1.54 20 08:24 12.03.2022
4835 Fog -5 1029 88 8000 0 0 06:44 12.03.2022
4836 Clouds -4 1027 75 10000 2.57 90 00:55 12.03.2022
4837 Clouds -4 1027 78 10000 3.09 260 23:46 11.03.2022
4838 Clouds -3 1028 69 10000 1.79 293 22:36 11.03.2022
4839 Clouds -3 1027 62 10000 2.68 293 21:24 11.03.2022
4840 Clouds -3 1027 62 10000 2.68 293 21:24 11.03.2022
4841 Clouds -3 1027 60 10000 2.06 340 20:47 11.03.2022
4842 Clouds -3 1027 58 10000 1.54 330 20:26 11.03.2022
4843 Clouds -2 1028 58 10000 2.06 360 19:33 11.03.2022
4844 Clouds -2 1027 65 10000 2.06 340 18:33 11.03.2022
4845 Clouds -1 1026 56 10000 2.24 293 17:26 11.03.2022
4846 Clouds 0 1026 48 10000 3.09 340 16:25 11.03.2022
4847 Clouds 0 1026 45 10000 3.09 50 15:36 11.03.2022
4848 Clouds 1 1026 42 10000 5.14 340 13:42 11.03.2022
4849 Clouds 0 1027 50 10000 1.54 190 12:39 11.03.2022
4850 Clouds 0 1027 50 10000 2.06 260 12:19 11.03.2022
4851 Clouds -2 1025 54 10000 2.06 0 10:53 11.03.2022
4852 Clouds -4 1025 63 10000 1.03 0 09:35 11.03.2022
4853 Clouds -5 1025 68 10000 1.54 210 08:28 11.03.2022
4854 Clouds -4 1027 75 10000 1.54 220 07:48 11.03.2022
4855 Clouds -8 1027 82 10000 1.54 140 06:42 11.03.2022
4856 Clear -8 1026 80 10000 1.54 190 04:37 11.03.2022
4857 Clouds -6 1026 74 10000 2.06 180 01:29 11.03.2022
4858 Clouds -4 1026 70 8000 2.06 230 22:32 10.03.2022
4859 Clouds -5 1026 72 10000 1.03 0 21:53 10.03.2022
4860 Clouds -4 1026 69 10000 1.54 80 21:24 10.03.2022
4861 Clouds -4 1027 70 10000 0.51 0 20:34 10.03.2022
4862 Clouds -3 1027 69 10000 1.54 40 19:20 10.03.2022
4863 Clouds -2 1026 63 10000 5.66 60 17:50 10.03.2022
4864 Clouds 0 1025 55 10000 3.6 40 16:52 10.03.2022
4865 Clouds 1 1025 45 10000 5.14 50 15:27 10.03.2022
4866 Clouds 1 1023 49 10000 4.63 30 13:41 10.03.2022
4867 Clouds 1 1024 45 10000 5.14 50 12:38 10.03.2022
4868 Clouds 0 1021 43 10000 4.12 30 11:28 10.03.2022
4869 Clouds -3 1021 59 10000 0.51 0 09:28 10.03.2022
4870 Clear -3 1020 68 10000 0.51 0 07:47 10.03.2022
4871 Clouds -5 1020 78 10000 3.09 10 05:30 10.03.2022
4872 Clouds -3 1021 86 10000 2.06 300 01:56 10.03.2022
4873 Clouds -3 1020 89 1100 2.06 330 23:30 09.03.2022
4874 Clouds -2 1021 74 10000 3.09 270 21:56 09.03.2022
4875 Clouds -2 1021 74 10000 3.13 293 21:36 09.03.2022
4876 Clouds -2 1021 80 10000 3.6 280 19:56 09.03.2022
4877 Clouds -2 1019 84 10000 5.14 270 18:34 09.03.2022
4878 Clouds 0 1019 76 10000 6.17 270 17:27 09.03.2022
4879 Clouds 0 1018 75 10000 6.17 270 16:34 09.03.2022
4880 Clouds 2 1018 63 10000 6.26 0 15:31 09.03.2022
4881 Clouds 2 1017 51 10000 3.6 290 13:54 09.03.2022
4882 Clouds 2 1015 51 10000 4.12 300 12:48 09.03.2022
4883 Clouds 2 1016 55 10000 4.63 280 12:18 09.03.2022
4884 Clouds 1 1016 64 10000 3.6 280 11:35 09.03.2022
4885 Clouds 0 1016 64 10000 3.6 290 10:38 09.03.2022
4886 Clouds -1 1018 70 8000 3.6 300 08:59 09.03.2022
4887 Clouds -3 1016 74 8000 3.6 280 08:23 09.03.2022
4888 Clouds -3 1019 80 8000 3.6 280 02:59 09.03.2022
4889 Clouds -2 1019 78 8000 4.63 270 00:46 09.03.2022
4890 Clouds -2 1018 76 10000 3.09 280 22:48 08.03.2022
4891 Clouds -2 1018 76 10000 3.09 280 22:27 08.03.2022
4892 Clouds -2 1018 77 10000 3.6 280 21:23 08.03.2022
4893 Clouds -2 1019 79 10000 4.47 293 20:42 08.03.2022
4894 Clouds -2 1019 77 10000 3.6 300 19:42 08.03.2022
4895 Clouds -2 1019 77 10000 3.6 300 19:42 08.03.2022
4896 Clouds -2 1019 79 8000 3.6 280 18:44 08.03.2022
4897 Clouds 1 1019 72 8000 3.09 310 17:32 08.03.2022
4898 Clouds 1 1017 75 10000 3.6 300 15:56 08.03.2022
4899 Snow 2 1017 72 8000 2.57 280 14:19 08.03.2022
4900 Clouds 3 1018 67 8000 3.09 280 12:43 08.03.2022
4901 Clouds 2 1019 71 7000 4.63 280 11:45 08.03.2022
4902 Clouds 0 1017 78 8000 5.66 280 10:48 08.03.2022
4903 Clouds 0 1017 79 10000 4.92 293 09:51 08.03.2022
4904 Clouds -1 1016 87 8000 2.06 290 06:59 08.03.2022
4905 Clouds -1 1016 87 10000 2.57 270 04:52 08.03.2022
4906 Clouds -1 1016 91 3000 2.57 280 23:51 07.03.2022
4907 Clouds 0 1016 86 10000 3.13 293 21:57 07.03.2022
4908 Clouds 0 1016 86 10000 3.09 290 21:32 07.03.2022
4909 Clouds 0 1016 87 10000 3.6 280 20:46 07.03.2022
4910 Clouds 0 1016 85 10000 4.12 280 19:55 07.03.2022
4911 Clouds 1 1017 78 10000 3.6 280 19:31 07.03.2022
4912 Clouds 1 1016 81 10000 3.6 280 18:42 07.03.2022
4913 Clouds 1 1015 82 10000 3.6 290 17:47 07.03.2022
4914 Clouds 2 1015 79 10000 4.12 290 16:55 07.03.2022
4915 Clouds 2 1015 81 10000 3.6 300 15:35 07.03.2022
4916 Clouds 2 1015 80 10000 2.57 300 13:24 07.03.2022
4917 Clouds 3 1015 81 10000 2.06 260 12:23 07.03.2022
4918 Clouds 2 1016 82 10000 0 0 10:38 07.03.2022
4919 Clouds 2 1016 82 10000 0 0 10:38 07.03.2022
4920 Clouds 2 1015 86 8000 1.54 140 08:48 07.03.2022
4921 Clouds 0 1015 92 10000 4.12 90 03:49 07.03.2022
4922 Clouds 1 1015 88 8000 4.63 100 00:22 07.03.2022
4923 Clouds 1 1016 88 10000 5.66 110 23:31 06.03.2022
4924 Clouds 1 1016 88 6000 6.17 120 22:37 06.03.2022
4925 Clouds 1 1016 89 8000 6.71 90 21:46 06.03.2022
4926 Clouds 1 1016 89 10000 4.63 90 20:30 06.03.2022
4927 Mist 1 1016 90 3700 4.63 90 19:51 06.03.2022
4928 Clouds 1 1017 88 6000 4.12 90 18:51 06.03.2022
4929 Clouds 1 1017 88 2000 4.63 100 17:57 06.03.2022
4930 Clouds 1 1016 91 2200 4.92 90 17:21 06.03.2022
4931 Clouds 1 1016 92 2800 5.36 90 16:41 06.03.2022
4932 Clouds 1 1015 92 1200 4.63 110 15:45 06.03.2022
4933 Clouds 0 1015 94 1800 5.14 120 14:49 06.03.2022
4934 Clouds 1 1015 94 1700 4.63 120 14:30 06.03.2022
4935 Clouds 1 1015 88 1500 6.17 130 12:44 06.03.2022
4936 Clouds 2 1016 86 5000 7.72 120 11:56 06.03.2022
4937 Clouds 2 1015 91 7000 8.23 110 10:52 06.03.2022
4938 Snow 1 1016 90 5000 6.69 110 09:43 06.03.2022
4939 Clouds 1 1015 89 2300 7.2 110 08:29 06.03.2022
4940 Clouds 1 1015 91 7000 6.17 120 07:34 06.03.2022
4941 Clouds 1 1016 89 10000 6.17 100 04:45 06.03.2022
4942 Clouds 1 1015 90 8000 7.2 100 00:42 06.03.2022
4943 Clouds 2 1015 88 8000 6.69 100 00:23 06.03.2022
4944 Clouds 2 1016 88 9000 5.14 110 23:19 05.03.2022
4945 Clouds 2 1016 87 10000 4.63 120 22:42 05.03.2022
4946 Drizzle 2 1016 86 8000 4.63 120 21:36 05.03.2022
4947 Clouds 2 1016 86 8000 4.92 113 20:57 05.03.2022
4948 Clouds 2 1016 86 7000 4.12 130 19:23 05.03.2022
4949 Clouds 2 1016 85 7000 3.6 160 18:50 05.03.2022
4950 Mist 2 1016 83 3800 1.79 113 17:39 05.03.2022
4951 Clouds 2 1016 82 8000 3.09 90 16:20 05.03.2022
4952 Clouds 3 1016 81 7000 4.63 90 15:30 05.03.2022
4953 Clouds 4 1016 72 6000 5.14 90 14:37 05.03.2022
4954 Clouds 4 1016 70 10000 4.12 120 13:46 05.03.2022
4955 Clouds 5 1016 64 10000 4.63 120 12:46 05.03.2022
4956 Clouds 6 1016 55 8000 2.57 80 11:21 05.03.2022
4957 Clouds 4 1017 58 8000 1.54 110 10:53 05.03.2022
4958 Clouds 4 1017 52 8000 0.51 0 09:37 05.03.2022
4959 Clouds 2 1017 70 7000 0 0 08:31 05.03.2022
4960 Clouds -1 1017 81 7000 0 0 07:23 05.03.2022
4961 Clouds -1 1017 81 7000 0 0 07:23 05.03.2022
4962 Clouds -1 1016 71 10000 0 0 05:39 05.03.2022
4963 Clear -1 1016 65 10000 2.57 290 00:51 05.03.2022
4964 Clear -1 1016 71 10000 0 0 23:20 04.03.2022
4965 Clear 0 1016 61 10000 1.03 0 22:39 04.03.2022
4966 Clear 1 1016 58 10000 2.57 300 21:43 04.03.2022
4967 Clear 2 1015 52 10000 1.03 310 20:45 04.03.2022
4968 Clouds 3 1015 57 10000 1.34 293 19:38 04.03.2022
4969 Clear 3 1014 60 10000 2.06 250 18:58 04.03.2022
4970 Clear 2 1016 64 10000 2.06 250 18:35 04.03.2022
4971 Clouds 5 1014 46 10000 3.09 260 17:29 04.03.2022
4972 Clouds 8 1014 41 10000 4.63 280 15:58 04.03.2022
4973 Clouds 8 1014 39 10000 3.6 350 15:27 04.03.2022
4974 Clouds 8 1014 42 10000 3.09 300 13:36 04.03.2022
4975 Clear 7 1013 43 10000 1.03 0 12:48 04.03.2022
4976 Clear 4 1013 56 10000 1.54 0 11:37 04.03.2022
4977 Clear 1 1014 64 10000 1.03 0 10:26 04.03.2022
4978 Clear 2 1016 67 10000 1.54 170 09:28 04.03.2022
4979 Clouds 1 1017 70 7000 1.03 0 07:49 04.03.2022
4980 Clouds -3 1015 81 7000 1.03 0 06:26 04.03.2022
4981 Clouds -2 1015 79 6000 0 0 02:26 04.03.2022
4982 Clouds -3 1015 86 7000 0.51 0 23:41 03.03.2022
4983 Clouds -1 1016 75 9000 1.54 100 22:18 03.03.2022
4984 Clouds 0 1017 67 10000 1.54 150 21:36 03.03.2022
4985 Clear 1 1017 63 10000 1.79 293 20:48 03.03.2022
4986 Clouds 3 1014 56 10000 3.09 260 19:29 03.03.2022
4987 Clouds 3 1013 56 10000 4.12 270 18:26 03.03.2022
4988 Clouds 3 1013 56 10000 4.12 270 17:31 03.03.2022
4989 Clouds 4 1016 56 10000 7.72 260 16:41 03.03.2022
4990 Clouds 5 1015 53 10000 7.72 270 15:44 03.03.2022
4991 Clouds 6 1016 52 10000 7.72 270 14:45 03.03.2022
4992 Clouds 5 1015 54 10000 7.72 270 14:27 03.03.2022
4993 Clouds 4 1015 56 10000 7.72 270 12:35 03.03.2022
4994 Clouds 4 1016 58 10000 7.2 280 11:26 03.03.2022
4995 Clouds 4 1016 58 10000 7.72 280 10:38 03.03.2022
4996 Clouds 2 1016 66 10000 6.69 280 08:43 03.03.2022
4997 Clouds 0 1016 77 8000 5.14 290 06:58 03.03.2022
4998 Clouds 0 1017 76 10000 6.17 280 05:44 03.03.2022
4999 Clouds 1 1018 73 10000 5.66 280 00:30 03.03.2022
5000 Clouds 0 1018 73 10000 5.66 280 23:18 02.03.2022
5001 Clouds 0 1018 73 10000 5.66 280 22:42 02.03.2022
5002 Clouds 1 1019 69 10000 5.66 280 21:22 02.03.2022
5003 Clouds 1 1019 68 10000 5.14 280 20:30 02.03.2022
5004 Clouds 1 1019 68 10000 5.14 280 20:30 02.03.2022
5005 Clouds 1 1019 67 10000 5.14 280 19:43 02.03.2022
5006 Clouds 1 1017 66 10000 5.14 280 19:24 02.03.2022
5007 Clouds 1 1018 66 10000 5.66 280 18:39 02.03.2022
5008 Clouds 2 1019 66 10000 5.66 280 17:45 02.03.2022
5009 Clouds 2 1017 59 10000 5.14 280 16:54 02.03.2022
5010 Clouds 3 1017 56 10000 5.66 280 16:25 02.03.2022
5011 Clouds 4 1017 55 10000 5.14 270 14:39 02.03.2022
5012 Clouds 3 1016 56 10000 4.63 290 13:18 02.03.2022
5013 Clouds 2 1017 60 10000 5.14 270 12:39 02.03.2022
5014 Clouds 1 1018 75 10000 3.6 300 11:28 02.03.2022
5015 Clouds 1 1018 75 10000 3.09 280 10:58 02.03.2022
5016 Clouds 0 1021 79 10000 2.06 300 09:40 02.03.2022
5017 Clouds 1 1021 72 10000 2.24 293 08:45 02.03.2022
5018 Clouds 0 1023 79 10000 2.06 330 07:25 02.03.2022
5019 Clouds -2 1023 78 10000 2.68 293 05:42 02.03.2022
5020 Clouds 0 1024 76 10000 2.06 290 00:51 02.03.2022
5021 Clouds 0 1025 76 10000 1.54 320 23:40 01.03.2022
5022 Clouds 0 1025 75 10000 1.03 0 22:42 01.03.2022
5023 Clouds 0 1025 72 10000 1.03 210 21:55 01.03.2022
5024 Clouds 0 1025 72 10000 0 0 20:44 01.03.2022
5025 Clouds 0 1025 72 10000 0 0 20:22 01.03.2022
5026 Clouds 0 1025 69 10000 2.06 50 18:59 01.03.2022
5027 Clouds 1 1025 68 10000 2.06 40 18:26 01.03.2022
5028 Clouds 1 1025 70 10000 0 0 17:55 01.03.2022
5029 Clouds 1 1023 66 10000 4.12 40 16:50 01.03.2022
5030 Clouds 2 1023 64 10000 1.54 0 15:49 01.03.2022
5031 Clouds 3 1023 55 10000 2.24 90 14:54 01.03.2022
5032 Clouds 3 1023 56 10000 1.34 113 14:33 01.03.2022
5033 Clouds 2 1024 63 10000 3.6 20 13:26 01.03.2022
5034 Clouds 1 1022 60 10000 2.06 130 12:38 01.03.2022
5035 Clouds 2 1025 61 10000 1.34 113 11:44 01.03.2022
5036 Clouds 0 1023 64 10000 1.03 0 09:53 01.03.2022
5037 Clouds -4 1023 86 8000 1.03 90 08:31 01.03.2022
5038 Clouds -2 1026 73 10000 1.03 0 07:32 01.03.2022
5039 Clear -4 1024 88 10000 1.03 0 03:27 01.03.2022
5040 Clouds -3 1025 83 10000 1.54 20 00:58 01.03.2022
5041 Clouds -2 1025 77 10000 2.06 140 23:47 28.02.2022
5042 Clouds -2 1025 80 10000 1.54 190 22:50 28.02.2022
5043 Clouds -3 1025 82 10000 1.54 0 21:48 28.02.2022
5044 Clouds -2 1025 82 10000 1.54 210 20:56 28.02.2022
5045 Clouds -3 1025 84 10000 1.54 210 19:51 28.02.2022
5046 Clouds -3 1025 82 10000 2.06 230 19:22 28.02.2022
5047 Clouds -1 1025 77 10000 1.54 190 18:35 28.02.2022
5048 Clouds 0 1024 76 10000 2.06 20 17:23 28.02.2022
5049 Clouds 2 1024 70 10000 3.09 30 16:32 28.02.2022
5050 Clouds 2 1023 69 10000 4.12 20 15:21 28.02.2022
5051 Clouds 2 1023 69 10000 3.09 30 14:29 28.02.2022
5052 Clouds 2 1023 69 10000 6.17 30 13:24 28.02.2022
5053 Clouds 3 1023 69 10000 5.66 30 12:31 28.02.2022
5054 Clouds 3 1023 71 10000 1.54 350 11:21 28.02.2022
5055 Clouds 2 1023 76 10000 1.54 270 10:24 28.02.2022
5056 Clouds 2 1023 77 10000 2.06 260 09:53 28.02.2022
5057 Clouds 1 1022 79 10000 2.06 220 09:24 28.02.2022
5058 Clouds 1 1022 79 10000 2.06 220 09:24 28.02.2022
5059 Clouds 0 1022 83 10000 1.54 20 08:22 28.02.2022
5060 Clouds 0 1022 83 10000 1.54 20 08:22 28.02.2022
5061 Clouds -1 1022 81 10000 2.57 350 06:44 28.02.2022
5062 Clouds -1 1021 81 10000 1.03 0 04:31 28.02.2022
5063 Clouds -1 1022 96 9000 2.57 250 01:42 28.02.2022
5064 Clouds 0 1022 93 8000 2.06 240 22:57 27.02.2022
5065 Clouds 0 1022 93 8000 2.06 240 22:32 27.02.2022
5066 Clouds 0 1022 96 2500 1.54 210 21:42 27.02.2022
5067 Clouds 1 1022 90 4000 2.06 210 20:51 27.02.2022
5068 Clouds 1 1022 90 4000 1.54 210 20:22 27.02.2022
5069 Clouds 1 1022 90 2700 1.54 210 19:50 27.02.2022
5070 Clouds 1 1022 90 2300 1.03 0 19:24 27.02.2022
5071 Clouds 1 1022 90 2100 0 0 18:37 27.02.2022
5072 Clouds 1 1022 90 3000 1.03 0 17:53 27.02.2022
5073 Clouds 2 1022 90 1300 0.51 0 16:31 27.02.2022
5074 Clouds 2 1021 90 2000 1.54 180 15:39 27.02.2022
5075 Clouds 2 1022 88 6000 4.63 110 12:53 27.02.2022
5076 Clouds 2 1022 87 8000 5.66 110 12:29 27.02.2022
5077 Clouds 2 1023 88 3000 6.17 90 10:47 27.02.2022
5078 Clouds 2 1023 88 8000 7.2 100 09:58 27.02.2022
5079 Clouds 2 1023 87 3000 7.2 90 09:27 27.02.2022
5080 Clouds 2 1023 87 6000 7.2 90 08:54 27.02.2022
5081 Clouds 2 1023 81 7000 8.23 110 06:42 27.02.2022
5082 Clouds 4 1023 65 10000 8.23 130 04:26 27.02.2022
5083 Clouds 4 1023 65 10000 6.26 113 00:34 27.02.2022
5084 Clouds 5 1023 62 10000 4.47 90 22:50 26.02.2022
5085 Clouds 5 1023 60 10000 3.6 130 21:38 26.02.2022
5086 Clouds 6 1024 54 10000 2.57 150 20:48 26.02.2022
5087 Clouds 6 1024 53 10000 3.6 140 19:59 26.02.2022
5088 Clouds 5 1023 58 10000 3.6 140 19:34 26.02.2022
5089 Clouds 7 1023 51 10000 1.79 90 18:46 26.02.2022
5090 Clouds 7 1021 55 10000 3.6 70 17:40 26.02.2022
5091 Clouds 8 1021 54 10000 5.66 50 16:48 26.02.2022
5092 Clouds 10 1022 48 10000 6.17 40 15:48 26.02.2022
5093 Clouds 10 1022 47 10000 5.66 40 15:20 26.02.2022
5094 Clouds 10 1022 45 10000 6.69 20 14:51 26.02.2022
5095 Clouds 11 1019 40 10000 5.14 360 14:25 26.02.2022
5096 Clear 12 1022 38 10000 3.13 90 13:18 26.02.2022
5097 Clear 9 1020 43 10000 1.54 0 11:54 26.02.2022
5098 Clear 8 1020 53 10000 1.03 0 11:28 26.02.2022
5099 Clear 5 1020 60 10000 2.06 310 10:31 26.02.2022
5100 Clouds 5 1023 66 10000 2.06 90 08:45 26.02.2022
5101 Clouds 4 1023 70 8000 3.58 293 06:46 26.02.2022
5102 Clear -2 1018 80 9000 1.54 0 00:38 26.02.2022
5103 Clear 1 1018 60 8000 1.54 190 22:45 25.02.2022
5104 Clear 2 1019 62 10000 1.54 180 21:37 25.02.2022
5105 Clear 2 1019 61 10000 0 0 21:18 25.02.2022
5106 Clear 3 1019 60 9000 2.57 160 20:31 25.02.2022
5107 Clear 5 1018 50 10000 1.54 150 18:35 25.02.2022
5108 Clear 8 1017 40 10000 2.06 160 17:21 25.02.2022
5109 Clear 11 1018 36 10000 1.79 113 16:20 25.02.2022
5110 Clear 11 1017 32 10000 1.03 0 15:42 25.02.2022
5111 Clear 11 1017 32 10000 1.54 270 15:18 25.02.2022
5112 Clear 11 1019 34 10000 2.06 320 14:39 25.02.2022
5113 Clear 12 1019 34 10000 1.54 0 13:30 25.02.2022
5114 Clear 8 1017 34 10000 2.06 330 12:42 25.02.2022
5115 Clear 5 1018 56 10000 1.54 0 11:23 25.02.2022
5116 Clear 3 1019 65 10000 0.51 0 10:24 25.02.2022
5117 Clouds 2 1019 69 8000 0.51 0 09:52 25.02.2022
5118 Clouds 2 1022 73 8000 1.03 0 08:44 25.02.2022
5119 Clouds 3 1022 76 8000 0 0 07:36 25.02.2022
5120 Clouds -6 1020 93 8000 1.03 0 05:45 25.02.2022
5121 Clear -5 1020 93 10000 2.06 130 02:49 25.02.2022
5122 Clear -1 1023 80 10000 2.06 140 22:55 24.02.2022
5123 Clear -1 1023 77 10000 2.57 110 21:51 24.02.2022
5124 Clear 0 1023 73 10000 2.57 90 21:31 24.02.2022
5125 Clear 0 1023 70 10000 3.09 90 20:53 24.02.2022
5126 Clear 2 1024 63 10000 3.09 170 19:38 24.02.2022
5127 Clear 3 1024 61 10000 3.09 160 18:36 24.02.2022
5128 Clouds 3 1024 62 10000 4.12 150 18:18 24.02.2022
5129 Clouds 4 1023 57 10000 4.63 120 17:33 24.02.2022
5130 Clouds 7 1023 50 10000 5.14 140 16:28 24.02.2022
5131 Clouds 6 1023 51 10000 4.63 150 15:44 24.02.2022
5132 Clouds 7 1024 51 10000 3.6 140 14:51 24.02.2022
5133 Clouds 6 1024 52 10000 3.09 120 14:19 24.02.2022
5134 Clouds 7 1024 54 10000 3.6 150 13:39 24.02.2022
5135 Clouds 7 1024 54 10000 3.6 150 13:39 24.02.2022
5136 Clouds 6 1026 58 10000 1.34 90 11:56 24.02.2022
5137 Clouds 5 1028 65 10000 4.63 60 10:39 24.02.2022
5138 Clouds 5 1026 57 10000 4.12 280 08:46 24.02.2022
5139 Clouds 2 1024 69 10000 3.6 280 08:22 24.02.2022
5140 Clouds 1 1024 76 10000 3.6 280 05:50 24.02.2022
5141 Clouds 4 1023 67 10000 7.72 290 00:32 24.02.2022
5142 Clouds 5 1026 65 10000 6.17 270 22:29 23.02.2022
5143 Clouds 5 1022 60 10000 6.69 290 20:51 23.02.2022
5144 Clouds 5 1022 60 10000 6.69 290 20:30 23.02.2022
5145 Clouds 5 1022 56 10000 7.2 290 19:36 23.02.2022
5146 Clouds 7 1021 45 10000 6.17 280 18:31 23.02.2022
5147 Clouds 7 1024 57 10000 5.14 290 16:43 23.02.2022
5148 Clouds 8 1023 58 10000 6.69 280 14:33 23.02.2022
5149 Clouds 7 1019 65 10000 5.14 280 12:37 23.02.2022
5150 Clouds 6 1020 70 10000 4.12 260 11:23 23.02.2022
5151 Clouds 5 1019 75 10000 4.63 280 10:24 23.02.2022
5152 Clouds 4 1021 82 10000 5.14 270 08:56 23.02.2022
5153 Clouds 3 1021 85 10000 4.02 293 07:56 23.02.2022
5154 Clouds 4 1018 83 10000 2.57 280 03:47 23.02.2022
5155 Clouds 3 1017 92 7000 4.12 260 00:19 23.02.2022
5156 Clouds 3 1017 92 6000 4.12 260 23:34 22.02.2022
5157 Clouds 3 1016 92 6000 3.09 270 22:28 22.02.2022
5158 Clouds 3 1016 92 7000 3.6 280 21:48 22.02.2022
5159 Clouds 3 1016 89 8000 3.6 280 21:24 22.02.2022
5160 Clouds 4 1015 89 8000 4.12 280 20:47 22.02.2022
5161 Clouds 4 1015 89 10000 5.14 280 20:28 22.02.2022
5162 Clouds 3 1014 92 8000 6.69 270 19:34 22.02.2022
5163 Clouds 3 1013 92 8000 5.14 280 18:50 22.02.2022
5164 Clouds 3 1013 89 10000 5.66 280 17:36 22.02.2022
5165 Clouds 3 1011 85 8000 6.17 280 16:58 22.02.2022
5166 Clouds 3 1011 84 10000 5.36 293 16:26 22.02.2022
5167 Clouds 4 1010 84 10000 6.69 280 15:36 22.02.2022
5168 Clouds 4 1009 87 10000 7.72 270 14:37 22.02.2022
5169 Clouds 4 1010 89 10000 8.75 270 11:41 22.02.2022
5170 Clouds 8 1007 83 10000 3.6 290 10:22 22.02.2022
5171 Clouds 6 1007 91 5000 2.06 350 07:41 22.02.2022
5172 Clouds 6 1007 94 3000 3.09 330 07:23 22.02.2022
5173 Clouds 8 1005 80 10000 3.58 293 02:51 22.02.2022
5174 Clouds 9 1006 74 10000 3.6 40 23:48 21.02.2022
5175 Clouds 9 1007 69 10000 3.6 100 22:37 21.02.2022
5176 Clouds 10 1007 65 10000 6.69 100 21:24 21.02.2022
5177 Clouds 10 1005 66 10000 5.14 90 19:36 21.02.2022
5178 Clouds 13 1006 47 10000 2.57 200 18:39 21.02.2022
5179 Clouds 14 1009 48 10000 6.69 200 16:37 21.02.2022
5180 Clouds 16 1010 49 10000 4.92 135 14:24 21.02.2022
5181 Clouds 17 1011 49 10000 1.03 0 13:54 21.02.2022
5182 Clouds 16 1012 53 10000 1.54 0 12:57 21.02.2022
5183 Clouds 12 1010 58 10000 1.54 0 12:21 21.02.2022
5184 Clouds 14 1016 57 10000 1.34 23 10:32 21.02.2022
5185 Clouds 4 1015 93 7000 2.06 130 07:52 21.02.2022
5186 Clouds 6 1020 82 10000 4.63 280 00:36 21.02.2022
5187 Rain 7 1020 80 10000 4.63 280 22:37 20.02.2022
5188 Rain 7 1020 79 10000 6.17 290 21:51 20.02.2022
5189 Clouds 7 1020 76 10000 3.6 280 21:25 20.02.2022
5190 Clouds 8 1019 73 10000 3.6 270 20:45 20.02.2022
5191 Clouds 9 1019 72 10000 4.12 280 19:51 20.02.2022
5192 Clouds 9 1019 71 10000 5.14 270 18:57 20.02.2022
5193 Clouds 10 1019 69 10000 5.14 270 18:37 20.02.2022
5194 Clouds 10 1018 68 10000 4.63 280 17:56 20.02.2022
5195 Clouds 12 1018 64 10000 3.6 280 17:24 20.02.2022
5196 Clouds 14 1017 49 10000 3.09 280 15:28 20.02.2022
5197 Clouds 14 1018 48 10000 3.09 290 13:59 20.02.2022
5198 Clouds 12 1016 50 10000 1.54 0 12:47 20.02.2022
5199 Clouds 10 1017 57 10000 1.54 280 11:55 20.02.2022
5200 Clear 10 1020 57 10000 2.06 60 10:21 20.02.2022
5201 Clear 12 1021 55 10000 2.57 100 09:35 20.02.2022
5202 Clear 6 1022 68 10000 1.79 293 06:29 20.02.2022
5203 Clear 3 1018 70 10000 1.03 280 00:32 20.02.2022
5204 Clear 4 1018 65 10000 1.54 170 23:33 19.02.2022
5205 Clear 5 1018 60 10000 2.06 40 22:24 19.02.2022
5206 Clear 6 1021 63 10000 2.57 120 21:45 19.02.2022
5207 Clear 6 1019 61 10000 2.06 130 20:26 19.02.2022
5208 Clear 8 1019 52 10000 2.06 80 19:34 19.02.2022
5209 Clear 9 1018 49 10000 3.6 50 18:40 19.02.2022
5210 Clear 9 1018 49 10000 3.6 50 18:40 19.02.2022
5211 Clear 11 1018 42 10000 1.03 0 17:57 19.02.2022
5212 Clear 13 1019 40 10000 0.51 210 16:47 19.02.2022
5213 Clear 16 1019 34 10000 1.54 150 15:59 19.02.2022
5214 Clear 15 1018 30 10000 2.06 90 14:53 19.02.2022
5215 Clear 16 1020 31 10000 2.06 0 13:55 19.02.2022
5216 Clear 9 1019 43 10000 2.06 0 11:42 19.02.2022
5217 Clear 8 1018 46 10000 1.03 0 10:45 19.02.2022
5218 Clear 2 1019 69 10000 1.54 170 08:56 19.02.2022
5219 Clear -4 1018 93 10000 0.51 0 06:45 19.02.2022
5220 Clear 1 1021 68 10000 1.54 20 00:23 19.02.2022
5221 Clear 2 1020 63 10000 1.54 270 22:24 18.02.2022
5222 Clear 4 1020 57 10000 1.54 70 21:18 18.02.2022
5223 Clear 7 1019 45 10000 4.12 280 19:56 18.02.2022
5224 Clear 7 1020 45 10000 2.68 293 18:51 18.02.2022
5225 Clear 8 1019 42 10000 5.14 280 18:25 18.02.2022
5226 Clear 9 1019 40 10000 6.17 290 17:56 18.02.2022
5227 Clouds 11 1018 33 10000 8.75 280 15:35 18.02.2022
5228 Clouds 12 1020 32 10000 10.29 300 13:56 18.02.2022
5229 Clouds 11 1016 32 10000 9.26 290 13:28 18.02.2022
5230 Clouds 11 1016 35 10000 9.77 280 12:41 18.02.2022
5231 Clouds 9 1016 40 10000 9.77 280 11:55 18.02.2022
5232 Clear 8 1016 53 10000 8.23 280 10:24 18.02.2022
5233 Clouds 5 1017 66 10000 7.72 280 06:58 18.02.2022
5234 Clouds 5 1016 84 10000 8.23 270 05:41 18.02.2022
5235 Clear 6 1010 71 10000 3.09 310 23:43 17.02.2022
5236 Clear 7 1008 67 10000 3.6 300 21:46 17.02.2022
5237 Clear 8 1009 66 10000 4.12 270 21:20 17.02.2022
5238 Clear 7 1008 65 10000 1.54 260 20:39 17.02.2022
5239 Clear 8 1008 64 10000 1.79 293 19:52 17.02.2022
5240 Clear 9 1008 60 10000 3.09 90 18:54 17.02.2022
5241 Clouds 11 1008 53 10000 2.06 40 17:55 17.02.2022
5242 Clouds 13 1008 46 10000 2.57 160 16:43 17.02.2022
5243 Clouds 14 1008 41 10000 3.09 0 15:38 17.02.2022
5244 Clouds 14 1008 44 10000 1.54 80 14:28 17.02.2022
5245 Clouds 12 1009 50 10000 1.54 0 12:43 17.02.2022
5246 Clouds 9 1011 61 8000 1.03 0 11:27 17.02.2022
5247 Mist 7 1015 80 2200 1.79 113 08:53 17.02.2022
5248 Clouds 1 1017 89 8000 0 0 02:26 17.02.2022
5249 Clear 2 1018 85 10000 1.54 160 23:21 16.02.2022
5250 Clear 3 1018 82 10000 2.06 170 21:40 16.02.2022
5251 Clear 4 1017 79 10000 2.06 90 19:47 16.02.2022
5252 Clear 6 1017 70 10000 5.14 90 18:39 16.02.2022
5253 Clouds 7 1017 66 10000 3.09 70 17:53 16.02.2022
5254 Clouds 12 1017 52 10000 4.63 100 15:39 16.02.2022
5255 Clouds 12 1017 52 10000 4.63 100 15:18 16.02.2022
5256 Clouds 12 1018 54 10000 3.6 80 12:59 16.02.2022
5257 Clouds 8 1018 66 10000 1.03 0 11:58 16.02.2022
5258 Clouds 9 1020 65 8000 1.54 360 11:24 16.02.2022
5259 Clouds 7 1020 68 8000 0.51 0 10:33 16.02.2022
5260 Mist 3 1022 83 4500 1.54 190 07:21 16.02.2022
5261 Mist 2 1022 85 4000 1.03 0 05:20 16.02.2022
5262 Clear 2 1022 84 10000 1.54 70 23:44 15.02.2022
5263 Clear 3 1022 77 10000 2.06 130 22:28 15.02.2022
5264 Clear 3 1022 79 10000 2.06 140 21:46 15.02.2022
5265 Clear 4 1022 75 10000 2.57 120 21:27 15.02.2022
5266 Clouds 4 1022 74 10000 3.6 90 20:56 15.02.2022
5267 Clear 6 1021 69 10000 4.63 80 19:57 15.02.2022
5268 Clear 6 1021 65 10000 3.6 90 18:52 15.02.2022
5269 Clear 6 1021 67 10000 1.54 130 18:20 15.02.2022
5270 Clear 7 1021 61 10000 1.54 120 17:48 15.02.2022
5271 Clear 10 1021 51 10000 2.06 130 16:32 15.02.2022
5272 Clear 10 1021 49 10000 1.79 113 15:22 15.02.2022
5273 Clear 10 1021 53 10000 3.13 90 13:27 15.02.2022
5274 Clear 6 1021 70 10000 1.54 0 11:58 15.02.2022
5275 Mist 3 1022 93 5000 1.03 0 10:59 15.02.2022
5276 Fog 7 1025 74 200 1.03 0 09:28 15.02.2022
5277 Fog -1 1024 96 200 1.54 90 06:50 15.02.2022
5278 Fog -3 1021 100 10000 0.51 0 02:36 15.02.2022
5279 Clouds 1 1024 90 8000 1.54 110 22:26 14.02.2022
5280 Clouds 2 1024 86 8000 1.54 160 21:27 14.02.2022
5281 Clouds 3 1023 87 6000 0 0 20:24 14.02.2022
5282 Clouds 2 1023 84 6000 0.51 0 19:30 14.02.2022
5283 Clouds 3 1023 82 8000 1.03 80 18:27 14.02.2022
5284 Clouds 3 1023 81 10000 1.54 100 17:58 14.02.2022
5285 Clouds 4 1023 77 10000 1.54 140 17:24 14.02.2022
5286 Clouds 6 1023 72 10000 1.79 90 15:58 14.02.2022
5287 Clouds 7 1024 70 8000 1.03 0 13:40 14.02.2022
5288 Clouds 7 1024 71 8000 1.03 0 13:22 14.02.2022
5289 Clouds 6 1024 71 8000 1.79 90 12:32 14.02.2022
5290 Clouds 5 1025 80 7000 1.03 0 11:47 14.02.2022
5291 Clouds 4 1027 80 2500 1.54 340 10:25 14.02.2022
5292 Clouds 1 1026 80 6000 0 0 08:34 14.02.2022
5293 Clouds 0 1025 88 10000 0.45 293 07:26 14.02.2022
5294 Clouds 0 1027 79 10000 4.63 90 23:37 13.02.2022
5295 Clouds 0 1027 77 10000 4.63 90 22:41 13.02.2022
5296 Clouds 1 1027 74 10000 5.14 90 22:23 13.02.2022
5297 Clouds 1 1027 75 10000 4.63 100 21:27 13.02.2022
5298 Clouds 2 1027 72 10000 4.63 100 20:30 13.02.2022
5299 Clouds 2 1027 73 10000 4.12 100 19:24 13.02.2022
5300 Clouds 3 1028 70 10000 1.79 90 18:42 13.02.2022
5301 Clouds 3 1028 69 10000 3.09 140 17:54 13.02.2022
5302 Clouds 5 1028 58 10000 7.2 100 15:54 13.02.2022
5303 Clouds 5 1028 58 10000 7.2 100 15:54 13.02.2022
5304 Clouds 6 1028 55 10000 6.17 90 14:57 13.02.2022
5305 Clouds 7 1030 55 10000 7.2 110 13:59 13.02.2022
5306 Clouds 6 1030 56 10000 6.69 120 12:49 13.02.2022
5307 Clouds 5 1031 64 10000 8.23 120 11:24 13.02.2022
5308 Clouds 3 1032 69 10000 8.75 120 10:28 13.02.2022
5309 Clouds 2 1032 74 10000 8.75 120 09:36 13.02.2022
5310 Clouds 2 1032 67 10000 7.72 110 06:21 13.02.2022
5311 Clouds 5 1032 78 10000 7.2 120 00:35 13.02.2022
5312 Clouds 5 1032 71 10000 5.66 110 22:59 12.02.2022
5313 Clouds 5 1032 69 10000 5.66 110 22:33 12.02.2022
5314 Clouds 4 1032 57 8000 2.57 160 21:19 12.02.2022
5315 Clouds 5 1031 54 10000 1.54 260 20:25 12.02.2022
5316 Clouds 5 1031 50 10000 1.54 230 19:18 12.02.2022
5317 Clouds 5 1031 51 10000 1.54 0 18:41 12.02.2022
5318 Clouds 5 1030 50 10000 0.51 0 18:23 12.02.2022
5319 Clear 8 1028 39 10000 4.63 40 16:55 12.02.2022
5320 Clear 9 1027 37 10000 4.12 20 16:25 12.02.2022
5321 Clear 10 1027 34 10000 4.63 50 15:49 12.02.2022
5322 Clear 10 1027 43 10000 4.12 270 14:30 12.02.2022
5323 Clear 9 1028 46 10000 4.12 280 12:55 12.02.2022
5324 Clear 6 1029 65 10000 7.2 280 10:35 12.02.2022
5325 Clear 6 1028 65 10000 6.69 280 09:38 12.02.2022
5326 Clouds 5 1030 75 10000 6.17 280 08:48 12.02.2022
5327 Clouds 4 1029 83 10000 5.66 280 07:50 12.02.2022
5328 Clouds 5 1029 70 8000 2.24 293 05:33 12.02.2022
5329 Clouds 1 1027 81 8000 1.54 200 02:20 12.02.2022
5330 Clouds 1 1027 81 8000 1.03 0 01:44 12.02.2022
5331 Clear 1 1024 79 8000 0 0 22:27 11.02.2022
5332 Clear 1 1024 78 10000 2.06 170 21:45 11.02.2022
5333 Clear 3 1023 72 10000 1.54 120 20:38 11.02.2022
5334 Clear 5 1023 67 10000 2.06 160 19:33 11.02.2022
5335 Clear 5 1023 66 10000 3.6 170 18:58 11.02.2022
5336 Clear 8 1022 59 10000 2.06 100 17:28 11.02.2022
5337 Clear 10 1022 52 10000 1.54 120 16:58 11.02.2022
5338 Clear 14 1020 35 10000 1.03 0 15:33 11.02.2022
5339 Clear 13 1020 38 10000 1.54 90 14:38 11.02.2022
5340 Clear 13 1020 38 10000 1.54 90 14:20 11.02.2022
5341 Clear 13 1021 38 10000 1.03 0 13:47 11.02.2022
5342 Clear 12 1021 43 10000 1.54 250 13:28 11.02.2022
5343 Clear 7 1023 61 10000 0.51 0 11:27 11.02.2022
5344 Clear 2 1024 87 8000 1.03 0 09:39 11.02.2022
5345 Clear 0 1024 93 7000 1.54 50 08:39 11.02.2022
5346 Mist -1 1024 100 5000 1.03 0 08:21 11.02.2022
5347 Mist -4 1024 100 3000 1.54 120 06:31 11.02.2022
5348 Mist -3 1024 100 1500 0 0 02:24 11.02.2022
5349 Mist -1 1026 90 4000 1.03 250 00:44 11.02.2022
5350 Clear 0 1027 85 8000 2.06 140 22:39 10.02.2022
5351 Clear 2 1027 79 10000 1.54 220 21:43 10.02.2022
5352 Clear 2 1027 80 8000 2.57 160 20:50 10.02.2022
5353 Clear 2 1027 83 7000 1.54 130 19:59 10.02.2022
5354 Clear 2 1028 78 7000 1.54 150 19:23 10.02.2022
5355 Clear 3 1028 75 8000 1.54 140 18:33 10.02.2022
5356 Clear 6 1028 70 10000 1.54 120 17:23 10.02.2022
5357 Clear 8 1028 64 10000 2.57 160 16:43 10.02.2022
5358 Clear 10 1028 60 10000 1.54 170 15:41 10.02.2022
5359 Clear 11 1028 59 10000 1.54 180 15:21 10.02.2022
5360 Clear 12 1029 54 10000 1.54 150 14:35 10.02.2022
5361 Clear 9 1026 61 10000 0.51 0 13:56 10.02.2022
5362 Clear 8 1026 66 10000 1.54 210 13:19 10.02.2022
5363 Clear 5 1028 75 10000 1.03 0 11:53 10.02.2022
5364 Clear 5 1028 75 10000 1.03 0 11:32 10.02.2022
5365 Clouds 3 1028 81 10000 1.54 110 10:23 10.02.2022
5366 Clouds 2 1028 80 10000 1.03 0 09:44 10.02.2022
5367 Mist -2 1029 93 2000 1.03 150 08:40 10.02.2022
5368 Fog -3 1031 95 600 1.54 90 06:33 10.02.2022
5369 Mist -2 1030 90 1500 1.54 290 03:21 10.02.2022
5370 Clouds 2 1031 84 6000 1.34 0 00:56 10.02.2022
5371 Clouds 2 1031 82 6000 0.51 0 00:38 10.02.2022
5372 Clouds 3 1031 81 7000 1.54 110 00:20 10.02.2022
5373 Clouds 4 1032 78 10000 3.6 270 22:54 09.02.2022
5374 Clouds 5 1031 76 10000 3.09 270 22:30 09.02.2022
5375 Clouds 5 1032 76 10000 4.12 270 21:47 09.02.2022
5376 Clouds 5 1032 76 10000 3.6 280 21:27 09.02.2022
5377 Clouds 5 1031 77 10000 4.12 280 20:43 09.02.2022
5378 Clouds 5 1031 78 10000 5.14 280 20:22 09.02.2022
5379 Clouds 5 1031 78 10000 5.66 280 19:40 09.02.2022
5380 Clouds 5 1031 78 10000 6.69 270 18:31 09.02.2022
5381 Clouds 5 1030 79 10000 6.69 280 16:55 09.02.2022
5382 Clouds 5 1030 79 10000 8.23 280 15:59 09.02.2022
5383 Clouds 5 1030 77 10000 9.26 270 15:22 09.02.2022
5384 Clouds 5 1030 77 10000 9.26 270 15:22 09.02.2022
5385 Clouds 7 1029 63 10000 7.2 280 12:43 09.02.2022
5386 Clouds 6 1026 65 10000 7.72 280 11:23 09.02.2022
5387 Clouds 5 1026 65 10000 7.2 280 10:33 09.02.2022
5388 Clouds 4 1026 70 10000 6.69 280 09:45 09.02.2022
5389 Clouds 3 1026 70 10000 5.66 290 09:20 09.02.2022
5390 Clouds 3 1028 73 10000 5.66 290 08:43 09.02.2022
5391 Clouds 2 1025 69 10000 6.17 280 05:37 09.02.2022
5392 Clouds 1 1024 69 10000 6.17 280 03:51 09.02.2022
5393 Clouds 0 1024 69 10000 5.14 280 01:33 09.02.2022
5394 Clouds 0 1024 69 10000 4.63 260 23:42 08.02.2022
5395 Clouds 0 1024 64 10000 3.6 270 22:53 08.02.2022
5396 Clouds 1 1024 60 10000 5.66 270 22:27 08.02.2022
5397 Clouds 1 1024 55 10000 3.09 280 21:58 08.02.2022
5398 Clouds 1 1023 60 10000 3.09 280 21:21 08.02.2022
5399 Clouds 1 1023 60 10000 3.09 310 20:55 08.02.2022
5400 Clouds 1 1026 63 10000 4.92 293 20:23 08.02.2022
5401 Clouds 1 1026 61 10000 4.12 310 18:53 08.02.2022
5402 Clouds 3 1021 48 10000 5.14 320 17:50 08.02.2022
5403 Clouds 3 1020 48 10000 4.63 350 16:35 08.02.2022
5404 Clouds 3 1021 54 10000 5.14 320 15:39 08.02.2022
5405 Clouds 3 1020 53 10000 6.69 320 14:56 08.02.2022
5406 Clouds 3 1019 56 10000 7.2 320 13:29 08.02.2022
5407 Clouds 3 1019 57 10000 7.72 330 12:18 08.02.2022
5408 Clouds 2 1019 64 10000 5.66 330 10:39 08.02.2022
5409 Clouds 1 1018 68 10000 5.66 300 09:46 08.02.2022
5410 Clouds 0 1017 74 10000 4.02 293 08:25 08.02.2022
5411 Clouds 0 1014 75 10000 5.66 280 05:41 08.02.2022
5412 Clouds 0 1013 76 10000 7.2 290 04:39 08.02.2022
5413 Clouds 0 1013 76 10000 7.2 280 04:21 08.02.2022
5414 Clouds 0 1012 79 10000 7.72 280 03:36 08.02.2022
5415 Clouds 0 1012 79 10000 8.23 280 03:18 08.02.2022
5416 Clouds 1 1012 77 10000 8.75 280 02:59 08.02.2022
5417 Clouds 1 1012 77 10000 8.75 280 02:36 08.02.2022
5418 Clear 1 1012 77 10000 8.23 280 02:18 08.02.2022
5419 Clouds 1 1011 77 10000 7.72 290 01:44 08.02.2022
5420 Clouds 1 1011 80 10000 7.2 290 01:24 08.02.2022
5421 Clouds 1 1011 81 10000 7.72 280 00:55 08.02.2022
5422 Clouds 0 1012 91 7000 7.2 280 23:58 07.02.2022
5423 Clouds 0 1012 91 7000 7.2 280 23:40 07.02.2022
5424 Clouds 1 1011 89 6000 7.2 280 23:18 07.02.2022
5425 Clouds 1 1012 88 10000 7.2 280 22:42 07.02.2022
5426 Clouds 1 1011 88 10000 7.2 280 22:18 07.02.2022
5427 Clouds 0 1011 95 8000 6.69 280 21:43 07.02.2022
5428 Clouds 1 1011 88 1700 8.23 280 21:25 07.02.2022
5429 Clouds 1 1010 90 6000 8.75 280 20:41 07.02.2022
5430 Clouds 2 1009 88 10000 9.26 280 19:54 07.02.2022
5431 Clouds 2 1009 88 10000 10.29 280 19:36 07.02.2022
5432 Clouds 3 1008 85 10000 10.8 280 18:18 07.02.2022
5433 Clouds 9 1003 57 10000 1.03 0 16:53 07.02.2022
5434 Clouds 8 1003 61 10000 1.54 40 15:49 07.02.2022
5435 Clouds 9 1004 53 10000 4.12 40 14:56 07.02.2022
5436 Clouds 8 1005 61 10000 3.09 20 13:36 07.02.2022
5437 Clouds 8 1005 61 10000 3.09 20 13:18 07.02.2022
5438 Clouds 7 1007 65 10000 2.57 120 11:58 07.02.2022
5439 Clouds 6 1007 70 10000 2.57 140 11:36 07.02.2022
5440 Clouds 7 1010 68 10000 2.68 180 10:51 07.02.2022
5441 Clouds 7 1010 69 10000 3.13 113 10:31 07.02.2022
5442 Clouds 4 1009 81 10000 3.09 90 09:53 07.02.2022
5443 Clouds 4 1009 81 10000 3.6 120 09:18 07.02.2022
5444 Clouds 3 1010 81 10000 2.06 100 08:38 07.02.2022
5445 Clouds 0 1010 86 10000 2.57 60 06:58 07.02.2022
5446 Clouds 0 1010 86 10000 1.03 0 06:34 07.02.2022
5447 Clear 0 1014 85 10000 1.03 0 02:59 07.02.2022
5448 Clear 0 1016 79 10000 2.06 130 00:45 07.02.2022
5449 Clear 0 1016 79 10000 2.06 130 00:45 07.02.2022
5450 Clouds 0 1017 82 9000 2.57 140 23:47 06.02.2022
5451 Clear 1 1018 71 10000 1.54 0 22:48 06.02.2022
5452 Clouds 1 1019 74 8000 2.06 210 21:54 06.02.2022
5453 Clouds 1 1020 74 8000 2.06 210 21:35 06.02.2022
5454 Clouds 2 1020 70 10000 1.54 70 20:54 06.02.2022
5455 Clouds 0 1018 74 10000 1.54 70 20:31 06.02.2022
5456 Clouds 3 1021 63 10000 1.54 130 19:38 06.02.2022
5457 Clear 2 1022 69 10000 2.06 120 18:40 06.02.2022
5458 Clear 3 1019 65 10000 3.09 90 17:55 06.02.2022
5459 Clear 4 1019 56 10000 2.57 110 17:18 06.02.2022
5460 Clear 8 1019 46 10000 2.06 130 16:38 06.02.2022
5461 Clear 8 1020 46 10000 2.57 150 15:48 06.02.2022
5462 Clear 8 1020 46 10000 2.57 150 15:26 06.02.2022
5463 Clear 9 1021 43 10000 2.06 140 14:33 06.02.2022
5464 Clear 9 1022 40 10000 0.51 0 13:25 06.02.2022
5465 Clear 8 1022 36 10000 1.54 0 12:49 06.02.2022
5466 Clear 6 1024 49 10000 4.12 300 11:24 06.02.2022
5467 Clear 5 1024 56 10000 4.12 310 10:29 06.02.2022
5468 Clear 2 1024 80 10000 2.57 300 08:49 06.02.2022
5469 Clear 1 1024 80 10000 2.57 330 07:36 06.02.2022
5470 Clouds 3 1023 75 10000 3.6 290 05:29 06.02.2022
5471 Clouds 3 1023 87 10000 5.14 270 02:26 06.02.2022
5472 Clouds 3 1023 87 10000 5.14 270 01:32 06.02.2022
5473 Clear 4 1022 81 10000 4.63 270 00:24 06.02.2022
5474 Clear 4 1021 81 10000 4.12 270 22:19 05.02.2022
5475 Clouds 5 1020 70 10000 3.6 280 20:52 05.02.2022
5476 Clouds 5 1020 70 10000 5.66 270 20:24 05.02.2022
5477 Clouds 5 1020 70 10000 6.17 270 19:45 05.02.2022
5478 Clouds 6 1019 61 10000 6.17 290 18:49 05.02.2022
5479 Clouds 7 1018 57 10000 4.63 290 17:37 05.02.2022
5480 Clouds 7 1018 57 10000 5.14 280 16:37 05.02.2022
5481 Clouds 8 1017 53 10000 3.6 290 15:33 05.02.2022
5482 Clouds 6 1017 56 10000 1.54 120 14:40 05.02.2022
5483 Clouds 5 1018 52 10000 1.54 180 12:46 05.02.2022
5484 Clear 2 1018 60 10000 1.54 130 11:49 05.02.2022
5485 Clear 2 1019 60 8000 1.03 0 10:46 05.02.2022
5486 Clear -1 1019 74 8000 1.54 270 09:52 05.02.2022
5487 Clear -3 1019 74 8000 0 0 09:25 05.02.2022
5488 Clear -1 1022 88 8000 1.54 90 07:36 05.02.2022
5489 Clear -4 1021 89 8000 1.03 0 06:56 05.02.2022
5490 Clear -5 1021 87 8000 1.03 130 03:22 05.02.2022
5491 Clear -5 1021 86 6000 2.06 120 01:19 05.02.2022
5492 Clear -5 1021 86 6000 2.06 120 01:19 05.02.2022
5493 Clear -4 1021 86 6000 1.03 130 00:39 05.02.2022
5494 Clear -4 1021 85 7000 2.57 100 23:33 04.02.2022
5495 Clear -3 1021 85 7000 0 0 22:55 04.02.2022
5496 Clear -3 1021 83 7000 0.51 0 21:36 04.02.2022
5497 Clear -3 1021 83 7000 0.51 0 21:18 04.02.2022
5498 Clear -3 1020 81 8000 1.54 190 20:40 04.02.2022
5499 Clear -2 1021 78 10000 1.03 100 19:30 04.02.2022
5500 Clear 1 1018 64 10000 2.57 130 16:56 04.02.2022
5501 Clear 2 1019 60 10000 0 0 15:34 04.02.2022
5502 Clouds 2 1019 60 10000 2.06 160 14:51 04.02.2022
5503 Clear 1 1020 60 10000 1.54 150 12:43 04.02.2022
5504 Clear 1 1021 64 10000 0.51 0 11:46 04.02.2022
5505 Clouds -2 1021 74 8000 0.51 0 10:59 04.02.2022
5506 Clear -3 1021 80 10000 1.03 0 10:22 04.02.2022
5507 Clouds -1 1024 83 7000 2.06 90 08:31 04.02.2022
5508 Clouds -3 1024 78 8000 1.54 150 04:45 04.02.2022
5509 Clear -3 1023 78 10000 2.24 293 02:38 04.02.2022
5510 Clear -2 1023 76 10000 1.34 293 00:18 04.02.2022
5511 Clouds -2 1023 77 10000 4.92 293 22:52 03.02.2022
5512 Clear -1 1023 75 10000 4.47 293 21:58 03.02.2022
5513 Clear -1 1023 75 10000 3.13 293 21:37 03.02.2022
5514 Clear 0 1023 76 10000 5.66 280 20:22 03.02.2022
5515 Clouds 0 1023 75 10000 2.24 293 19:46 03.02.2022
5516 Clouds 0 1023 75 10000 1.79 293 19:20 03.02.2022
5517 Clouds 2 1019 64 10000 5.66 280 17:59 03.02.2022
5518 Clouds 2 1018 64 10000 7.2 280 17:19 03.02.2022
5519 Clouds 2 1019 81 10000 4.92 0 15:34 03.02.2022
5520 Clouds 3 1019 70 10000 0.89 0 13:50 03.02.2022
5521 Clouds 3 1017 70 10000 5.14 290 12:32 03.02.2022
5522 Clouds 1 1017 79 10000 3.58 0 08:56 03.02.2022
5523 Clouds 1 1016 81 10000 3.58 293 07:43 03.02.2022
5524 Clouds 0 1009 80 10000 4.12 280 00:49 03.02.2022
5525 Clouds 0 1009 80 10000 5.14 280 00:22 03.02.2022
5526 Clouds -1 1008 86 10000 5.66 280 22:39 02.02.2022
5527 Clouds 0 1008 80 10000 4.63 280 21:46 02.02.2022
5528 Clouds 0 1008 74 10000 6.17 280 21:28 02.02.2022
5529 Clouds 0 1008 74 10000 6.17 270 20:24 02.02.2022
5530 Clouds 0 1008 69 10000 5.66 270 19:46 02.02.2022
5531 Clouds 1 1007 69 10000 5.14 270 18:56 02.02.2022
5532 Clouds 1 1007 69 10000 4.63 280 18:24 02.02.2022
5533 Clouds 1 1006 69 10000 2.57 240 17:20 02.02.2022
5534 Clouds 1 1006 69 10000 2.57 240 16:54 02.02.2022
5535 Clear 2 1008 66 10000 2.68 293 14:42 02.02.2022
5536 Clouds -1 1006 80 10000 5.66 280 12:29 02.02.2022
5537 Clouds 0 1008 74 10000 3.58 293 11:44 02.02.2022
5538 Clouds 1 1009 75 10000 4.92 293 11:24 02.02.2022
5539 Clouds -1 1009 91 1200 4.12 270 08:27 02.02.2022
5540 Clouds -1 1009 95 3200 2.57 270 01:37 02.02.2022
5541 Clouds -1 1010 94 7000 3.09 270 22:29 01.02.2022
5542 Clouds -1 1011 94 3000 3.6 270 20:50 01.02.2022
5543 Clouds -1 1010 94 2500 2.57 290 18:55 01.02.2022
5544 Clouds 0 1009 92 1400 2.57 280 16:46 01.02.2022
5545 Clouds 0 1009 91 1200 3.09 270 15:44 01.02.2022
5546 Clouds 3 1007 57 10000 3.13 113 12:49 01.02.2022
5547 Clouds 4 1007 54 10000 1.34 113 11:51 01.02.2022
5548 Clouds 1 1007 72 8000 1.54 310 08:37 01.02.2022
5549 Clear -2 1007 76 10000 2.06 210 00:28 01.02.2022
5550 Clear -1 1007 74 10000 2.57 150 23:36 31.01.2022
5551 Clear 0 1007 74 10000 0.51 0 22:30 31.01.2022
5552 Clear 0 1008 72 10000 2.06 130 21:34 31.01.2022
5553 Clear 1 1008 64 10000 1.03 0 20:34 31.01.2022
5554 Clear 0 1009 66 10000 2.57 80 19:46 31.01.2022
5555 Clear 2 1009 58 10000 0.45 135 18:31 31.01.2022
5556 Clear 2 1009 58 10000 0.45 135 18:31 31.01.2022
5557 Clear 2 1009 58 10000 0.45 135 18:31 31.01.2022
5558 Clear 2 1009 58 10000 0.89 113 17:53 31.01.2022
5559 Clear 3 1010 50 10000 1.34 113 16:58 31.01.2022
5560 Clear 5 1008 42 10000 3.09 330 15:46 31.01.2022
5561 Clear 6 1010 36 10000 6.69 270 14:27 31.01.2022
5562 Clouds 5 1011 42 10000 5.66 290 12:55 31.01.2022
5563 Clouds 3 1012 48 10000 6.17 290 11:59 31.01.2022
5564 Clouds 4 1014 48 10000 5.66 300 10:54 31.01.2022
5565 Clouds 2 1014 51 10000 5.66 300 10:36 31.01.2022
5566 Clouds 3 1014 52 10000 6.17 290 09:34 31.01.2022
5567 Clouds 2 1015 55 10000 6.17 280 08:52 31.01.2022
5568 Clouds 2 1015 60 10000 5.66 280 08:20 31.01.2022
5569 Clouds 1 1017 66 10000 5.36 0 06:53 31.01.2022
5570 Clouds 2 1017 59 10000 4.47 293 05:24 31.01.2022
5571 Clouds 2 1017 76 10000 1.79 0 23:30 30.01.2022
5572 Clouds 2 1017 77 10000 2.68 293 22:30 30.01.2022
5573 Clouds 2 1017 80 10000 3.58 293 21:44 30.01.2022
5574 Clouds 2 1017 74 10000 8.05 293 21:44 30.01.2022
5575 Clouds 2 1017 79 10000 4.47 293 21:21 30.01.2022
5576 Clouds 2 1017 79 10000 2.68 293 20:50 30.01.2022
5577 Clear 2 1017 80 10000 4.47 270 20:30 30.01.2022
5578 Clouds 2 1017 78 10000 4.92 293 19:54 30.01.2022
5579 Clouds 2 1016 78 10000 3.58 293 18:45 30.01.2022
5580 Clouds 2 1016 86 10000 5.36 293 18:21 30.01.2022
5581 Clouds 2 1015 84 4200 3.13 0 17:29 30.01.2022
5582 Clouds 4 1013 56 10000 6.69 310 16:41 30.01.2022
5583 Clouds 5 1012 52 10000 2.06 290 16:22 30.01.2022
5584 Clouds 5 1012 48 10000 0.51 0 15:53 30.01.2022
5585 Clouds 5 1012 48 10000 1.54 200 15:32 30.01.2022
5586 Clouds 6 1014 50 10000 7.15 293 14:46 30.01.2022
5587 Clouds 5 1015 48 10000 1.54 0 13:36 30.01.2022
5588 Clear 4 1015 48 10000 2.06 120 12:40 30.01.2022
5589 Clouds 0 1017 59 10000 2.06 360 10:38 30.01.2022
5590 Clouds -2 1017 74 10000 1.54 200 09:56 30.01.2022
5591 Clouds -2 1019 76 10000 1.79 90 09:21 30.01.2022
5592 Clouds -4 1019 80 10000 2.57 190 07:56 30.01.2022
5593 Clouds -5 1022 85 8000 3.13 0 02:42 30.01.2022
5594 Clear -5 1023 84 10000 1.79 293 01:50 30.01.2022
5595 Clear -3 1003 76 10000 1.34 293 23:30 29.01.2022
5596 Clear -2 992 75 10000 4.63 280 22:34 29.01.2022
5597 Clear -2 1025 78 10000 3.13 293 21:27 29.01.2022
5598 Clear -1 1024 80 10000 6.17 280 20:38 29.01.2022
5599 Clear -1 1027 77 10000 4.02 0 19:36 29.01.2022
5600 Clouds 0 1024 74 10000 5.14 280 18:59 29.01.2022
5601 Clouds 0 1024 74 10000 5.66 280 18:30 29.01.2022
5602 Clouds 1 1023 69 10000 5.66 280 17:41 29.01.2022
5603 Clouds 1 1023 75 10000 5.14 290 16:38 29.01.2022
5604 Clouds 2 1023 69 10000 5.66 290 14:24 29.01.2022
5605 Clouds 2 1023 69 10000 5.66 290 13:45 29.01.2022
5606 Clouds 2 1023 69 10000 5.66 300 13:24 29.01.2022
5607 Clouds 2 1023 69 10000 6.17 290 12:35 29.01.2022
5608 Clouds 2 1023 69 10000 6.69 290 11:38 29.01.2022
5609 Clouds 2 1025 73 10000 5.66 280 09:49 29.01.2022
5610 Clouds 1 1022 69 10000 5.14 290 06:55 29.01.2022
5611 Clouds 1 1021 64 10000 4.12 310 00:49 29.01.2022
5612 Clouds 0 1021 74 10000 5.14 260 00:31 29.01.2022
5613 Clouds 2 1022 64 10000 3.09 290 22:51 28.01.2022
5614 Clouds 1 1022 69 10000 3.6 290 22:26 28.01.2022
5615 Clouds 2 1022 64 10000 4.12 290 21:50 28.01.2022
5616 Clouds 2 1022 64 10000 4.63 280 20:30 28.01.2022
5617 Clouds 2 1022 64 10000 4.63 280 19:42 28.01.2022
5618 Clouds 2 1021 69 10000 4.63 280 18:47 28.01.2022
5619 Clouds 2 960 63 10000 4.63 280 17:42 28.01.2022
5620 Clouds 3 989 66 10000 6.69 290 15:21 28.01.2022
5621 Clouds 4 988 56 10000 5.66 290 13:57 28.01.2022
5622 Clouds 3 989 56 8000 1.54 280 12:31 28.01.2022
5623 Clouds 3 1001 57 8000 0.45 90 11:36 28.01.2022
5624 Clouds 0 989 64 7000 1.03 0 09:52 28.01.2022
5625 Clouds -4 959 71 7000 1.54 80 08:26 28.01.2022
5626 Clouds -7 1001 88 6000 2.06 140 07:34 28.01.2022
5627 Clouds -7 1000 86 7000 1.54 110 05:23 28.01.2022
5628 Clouds -7 1001 86 6000 2.06 110 03:44 28.01.2022
5629 Mist -6 1002 85 5000 2.57 110 02:22 28.01.2022
5630 Mist -6 1002 84 5000 2.06 130 01:32 28.01.2022
5631 Clouds -5 1024 90 8000 1.03 0 22:52 27.01.2022
5632 Snow -5 1025 85 10000 0 0 21:47 27.01.2022
5633 Snow -5 1024 85 10000 0 0 21:29 27.01.2022
5634 Clear -3 1004 82 10000 2.06 200 20:26 27.01.2022
5635 Clear -1 1025 81 10000 2.24 270 18:40 27.01.2022
5636 Clear -1 1025 81 10000 1.79 0 17:55 27.01.2022
5637 Clouds 2 1025 68 10000 4.47 0 14:42 27.01.2022
5638 Clouds 1 1024 69 10000 6.17 270 13:26 27.01.2022
5639 Clouds 1 1024 69 10000 6.69 260 12:39 27.01.2022
5640 Clouds 0 1025 86 10000 4.63 280 10:23 27.01.2022
5641 Clouds -1 1024 86 10000 4.63 280 08:52 27.01.2022
5642 Clouds -1 1024 86 10000 4.63 280 08:30 27.01.2022
5643 Clouds -1 1023 86 10000 4.63 280 05:49 27.01.2022
5644 Clouds -1 1024 86 10000 5.14 280 01:45 27.01.2022
5645 Clouds -1 1024 80 10000 4.12 290 22:39 26.01.2022
5646 Clouds -2 1024 86 10000 3.6 270 21:45 26.01.2022
5647 Clouds -2 1024 86 10000 3.09 270 21:26 26.01.2022
5648 Clouds -2 1024 86 10000 3.6 280 20:35 26.01.2022
5649 Clouds -2 1024 86 10000 5.14 280 19:52 26.01.2022
5650 Clouds -2 1024 86 10000 5.66 270 19:18 26.01.2022
5651 Clouds -2 1024 86 10000 5.66 280 18:26 26.01.2022
5652 Clouds -2 1024 86 10000 6.17 280 17:49 26.01.2022
5653 Clouds -2 992 80 10000 6.17 270 17:19 26.01.2022
5654 Clouds -2 1004 79 10000 1.34 293 16:26 26.01.2022
5655 Clouds -1 1004 79 10000 2.68 293 15:24 26.01.2022
5656 Clouds -1 1004 75 10000 4.02 293 12:52 26.01.2022
5657 Clouds -2 1005 71 10000 4.02 293 10:57 26.01.2022
5658 Clouds -4 993 69 10000 3.6 300 09:59 26.01.2022
5659 Clouds -3 1005 71 10000 4.02 293 09:40 26.01.2022
5660 Clouds -10 1024 85 7000 1.54 100 07:28 26.01.2022
5661 Clouds -10 994 70 8000 1.03 0 00:42 26.01.2022
5662 Clouds -13 1026 85 8000 1.03 0 23:43 25.01.2022
5663 Clear -9 995 68 10000 2.06 360 22:49 25.01.2022
5664 Clear -9 995 65 10000 2.06 360 22:19 25.01.2022
5665 Clear -8 995 62 10000 4.12 280 21:34 25.01.2022
5666 Clear -7 995 63 10000 4.12 290 20:45 25.01.2022
5667 Clear -7 995 63 10000 5.14 280 19:58 25.01.2022
5668 Clear -7 995 63 10000 5.14 280 19:58 25.01.2022
5669 Clear -7 995 63 10000 5.14 280 19:32 25.01.2022
5670 Clear -7 1007 67 10000 2.24 293 17:56 25.01.2022
5671 Clear -6 1007 65 10000 1.79 293 17:37 25.01.2022
5672 Clear -6 1006 65 10000 4.02 293 16:35 25.01.2022
5673 Clear -5 1006 60 10000 1.34 293 15:39 25.01.2022
5674 Clear -5 1006 60 10000 1.79 0 15:20 25.01.2022
5675 Clear -5 1006 60 10000 1.79 0 15:20 25.01.2022
5676 Clear -5 1006 59 10000 6.17 290 14:56 25.01.2022
5677 Clouds -6 1028 68 10000 6.69 290 12:23 25.01.2022
5678 Mist -5 968 53 5000 1.03 0 09:39 25.01.2022
5679 Mist -13 998 76 4700 1.54 110 08:21 25.01.2022
5680 Mist -14 998 78 5000 1.03 0 07:27 25.01.2022
5681 Clear -15 999 79 10000 1.54 130 05:26 25.01.2022
5682 Clear -10 970 64 10000 1.03 0 00:35 25.01.2022
5683 Clear -9 1014 79 10000 1.79 293 23:36 24.01.2022
5684 Clear -10 1012 77 10000 1.79 293 23:18 24.01.2022
5685 Clouds -10 1012 78 8000 0.89 293 22:42 24.01.2022
5686 Clouds -11 1012 79 8000 0.45 270 22:23 24.01.2022
5687 Clear -10 1012 76 10000 3.09 280 21:42 24.01.2022
5688 Clear -11 1012 76 10000 3.09 290 21:23 24.01.2022
5689 Clear -9 1011 73 10000 1.54 280 20:26 24.01.2022
5690 Clouds -9 1011 74 10000 2.06 250 19:38 24.01.2022
5691 Clouds -8 1011 73 10000 0.51 0 18:50 24.01.2022
5692 Clouds -6 1011 74 10000 0.89 113 17:26 24.01.2022
5693 Clouds -6 1010 74 2300 2.24 113 16:59 24.01.2022
5694 Clouds -6 1010 69 8000 3.13 90 16:30 24.01.2022
5695 Clouds -4 1009 56 10000 0.89 113 14:56 24.01.2022
5696 Clouds -5 1030 61 10000 1.79 90 13:39 24.01.2022
5697 Clouds -5 1028 68 10000 2.57 10 12:33 24.01.2022
5698 Clouds -3 1030 60 10000 2.06 320 11:41 24.01.2022
5699 Clouds -4 1009 68 10000 1.54 320 10:18 24.01.2022
5700 Clouds -4 1009 72 10000 1.79 90 09:44 24.01.2022
5701 Clouds -6 1007 74 10000 2.06 40 07:40 24.01.2022
5702 Clouds -6 1004 84 7000 0.89 293 01:38 24.01.2022
5703 Clouds -6 1004 86 6000 4.12 280 00:50 24.01.2022
5704 Clouds -6 1004 86 4000 1.79 293 00:29 24.01.2022
5705 Clouds -6 1004 85 3500 1.34 293 22:58 23.01.2022
5706 Clouds -5 1003 83 4000 1.34 293 21:52 23.01.2022
5707 Snow -5 1003 82 4500 1.79 293 21:27 23.01.2022
5708 Snow -5 1003 83 3500 1.79 293 20:55 23.01.2022
5709 Snow -5 1003 82 6000 1.79 270 20:21 23.01.2022
5710 Clouds -5 991 77 8000 6.69 280 18:53 23.01.2022
5711 Clouds -5 991 74 8000 6.69 280 17:56 23.01.2022
5712 Clouds -4 990 71 6000 6.69 300 16:54 23.01.2022
5713 Clouds -4 1002 64 8000 7.2 300 15:45 23.01.2022
5714 Clouds -3 1001 63 10000 4.92 293 14:34 23.01.2022
5715 Clouds -3 989 60 10000 8.75 290 13:43 23.01.2022
5716 Clouds -3 989 58 10000 8.75 290 12:40 23.01.2022
5717 Clouds -4 990 60 10000 8.75 280 12:18 23.01.2022
5718 Clouds -3 999 62 10000 1.34 0 11:25 23.01.2022
5719 Clouds -3 1003 63 10000 4.92 293 10:57 23.01.2022
5720 Clouds -4 991 62 10000 7.72 280 10:23 23.01.2022
5721 Clouds -5 1022 74 10000 5.66 280 09:25 23.01.2022
5722 Clouds -6 1021 79 10000 5.14 270 05:59 23.01.2022
5723 Clouds -6 989 75 10000 5.14 280 03:20 23.01.2022
5724 Clouds -5 989 71 10000 6.17 290 01:36 23.01.2022
5725 Clouds -5 1001 73 10000 5.66 280 00:42 23.01.2022
5726 Clouds -5 989 70 10000 4.63 270 23:57 22.01.2022
5727 Clouds -5 988 73 10000 4.12 280 22:48 22.01.2022
5728 Clouds -5 1000 76 10000 5.14 290 21:58 22.01.2022
5729 Clouds -4 998 76 10000 4.47 0 20:26 22.01.2022
5730 Clouds -3 997 76 7000 3.58 293 19:37 22.01.2022
5731 Snow -3 997 75 5000 4.47 0 18:36 22.01.2022
5732 Clouds -3 984 75 7000 5.14 280 17:42 22.01.2022
5733 Clouds -3 984 75 7000 5.14 280 17:42 22.01.2022
5734 Clouds -3 984 75 5000 4.63 290 16:57 22.01.2022
5735 Clouds -3 983 71 10000 5.14 300 16:22 22.01.2022
5736 Clouds -3 983 68 10000 5.66 290 15:44 22.01.2022
5737 Clouds -2 995 65 8000 6.71 293 14:22 22.01.2022
5738 Clouds -2 996 62 8000 7.72 290 13:27 22.01.2022
5739 Clouds -3 1015 63 10000 8.75 290 12:32 22.01.2022
5740 Clouds -3 1016 68 10000 8.23 290 11:58 22.01.2022
5741 Clouds -4 1017 74 10000 4.63 300 10:39 22.01.2022
5742 Clouds -4 1017 74 10000 4.63 300 10:19 22.01.2022
5743 Clouds -5 986 73 10000 1.54 350 08:54 22.01.2022
5744 Clouds -6 986 77 10000 2.06 10 08:31 22.01.2022
5745 Clear -7 1018 73 10000 3.6 350 05:20 22.01.2022
5746 Clouds -8 1019 86 10000 2.57 10 02:27 22.01.2022
5747 Clear -6 1022 74 10000 4.02 293 23:49 21.01.2022
5748 Clear -6 1022 74 10000 4.02 293 23:49 21.01.2022
5749 Clouds -6 1023 74 10000 4.63 290 22:58 21.01.2022
5750 Clouds -4 1022 74 10000 7.72 280 20:48 21.01.2022
5751 Clouds -3 1021 79 10000 6.69 280 19:20 21.01.2022
5752 Clouds -3 1021 81 10000 2.68 293 17:48 21.01.2022
5753 Clouds -1 1021 72 10000 4.02 293 15:48 21.01.2022
5754 Clouds -1 1020 77 10000 6.17 280 14:37 21.01.2022
5755 Snow -1 1022 78 10000 2.49 286 12:42 21.01.2022
5756 Clouds 0 1021 83 10000 3.09 280 11:29 21.01.2022
5757 Clouds 0 1022 86 6000 2.57 250 10:27 21.01.2022
5758 Clouds -1 1021 88 10000 1.54 280 08:50 21.01.2022
5759 Clouds -1 1020 91 2500 3.09 350 07:26 21.01.2022
5760 Clouds 2 1014 64 10000 1.54 150 00:59 21.01.2022
5761 Clouds 1 1015 69 10000 2.06 110 22:45 20.01.2022
5762 Clouds 3 1016 60 10000 1.54 150 21:48 20.01.2022
5763 Clouds 4 1016 56 10000 3.09 360 20:56 20.01.2022
5764 Clouds 3 1017 56 10000 1.54 240 19:21 20.01.2022
5765 Clouds 3 1017 52 10000 2.57 340 18:51 20.01.2022
5766 Clear 3 1017 48 10000 3.09 280 17:31 20.01.2022
5767 Clear 8 1018 34 10000 5.14 290 15:46 20.01.2022
5768 Clear 7 1020 37 10000 4.63 280 15:25 20.01.2022
5769 Clear 8 1019 34 10000 6.17 310 13:42 20.01.2022
5770 Clear 5 1020 42 10000 2.06 180 12:38 20.01.2022
5771 Clear 4 1020 45 10000 2.06 180 11:57 20.01.2022
5772 Clear 1 1022 55 10000 2.06 230 10:47 20.01.2022
5773 Clear -3 1022 74 6000 2.06 250 09:43 20.01.2022
5774 Clear 0 1020 62 7000 0.89 113 08:35 20.01.2022
5775 Clear 0 1020 62 7000 0.89 113 08:35 20.01.2022
5776 Clear -9 1022 86 7000 2.57 110 05:38 20.01.2022
5777 Clear -5 1025 80 10000 1.54 310 23:42 19.01.2022
5778 Clear -4 1028 77 10000 2.06 300 22:37 19.01.2022
5779 Clear -3 1028 76 10000 2.57 260 21:24 19.01.2022
5780 Clear -3 1028 75 10000 4.12 270 20:51 19.01.2022
5781 Clear -3 1028 75 10000 2.57 270 19:58 19.01.2022
5782 Clear -2 1029 72 10000 3.09 280 18:43 19.01.2022
5783 Clear -2 1029 70 10000 2.57 270 17:49 19.01.2022
5784 Clear 0 1029 64 10000 2.57 300 16:59 19.01.2022
5785 Clear 2 1030 55 10000 0.45 23 14:42 19.01.2022
5786 Clear 1 1029 55 10000 5.66 300 12:53 19.01.2022
5787 Clouds 1 1030 55 10000 6.69 300 11:42 19.01.2022
5788 Clouds 1 1031 55 10000 6.17 280 10:37 19.01.2022
5789 Clouds -1 1031 74 10000 6.17 290 09:34 19.01.2022
5790 Clear -3 1033 77 10000 5.14 280 07:18 19.01.2022
5791 Clear -4 1032 76 10000 4.12 280 05:18 19.01.2022
5792 Clear -3 1032 73 10000 6.17 270 23:20 18.01.2022
5793 Clear -2 1032 70 10000 2.24 0 22:44 18.01.2022
5794 Clear -3 1031 72 10000 5.14 280 21:20 18.01.2022
5795 Clear -2 1031 69 10000 2.68 293 19:55 18.01.2022
5796 Clear -2 1031 69 10000 6.17 290 19:37 18.01.2022
5797 Clear -1 1030 63 10000 8.75 280 18:54 18.01.2022
5798 Clouds -1 1029 63 10000 6.71 293 17:58 18.01.2022
5799 Snow 0 1029 60 10000 7.6 293 16:58 18.01.2022
5800 Snow 0 1029 55 10000 8.49 0 15:47 18.01.2022
5801 Snow 1 1029 55 10000 4.02 0 15:47 18.01.2022
5802 Clouds 1 1028 55 10000 11.62 0 15:22 18.01.2022
5803 Clouds 1 1026 60 10000 10.29 280 12:49 18.01.2022
5804 Clouds 0 1027 69 10000 8.23 280 10:47 18.01.2022
5805 Clouds 1 1028 63 10000 4.47 293 09:21 18.01.2022
5806 Clear -2 1025 74 10000 8.23 270 07:55 18.01.2022
5807 Clouds 1 1021 88 8000 5.81 315 02:35 18.01.2022
5808 Clouds 3 1020 76 10000 4.92 293 23:47 17.01.2022
5809 Clouds 2 1018 60 10000 4.12 290 22:27 17.01.2022
5810 Clouds 2 1018 60 10000 4.12 290 21:35 17.01.2022
5811 Clouds 2 1017 60 10000 2.57 340 20:24 17.01.2022
5812 Clear 3 1017 56 10000 4.63 300 18:30 17.01.2022
5813 Clear 3 1018 56 10000 5.14 290 17:44 17.01.2022
5814 Clear 4 1017 52 10000 6.17 290 16:40 17.01.2022
5815 Clear 5 1018 48 10000 8.23 280 15:19 17.01.2022
5816 Clouds 5 1020 54 10000 4.92 293 14:55 17.01.2022
5817 Clouds 6 1022 51 10000 9.77 280 13:22 17.01.2022
5818 Clouds 6 1023 51 10000 5.81 293 12:55 17.01.2022
5819 Clear 4 1022 60 10000 10.8 300 11:49 17.01.2022
5820 Clear 3 1023 60 10000 5.66 300 10:21 17.01.2022
5821 Clear 2 1022 64 10000 5.14 300 09:34 17.01.2022
5822 Clear -6 1024 90 8000 1.54 90 07:24 17.01.2022
5823 Mist -6 1022 93 5000 2.06 110 02:59 17.01.2022
5824 Mist -7 1023 100 5000 1.03 0 00:55 17.01.2022
5825 Clear -4 1025 88 6000 1.54 150 22:22 16.01.2022
5826 Mist -3 1026 84 4600 2.06 190 20:35 16.01.2022
5827 Clear -2 1026 82 7000 2.06 120 18:51 16.01.2022
5828 Clear -2 1026 81 10000 1.54 140 17:59 16.01.2022
5829 Clear 0 1026 70 10000 3.6 160 16:59 16.01.2022
5830 Clear 1 1026 66 10000 2.57 130 16:29 16.01.2022
5831 Clear 4 1027 58 10000 1.03 0 14:30 16.01.2022
5832 Clear 4 1027 58 10000 1.03 0 14:30 16.01.2022
5833 Clear 3 1025 60 10000 0.51 0 13:33 16.01.2022
5834 Clear 2 1026 64 10000 1.03 0 12:26 16.01.2022
5835 Clouds 1 1026 69 10000 1.54 10 11:38 16.01.2022
5836 Clouds 0 1027 74 10000 3.09 320 10:45 16.01.2022
5837 Clouds -1 1028 80 10000 0 0 09:59 16.01.2022
5838 Clouds -1 1028 80 10000 0 0 09:38 16.01.2022
5839 Clouds -3 1027 86 8000 0 0 09:20 16.01.2022
5840 Clouds -3 1028 86 8000 0.45 293 07:21 16.01.2022
5841 Clear -1 1028 73 10000 3.13 293 00:36 16.01.2022
5842 Clear -1 1027 72 10000 4.63 280 22:55 15.01.2022
5843 Clear 0 1030 72 10000 1.34 293 21:22 15.01.2022
5844 Clear 0 1029 71 10000 4.12 290 20:45 15.01.2022
5845 Clear 1 1028 70 10000 5.14 280 20:22 15.01.2022
5846 Clear 1 1028 68 10000 2.24 293 19:27 15.01.2022
5847 Rain 1 1027 70 10000 1.79 293 18:20 15.01.2022
5848 Clear 2 1027 67 10000 4.12 290 16:49 15.01.2022
5849 Clouds 5 1026 61 10000 5.66 280 14:38 15.01.2022
5850 Clouds 4 1023 65 10000 6.17 270 12:52 15.01.2022
5851 Clouds 5 1026 68 10000 3.13 293 11:26 15.01.2022
5852 Clouds 3 1025 71 10000 6.71 293 09:46 15.01.2022
5853 Clear 4 1019 65 10000 8.75 280 04:46 15.01.2022
5854 Clear 4 1020 65 10000 6.17 290 23:21 14.01.2022
5855 Clear 4 1020 65 10000 4.63 290 21:18 14.01.2022
5856 Clear 4 1020 65 10000 5.14 290 20:25 14.01.2022
5857 Clear 4 1020 65 10000 6.69 290 19:50 14.01.2022
5858 Clear 4 1020 65 10000 6.17 280 18:41 14.01.2022
5859 Clear 3 1021 70 10000 7.72 290 17:36 14.01.2022
5860 Clear 3 1021 70 10000 7.72 280 16:42 14.01.2022
5861 Clouds 4 1023 66 10000 1.79 270 15:30 14.01.2022
5862 Clouds 5 1024 62 10000 2.68 293 14:25 14.01.2022
5863 Clouds 3 1025 64 10000 6.69 300 12:58 14.01.2022
5864 Clouds 3 1026 67 10000 2.68 293 11:52 14.01.2022
5865 Clouds -2 1027 74 10000 5.14 300 10:30 14.01.2022
5866 Clouds -1 1029 75 10000 3.58 293 08:52 14.01.2022
5867 Clear -5 1030 75 8000 2.57 350 07:30 14.01.2022
5868 Clear -5 1032 77 10000 1.79 0 02:20 14.01.2022
5869 Clear -6 1033 80 10000 1.79 0 23:40 13.01.2022
5870 Snow -6 1034 79 10000 3.58 0 21:47 13.01.2022
5871 Snow -6 1034 76 10000 0.89 0 21:28 13.01.2022
5872 Clear -6 1035 79 10000 1.79 0 19:45 13.01.2022
5873 Snow -6 1035 76 10000 1.79 0 19:23 13.01.2022
5874 Clear -6 1035 76 10000 2.24 0 18:36 13.01.2022
5875 Clear -5 1035 76 10000 1.79 0 16:48 13.01.2022
5876 Clear -5 1034 71 10000 2.68 0 15:38 13.01.2022
5877 Clear -4 1032 63 10000 7.2 280 15:18 13.01.2022
5878 Clear -3 1034 62 10000 0.45 0 13:22 13.01.2022
5879 Clouds -4 1036 66 10000 4.47 0 10:39 13.01.2022
5880 Clouds -5 1036 70 10000 7.72 290 09:23 13.01.2022
5881 Clouds -5 1035 71 10000 6.69 280 08:28 13.01.2022
5882 Clouds -5 1035 75 10000 2.24 0 07:58 13.01.2022
5883 Clouds -5 1034 76 10000 2.68 0 07:18 13.01.2022
5884 Clouds -5 1033 79 10000 1.79 0 05:20 13.01.2022
5885 Clouds -5 1033 83 10000 2.68 0 03:33 13.01.2022
5886 Clouds -4 1032 78 10000 2.06 10 00:57 13.01.2022
5887 Clouds -3 1032 72 10000 2.24 0 23:53 12.01.2022
5888 Clouds -3 1032 71 10000 2.06 20 23:32 12.01.2022
5889 Clouds -3 1032 69 10000 0.89 0 21:58 12.01.2022
5890 Clouds -3 1032 70 10000 0.45 0 21:24 12.01.2022
5891 Clouds -3 1032 70 10000 1.54 330 20:57 12.01.2022
5892 Clouds -3 1032 70 10000 3.09 20 20:19 12.01.2022
5893 Clouds -3 1031 72 10000 0.89 0 18:48 12.01.2022
5894 Clouds -3 1031 72 10000 0.89 0 17:53 12.01.2022
5895 Clouds -3 1030 69 10000 3.09 20 16:42 12.01.2022
5896 Clouds -2 1029 62 10000 4.12 10 14:49 12.01.2022
5897 Clouds -1 1029 63 10000 3.6 10 13:37 12.01.2022
5898 Clouds -1 1029 65 10000 2.24 0 12:56 12.01.2022
5899 Clouds -3 1028 76 10000 3.6 10 08:55 12.01.2022
5900 Clouds -4 1028 79 10000 4.12 30 07:55 12.01.2022
5901 Clouds -4 1028 80 10000 4.12 30 07:32 12.01.2022
5902 Clouds -3 1024 82 10000 3.09 360 01:34 12.01.2022
5903 Clouds -2 1023 77 10000 2.24 0 23:25 11.01.2022
5904 Clouds -1 1023 73 10000 1.79 0 22:24 11.01.2022
5905 Clouds -1 1022 74 10000 1.54 350 21:28 11.01.2022
5906 Snow -1 1022 74 10000 2.06 270 20:35 11.01.2022
5907 Clouds -1 1021 78 10000 3.6 50 18:52 11.01.2022
5908 Clouds -1 1021 79 4200 1.34 0 17:46 11.01.2022
5909 Clouds -1 1020 79 10000 0.45 0 16:39 11.01.2022
5910 Clouds -2 1020 81 8000 0.45 0 16:18 11.01.2022
5911 Clouds -1 1019 76 10000 1.79 0 14:45 11.01.2022
5912 Clouds -1 1018 75 10000 0.89 0 14:18 11.01.2022
5913 Clouds -1 1018 75 10000 5.14 20 13:42 11.01.2022
5914 Clouds 0 1018 73 10000 0.89 0 13:24 11.01.2022
5915 Clouds 0 1018 79 6000 1.79 0 12:24 11.01.2022
5916 Clouds 0 1017 78 4600 1.34 0 10:26 11.01.2022
5917 Clouds 1 1015 85 10000 1.34 0 07:38 11.01.2022
5918 Clouds 1 1013 93 10000 1.54 260 02:57 11.01.2022
5919 Clouds 2 1013 94 10000 0.89 23 00:24 11.01.2022
5920 Clouds 2 1012 94 10000 0.51 0 23:38 10.01.2022
5921 Drizzle 2 1011 94 10000 0.89 113 22:20 10.01.2022
5922 Clouds 2 1012 94 10000 1.34 113 21:56 10.01.2022
5923 Clouds 2 1011 94 10000 2.24 113 21:33 10.01.2022
5924 Clouds 2 1011 94 10000 3.13 90 20:58 10.01.2022
5925 Clouds 2 1010 93 10000 0.89 23 20:29 10.01.2022
5926 Clouds 2 1009 93 10000 2.06 210 19:48 10.01.2022
5927 Rain 2 1009 50 10000 12.96 90 19:23 10.01.2022
5928 Clouds 2 1009 90 10000 0.45 90 18:55 10.01.2022
5929 Clouds 2 1009 90 10000 0.45 90 18:37 10.01.2022
5930 Clouds 3 1007 93 10000 1.03 0 16:48 10.01.2022
5931 Clouds 3 1007 92 8000 0.89 23 16:18 10.01.2022
5932 Clouds 3 1005 93 8000 1.54 210 14:41 10.01.2022
5933 Clouds 3 1005 93 7000 0.89 23 12:43 10.01.2022
5934 Mist 3 1004 96 4300 0.89 23 11:40 10.01.2022
5935 Clouds 4 1004 93 8000 1.54 320 10:45 10.01.2022
5936 Clouds 4 1004 94 10000 0.89 113 08:57 10.01.2022
5937 Clouds 5 1002 87 10000 4.47 90 05:51 10.01.2022
5938 Clouds 5 1002 93 8000 1.79 113 01:33 10.01.2022
5939 Clouds 5 1002 89 10000 2.24 113 00:36 10.01.2022
5940 Clouds 5 1003 89 10000 2.57 110 23:54 09.01.2022
5941 Clouds 5 1003 87 10000 4.63 100 22:43 09.01.2022
5942 Clouds 5 1003 89 10000 4.63 100 21:47 09.01.2022
5943 Clouds 4 1003 86 10000 5.14 110 21:25 09.01.2022
5944 Clouds 4 1003 86 10000 5.14 110 21:25 09.01.2022
5945 Clouds 4 1003 87 10000 0.89 90 20:55 09.01.2022
5946 Clouds 4 1004 88 10000 5.66 110 20:37 09.01.2022
5947 Clouds 4 1004 88 10000 0.89 90 20:18 09.01.2022
5948 Clouds 4 1004 87 10000 4.12 110 19:37 09.01.2022
5949 Clouds 4 1004 87 10000 0.89 90 19:18 09.01.2022
5950 Clouds 4 1004 86 10000 0.89 90 18:37 09.01.2022
5951 Clouds 5 1004 85 10000 5.66 110 17:48 09.01.2022
5952 Clouds 4 1004 85 10000 0.45 90 17:26 09.01.2022
5953 Clouds 6 1004 80 10000 1.34 90 16:40 09.01.2022
5954 Clouds 6 1004 79 10000 2.24 90 15:40 09.01.2022
5955 Clouds 7 1004 75 10000 6.69 100 14:50 09.01.2022
5956 Clouds 7 1004 75 10000 3.13 113 14:23 09.01.2022
5957 Clouds 7 1004 73 10000 6.17 90 13:48 09.01.2022
5958 Clouds 8 1005 74 10000 2.68 113 11:56 09.01.2022
5959 Clouds 7 1006 74 10000 5.14 100 11:25 09.01.2022
5960 Clouds 6 1007 78 10000 1.54 110 09:55 09.01.2022
5961 Clouds 5 1007 86 10000 1.03 0 08:56 09.01.2022
5962 Clouds 2 1008 92 10000 1.34 0 06:21 09.01.2022
5963 Clouds 2 1010 91 10000 3.09 90 01:28 09.01.2022
5964 Clouds 3 1010 91 10000 3.6 80 00:37 09.01.2022
5965 Clouds 2 1011 91 10000 3.09 100 23:30 08.01.2022
5966 Clouds 2 1011 91 10000 2.57 100 22:44 08.01.2022
5967 Clouds 3 1012 88 10000 4.12 110 21:27 08.01.2022
5968 Clouds 3 1012 90 10000 1.79 90 20:43 08.01.2022
5969 Clouds 4 1013 88 10000 4.12 110 20:21 08.01.2022
5970 Clouds 4 1013 86 10000 4.63 110 19:22 08.01.2022
5971 Clouds 4 1013 86 10000 2.68 90 17:25 08.01.2022
5972 Clouds 4 1013 85 10000 5.66 130 16:42 08.01.2022
5973 Clouds 5 1014 79 10000 3.13 113 14:52 08.01.2022
5974 Clouds 6 1014 78 10000 4.92 113 13:57 08.01.2022
5975 Clouds 5 1014 81 10000 6.17 110 11:30 08.01.2022
5976 Clouds 4 1014 87 10000 6.17 120 10:33 08.01.2022
5977 Clouds 4 1015 87 10000 7.72 110 09:57 08.01.2022
5978 Clouds 5 1016 82 10000 3.58 113 09:30 08.01.2022
5979 Clouds 3 1017 86 10000 6.17 110 05:39 08.01.2022
5980 Clouds 3 1019 85 10000 6.69 110 01:24 08.01.2022
5981 Clouds 3 1019 84 10000 7.72 110 23:30 07.01.2022
5982 Clouds 3 1020 82 10000 4.92 113 21:47 07.01.2022
5983 Clouds 4 1020 83 10000 4.47 90 20:26 07.01.2022
5984 Clouds 4 1020 82 10000 4.92 90 19:26 07.01.2022
5985 Clouds 4 1020 78 10000 5.81 90 18:46 07.01.2022
5986 Clouds 4 1019 78 10000 4.47 90 18:18 07.01.2022
5987 Clouds 4 1020 72 10000 1.79 90 17:23 07.01.2022
5988 Clouds 5 1020 66 10000 0.89 90 14:55 07.01.2022
5989 Clouds 5 1020 66 10000 0.51 0 13:52 07.01.2022
5990 Clouds 5 1020 67 10000 1.03 280 12:50 07.01.2022
5991 Clouds 4 1021 73 10000 4.12 270 10:18 07.01.2022
5992 Clouds 2 1019 79 10000 7.72 270 02:59 07.01.2022
5993 Clouds 3 1019 75 10000 4.02 293 02:21 07.01.2022
5994 Clouds 2 1019 79 10000 6.69 280 01:45 07.01.2022
5995 Clouds 2 1019 79 10000 4.02 0 01:23 07.01.2022
5996 Clouds 2 1018 80 10000 6.69 270 00:29 07.01.2022
5997 Clouds 3 1017 75 10000 6.69 270 21:57 06.01.2022
5998 Clouds 4 1016 75 10000 4.63 270 20:37 06.01.2022
5999 Clouds 4 1015 78 10000 2.68 293 19:54 06.01.2022
6000 Clouds 4 1015 80 10000 1.79 0 19:29 06.01.2022
6001 Clouds 6 1013 71 10000 3.13 293 17:51 06.01.2022
6002 Clouds 9 1012 63 10000 6.69 300 17:19 06.01.2022
6003 Clouds 15 1009 38 10000 2.57 90 16:22 06.01.2022
6004 Clear 15 1010 38 10000 3.09 50 15:41 06.01.2022
6005 Clear 15 1009 38 10000 0 0 15:20 06.01.2022
6006 Clear 15 1008 41 10000 1.54 70 14:19 06.01.2022
6007 Clear 13 1009 54 10000 2.57 70 12:59 06.01.2022
6008 Clear 11 1009 58 10000 2.57 90 11:58 06.01.2022
6009 Clear 10 1009 57 10000 1.54 0 11:29 06.01.2022
6010 Clouds 5 1010 87 7000 1.54 0 09:33 06.01.2022
6011 Clear 0 1008 93 7000 2.06 110 01:57 06.01.2022
6012 Clouds 1 1008 93 7000 1.03 0 23:54 05.01.2022
6013 Clouds 1 1008 93 7000 1.54 0 23:19 05.01.2022
6014 Clouds 2 1008 87 7000 1.54 0 22:41 05.01.2022
6015 Clouds 4 1008 87 8000 1.54 250 21:59 05.01.2022
6016 Clouds 4 1008 81 8000 2.06 300 21:22 05.01.2022
6017 Mist 5 1009 82 5000 1.54 280 20:21 05.01.2022
6018 Clouds 6 1010 76 8000 1.03 0 19:27 05.01.2022
6019 Clouds 6 1009 76 8000 1.54 310 17:50 05.01.2022
6020 Clear 7 1009 72 10000 1.54 340 16:56 05.01.2022
6021 Clear 10 1009 60 10000 1.03 0 15:46 05.01.2022
6022 Clear 12 1009 57 10000 0.89 135 14:50 05.01.2022
6023 Clear 12 1009 53 10000 1.03 0 13:33 05.01.2022
6024 Clear 8 1009 66 10000 1.54 0 11:46 05.01.2022
6025 Clouds 2 1012 91 7000 2.06 110 08:20 05.01.2022
6026 Mist -2 1010 93 5000 1.03 290 06:36 05.01.2022
6027 Clear 0 1011 93 7000 1.54 80 00:59 05.01.2022
6028 Clear 2 1013 90 6000 0.45 180 23:38 04.01.2022
6029 Clear -1 1011 100 6000 1.54 130 23:18 04.01.2022
6030 Mist 3 1015 86 5000 4.12 110 21:31 04.01.2022
6031 Mist 3 1015 84 8000 1.54 230 19:55 04.01.2022
6032 Clear 4 1014 83 10000 0 0 18:19 04.01.2022
6033 Clear 6 1014 73 10000 0.89 113 16:53 04.01.2022
6034 Clear 7 1014 69 10000 1.03 80 16:30 04.01.2022
6035 Clear 9 1014 62 10000 0.89 90 14:54 04.01.2022
6036 Clear 9 1014 61 10000 1.03 0 14:36 04.01.2022
6037 Clear 9 1015 63 10000 1.54 130 13:40 04.01.2022
6038 Clear 4 1016 81 10000 1.54 220 10:52 04.01.2022
6039 Clouds 5 1018 81 8000 0.51 0 09:47 04.01.2022
6040 Clouds 4 1016 79 8000 1.03 20 08:34 04.01.2022
6041 Mist 3 1016 79 4000 0.51 150 02:52 04.01.2022
6042 Clouds 3 1018 87 7000 1.03 0 00:42 04.01.2022
6043 Clouds 4 1019 86 7000 2.06 20 23:34 03.01.2022
6044 Clear 6 1018 74 10000 1.34 293 22:21 03.01.2022
6045 Clouds 5 1019 77 6000 2.57 250 21:34 03.01.2022
6046 Smoke 8 1020 69 3000 0.51 0 20:26 03.01.2022
6047 Smoke 7 1018 77 2800 1.03 280 18:54 03.01.2022
6048 Smoke 7 1017 78 10000 0.45 293 18:28 03.01.2022
6049 Clear 9 1017 71 10000 1.54 180 16:59 03.01.2022
6050 Clear 11 1015 62 10000 1.54 220 15:40 03.01.2022
6051 Clear 11 1015 62 10000 1.03 0 14:31 03.01.2022
6052 Clear 11 1015 62 10000 1.03 0 14:31 03.01.2022
6053 Clear 9 1016 71 10000 1.54 270 12:48 03.01.2022
6054 Clear 8 1017 76 10000 1.03 0 11:39 03.01.2022
6055 Clouds 8 1018 69 8000 1.54 50 10:37 03.01.2022
6056 Mist 7 1018 78 5000 2.06 130 08:48 03.01.2022
6057 Mist 3 1016 71 5000 1.03 0 07:36 03.01.2022
6058 Fog 0 1022 93 700 1.54 130 00:29 03.01.2022
6059 Mist 1 1022 100 2000 1.54 0 23:22 02.01.2022
6060 Mist 1 1022 93 4500 1.03 30 22:55 02.01.2022
6061 Clouds 3 1025 89 8000 2.06 170 21:46 02.01.2022
6062 Clouds 4 1025 88 7000 2.57 130 20:38 02.01.2022
6063 Clear 4 1025 90 10000 1.54 160 20:18 02.01.2022
6064 Clear 6 1023 81 10000 1.54 0 19:31 02.01.2022
6065 Clear 6 1023 81 10000 3.09 210 18:46 02.01.2022
6066 Clear 8 1024 71 10000 2.57 250 17:54 02.01.2022
6067 Clear 8 1024 71 10000 2.57 250 17:36 02.01.2022
6068 Clear 8 1024 71 10000 2.06 250 17:18 02.01.2022
6069 Clear 9 1026 37 10000 2.57 280 16:26 02.01.2022
6070 Clear 12 1026 64 10000 3.6 300 14:32 02.01.2022
6071 Clouds 12 1024 62 10000 4.12 280 12:50 02.01.2022
6072 Clouds 11 1025 66 10000 4.63 290 11:58 02.01.2022
6073 Clouds 11 1025 66 10000 4.63 290 11:32 02.01.2022
6074 Clouds 11 1026 71 10000 4.63 280 10:46 02.01.2022
6075 Clouds 11 1029 73 8000 2.24 293 09:45 02.01.2022
6076 Clouds 9 1027 82 10000 4.12 280 05:21 02.01.2022
6077 Clouds 9 1024 81 10000 2.57 300 01:42 02.01.2022
6078 Clouds 8 1026 81 10000 3.09 290 23:39 01.01.2022
6079 Clouds 8 1026 84 10000 4.47 293 22:57 01.01.2022
6080 Clear 8 1026 81 10000 3.13 0 22:22 01.01.2022
6081 Clear 8 1025 81 10000 5.36 293 21:43 01.01.2022
6082 Clouds 8 1025 80 10000 5.14 280 20:55 01.01.2022
6083 Clouds 9 1025 77 10000 1.79 293 19:58 01.01.2022
6084 Clouds 9 1025 77 10000 0.89 293 19:19 01.01.2022
6085 Clouds 9 1024 78 10000 2.68 293 17:58 01.01.2022
6086 Clouds 10 1023 76 10000 3.13 293 16:37 01.01.2022
6087 Clouds 10 1023 76 10000 8.75 280 16:19 01.01.2022
6088 Clouds 10 1023 77 10000 5.36 315 15:26 01.01.2022
6089 Clouds 10 1022 76 10000 7.2 290 13:46 01.01.2022
6090 Clouds 10 1022 76 10000 5.36 293 13:46 01.01.2022
6091 Clouds 12 1024 63 10000 0.89 293 12:49 01.01.2022
6092 Clouds 12 1021 62 10000 6.17 290 11:56 01.01.2022
6093 Clouds 11 1021 71 10000 3.6 310 11:22 01.01.2022
6094 Clouds 7 1021 87 7000 2.06 10 10:27 01.01.2022
6095 Mist 5 1021 93 5000 1.54 360 09:45 01.01.2022
6096 Mist 5 1022 87 1800 1.54 30 08:25 01.01.2022
6097 Mist 3 1022 89 2000 1.54 260 07:43 01.01.2022
6098 Fog 3 1022 86 800 1.54 80 06:47 01.01.2022
6099 Fog 2 1022 88 300 1.54 100 05:26 01.01.2022
6100 Fog 1 1022 96 250 1.03 90 04:37 01.01.2022
6101 Mist 1 1023 95 1100 1.54 110 01:28 01.01.2022
6102 Smoke 4 1024 93 3000 1.03 0 23:35 31.12.2021
6103 Clouds 3 1023 93 8000 1.03 0 21:52 31.12.2021
6104 Clouds 4 1023 100 10000 3.6 360 20:37 31.12.2021
6105 Clear 6 1023 87 10000 2.06 360 19:30 31.12.2021
6106 Clouds 6 1023 87 10000 2.06 340 18:35 31.12.2021
6107 Clouds 7 1023 81 10000 2.57 330 17:38 31.12.2021
6108 Clouds 8 1023 81 10000 2.06 310 17:18 31.12.2021
6109 Clouds 9 1023 76 10000 3.6 300 16:24 31.12.2021
6110 Clouds 9 1023 76 10000 4.63 300 15:56 31.12.2021
6111 Clouds 10 1025 77 10000 4.63 280 15:28 31.12.2021
6112 Clouds 10 1025 74 10000 5.66 280 14:52 31.12.2021
6113 Clouds 10 1025 73 10000 2.24 293 14:29 31.12.2021
6114 Clouds 10 1025 71 10000 2.24 0 13:36 31.12.2021
6115 Clouds 10 1025 67 10000 5.81 293 12:45 31.12.2021
6116 Clouds 7 1024 76 10000 3.6 310 11:43 31.12.2021
6117 Clouds 6 1024 75 10000 3.6 330 11:24 31.12.2021
6118 Clouds 6 1024 75 10000 3.09 310 10:34 31.12.2021
6119 Clouds 4 1025 81 10000 2.57 320 09:52 31.12.2021
6120 Clouds 6 1027 77 10000 1.34 23 09:32 31.12.2021
6121 Clouds 3 1025 87 10000 3.09 300 08:25 31.12.2021
6122 Clouds 3 1026 84 10000 2.57 300 07:30 31.12.2021
6123 Clouds 4 1025 87 10000 3.09 300 23:23 30.12.2021
6124 Clouds 4 1024 86 10000 3.09 280 22:33 30.12.2021
6125 Clouds 4 1024 86 10000 1.79 293 21:54 30.12.2021
6126 Clouds 4 1024 86 10000 4.12 280 21:36 30.12.2021
6127 Clouds 5 1024 84 10000 3.13 293 20:45 30.12.2021
6128 Clouds 4 1024 86 10000 0.89 293 20:24 30.12.2021
6129 Clouds 4 1024 83 10000 2.24 293 19:44 30.12.2021
6130 Clouds 5 1023 80 10000 3.09 310 18:29 30.12.2021
6131 Clouds 5 1022 80 10000 3.09 300 17:52 30.12.2021
6132 Clouds 5 1021 77 10000 3.09 300 16:19 30.12.2021
6133 Clouds 5 1021 76 10000 3.09 320 15:42 30.12.2021
6134 Clouds 5 1020 75 10000 2.06 310 14:38 30.12.2021
6135 Clouds 5 1020 74 10000 2.57 320 13:49 30.12.2021
6136 Clouds 5 1019 74 10000 3.09 340 12:40 30.12.2021
6137 Clouds 4 1019 77 10000 0.45 90 10:58 30.12.2021
6138 Clouds 3 1018 82 10000 2.06 30 09:58 30.12.2021
6139 Clouds 3 1017 83 10000 1.54 340 08:56 30.12.2021
6140 Clouds 3 1015 88 10000 0.89 293 06:52 30.12.2021
6141 Clouds 4 1013 91 10000 3.13 293 03:42 30.12.2021
6142 Clouds 4 1012 88 10000 1.79 0 02:47 30.12.2021
6143 Clouds 5 1011 89 10000 5.14 280 23:43 29.12.2021
6144 Clouds 5 1011 89 10000 4.92 0 23:22 29.12.2021
6145 Clouds 5 1011 92 10000 3.58 293 22:21 29.12.2021
6146 Clouds 5 1011 93 7000 1.34 293 21:33 29.12.2021
6147 Clouds 6 1010 92 7000 1.79 293 20:38 29.12.2021
6148 Mist 6 1010 92 4000 0.89 293 19:48 29.12.2021
6149 Mist 6 1010 96 5000 1.79 293 18:52 29.12.2021
6150 Clouds 7 1009 91 7000 1.54 290 17:56 29.12.2021
6151 Clouds 7 1009 91 8000 0 0 17:27 29.12.2021
6152 Clouds 7 1009 91 8000 1.03 290 16:24 29.12.2021
6153 Clouds 8 1009 88 8000 1.54 280 15:48 29.12.2021
6154 Clouds 8 1008 86 10000 1.03 0 14:19 29.12.2021
6155 Clouds 7 1009 91 6000 2.06 100 12:37 29.12.2021
6156 Mist 8 1009 91 5000 4.12 100 11:35 29.12.2021
6157 Mist 5 1011 93 1300 1.54 270 09:58 29.12.2021
6158 Mist 5 1010 93 2600 0.51 0 07:51 29.12.2021
6159 Mist 4 1010 96 4000 1.54 290 06:38 29.12.2021
6160 Mist 4 1010 94 4300 1.54 340 05:59 29.12.2021
6161 Mist 3 1010 94 4300 1.54 340 05:36 29.12.2021
6162 Mist 5 1011 93 5000 4.63 120 02:40 29.12.2021
6163 Clouds 5 1011 90 10000 2.57 160 00:22 29.12.2021
6164 Clear 5 1011 90 10000 2.57 150 23:34 28.12.2021
6165 Clouds 4 1011 95 8000 3.09 90 22:42 28.12.2021
6166 Mist 4 1011 95 5000 3.09 110 22:24 28.12.2021
6167 Mist 5 1011 90 5000 2.57 110 21:36 28.12.2021
6168 Mist 5 1012 93 2500 1.54 110 20:36 28.12.2021
6169 Fog 5 1012 93 2000 2.06 140 19:22 28.12.2021
6170 Clouds 5 1011 92 7000 1.03 0 18:35 28.12.2021
6171 Clouds 6 1012 87 7000 1.03 0 17:57 28.12.2021
6172 Clear 8 1011 82 10000 1.03 180 16:34 28.12.2021
6173 Clear 10 1011 79 10000 1.03 190 15:49 28.12.2021
6174 Clear 10 1011 76 10000 1.79 113 15:20 28.12.2021
6175 Clouds 10 1009 76 10000 1.54 190 14:46 28.12.2021
6176 Clouds 11 1011 74 10000 1.03 0 14:20 28.12.2021
6177 Clouds 11 1009 66 10000 1.03 0 13:42 28.12.2021
6178 Clouds 11 1009 71 10000 0.51 0 13:24 28.12.2021
6179 Clouds 10 1010 76 10000 1.54 330 12:39 28.12.2021
6180 Clouds 8 1010 87 10000 1.54 320 11:27 28.12.2021
6181 Fog 5 1012 96 500 2.57 90 07:40 28.12.2021
6182 Fog 5 1012 95 800 2.06 180 06:41 28.12.2021
6183 Clouds 7 1013 91 10000 1.03 0 23:43 27.12.2021
6184 Drizzle 7 1013 90 10000 0.45 90 22:58 27.12.2021
6185 Clouds 7 1012 91 10000 2.57 50 21:33 27.12.2021
6186 Clouds 8 1012 85 10000 4.63 80 20:46 27.12.2021
6187 Rain 8 1012 85 10000 3.09 110 19:57 27.12.2021
6188 Rain 8 1012 83 10000 3.09 110 19:39 27.12.2021
6189 Drizzle 9 1009 76 10000 3.09 60 17:55 27.12.2021
6190 Drizzle 9 1009 76 10000 3.09 60 17:55 27.12.2021
6191 Drizzle 9 1009 76 10000 3.09 60 17:37 27.12.2021
6192 Clouds 10 1008 66 10000 1.54 360 16:36 27.12.2021
6193 Clouds 13 1008 54 10000 4.12 150 15:51 27.12.2021
6194 Clouds 11 1008 62 10000 3.09 0 14:31 27.12.2021
6195 Clouds 13 1010 58 10000 4.12 350 13:39 27.12.2021
6196 Clouds 11 1011 69 10000 6.17 100 11:53 27.12.2021
6197 Clouds 10 1010 66 10000 5.14 100 10:29 27.12.2021
6198 Clouds 8 1014 76 10000 4.12 90 09:39 27.12.2021
6199 Clouds 6 1013 83 10000 3.6 110 07:35 27.12.2021
6200 Clouds 5 1013 85 10000 1.03 0 06:38 27.12.2021
6201 Mist 4 1014 87 5000 2.57 260 01:59 27.12.2021
6202 Mist 5 1015 85 5000 0.45 23 23:57 26.12.2021
6203 Mist 5 1015 85 5000 1.03 0 23:34 26.12.2021
6204 Mist 4 1014 86 5000 2.06 0 21:53 26.12.2021
6205 Clouds 5 1014 83 8000 2.57 50 20:42 26.12.2021
6206 Clouds 5 1014 81 8000 1.54 90 19:46 26.12.2021
6207 Clouds 5 1014 87 6000 0.89 180 18:23 26.12.2021
6208 Clear 7 1014 80 10000 1.54 130 15:57 26.12.2021
6209 Clouds 8 1012 76 10000 1.03 0 14:27 26.12.2021
6210 Clouds 8 1012 76 10000 2.06 150 13:40 26.12.2021
6211 Clouds 8 1012 76 10000 1.03 0 13:18 26.12.2021
6212 Clouds 5 1012 87 10000 2.06 280 12:27 26.12.2021
6213 Clear 6 1014 86 10000 2.06 20 10:22 26.12.2021
6214 Clouds 5 1015 86 10000 3.13 113 09:19 26.12.2021
6215 Clouds 3 1015 86 10000 2.06 220 08:40 26.12.2021
6216 Rain 2 1014 93 8000 1.03 0 07:25 26.12.2021
6217 Clouds 1 1014 91 9000 1.03 0 00:59 26.12.2021
6218 Clouds 1 1015 91 7000 1.34 113 23:51 25.12.2021
6219 Clouds 1 1015 93 7000 3.09 130 23:26 25.12.2021
6220 Mist 1 1015 89 5000 1.03 0 22:23 25.12.2021
6221 Clouds 2 1015 88 9000 2.57 150 20:48 25.12.2021
6222 Clouds 2 1015 86 8000 2.57 160 19:22 25.12.2021
6223 Clear 2 1015 85 10000 3.09 100 18:54 25.12.2021
6224 Clear 2 1013 88 10000 2.57 190 17:29 25.12.2021
6225 Clear 4 1013 75 10000 1.54 140 16:35 25.12.2021
6226 Clear 9 1013 57 10000 1.54 110 14:38 25.12.2021
6227 Clouds 10 1013 53 10000 1.54 30 12:49 25.12.2021
6228 Clouds 8 1014 61 10000 1.03 0 11:45 25.12.2021
6229 Clouds 7 1018 69 10000 1.54 220 09:50 25.12.2021
6230 Clouds 0 1015 93 10000 1.54 0 08:19 25.12.2021
6231 Clouds 0 1016 90 10000 1.34 180 02:22 25.12.2021
6232 Clear 1 1016 87 10000 0.89 90 00:33 25.12.2021
6233 Clouds 2 1017 87 10000 1.03 0 23:38 24.12.2021
6234 Clear 0 1014 80 10000 1.54 40 19:39 24.12.2021
6235 Clear 0 1014 80 10000 1.54 40 19:39 24.12.2021
6236 Clear 1 1014 75 10000 1.54 330 19:21 24.12.2021
6237 Clear 5 1013 56 10000 1.03 0 16:50 24.12.2021
6238 Clear 6 1013 56 10000 2.06 0 16:21 24.12.2021
6239 Clear 9 1013 46 10000 3.6 310 15:46 24.12.2021
6240 Clear 10 1013 43 10000 3.6 300 14:46 24.12.2021
6241 Clear 10 1013 43 10000 1.03 0 14:23 24.12.2021
6242 Clear 8 1014 46 10000 2.06 110 13:37 24.12.2021
6243 Clear 7 1016 48 10000 1.03 0 12:48 24.12.2021
6244 Clear 5 1018 49 10000 2.06 0 11:52 24.12.2021
6245 Clear 5 1018 47 10000 1.03 0 11:26 24.12.2021
6246 Clear 2 1016 55 10000 1.54 100 10:50 24.12.2021
6247 Clear 1 1017 60 10000 1.54 90 10:18 24.12.2021
6248 Clouds -2 1019 79 10000 2.57 100 08:24 24.12.2021
6249 Clouds -2 1020 75 8000 2.57 90 07:48 24.12.2021
6250 Clouds -4 1021 81 10000 1.03 0 02:52 24.12.2021
6251 Clouds -3 1022 73 10000 1.03 0 00:19 24.12.2021
6252 Clouds -3 1022 72 10000 1.03 90 23:22 23.12.2021
6253 Clouds -2 1023 72 10000 1.03 0 22:37 23.12.2021
6254 Clouds -2 1023 72 10000 1.03 0 22:37 23.12.2021
6255 Clouds -2 1023 71 10000 0 0 22:19 23.12.2021
6256 Clouds -2 1023 71 10000 1.03 170 21:33 23.12.2021
6257 Clouds -2 1024 71 10000 1.03 0 20:19 23.12.2021
6258 Clouds -3 1025 72 9000 1.54 110 18:37 23.12.2021
6259 Clear -3 1024 69 10000 1.03 0 17:57 23.12.2021
6260 Clear -3 1024 70 10000 1.54 130 16:47 23.12.2021
6261 Clear -2 1024 67 10000 0.89 113 16:24 23.12.2021
6262 Clear -1 1025 61 10000 1.34 135 15:31 23.12.2021
6263 Clear 0 1024 58 10000 1.79 90 14:52 23.12.2021
6264 Clear 0 1024 56 10000 1.34 90 14:31 23.12.2021
6265 Clear 1 1025 54 10000 1.03 0 13:19 23.12.2021
6266 Clear -2 1026 60 10000 1.54 290 10:53 23.12.2021
6267 Clear -3 1026 68 10000 0.51 0 09:47 23.12.2021
6268 Clear -6 1026 79 8000 1.03 0 09:19 23.12.2021
6269 Clear -9 1028 88 10000 1.54 80 06:59 23.12.2021
6270 Clear -9 1027 83 10000 2.06 160 04:33 23.12.2021
6271 Clouds -4 1028 75 10000 0.89 0 23:26 22.12.2021
6272 Clouds -4 1028 74 10000 2.68 293 22:47 22.12.2021
6273 Clouds -3 1028 70 10000 0.89 293 21:56 22.12.2021
6274 Clouds -3 1028 70 10000 1.34 293 21:29 22.12.2021
6275 Clouds -3 1028 70 10000 3.13 293 20:47 22.12.2021
6276 Clear -3 1028 70 10000 5.81 293 20:26 22.12.2021
6277 Clear -3 1027 65 10000 2.24 293 19:28 22.12.2021
6278 Clouds -3 1027 64 10000 0.89 293 17:50 22.12.2021
6279 Clouds -2 1028 65 10000 0.89 0 16:40 22.12.2021
6280 Clouds 0 1028 59 10000 2.06 310 15:40 22.12.2021
6281 Clouds 1 1027 57 10000 2.06 280 13:33 22.12.2021
6282 Clouds 1 1027 59 10000 1.54 310 12:40 22.12.2021
6283 Clouds -4 1026 74 8000 1.03 0 10:19 22.12.2021
6284 Clouds -5 1026 74 8000 1.03 0 09:38 22.12.2021
6285 Clear -8 1027 89 10000 1.03 0 07:25 22.12.2021
6286 Clear -8 1027 89 10000 1.03 0 05:43 22.12.2021
6287 Clear -8 1026 88 10000 0.51 30 05:24 22.12.2021
6288 Clear -8 1026 85 10000 1.03 140 04:50 22.12.2021
6289 Clear -8 1026 85 10000 0.51 0 04:26 22.12.2021
6290 Clouds -7 1026 84 10000 2.06 260 03:32 22.12.2021
6291 Clouds -6 1027 80 10000 1.03 0 00:47 22.12.2021
6292 Clear -5 1027 78 10000 1.34 293 22:52 21.12.2021
6293 Clear -4 1026 75 10000 2.06 350 22:28 21.12.2021
6294 Clear -4 1026 75 10000 2.24 293 21:44 21.12.2021
6295 Clear -4 1026 71 10000 1.34 293 20:55 21.12.2021
6296 Clear -3 1026 67 10000 0.45 293 20:21 21.12.2021
6297 Clear -3 1026 67 10000 2.24 293 19:41 21.12.2021
6298 Clear -3 1025 67 10000 4.02 0 18:46 21.12.2021
6299 Clouds -2 1025 65 10000 3.13 293 18:21 21.12.2021
6300 Clouds -2 1027 64 10000 5.66 280 17:41 21.12.2021
6301 Clear -1 1024 59 10000 1.34 293 15:59 21.12.2021
6302 Clouds 0 1025 53 10000 4.92 293 15:20 21.12.2021
6303 Clouds 1 1023 52 10000 2.68 270 13:50 21.12.2021
6304 Clouds 1 1023 50 10000 5.81 270 13:30 21.12.2021
6305 Clouds 2 1024 52 10000 10.8 280 11:36 21.12.2021
6306 Clouds 1 1023 55 10000 4.92 293 10:21 21.12.2021
6307 Clouds 0 1021 64 10000 7.72 280 09:19 21.12.2021
6308 Clouds -1 1020 69 10000 6.69 280 07:55 21.12.2021
6309 Clouds -1 1019 69 10000 6.69 280 07:26 21.12.2021
6310 Clouds -1 1021 66 10000 4.47 293 05:31 21.12.2021
6311 Clouds 0 1021 72 10000 3.13 338 02:40 21.12.2021
6312 Clouds 0 1020 64 10000 2.24 293 23:58 20.12.2021
6313 Clouds 0 1020 64 10000 2.68 293 23:24 20.12.2021
6314 Clouds 1 1020 62 10000 5.36 293 22:28 20.12.2021
6315 Clouds 1 1020 63 10000 2.24 270 21:47 20.12.2021
6316 Clouds 1 1020 63 10000 4.92 293 21:23 20.12.2021
6317 Clouds 1 1020 65 10000 3.58 293 20:44 20.12.2021
6318 Clouds 1 1016 60 10000 6.69 280 19:50 20.12.2021
6319 Clouds 0 1016 69 10000 7.2 280 19:30 20.12.2021
6320 Clouds 1 1016 64 10000 6.17 280 18:53 20.12.2021
6321 Clouds 1 1017 64 10000 2.68 0 17:52 20.12.2021
6322 Clouds 1 1017 64 10000 2.68 0 17:52 20.12.2021
6323 Clouds 1 1016 66 10000 7.2 290 17:23 20.12.2021
6324 Clouds 2 1016 62 10000 2.24 0 16:38 20.12.2021
6325 Clouds 2 1015 64 10000 5.36 293 15:48 20.12.2021
6326 Clouds 4 1015 64 10000 1.79 293 14:42 20.12.2021
6327 Clouds 5 1014 67 10000 4.92 293 12:51 20.12.2021
6328 Clouds 5 1014 66 10000 2.68 293 11:18 20.12.2021
6329 Clouds 4 1014 67 10000 0.89 293 09:47 20.12.2021
6330 Clouds 4 1014 70 10000 7.15 293 08:57 20.12.2021
6331 Clouds 4 1014 72 10000 4.47 293 08:38 20.12.2021
6332 Clouds 3 1014 76 10000 2.68 293 07:46 20.12.2021
6333 Clouds 3 1013 78 10000 3.13 293 06:47 20.12.2021
6334 Clouds 3 1012 71 10000 4.92 293 03:41 20.12.2021
6335 Clouds 1 1010 80 10000 3.09 340 23:50 19.12.2021
6336 Clouds 0 1011 80 10000 1.54 340 22:44 19.12.2021
6337 Clear 1 1011 75 10000 2.57 330 21:49 19.12.2021
6338 Clear 0 1011 80 10000 3.6 310 21:25 19.12.2021
6339 Clouds 2 1012 75 10000 4.63 300 20:29 19.12.2021
6340 Clouds 2 1012 75 10000 4.63 300 19:45 19.12.2021
6341 Clouds 3 1015 72 10000 3.13 338 18:57 19.12.2021
6342 Clouds 2 1014 77 10000 5.14 290 18:24 19.12.2021
6343 Clouds 2 1015 77 10000 0.45 293 17:46 19.12.2021
6344 Clouds 2 1015 80 10000 1.79 0 16:55 19.12.2021
6345 Clouds 2 1016 80 10000 4.47 0 16:24 19.12.2021
6346 Clouds 2 1016 74 10000 2.68 293 15:26 19.12.2021
6347 Clouds 2 1017 74 10000 4.02 293 14:49 19.12.2021
6348 Clouds 2 1018 69 10000 5.14 290 13:41 19.12.2021
6349 Clouds 2 1018 69 10000 4.63 300 13:20 19.12.2021
6350 Clouds 2 1019 70 10000 3.58 293 12:33 19.12.2021
6351 Clouds 2 1020 70 10000 1.34 293 11:40 19.12.2021
6352 Clouds 1 1020 74 10000 4.47 293 10:52 19.12.2021
6353 Clouds 2 1022 71 10000 6.17 290 10:23 19.12.2021
6354 Clouds 0 1021 79 10000 1.54 340 09:20 19.12.2021
6355 Clouds -2 1022 87 10000 3.58 293 07:35 19.12.2021
6356 Clear -1 1025 85 10000 2.24 293 02:30 19.12.2021
6357 Clouds 0 1025 81 10000 6.26 293 00:55 19.12.2021
6358 Clouds 0 1026 80 10000 2.68 293 23:21 18.12.2021
6359 Clouds 0 1026 81 10000 4.02 293 22:29 18.12.2021
6360 Clouds 0 1026 82 10000 2.24 293 21:51 18.12.2021
6361 Clouds 0 1026 85 10000 2.24 293 21:30 18.12.2021
6362 Snow 0 1026 85 10000 2.57 290 20:43 18.12.2021
6363 Snow 1 1026 82 10000 0.89 293 19:50 18.12.2021
6364 Smoke 0 1026 81 10000 1.79 293 18:26 18.12.2021
6365 Clouds 1 1026 79 10000 1.54 170 17:49 18.12.2021
6366 Snow 0 1026 84 8000 1.79 293 16:55 18.12.2021
6367 Clouds 0 1025 82 10000 0.89 293 16:21 18.12.2021
6368 Clouds 2 1025 75 10000 2.68 293 15:25 18.12.2021
6369 Clouds 2 1025 74 8000 2.68 293 14:19 18.12.2021
6370 Clouds 3 1024 72 10000 1.79 113 11:59 18.12.2021
6371 Clouds 3 1025 71 10000 1.79 293 10:42 18.12.2021
6372 Clouds 1 1024 85 10000 2.68 293 09:32 18.12.2021
6373 Snow 1 1025 84 5000 3.6 270 08:36 18.12.2021
6374 Snow 1 1024 83 8000 1.34 293 07:42 18.12.2021
6375 Clouds 0 1022 85 8000 0.45 293 01:47 18.12.2021
6376 Clouds 1 1022 82 10000 3.13 293 23:56 17.12.2021
6377 Clouds 1 1022 85 10000 1.79 293 22:51 17.12.2021
6378 Snow 1 1023 87 5000 4.12 290 21:50 17.12.2021
6379 Snow 1 1023 90 10000 4.63 290 20:48 17.12.2021
6380 Snow 2 1023 86 10000 2.68 293 19:58 17.12.2021
6381 Snow 2 1023 87 10000 3.13 293 18:40 17.12.2021
6382 Snow 2 1022 86 10000 5.81 293 18:18 17.12.2021
6383 Clouds 3 1022 78 10000 2.68 293 16:57 17.12.2021
6384 Clouds 3 1022 77 10000 7.6 293 16:28 17.12.2021
6385 Clouds 4 1022 74 10000 3.13 338 15:51 17.12.2021
6386 Clouds 4 1022 74 10000 7.15 293 14:43 17.12.2021
6387 Clouds 4 1021 78 10000 6.71 293 13:55 17.12.2021
6388 Clouds 4 1022 83 10000 6.26 180 12:37 17.12.2021
6389 Clouds 4 1024 84 10000 6.26 293 10:42 17.12.2021
6390 Clouds 4 1025 85 10000 4.02 293 09:47 17.12.2021
6391 Clouds 3 1025 86 10000 5.81 293 08:43 17.12.2021
6392 Clouds 3 1025 85 10000 5.66 290 08:18 17.12.2021
6393 Rain 2 1025 81 10000 0.89 293 04:57 17.12.2021
6394 Clouds 3 1026 79 10000 6.71 293 00:57 17.12.2021
6395 Clouds 3 1027 78 10000 3.58 293 22:44 16.12.2021
6396 Clouds 3 1027 78 10000 1.79 0 22:22 16.12.2021
6397 Clouds 2 1027 78 10000 4.02 293 21:43 16.12.2021
6398 Clouds 2 1027 77 10000 2.68 293 20:42 16.12.2021
6399 Clouds 2 1027 76 10000 3.13 293 20:21 16.12.2021
6400 Clouds 2 1027 76 10000 3.13 293 20:21 16.12.2021
6401 Clouds 3 1027 75 10000 2.24 293 19:27 16.12.2021
6402 Clouds 2 1027 75 10000 2.24 293 18:31 16.12.2021
6403 Clouds 2 1027 76 10000 6.26 293 17:36 16.12.2021
6404 Clouds 2 1027 76 10000 4.02 293 16:24 16.12.2021
6405 Clouds 2 1027 75 10000 3.58 0 15:26 16.12.2021
6406 Clouds 3 1027 77 10000 2.24 293 13:45 16.12.2021
6407 Clouds 3 1027 74 10000 5.81 203 11:48 16.12.2021
6408 Clouds 3 1027 74 10000 7.2 290 11:18 16.12.2021
6409 Clouds 3 1028 74 10000 3.13 293 10:39 16.12.2021
6410 Clouds 2 1028 76 10000 7.6 293 09:39 16.12.2021
6411 Clouds 0 1028 85 10000 1.34 0 06:23 16.12.2021
6412 Clouds 0 1028 82 10000 2.68 293 03:54 16.12.2021
6413 Clouds 0 1028 87 10000 4.47 293 23:36 15.12.2021
6414 Clouds 0 1028 86 10000 4.92 0 22:49 15.12.2021
6415 Clouds 0 1028 86 10000 3.13 0 22:19 15.12.2021
6416 Clouds 0 1028 86 10000 4.47 293 21:31 15.12.2021
6417 Clouds 0 1028 86 10000 4.47 293 20:36 15.12.2021
6418 Clouds 0 1028 85 10000 1.34 293 19:53 15.12.2021
6419 Clouds 1 1027 82 10000 4.92 0 18:41 15.12.2021
6420 Clouds 1 1027 82 10000 2.68 293 18:18 15.12.2021
6421 Clouds 0 1027 84 10000 1.79 293 17:40 15.12.2021
6422 Clouds 1 1027 79 10000 3.13 293 16:57 15.12.2021
6423 Clouds 2 1027 79 10000 1.79 293 15:47 15.12.2021
6424 Clouds 2 1027 78 10000 2.24 0 15:29 15.12.2021
6425 Clouds 2 1026 79 10000 2.68 293 14:44 15.12.2021
6426 Clouds 2 1027 78 10000 5.36 0 13:27 15.12.2021
6427 Clouds 1 1027 76 10000 3.13 293 10:58 15.12.2021
6428 Clouds 1 1027 78 10000 2.68 0 09:31 15.12.2021
6429 Clouds 1 1026 78 10000 6.69 280 07:47 15.12.2021
6430 Clouds 1 1025 84 10000 2.24 293 02:40 15.12.2021
6431 Clouds 2 1025 85 10000 0.89 293 23:44 14.12.2021
6432 Clouds 2 1026 85 10000 3.13 293 22:49 14.12.2021
6433 Clouds 2 1026 85 10000 3.13 293 22:49 14.12.2021
6434 Clouds 1 1026 85 10000 3.13 293 22:30 14.12.2021
6435 Clouds 2 1025 85 10000 2.68 293 21:24 14.12.2021
6436 Clouds 2 1025 85 10000 2.68 293 19:44 14.12.2021
6437 Clouds 2 1025 85 10000 2.68 293 19:44 14.12.2021
6438 Clouds 1 1024 88 10000 2.68 293 19:20 14.12.2021
6439 Clouds 1 1024 91 10000 3.13 293 18:34 14.12.2021
6440 Clouds 2 1024 85 10000 2.06 280 17:34 14.12.2021
6441 Clouds 2 1024 85 10000 1.34 293 16:43 14.12.2021
6442 Clouds 2 1024 85 10000 0.89 293 15:41 14.12.2021
6443 Clouds 2 1023 86 8000 4.63 260 13:32 14.12.2021
6444 Clouds 2 1024 87 7000 4.63 270 12:27 14.12.2021
6445 Clouds 2 1024 87 8000 4.12 280 11:24 14.12.2021
6446 Snow 1 1025 88 3200 4.12 280 10:25 14.12.2021
6447 Snow 1 1025 88 1900 3.6 280 09:53 14.12.2021
6448 Snow 1 1024 88 2400 2.24 293 08:28 14.12.2021
6449 Snow 1 1024 88 8000 1.79 293 07:59 14.12.2021
6450 Snow 1 1023 87 8000 1.79 293 05:38 14.12.2021
6451 Snow 1 1023 85 10000 3.13 293 23:39 13.12.2021
6452 Rain 1 1023 83 10000 1.79 293 21:54 13.12.2021
6453 Rain 1 1023 83 10000 1.79 293 21:34 13.12.2021
6454 Rain 1 1023 83 10000 2.24 270 20:45 13.12.2021
6455 Rain 1 1022 83 10000 4.92 293 19:57 13.12.2021
6456 Rain 1 1022 83 10000 3.13 293 19:20 13.12.2021
6457 Rain 1 1022 81 10000 4.63 280 17:26 13.12.2021
6458 Rain 1 1021 82 10000 2.68 293 16:20 13.12.2021
6459 Rain 1 1021 84 10000 1.34 293 15:38 13.12.2021
6460 Clouds 2 1020 82 10000 3.13 293 13:49 13.12.2021
6461 Rain 2 1020 83 10000 2.24 293 13:18 13.12.2021
6462 Rain 2 1020 80 10000 2.24 293 12:22 13.12.2021
6463 Rain 1 1021 83 10000 3.58 293 11:36 13.12.2021
6464 Rain 1 1021 84 10000 3.13 293 10:53 13.12.2021
6465 Rain 1 1021 84 10000 2.68 293 10:21 13.12.2021
6466 Snow 0 1020 87 5000 5.36 293 08:28 13.12.2021
6467 Snow 0 1019 84 10000 5.36 293 05:37 13.12.2021
6468 Snow 1 1019 80 10000 4.47 293 03:31 13.12.2021
6469 Snow 1 1019 84 8000 2.68 293 23:27 12.12.2021
6470 Clouds 1 1019 79 10000 8.94 293 21:50 12.12.2021
6471 Clouds 1 1018 81 10000 3.13 293 20:28 12.12.2021
6472 Rain 1 1017 81 10000 25.48 338 18:43 12.12.2021
6473 Rain 1 1017 80 10000 1.79 293 17:46 12.12.2021
6474 Rain 2 1016 83 8000 4.02 293 16:28 12.12.2021
6475 Clouds 2 1016 83 8000 4.47 293 15:51 12.12.2021
6476 Clouds 2 1015 84 6000 2.24 293 15:26 12.12.2021
6477 Clouds 2 1015 88 4000 4.63 270 14:37 12.12.2021
6478 Clouds 2 1014 85 8000 3.58 0 13:34 12.12.2021
6479 Clouds 2 1014 86 10000 0.89 293 12:32 12.12.2021
6480 Clouds 3 1014 85 10000 0.45 293 11:44 12.12.2021
6481 Clouds 3 1014 86 10000 2.68 293 11:24 12.12.2021
6482 Clouds 3 1013 83 10000 4.92 270 10:28 12.12.2021
6483 Clouds 3 1012 86 10000 2.24 0 09:38 12.12.2021
6484 Clouds 3 1011 84 10000 3.58 293 08:33 12.12.2021
6485 Clouds 4 1008 88 10000 2.68 293 06:20 12.12.2021
6486 Clouds 5 1006 90 10000 3.09 330 04:56 12.12.2021
6487 Clouds 6 1005 87 10000 4.02 293 03:57 12.12.2021
6488 Clouds 8 1003 93 7000 2.24 293 23:47 11.12.2021
6489 Clouds 9 1002 93 8000 25.48 338 22:23 11.12.2021
6490 Rain 9 1002 92 10000 6.69 110 21:52 11.12.2021
6491 Drizzle 9 1003 89 10000 2.68 90 20:51 11.12.2021
6492 Clouds 9 1004 89 10000 4.63 120 19:27 11.12.2021
6493 Clouds 9 1004 88 10000 1.34 90 18:52 11.12.2021
6494 Clouds 8 1004 90 10000 1.03 0 18:25 11.12.2021
6495 Clouds 8 1005 86 10000 1.34 90 17:21 11.12.2021
6496 Clouds 9 1005 83 10000 3.09 130 15:54 11.12.2021
6497 Clouds 9 1005 82 10000 3.09 120 15:28 11.12.2021
6498 Clouds 8 1006 73 10000 2.24 90 12:57 11.12.2021
6499 Clouds 6 1005 70 10000 1.54 260 11:25 11.12.2021
6500 Clouds 5 1006 81 10000 2.06 110 09:46 11.12.2021
6501 Clouds 5 1008 86 10000 1.54 300 08:28 11.12.2021
6502 Clear 2 1009 84 10000 3.6 110 02:29 11.12.2021
6503 Clouds 3 1007 87 10000 3.09 50 00:36 11.12.2021
6504 Clouds 3 1009 90 8000 1.34 0 23:21 10.12.2021
6505 Clouds 4 1006 87 8000 1.54 220 21:57 10.12.2021
6506 Clouds 3 1008 91 7000 1.54 0 21:28 10.12.2021
6507 Clouds 5 1007 91 7000 3.09 350 19:21 10.12.2021
6508 Clouds 5 1007 89 8000 3.09 110 18:19 10.12.2021
6509 Clouds 4 1006 88 10000 4.12 240 16:56 10.12.2021
6510 Clouds 5 1006 87 10000 1.54 0 16:28 10.12.2021
6511 Clouds 5 1005 88 10000 3.09 40 15:41 10.12.2021
6512 Clouds 6 1006 86 7000 1.34 293 15:21 10.12.2021
6513 Mist 4 1004 93 5000 2.57 350 13:52 10.12.2021
6514 Mist 7 1005 85 2700 1.54 50 13:26 10.12.2021
6515 Mist 5 1005 87 2300 1.03 0 12:39 10.12.2021
6516 Mist 4 1005 93 2500 1.54 350 11:28 10.12.2021
6517 Mist 5 1008 91 4500 2.24 293 10:26 10.12.2021
6518 Mist 4 1008 94 1300 1.54 90 08:57 10.12.2021
6519 Mist 3 1008 94 1100 1.54 90 06:50 10.12.2021
6520 Rain 0 1006 100 5000 1.03 40 02:48 10.12.2021
6521 Rain 0 1006 100 5000 1.03 40 02:48 10.12.2021
6522 Clouds 1 1009 92 8000 3.6 310 00:32 10.12.2021
6523 Mist 1 1009 92 5000 1.54 200 23:22 09.12.2021
6524 Clouds 2 1009 90 10000 3.09 150 22:26 09.12.2021
6525 Clouds 2 1009 87 10000 2.24 270 21:59 09.12.2021
6526 Mist 2 1012 87 2600 1.03 0 20:44 09.12.2021
6527 Mist 2 1010 89 7000 25.48 338 20:21 09.12.2021
6528 Clouds 3 1010 86 8000 1.03 0 19:21 09.12.2021
6529 Mist 2 1010 88 5000 4.12 100 18:46 09.12.2021
6530 Mist 1 1011 87 5000 2.06 280 17:52 09.12.2021
6531 Mist 1 1011 87 5000 3.13 338 17:26 09.12.2021
6532 Mist 2 1011 86 5000 2.06 320 16:54 09.12.2021
6533 Mist 2 1012 78 5000 2.06 0 15:34 09.12.2021
6534 Mist 2 1012 83 4000 1.03 0 14:46 09.12.2021
6535 Mist 5 1014 74 1900 1.54 320 13:20 09.12.2021
6536 Mist 5 1014 71 1100 0.51 0 12:37 09.12.2021
6537 Fog 4 1015 75 550 1.54 110 11:24 09.12.2021
6538 Mist 1 1017 84 1500 0.51 0 09:21 09.12.2021
6539 Mist -2 1016 93 5000 1.54 100 06:44 09.12.2021
6540 Mist -4 1014 93 4000 1.54 350 03:40 09.12.2021
6541 Fog -6 1014 92 200 1.03 0 23:43 08.12.2021
6542 Fog -5 1014 92 800 1.54 60 23:21 08.12.2021
6543 Fog -5 1014 92 1000 0 0 22:47 08.12.2021
6544 Fog -4 1014 96 800 2.06 110 21:40 08.12.2021
6545 Fog -4 1014 92 800 2.57 110 20:59 08.12.2021
6546 Mist -3 1012 93 4000 1.03 0 19:58 08.12.2021
6547 Mist -2 1012 86 5000 2.57 270 19:33 08.12.2021
6548 Clouds -3 1012 100 7000 2.57 260 18:44 08.12.2021
6549 Clouds -2 1011 86 8000 2.06 250 17:36 08.12.2021
6550 Clouds -2 1011 86 8000 2.06 250 17:36 08.12.2021
6551 Clouds -1 1013 86 10000 3.6 280 15:49 08.12.2021
6552 Clouds 1 1013 81 10000 3.13 338 15:28 08.12.2021
6553 Clouds 1 1012 80 10000 6.69 300 14:30 08.12.2021
6554 Clouds 2 1012 80 10000 7.2 280 10:55 08.12.2021
6555 Clouds 1 1012 83 10000 7.72 280 10:31 08.12.2021
6556 Clouds 1 1012 83 10000 7.72 280 10:31 08.12.2021
6557 Clouds 0 1012 87 10000 5.66 290 08:55 08.12.2021
6558 Clouds -1 1009 93 10000 7.2 280 07:25 08.12.2021
6559 Snow 0 1009 89 7000 6.17 280 02:30 08.12.2021
6560 Snow 0 1008 90 2900 6.69 280 23:33 07.12.2021
6561 Snow -1 1006 94 1500 6.69 280 21:43 07.12.2021
6562 Snow -1 1006 94 1400 6.69 280 21:23 07.12.2021
6563 Snow 0 1006 89 2000 7.72 280 20:20 07.12.2021
6564 Snow 0 1006 89 3000 7.72 280 18:43 07.12.2021
6565 Snow 0 1005 88 4100 7.72 280 17:48 07.12.2021
6566 Snow 0 1005 90 2300 7.72 280 17:19 07.12.2021
6567 Rain 1 1005 88 2200 7.72 280 16:28 07.12.2021
6568 Snow 1 1005 87 7000 8.23 280 15:23 07.12.2021
6569 Snow 2 1004 87 8000 7.72 280 13:53 07.12.2021
6570 Snow 2 1004 89 3300 7.2 280 12:49 07.12.2021
6571 Snow 1 1004 91 1200 3.13 338 11:25 07.12.2021
6572 Clouds 2 1007 86 1500 6.69 280 09:55 07.12.2021
6573 Clouds 2 1004 88 8000 6.69 280 07:55 07.12.2021
6574 Clouds 3 1004 88 10000 2.24 0 05:55 07.12.2021
6575 Clouds 3 1004 89 10000 0.89 293 05:33 07.12.2021
6576 Clouds 6 1005 91 7000 0.89 0 23:45 06.12.2021
6577 Rain 6 1006 91 7000 3.09 280 22:44 06.12.2021
6578 Rain 7 1006 91 6000 0.45 0 22:22 06.12.2021
6579 Mist 7 1006 94 5000 3.6 300 21:42 06.12.2021
6580 Mist 7 1006 96 1400 2.57 160 20:33 06.12.2021
6581 Mist 7 1006 96 3700 1.54 310 19:27 06.12.2021
6582 Clouds 7 1006 96 1600 2.06 290 18:57 06.12.2021
6583 Clouds 8 1006 89 7000 1.03 0 17:56 06.12.2021
6584 Rain 8 1006 88 7000 1.03 0 17:36 06.12.2021
6585 Clouds 9 1006 79 10000 0.89 113 16:21 06.12.2021
6586 Clouds 9 1006 78 10000 0.89 113 14:54 06.12.2021
6587 Clouds 9 1006 75 10000 2.06 130 13:45 06.12.2021
6588 Clouds 9 1006 75 10000 2.06 130 13:45 06.12.2021
6589 Clouds 9 1006 77 10000 6.17 100 12:39 06.12.2021
6590 Clouds 9 1007 75 10000 0.45 113 10:32 06.12.2021
6591 Clouds 8 1008 82 10000 0.89 90 08:35 06.12.2021
6592 Clouds 4 1008 87 10000 3.09 90 04:28 06.12.2021
6593 Clouds 3 1009 92 10000 0.89 293 22:30 05.12.2021
6594 Clouds 5 1009 85 10000 5.66 80 21:26 05.12.2021
6595 Clouds 5 1009 86 10000 5.14 90 20:59 05.12.2021
6596 Clouds 5 1009 85 10000 6.17 100 20:18 05.12.2021
6597 Clear 5 1010 84 10000 7.72 90 19:33 05.12.2021
6598 Clear 5 1010 86 10000 6.69 100 18:39 05.12.2021
6599 Clear 5 1010 85 10000 0.45 293 18:19 05.12.2021
6600 Clear 6 1009 82 10000 7.2 90 17:45 05.12.2021
6601 Clear 7 1009 78 10000 5.66 90 16:41 05.12.2021
6602 Clear 6 1009 82 10000 5.66 90 16:22 05.12.2021
6603 Clear 9 1009 71 10000 4.12 90 14:48 05.12.2021
6604 Clear 9 1008 70 10000 1.34 180 14:30 05.12.2021
6605 Clouds 10 1009 68 10000 1.34 23 13:38 05.12.2021
6606 Clouds 9 1009 70 10000 2.57 110 12:47 05.12.2021
6607 Clouds 9 1009 70 10000 1.54 140 12:29 05.12.2021
6608 Clouds 8 1010 74 10000 1.54 160 11:47 05.12.2021
6609 Clouds 8 1011 76 8000 0.89 113 10:44 05.12.2021
6610 Clouds 6 1012 83 6000 0.89 113 09:51 05.12.2021
6611 Mist 4 1012 93 2400 2.57 150 07:33 05.12.2021
6612 Mist 4 1013 84 1500 0 0 02:25 05.12.2021
6613 Clouds 4 1012 87 8000 2.06 140 23:25 04.12.2021
6614 Clouds 5 1012 89 8000 1.34 113 21:52 04.12.2021
6615 Clouds 4 1012 89 8000 1.79 90 20:47 04.12.2021
6616 Clouds 4 1012 89 10000 2.57 110 19:54 04.12.2021
6617 Clouds 4 1012 89 8000 1.79 113 19:30 04.12.2021
6618 Clouds 5 1012 83 10000 1.54 0 17:58 04.12.2021
6619 Clouds 5 1012 83 10000 1.54 0 17:36 04.12.2021
6620 Clouds 5 1012 83 10000 2.06 160 16:47 04.12.2021
6621 Clouds 5 1012 83 10000 2.06 160 16:47 04.12.2021
6622 Clouds 5 1012 82 10000 1.03 120 16:28 04.12.2021
6623 Clouds 5 1012 80 10000 2.57 300 13:39 04.12.2021
6624 Clouds 5 1012 80 10000 4.12 290 11:44 04.12.2021
6625 Clouds 5 1012 83 10000 4.12 310 11:20 04.12.2021
6626 Clouds 5 1013 76 10000 2.57 260 10:24 04.12.2021
6627 Clouds 3 1013 82 10000 1.79 315 08:42 04.12.2021
6628 Clouds 2 1012 86 10000 2.68 293 05:30 04.12.2021
6629 Clouds 4 1012 78 10000 0.45 0 04:40 04.12.2021
6630 Clouds 4 1013 86 10000 0.89 293 23:49 03.12.2021
6631 Clouds 4 1013 88 10000 3.6 280 22:55 03.12.2021
6632 Clouds 4 1013 88 10000 3.13 293 21:58 03.12.2021
6633 Clouds 4 1013 88 10000 0.89 315 21:24 03.12.2021
6634 Clouds 4 1012 85 10000 1.79 309 20:43 03.12.2021
6635 Clouds 6 1012 75 10000 3.13 293 19:29 03.12.2021
6636 Clouds 6 1010 79 10000 6.69 300 18:24 03.12.2021
6637 Clouds 8 1007 76 10000 5.66 340 17:33 03.12.2021
6638 Clouds 14 1006 44 10000 10.29 210 13:45 03.12.2021
6639 Clouds 14 1007 44 10000 9.77 200 12:51 03.12.2021
6640 Clouds 14 1007 47 10000 8.75 200 11:24 03.12.2021
6641 Clouds 14 1007 51 10000 9.26 200 09:44 03.12.2021
6642 Clouds 13 1006 50 10000 10.8 200 08:21 03.12.2021
6643 Clouds 9 1009 92 10000 1.13 144 07:23 03.12.2021
6644 Clouds 4 1005 75 10000 3.09 0 01:43 03.12.2021
6645 Clouds 6 1006 65 10000 2.06 230 00:34 03.12.2021
6646 Clouds 4 1007 75 10000 4.12 50 23:40 02.12.2021
6647 Clouds 3 1007 75 10000 3.09 80 21:42 02.12.2021
6648 Clouds 4 1008 70 7000 1.54 0 20:49 02.12.2021
6649 Clouds 3 1010 83 8000 0.89 113 20:29 02.12.2021
6650 Clouds 3 1008 81 6000 1.54 0 19:23 02.12.2021
6651 Clouds 3 1010 79 10000 1.03 0 17:36 02.12.2021
6652 Clear 7 1008 65 10000 1.54 80 15:42 02.12.2021
6653 Clear 7 1010 64 10000 1.79 0 14:57 02.12.2021
6654 Clear 8 1011 58 10000 1.54 130 13:54 02.12.2021
6655 Clear 6 1009 61 10000 1.54 90 12:52 02.12.2021
6656 Clear 4 1010 75 10000 1.54 80 11:53 02.12.2021
6657 Clouds -1 1012 86 8000 1.54 0 09:29 02.12.2021
6658 Clouds 0 1014 87 8000 1.03 0 08:27 02.12.2021
6659 Mist -1 1015 89 5000 0.51 0 03:33 02.12.2021
6660 Clouds -2 1014 95 6000 1.54 120 00:51 02.12.2021
6661 Mist -1 1014 91 4700 2.57 190 22:41 01.12.2021
6662 Clouds -1 1015 90 6000 2.06 150 22:23 01.12.2021
6663 Clouds 0 1015 86 8000 1.54 310 20:35 01.12.2021
6664 Clear 1 1015 82 9000 1.03 0 19:51 01.12.2021
6665 Clear 2 1015 80 10000 2.06 90 18:57 01.12.2021
6666 Clear 1 1013 86 10000 1.03 0 17:42 01.12.2021
6667 Clear 5 1013 65 10000 2.06 350 16:38 01.12.2021
6668 Clear 5 1012 65 10000 4.12 320 14:49 01.12.2021
6669